<?xml version='1.0' encoding='UTF-8'?><gpx version="1.1" creator="JPX - https://github.com/jenetics/jpx" xmlns="http://www.topografix.com/GPX/1/1"><trk><trkseg><trkpt lat="41.50304899078822" lon="23.823170656211143"><ele>514.0</ele><time>2026-05-03T14:56:14.001Z</time></trkpt><trkpt lat="41.50300229684764" lon="23.823112343008866"><ele>514.0</ele><time>2026-05-03T14:56:20.001Z</time></trkpt><trkpt lat="41.502921570140394" lon="23.82305155817632"><ele>514.0</ele><time>2026-05-03T14:56:27Z</time></trkpt><trkpt lat="41.502852172852776" lon="23.823021226172724"><ele>514.0</ele><time>2026-05-03T14:56:29Z</time></trkpt><trkpt lat="41.502911589332484" lon="23.8231738133785"><ele>514.0</ele><time>2026-05-03T14:56:30Z</time></trkpt><trkpt lat="41.502984325939195" lon="23.823072255976097"><ele>514.0</ele><time>2026-05-03T14:56:37Z</time></trkpt><trkpt lat="41.503039632068536" lon="23.8229664085238"><ele>514.0</ele><time>2026-05-03T14:56:39Z</time></trkpt><trkpt lat="41.503045059838335" lon="23.822849507386223"><ele>514.0</ele><time>2026-05-03T14:56:41Z</time></trkpt><trkpt lat="41.50274864258064" lon="23.823024795408188"><ele>514.5</ele><time>2026-05-03T14:56:42.061Z</time></trkpt><trkpt lat="41.50264034266296" lon="23.82305692404301"><ele>515.0</ele><time>2026-05-03T14:56:43.042Z</time></trkpt><trkpt lat="41.50251984644451" lon="23.823063435247377"><ele>515.5</ele><time>2026-05-03T14:56:45.043Z</time></trkpt><trkpt lat="41.50246445992332" lon="23.822956616054384"><ele>516.0</ele><time>2026-05-03T14:56:46.041Z</time></trkpt><trkpt lat="41.50264322903051" lon="23.82273271025099"><ele>516.0</ele><time>2026-05-03T14:56:53Z</time></trkpt><trkpt lat="41.502755067167904" lon="23.82302239866117"><ele>516.0</ele><time>2026-05-03T14:56:58Z</time></trkpt><trkpt lat="41.50285879908229" lon="23.823058290297816"><ele>516.0</ele><time>2026-05-03T14:57:03Z</time></trkpt><trkpt lat="41.5029061531739" lon="23.823137953128604"><ele>516.0</ele><time>2026-05-03T14:57:11Z</time></trkpt><trkpt lat="41.50290950571807" lon="23.823224951056687"><ele>516.0</ele><time>2026-05-03T14:57:16Z</time></trkpt><trkpt lat="41.502934412105176" lon="23.8235318823192"><ele>516.0</ele><time>2026-05-03T14:57:17Z</time></trkpt><trkpt lat="41.502946249340894" lon="23.823614485598863"><ele>516.0</ele><time>2026-05-03T14:57:19Z</time></trkpt><trkpt lat="41.5029762220918" lon="23.823738774043164"><ele>516.0</ele><time>2026-05-03T14:57:21Z</time></trkpt><trkpt lat="41.50296424097265" lon="23.823563417812466"><ele>516.0</ele><time>2026-05-03T14:57:25Z</time></trkpt><trkpt lat="41.50305932874997" lon="23.8234060853942"><ele>516.0</ele><time>2026-05-03T14:57:26Z</time></trkpt><trkpt lat="41.50304577414109" lon="23.823676726266722"><ele>516.0</ele><time>2026-05-03T14:57:28Z</time></trkpt><trkpt lat="41.503052262303505" lon="23.82378131023476"><ele>516.0</ele><time>2026-05-03T14:57:31.061Z</time></trkpt><trkpt lat="41.50309145934822" lon="23.823850273410265"><ele>515.0</ele><time>2026-05-03T14:57:32.06Z</time></trkpt><trkpt lat="41.503129155347374" lon="23.82336312172992"><ele>514.0</ele><time>2026-05-03T14:57:34.061Z</time></trkpt><trkpt lat="41.50306929348226" lon="23.82319152063667"><ele>514.0</ele><time>2026-05-03T14:57:45.019Z</time></trkpt><trkpt lat="41.502995634228036" lon="23.82314778701066"><ele>514.0</ele><time>2026-05-03T15:00:57Z</time></trkpt><trkpt lat="41.502929003733634" lon="23.823145493154108"><ele>514.0</ele><time>2026-05-03T15:01:14Z</time></trkpt><trkpt lat="41.50287973307626" lon="23.823078123069106"><ele>514.0</ele><time>2026-05-03T15:01:29Z</time></trkpt><trkpt lat="41.502837157549784" lon="23.823004250733007"><ele>514.0</ele><time>2026-05-03T15:01:44Z</time></trkpt><trkpt lat="41.50276044339025" lon="23.822942854126545"><ele>514.0</ele><time>2026-05-03T15:02:06Z</time></trkpt><trkpt lat="41.50264273141018" lon="23.82306261227594"><ele>514.5</ele><time>2026-05-03T15:02:08Z</time></trkpt><trkpt lat="41.50257699428031" lon="23.823122708363147"><ele>515.0</ele><time>2026-05-03T15:02:09Z</time></trkpt><trkpt lat="41.5024659880225" lon="23.82321741264378"><ele>515.5</ele><time>2026-05-03T15:02:11Z</time></trkpt><trkpt lat="41.50236336837762" lon="23.82329809179785"><ele>516.0</ele><time>2026-05-03T15:02:13Z</time></trkpt><trkpt lat="41.50225694825762" lon="23.823381901785776"><ele>516.0</ele><time>2026-05-03T15:02:15Z</time></trkpt><trkpt lat="41.50216547911112" lon="23.823461234200074"><ele>516.0</ele><time>2026-05-03T15:02:17Z</time></trkpt><trkpt lat="41.50208826838023" lon="23.823584972936967"><ele>516.0</ele><time>2026-05-03T15:02:19Z</time></trkpt><trkpt lat="41.50205136011961" lon="23.823677035354244"><ele>516.0</ele><time>2026-05-03T15:02:20Z</time></trkpt><trkpt lat="41.50199975934164" lon="23.82378230885767"><ele>516.0</ele><time>2026-05-03T15:02:21Z</time></trkpt><trkpt lat="41.50195696361034" lon="23.823895449782725"><ele>518.8</ele><time>2026-05-03T15:02:22Z</time></trkpt><trkpt lat="41.5019176927056" lon="23.824009220242882"><ele>521.6</ele><time>2026-05-03T15:02:23Z</time></trkpt><trkpt lat="41.50186197620935" lon="23.824100791436056"><ele>524.4</ele><time>2026-05-03T15:02:24Z</time></trkpt><trkpt lat="41.50183514648046" lon="23.824183927893912"><ele>527.2</ele><time>2026-05-03T15:02:25Z</time></trkpt><trkpt lat="41.50175570642954" lon="23.82429448778689"><ele>530.0</ele><time>2026-05-03T15:02:27Z</time></trkpt><trkpt lat="41.50159256943306" lon="23.824295609505135"><ele>529.4</ele><time>2026-05-03T15:02:29Z</time></trkpt><trkpt lat="41.50147960638832" lon="23.8243763021214"><ele>528.8</ele><time>2026-05-03T15:02:31Z</time></trkpt><trkpt lat="41.50141668013202" lon="23.82442964621414"><ele>528.2</ele><time>2026-05-03T15:02:32Z</time></trkpt><trkpt lat="41.50131554001171" lon="23.8244646402036"><ele>527.6</ele><time>2026-05-03T15:02:34Z</time></trkpt><trkpt lat="41.50121668101099" lon="23.824516478497852"><ele>527.0</ele><time>2026-05-03T15:02:36Z</time></trkpt><trkpt lat="41.50116306898294" lon="23.82458382094153"><ele>528.2</ele><time>2026-05-03T15:02:38Z</time></trkpt><trkpt lat="41.501109515123396" lon="23.824660461810318"><ele>529.4000000000001</ele><time>2026-05-03T15:02:40Z</time></trkpt><trkpt lat="41.50104263889212" lon="23.82475578227492"><ele>530.5999999999999</ele><time>2026-05-03T15:02:42Z</time></trkpt><trkpt lat="41.50097334323594" lon="23.82487630313303"><ele>531.8</ele><time>2026-05-03T15:02:44Z</time></trkpt><trkpt lat="41.50092576919361" lon="23.824988481444066"><ele>533.0</ele><time>2026-05-03T15:02:46Z</time></trkpt><trkpt lat="41.500903830838666" lon="23.8250701846243"><ele>532.4</ele><time>2026-05-03T15:02:48Z</time></trkpt><trkpt lat="41.50095713473416" lon="23.82520232479213"><ele>531.8</ele><time>2026-05-03T15:02:51Z</time></trkpt><trkpt lat="41.50099371541554" lon="23.825301541309184"><ele>531.2</ele><time>2026-05-03T15:02:53Z</time></trkpt><trkpt lat="41.500992175079496" lon="23.825419816880267"><ele>530.6</ele><time>2026-05-03T15:02:55Z</time></trkpt><trkpt lat="41.50097665571929" lon="23.82557372674599"><ele>530.0</ele><time>2026-05-03T15:02:57Z</time></trkpt><trkpt lat="41.500964636590915" lon="23.825690996505298"><ele>530.0</ele><time>2026-05-03T15:02:59Z</time></trkpt><trkpt lat="41.500961462481364" lon="23.825785474819718"><ele>530.0</ele><time>2026-05-03T15:03:01Z</time></trkpt><trkpt lat="41.500978369329786" lon="23.825909685345724"><ele>530.0</ele><time>2026-05-03T15:03:03Z</time></trkpt><trkpt lat="41.500979378610865" lon="23.826035316645115"><ele>530.0</ele><time>2026-05-03T15:03:05Z</time></trkpt><trkpt lat="41.500914212400225" lon="23.826175307119605"><ele>530.0</ele><time>2026-05-03T15:03:07Z</time></trkpt><trkpt lat="41.50081610155169" lon="23.826224274718864"><ele>529.0</ele><time>2026-05-03T15:03:09Z</time></trkpt><trkpt lat="41.50073111164831" lon="23.826215261359025"><ele>528.0</ele><time>2026-05-03T15:03:11Z</time></trkpt><trkpt lat="41.500630112901526" lon="23.82621724393954"><ele>527.0</ele><time>2026-05-03T15:03:13Z</time></trkpt><trkpt lat="41.500520882049244" lon="23.826259853991505"><ele>526.0</ele><time>2026-05-03T15:03:15Z</time></trkpt><trkpt lat="41.50041596044506" lon="23.826255245929357"><ele>525.0</ele><time>2026-05-03T15:03:17Z</time></trkpt><trkpt lat="41.50028279709132" lon="23.826180411435754"><ele>525.0</ele><time>2026-05-03T15:03:19Z</time></trkpt><trkpt lat="41.50022205323391" lon="23.82613579649529"><ele>525.0</ele><time>2026-05-03T15:03:20Z</time></trkpt><trkpt lat="41.50015022277119" lon="23.826084908275398"><ele>525.0</ele><time>2026-05-03T15:03:22Z</time></trkpt><trkpt lat="41.500078170495826" lon="23.826043569037218"><ele>525.0</ele><time>2026-05-03T15:03:24Z</time></trkpt><trkpt lat="41.49999238291286" lon="23.825957140018197"><ele>525.0</ele><time>2026-05-03T15:03:26Z</time></trkpt><trkpt lat="41.49992700198906" lon="23.825810731475872"><ele>526.4</ele><time>2026-05-03T15:03:28Z</time></trkpt><trkpt lat="41.49988230201585" lon="23.825713396707"><ele>527.8</ele><time>2026-05-03T15:03:29Z</time></trkpt><trkpt lat="41.49983925936577" lon="23.825637054605735"><ele>529.2</ele><time>2026-05-03T15:03:30Z</time></trkpt><trkpt lat="41.49979732616757" lon="23.825555762240384"><ele>530.6</ele><time>2026-05-03T15:03:31Z</time></trkpt><trkpt lat="41.499742509837695" lon="23.825420762380688"><ele>532.0</ele><time>2026-05-03T15:03:33Z</time></trkpt><trkpt lat="41.499702601416494" lon="23.82528332731517"><ele>532.0</ele><time>2026-05-03T15:03:35Z</time></trkpt><trkpt lat="41.49967237837115" lon="23.825204928838783"><ele>532.0</ele><time>2026-05-03T15:03:36Z</time></trkpt><trkpt lat="41.49959789377634" lon="23.825082588536386"><ele>532.0</ele><time>2026-05-03T15:03:38Z</time></trkpt><trkpt lat="41.49952679933653" lon="23.82496471771568"><ele>532.0</ele><time>2026-05-03T15:03:40Z</time></trkpt><trkpt lat="41.499435261293925" lon="23.824833303486162"><ele>532.0</ele><time>2026-05-03T15:03:42Z</time></trkpt><trkpt lat="41.49937336235052" lon="23.82474868821425"><ele>532.1666666666667</ele><time>2026-05-03T15:03:43Z</time></trkpt><trkpt lat="41.499325180679996" lon="23.82469188120321"><ele>532.3333333333334</ele><time>2026-05-03T15:03:44Z</time></trkpt><trkpt lat="41.499280114965" lon="23.824618486193824"><ele>532.5</ele><time>2026-05-03T15:03:45Z</time></trkpt><trkpt lat="41.49919189463236" lon="23.824497992464387"><ele>532.6666666666666</ele><time>2026-05-03T15:03:47Z</time></trkpt><trkpt lat="41.49913349751734" lon="23.824428736160044"><ele>532.8333333333333</ele><time>2026-05-03T15:03:48Z</time></trkpt><trkpt lat="41.49908096456028" lon="23.82434977284408"><ele>533.0</ele><time>2026-05-03T15:03:49Z</time></trkpt><trkpt lat="41.49902850296206" lon="23.824263479464122"><ele>534.1666666666666</ele><time>2026-05-03T15:03:50Z</time></trkpt><trkpt lat="41.49897688639202" lon="23.824201248961828"><ele>535.3333333333333</ele><time>2026-05-03T15:03:51Z</time></trkpt><trkpt lat="41.498929261528446" lon="23.82413276492578"><ele>536.5</ele><time>2026-05-03T15:03:52Z</time></trkpt><trkpt lat="41.49889149740434" lon="23.824043478967308"><ele>537.6666666666666</ele><time>2026-05-03T15:03:53Z</time></trkpt><trkpt lat="41.498863213682725" lon="23.82392971299634"><ele>538.8333333333334</ele><time>2026-05-03T15:03:54Z</time></trkpt><trkpt lat="41.49883040489133" lon="23.823822130450026"><ele>540.0</ele><time>2026-05-03T15:03:55Z</time></trkpt><trkpt lat="41.49878610877603" lon="23.823759622180436"><ele>539.3333333333334</ele><time>2026-05-03T15:03:56Z</time></trkpt><trkpt lat="41.49873746001625" lon="23.82368711947774"><ele>538.6666666666666</ele><time>2026-05-03T15:03:57Z</time></trkpt><trkpt lat="41.498687034443726" lon="23.82362916016905"><ele>538.0</ele><time>2026-05-03T15:03:58Z</time></trkpt><trkpt lat="41.49861720866636" lon="23.823614495536642"><ele>537.3333333333333</ele><time>2026-05-03T15:03:59Z</time></trkpt><trkpt lat="41.49852973566166" lon="23.823597600561527"><ele>536.6666666666666</ele><time>2026-05-03T15:04:00Z</time></trkpt><trkpt lat="41.49843798781421" lon="23.823554863303187"><ele>536.0</ele><time>2026-05-03T15:04:01Z</time></trkpt><trkpt lat="41.49836135373873" lon="23.82350917098915"><ele>537.6</ele><time>2026-05-03T15:04:02Z</time></trkpt><trkpt lat="41.49826326539341" lon="23.823441640105532"><ele>539.2</ele><time>2026-05-03T15:04:03Z</time></trkpt><trkpt lat="41.49816825854859" lon="23.82338035068473"><ele>540.8</ele><time>2026-05-03T15:04:04Z</time></trkpt><trkpt lat="41.49809406957244" lon="23.823348028761473"><ele>542.4</ele><time>2026-05-03T15:04:05Z</time></trkpt><trkpt lat="41.497999950083994" lon="23.82332291912133"><ele>544.0</ele><time>2026-05-03T15:04:06Z</time></trkpt><trkpt lat="41.49791237372421" lon="23.823297981104968"><ele>544.0</ele><time>2026-05-03T15:04:07Z</time></trkpt><trkpt lat="41.49784402367922" lon="23.823280615785173"><ele>544.0</ele><time>2026-05-03T15:04:08Z</time></trkpt><trkpt lat="41.49773380300468" lon="23.823250349124958"><ele>544.0</ele><time>2026-05-03T15:04:10Z</time></trkpt><trkpt lat="41.497636133064816" lon="23.823147439708247"><ele>544.0</ele><time>2026-05-03T15:04:12Z</time></trkpt><trkpt lat="41.497555020283876" lon="23.823078044936082"><ele>544.0</ele><time>2026-05-03T15:04:13Z</time></trkpt><trkpt lat="41.49748839934792" lon="23.823042674451496"><ele>544.0</ele><time>2026-05-03T15:04:14Z</time></trkpt><trkpt lat="41.49742114884135" lon="23.823012974399713"><ele>544.0</ele><time>2026-05-03T15:04:15Z</time></trkpt><trkpt lat="41.49734153726917" lon="23.822991838615007"><ele>544.0</ele><time>2026-05-03T15:04:16Z</time></trkpt><trkpt lat="41.497265149496826" lon="23.822965216611113"><ele>544.0</ele><time>2026-05-03T15:04:17Z</time></trkpt><trkpt lat="41.49718801312052" lon="23.82295104401321"><ele>544.0</ele><time>2026-05-03T15:04:18Z</time></trkpt><trkpt lat="41.49710405019977" lon="23.822921361714954"><ele>544.0</ele><time>2026-05-03T15:04:19Z</time></trkpt><trkpt lat="41.497026065642075" lon="23.82291031338347"><ele>544.6666666666667</ele><time>2026-05-03T15:04:20Z</time></trkpt><trkpt lat="41.49692662573439" lon="23.82291937503357"><ele>545.3333333333334</ele><time>2026-05-03T15:04:22Z</time></trkpt><trkpt lat="41.49687654289617" lon="23.822863847521514"><ele>546.0</ele><time>2026-05-03T15:04:26Z</time></trkpt><trkpt lat="41.49694104518181" lon="23.822843669275912"><ele>546.6666666666666</ele><time>2026-05-03T15:04:29Z</time></trkpt><trkpt lat="41.49695431220655" lon="23.822938222714026"><ele>547.3333333333333</ele><time>2026-05-03T15:04:31Z</time></trkpt><trkpt lat="41.49694596152477" lon="23.82304067181556"><ele>548.0</ele><time>2026-05-03T15:04:33Z</time></trkpt><trkpt lat="41.49696574541567" lon="23.823142860783925"><ele>548.0</ele><time>2026-05-03T15:04:35Z</time></trkpt><trkpt lat="41.4969647797232" lon="23.823280492073497"><ele>548.0</ele><time>2026-05-03T15:04:37Z</time></trkpt><trkpt lat="41.49691835839773" lon="23.823384476439927"><ele>548.0</ele><time>2026-05-03T15:04:39Z</time></trkpt><trkpt lat="41.49687141939072" lon="23.82344377064683"><ele>548.0</ele><time>2026-05-03T15:04:41Z</time></trkpt><trkpt lat="41.49681362441885" lon="23.82354123880454"><ele>548.0</ele><time>2026-05-03T15:04:44Z</time></trkpt><trkpt lat="41.49679349036717" lon="23.823651047933073"><ele>548.0</ele><time>2026-05-03T15:04:46Z</time></trkpt><trkpt lat="41.49670534022121" lon="23.823737274549725"><ele>548.1999999999999</ele><time>2026-05-03T15:04:50Z</time></trkpt><trkpt lat="41.49660620558758" lon="23.823772844970378"><ele>548.4</ele><time>2026-05-03T15:04:52Z</time></trkpt><trkpt lat="41.49651236417399" lon="23.823780045537664"><ele>548.5999999999999</ele><time>2026-05-03T15:04:54Z</time></trkpt><trkpt lat="41.496369912819205" lon="23.823756186050073"><ele>548.8</ele><time>2026-05-03T15:04:57Z</time></trkpt><trkpt lat="41.496272351209456" lon="23.82372397276126"><ele>549.0</ele><time>2026-05-03T15:04:59Z</time></trkpt><trkpt lat="41.49619752823639" lon="23.82371392247628"><ele>549.0</ele><time>2026-05-03T15:05:00Z</time></trkpt><trkpt lat="41.49613709991253" lon="23.823675082364858"><ele>549.0</ele><time>2026-05-03T15:05:01Z</time></trkpt><trkpt lat="41.49603510797116" lon="23.823601853930292"><ele>549.0</ele><time>2026-05-03T15:05:03Z</time></trkpt><trkpt lat="41.49597225396734" lon="23.823561911382715"><ele>549.0</ele><time>2026-05-03T15:05:04Z</time></trkpt><trkpt lat="41.495854296920996" lon="23.823505293537877"><ele>549.0</ele><time>2026-05-03T15:05:06Z</time></trkpt><trkpt lat="41.49579395396438" lon="23.823466829815363"><ele>549.0</ele><time>2026-05-03T15:05:07Z</time></trkpt><trkpt lat="41.49570435712545" lon="23.823413906276276"><ele>549.8</ele><time>2026-05-03T15:05:09Z</time></trkpt><trkpt lat="41.495600848610295" lon="23.82337902046675"><ele>550.5999999999999</ele><time>2026-05-03T15:05:11Z</time></trkpt><trkpt lat="41.4954931331119" lon="23.82336405424837"><ele>551.4</ele><time>2026-05-03T15:05:13Z</time></trkpt><trkpt lat="41.49538980011957" lon="23.823335564645905"><ele>552.1999999999999</ele><time>2026-05-03T15:05:15Z</time></trkpt><trkpt lat="41.4952679788426" lon="23.823330955423838"><ele>553.0</ele><time>2026-05-03T15:05:17Z</time></trkpt><trkpt lat="41.49519014171053" lon="23.82331519062017"><ele>553.0</ele><time>2026-05-03T15:05:19Z</time></trkpt><trkpt lat="41.49512203038465" lon="23.82327642060468"><ele>553.0</ele><time>2026-05-03T15:05:23Z</time></trkpt><trkpt lat="41.49516747230089" lon="23.823346001248755"><ele>553.0</ele><time>2026-05-03T15:05:29Z</time></trkpt><trkpt lat="41.49527722633539" lon="23.823332274726205"><ele>553.0</ele><time>2026-05-03T15:05:31Z</time></trkpt><trkpt lat="41.4953696376677" lon="23.823335178071236"><ele>553.0</ele><time>2026-05-03T15:05:33Z</time></trkpt><trkpt lat="41.495462455253445" lon="23.8233635206049"><ele>553.0</ele><time>2026-05-03T15:05:35Z</time></trkpt><trkpt lat="41.49553206100696" lon="23.823383743838992"><ele>553.0</ele><time>2026-05-03T15:05:37Z</time></trkpt><trkpt lat="41.49562485308033" lon="23.823388093279043"><ele>553.0</ele><time>2026-05-03T15:05:39Z</time></trkpt><trkpt lat="41.495710795875915" lon="23.82342669559282"><ele>553.0</ele><time>2026-05-03T15:05:41Z</time></trkpt><trkpt lat="41.49580040101153" lon="23.823473684795246"><ele>553.0</ele><time>2026-05-03T15:05:43Z</time></trkpt><trkpt lat="41.49588523668473" lon="23.82352574220406"><ele>553.0</ele><time>2026-05-03T15:05:45Z</time></trkpt><trkpt lat="41.49597115946554" lon="23.823573144595738"><ele>552.1999999999999</ele><time>2026-05-03T15:05:47Z</time></trkpt><trkpt lat="41.49605117679403" lon="23.823619955883654"><ele>551.4</ele><time>2026-05-03T15:05:49Z</time></trkpt><trkpt lat="41.496160313302084" lon="23.823684499893535"><ele>550.5999999999999</ele><time>2026-05-03T15:05:51Z</time></trkpt><trkpt lat="41.4962471073975" lon="23.823732313742756"><ele>549.8</ele><time>2026-05-03T15:05:53Z</time></trkpt><trkpt lat="41.496322529642065" lon="23.82375865699111"><ele>549.0</ele><time>2026-05-03T15:05:55Z</time></trkpt><trkpt lat="41.49640647090487" lon="23.82376895788032"><ele>548.0</ele><time>2026-05-03T15:05:57Z</time></trkpt><trkpt lat="41.49649339760656" lon="23.823775159915925"><ele>547.0</ele><time>2026-05-03T15:05:59Z</time></trkpt><trkpt lat="41.49657768644044" lon="23.823765876954685"><ele>546.0</ele><time>2026-05-03T15:06:01Z</time></trkpt><trkpt lat="41.496659391362925" lon="23.823733214062667"><ele>545.0</ele><time>2026-05-03T15:06:03Z</time></trkpt><trkpt lat="41.496733076866946" lon="23.823710480853247"><ele>544.0</ele><time>2026-05-03T15:06:05Z</time></trkpt><trkpt lat="41.496789688441176" lon="23.823663885389117"><ele>543.0</ele><time>2026-05-03T15:06:08Z</time></trkpt><trkpt lat="41.49682963501958" lon="23.82356919648031"><ele>543.8333333333334</ele><time>2026-05-03T15:06:11Z</time></trkpt><trkpt lat="41.49684833475694" lon="23.823449692372993"><ele>544.6666666666666</ele><time>2026-05-03T15:06:13Z</time></trkpt><trkpt lat="41.49690664547221" lon="23.82339122911292"><ele>545.5</ele><time>2026-05-03T15:06:15Z</time></trkpt><trkpt lat="41.496946550226006" lon="23.82331642446391"><ele>546.3333333333333</ele><time>2026-05-03T15:06:17Z</time></trkpt><trkpt lat="41.49697475537655" lon="23.82320265589732"><ele>547.1666666666666</ele><time>2026-05-03T15:06:19Z</time></trkpt><trkpt lat="41.49696402907775" lon="23.82308315909337"><ele>548.0</ele><time>2026-05-03T15:06:21Z</time></trkpt><trkpt lat="41.49694076274949" lon="23.822986157811194"><ele>548.0</ele><time>2026-05-03T15:06:23Z</time></trkpt><trkpt lat="41.4969530665284" lon="23.82289901234955"><ele>548.0</ele><time>2026-05-03T15:06:26Z</time></trkpt><trkpt lat="41.49687155538225" lon="23.82283749748642"><ele>548.0</ele><time>2026-05-03T15:06:30Z</time></trkpt><trkpt lat="41.4968297714612" lon="23.82276707116316"><ele>548.0</ele><time>2026-05-03T15:06:32Z</time></trkpt><trkpt lat="41.496766155705345" lon="23.822703223165664"><ele>548.0</ele><time>2026-05-03T15:06:34Z</time></trkpt><trkpt lat="41.49670877225354" lon="23.822621781253307"><ele>548.0</ele><time>2026-05-03T15:06:36Z</time></trkpt><trkpt lat="41.496643724138465" lon="23.82256171286715"><ele>548.6666666666666</ele><time>2026-05-03T15:06:39Z</time></trkpt><trkpt lat="41.49656314724281" lon="23.822492563832185"><ele>549.3333333333333</ele><time>2026-05-03T15:06:41Z</time></trkpt><trkpt lat="41.49648720351496" lon="23.822418903696587"><ele>550.0</ele><time>2026-05-03T15:06:43Z</time></trkpt><trkpt lat="41.49643219320616" lon="23.822353692588937"><ele>550.6666666666666</ele><time>2026-05-03T15:06:45Z</time></trkpt><trkpt lat="41.49636670603943" lon="23.822237622466822"><ele>551.3333333333334</ele><time>2026-05-03T15:06:47Z</time></trkpt><trkpt lat="41.49631246959548" lon="23.822181840698374"><ele>552.0</ele><time>2026-05-03T15:06:48Z</time></trkpt><trkpt lat="41.49625543821921" lon="23.822125731792525"><ele>552.4</ele><time>2026-05-03T15:06:49Z</time></trkpt><trkpt lat="41.49615678202168" lon="23.82204070725453"><ele>552.8000000000001</ele><time>2026-05-03T15:06:51Z</time></trkpt><trkpt lat="41.49606601535888" lon="23.821944289504696"><ele>553.2</ele><time>2026-05-03T15:06:53Z</time></trkpt><trkpt lat="41.49596907449028" lon="23.821864947772607"><ele>553.6</ele><time>2026-05-03T15:06:55Z</time></trkpt><trkpt lat="41.49590621710973" lon="23.821822749524504"><ele>554.0</ele><time>2026-05-03T15:06:56Z</time></trkpt><trkpt lat="41.49581424834019" lon="23.821731425087975"><ele>554.0</ele><time>2026-05-03T15:06:58Z</time></trkpt><trkpt lat="41.49571851577734" lon="23.821634234275287"><ele>554.0</ele><time>2026-05-03T15:07:00Z</time></trkpt><trkpt lat="41.49563061145812" lon="23.82155690669714"><ele>554.0</ele><time>2026-05-03T15:07:02Z</time></trkpt><trkpt lat="41.49554957246918" lon="23.82147153328406"><ele>554.0</ele><time>2026-05-03T15:07:04Z</time></trkpt><trkpt lat="41.49544681499416" lon="23.821370901969875"><ele>555.0</ele><time>2026-05-03T15:07:06Z</time></trkpt><trkpt lat="41.49534928014323" lon="23.82132033321123"><ele>556.0</ele><time>2026-05-03T15:07:08Z</time></trkpt><trkpt lat="41.495287650979456" lon="23.821344829997123"><ele>557.0</ele><time>2026-05-03T15:07:09Z</time></trkpt><trkpt lat="41.49522758042101" lon="23.821371025651146"><ele>558.0</ele><time>2026-05-03T15:07:10Z</time></trkpt><trkpt lat="41.495157657614804" lon="23.82138309427537"><ele>559.0</ele><time>2026-05-03T15:07:11Z</time></trkpt><trkpt lat="41.49508579245265" lon="23.821353255664302"><ele>560.0</ele><time>2026-05-03T15:07:12Z</time></trkpt><trkpt lat="41.495006469370054" lon="23.82129546593619"><ele>560.0</ele><time>2026-05-03T15:07:13Z</time></trkpt><trkpt lat="41.4949459231988" lon="23.82123807233824"><ele>560.0</ele><time>2026-05-03T15:07:14Z</time></trkpt><trkpt lat="41.49484484262951" lon="23.821172679199623"><ele>560.0</ele><time>2026-05-03T15:07:16Z</time></trkpt><trkpt lat="41.49476573228063" lon="23.82111461522309"><ele>560.0</ele><time>2026-05-03T15:07:18Z</time></trkpt><trkpt lat="41.4947087638108" lon="23.821070456166513"><ele>560.0</ele><time>2026-05-03T15:07:22Z</time></trkpt><trkpt lat="41.49475787968257" lon="23.82112337094054"><ele>560.0</ele><time>2026-05-03T15:07:39Z</time></trkpt><trkpt lat="41.49483927107325" lon="23.821158547685304"><ele>560.0</ele><time>2026-05-03T15:07:41Z</time></trkpt><trkpt lat="41.49493990188698" lon="23.82123092516376"><ele>560.0</ele><time>2026-05-03T15:07:43Z</time></trkpt><trkpt lat="41.49504697469415" lon="23.82129903552553"><ele>560.0</ele><time>2026-05-03T15:07:45Z</time></trkpt><trkpt lat="41.49514230827667" lon="23.82135904329234"><ele>560.0</ele><time>2026-05-03T15:07:47Z</time></trkpt><trkpt lat="41.49524868171022" lon="23.821368721696782"><ele>560.0</ele><time>2026-05-03T15:07:49Z</time></trkpt><trkpt lat="41.495346016272094" lon="23.821336760657623"><ele>559.0</ele><time>2026-05-03T15:07:51Z</time></trkpt><trkpt lat="41.49546098203271" lon="23.821348051434455"><ele>558.0</ele><time>2026-05-03T15:07:53Z</time></trkpt><trkpt lat="41.495523898275515" lon="23.821437063308593"><ele>557.0</ele><time>2026-05-03T15:07:54Z</time></trkpt><trkpt lat="41.495588958340925" lon="23.821513767843257"><ele>556.0</ele><time>2026-05-03T15:07:55Z</time></trkpt><trkpt lat="41.49564998513549" lon="23.821573789857716"><ele>555.0</ele><time>2026-05-03T15:07:56Z</time></trkpt><trkpt lat="41.495707408804044" lon="23.821624786417708"><ele>554.0</ele><time>2026-05-03T15:07:57Z</time></trkpt><trkpt lat="41.495768456612694" lon="23.821681753133443"><ele>554.0</ele><time>2026-05-03T15:07:58Z</time></trkpt><trkpt lat="41.495822365874126" lon="23.821729004649345"><ele>554.0</ele><time>2026-05-03T15:07:59Z</time></trkpt><trkpt lat="41.49590486532202" lon="23.821822731264067"><ele>554.0</ele><time>2026-05-03T15:08:01Z</time></trkpt><trkpt lat="41.49600815070914" lon="23.821895148770317"><ele>554.0</ele><time>2026-05-03T15:08:03Z</time></trkpt><trkpt lat="41.49611009023841" lon="23.821981176243423"><ele>554.0</ele><time>2026-05-03T15:08:05Z</time></trkpt><trkpt lat="41.496206904324566" lon="23.822097065502287"><ele>553.6666666666666</ele><time>2026-05-03T15:08:07Z</time></trkpt><trkpt lat="41.496274997577835" lon="23.822146514003038"><ele>553.3333333333333</ele><time>2026-05-03T15:08:08Z</time></trkpt><trkpt lat="41.496363876917904" lon="23.822241142742573"><ele>553.0</ele><time>2026-05-03T15:08:10Z</time></trkpt><trkpt lat="41.496441702856" lon="23.822323777510217"><ele>552.6666666666666</ele><time>2026-05-03T15:08:12Z</time></trkpt><trkpt lat="41.496519788736755" lon="23.822362257120293"><ele>552.3333333333334</ele><time>2026-05-03T15:08:14Z</time></trkpt><trkpt lat="41.49657683176514" lon="23.822423323882"><ele>552.0</ele><time>2026-05-03T15:08:16Z</time></trkpt><trkpt lat="41.49663149407614" lon="23.822473565073484"><ele>552.0</ele><time>2026-05-03T15:08:18Z</time></trkpt><trkpt lat="41.49671072538379" lon="23.82254734150189"><ele>552.0</ele><time>2026-05-03T15:08:20Z</time></trkpt><trkpt lat="41.496800469503754" lon="23.822617908709393"><ele>552.0</ele><time>2026-05-03T15:08:22Z</time></trkpt><trkpt lat="41.496862548891876" lon="23.82267977691102"><ele>552.0</ele><time>2026-05-03T15:08:24Z</time></trkpt><trkpt lat="41.49691547504193" lon="23.822764438738822"><ele>552.0</ele><time>2026-05-03T15:08:26Z</time></trkpt><trkpt lat="41.49693527007746" lon="23.82285821472089"><ele>552.0</ele><time>2026-05-03T15:08:28Z</time></trkpt><trkpt lat="41.49698317879196" lon="23.822948300286697"><ele>551.3333333333334</ele><time>2026-05-03T15:08:31Z</time></trkpt><trkpt lat="41.497062607082405" lon="23.822919685738068"><ele>550.6666666666666</ele><time>2026-05-03T15:08:33Z</time></trkpt><trkpt lat="41.49716909016603" lon="23.82294637281224"><ele>550.0</ele><time>2026-05-03T15:08:35Z</time></trkpt><trkpt lat="41.497235957796306" lon="23.822963974661445"><ele>549.3333333333333</ele><time>2026-05-03T15:08:36Z</time></trkpt><trkpt lat="41.497306860324635" lon="23.822985217367766"><ele>548.6666666666666</ele><time>2026-05-03T15:08:37Z</time></trkpt><trkpt lat="41.497400596912165" lon="23.82301567696614"><ele>548.0</ele><time>2026-05-03T15:08:38Z</time></trkpt><trkpt lat="41.49747292681218" lon="23.823045601411117"><ele>547.1999999999999</ele><time>2026-05-03T15:08:39Z</time></trkpt><trkpt lat="41.49754935868568" lon="23.82307976230978"><ele>546.4</ele><time>2026-05-03T15:08:40Z</time></trkpt><trkpt lat="41.49761680549337" lon="23.82312418957786"><ele>545.5999999999999</ele><time>2026-05-03T15:08:41Z</time></trkpt><trkpt lat="41.497709700356666" lon="23.8232255027577"><ele>544.8</ele><time>2026-05-03T15:08:43Z</time></trkpt><trkpt lat="41.4978051211792" lon="23.82330530456001"><ele>544.0</ele><time>2026-05-03T15:08:45Z</time></trkpt><trkpt lat="41.49788989764204" lon="23.823321036845588"><ele>544.0</ele><time>2026-05-03T15:08:46Z</time></trkpt><trkpt lat="41.49796820024299" lon="23.823332634267544"><ele>544.0</ele><time>2026-05-03T15:08:47Z</time></trkpt><trkpt lat="41.498045439169914" lon="23.82336044378509"><ele>544.0</ele><time>2026-05-03T15:08:48Z</time></trkpt><trkpt lat="41.49812021973208" lon="23.823385357434667"><ele>544.0</ele><time>2026-05-03T15:08:49Z</time></trkpt><trkpt lat="41.498203675400866" lon="23.823378127452948"><ele>544.0</ele><time>2026-05-03T15:08:51Z</time></trkpt><trkpt lat="41.49831627001062" lon="23.8232707009518"><ele>544.0</ele><time>2026-05-03T15:08:53Z</time></trkpt><trkpt lat="41.49838833621921" lon="23.82319921414115"><ele>544.0</ele><time>2026-05-03T15:08:54Z</time></trkpt><trkpt lat="41.49849730580031" lon="23.823132643030046"><ele>544.0</ele><time>2026-05-03T15:08:55Z</time></trkpt><trkpt lat="41.49861833700619" lon="23.823064805150132"><ele>544.0</ele><time>2026-05-03T15:08:56Z</time></trkpt><trkpt lat="41.498714409493644" lon="23.823005296458547"><ele>544.0</ele><time>2026-05-03T15:08:57Z</time></trkpt><trkpt lat="41.498806044505805" lon="23.822931144019687"><ele>544.8</ele><time>2026-05-03T15:08:59Z</time></trkpt><trkpt lat="41.498881118972044" lon="23.822873721125674"><ele>545.5999999999999</ele><time>2026-05-03T15:09:01Z</time></trkpt><trkpt lat="41.498934669878935" lon="23.82276398417095"><ele>546.4</ele><time>2026-05-03T15:09:03Z</time></trkpt><trkpt lat="41.49904355521567" lon="23.82282891289248"><ele>547.1999999999999</ele><time>2026-05-03T15:09:05Z</time></trkpt><trkpt lat="41.49908964094067" lon="23.82290362291597"><ele>548.0</ele><time>2026-05-03T15:09:06Z</time></trkpt><trkpt lat="41.49907911101804" lon="23.823031553870806"><ele>548.0</ele><time>2026-05-03T15:09:08Z</time></trkpt><trkpt lat="41.499073137035495" lon="23.823148187772297"><ele>548.0</ele><time>2026-05-03T15:09:10Z</time></trkpt><trkpt lat="41.4990574670601" lon="23.823244118926848"><ele>548.0</ele><time>2026-05-03T15:09:12Z</time></trkpt><trkpt lat="41.499028964896844" lon="23.82334150392943"><ele>548.0</ele><time>2026-05-03T15:09:16Z</time></trkpt><trkpt lat="41.499003796804196" lon="23.823432519854503"><ele>548.0</ele><time>2026-05-03T15:09:20Z</time></trkpt><trkpt lat="41.4989515223756" lon="23.82348577658359"><ele>548.0</ele><time>2026-05-03T15:09:24Z</time></trkpt><trkpt lat="41.49892535473906" lon="23.823587145332905"><ele>546.8571428571429</ele><time>2026-05-03T15:09:37Z</time></trkpt><trkpt lat="41.49890741774585" lon="23.823681630822154"><ele>545.7142857142858</ele><time>2026-05-03T15:09:46Z</time></trkpt><trkpt lat="41.49893901669075" lon="23.82375933673792"><ele>544.5714285714286</ele><time>2026-05-03T15:09:49Z</time></trkpt><trkpt lat="41.49894428542599" lon="23.82386922230819"><ele>543.4285714285714</ele><time>2026-05-03T15:09:53Z</time></trkpt><trkpt lat="41.49891442646241" lon="23.82395924224825"><ele>542.2857142857142</ele><time>2026-05-03T15:09:57Z</time></trkpt><trkpt lat="41.498902687184135" lon="23.824044800948368"><ele>541.1428571428571</ele><time>2026-05-03T15:10:00Z</time></trkpt><trkpt lat="41.49893313862392" lon="23.82413688712119"><ele>540.0</ele><time>2026-05-03T15:10:03Z</time></trkpt><trkpt lat="41.498976581629236" lon="23.824210317759725"><ele>540.0</ele><time>2026-05-03T15:10:06Z</time></trkpt><trkpt lat="41.49907028154176" lon="23.82419885263762"><ele>540.0</ele><time>2026-05-03T15:10:09Z</time></trkpt><trkpt lat="41.49914578721954" lon="23.82423528809295"><ele>540.0</ele><time>2026-05-03T15:10:11Z</time></trkpt><trkpt lat="41.499243095128655" lon="23.824224220337083"><ele>540.0</ele><time>2026-05-03T15:10:13Z</time></trkpt><trkpt lat="41.499346534530545" lon="23.82420470608009"><ele>540.0</ele><time>2026-05-03T15:10:15Z</time></trkpt><trkpt lat="41.49941254375592" lon="23.824209526240033"><ele>540.0</ele><time>2026-05-03T15:10:16Z</time></trkpt><trkpt lat="41.499474770610774" lon="23.824226473084344"><ele>540.0</ele><time>2026-05-03T15:10:17Z</time></trkpt><trkpt lat="41.49958019055666" lon="23.824266636163983"><ele>540.0</ele><time>2026-05-03T15:10:19Z</time></trkpt><trkpt lat="41.499691235040245" lon="23.824250101082523"><ele>540.0</ele><time>2026-05-03T15:10:21Z</time></trkpt><trkpt lat="41.49976749240877" lon="23.824227036277772"><ele>540.0</ele><time>2026-05-03T15:10:23Z</time></trkpt><trkpt lat="41.499792504084375" lon="23.824137024187177"><ele>540.0</ele><time>2026-05-03T15:10:32Z</time></trkpt><trkpt lat="41.49976904526408" lon="23.824049731151476"><ele>540.0</ele><time>2026-05-03T15:10:34Z</time></trkpt><trkpt lat="41.49967965516369" lon="23.824030705697353"><ele>540.0</ele><time>2026-05-03T15:10:37Z</time></trkpt><trkpt lat="41.49961035486326" lon="23.824075091161706"><ele>540.0</ele><time>2026-05-03T15:10:40Z</time></trkpt><trkpt lat="41.49957230356398" lon="23.824156146349537"><ele>540.0</ele><time>2026-05-03T15:10:44Z</time></trkpt><trkpt lat="41.49959809614796" lon="23.824251561853348"><ele>540.0</ele><time>2026-05-03T15:10:50Z</time></trkpt><trkpt lat="41.499610746800286" lon="23.824342181091254"><ele>540.0</ele><time>2026-05-03T15:10:54Z</time></trkpt><trkpt lat="41.49956378666511" lon="23.82442510880747"><ele>540.0</ele><time>2026-05-03T15:10:58Z</time></trkpt><trkpt lat="41.49952414042722" lon="23.824527627924642"><ele>539.8</ele><time>2026-05-03T15:11:02Z</time></trkpt><trkpt lat="41.4995321053999" lon="23.82462505546738"><ele>539.6</ele><time>2026-05-03T15:11:07Z</time></trkpt><trkpt lat="41.49955734347366" lon="23.82472967489982"><ele>539.4</ele><time>2026-05-03T15:11:11Z</time></trkpt><trkpt lat="41.499577698341284" lon="23.82483194292093"><ele>539.2</ele><time>2026-05-03T15:11:16Z</time></trkpt><trkpt lat="41.4996910814445" lon="23.824934688761576"><ele>539.0</ele><time>2026-05-03T15:11:20Z</time></trkpt><trkpt lat="41.49976301966501" lon="23.82500319800566"><ele>539.0</ele><time>2026-05-03T15:11:22Z</time></trkpt><trkpt lat="41.49982322152115" lon="23.825078153022794"><ele>539.0</ele><time>2026-05-03T15:11:24Z</time></trkpt><trkpt lat="41.49987451490377" lon="23.825167283444486"><ele>539.0</ele><time>2026-05-03T15:11:26Z</time></trkpt><trkpt lat="41.49995673599878" lon="23.825234802620688"><ele>539.0</ele><time>2026-05-03T15:11:28Z</time></trkpt><trkpt lat="41.500035111115245" lon="23.825275555324044"><ele>539.0</ele><time>2026-05-03T15:11:30Z</time></trkpt><trkpt lat="41.50011082582793" lon="23.825322560615817"><ele>539.0</ele><time>2026-05-03T15:11:32Z</time></trkpt><trkpt lat="41.50018454196374" lon="23.825331523153142"><ele>538.0</ele><time>2026-05-03T15:11:51Z</time></trkpt><trkpt lat="41.500183215508606" lon="23.825233328117253"><ele>537.0</ele><time>2026-05-03T15:11:54Z</time></trkpt><trkpt lat="41.50012007889726" lon="23.825274034069302"><ele>536.0</ele><time>2026-05-03T15:12:00Z</time></trkpt><trkpt lat="41.50005407228223" lon="23.82532020275911"><ele>535.0</ele><time>2026-05-03T15:12:12Z</time></trkpt><trkpt lat="41.49999659508531" lon="23.825356633044986"><ele>534.0</ele><time>2026-05-03T15:12:16Z</time></trkpt><trkpt lat="41.50006494817231" lon="23.825305566239333"><ele>533.0</ele><time>2026-05-03T15:12:35Z</time></trkpt><trkpt lat="41.50012784599967" lon="23.82528158387018"><ele>532.0</ele><time>2026-05-03T15:12:37Z</time></trkpt><trkpt lat="41.50021231797142" lon="23.82526019050118"><ele>532.0</ele><time>2026-05-03T15:12:41Z</time></trkpt><trkpt lat="41.50014939803463" lon="23.825275763924743"><ele>532.0</ele><time>2026-05-03T15:13:11Z</time></trkpt><trkpt lat="41.50008622704659" lon="23.82529421907776"><ele>532.0</ele><time>2026-05-03T15:13:19Z</time></trkpt><trkpt lat="41.50001241312059" lon="23.82533053687725"><ele>532.0</ele><time>2026-05-03T15:13:23Z</time></trkpt><trkpt lat="41.49994504756903" lon="23.825284483920022"><ele>532.0</ele><time>2026-05-03T15:13:31Z</time></trkpt><trkpt lat="41.49990782714684" lon="23.825176438723876"><ele>532.0</ele><time>2026-05-03T15:13:33Z</time></trkpt><trkpt lat="41.49985254241701" lon="23.825133799459156"><ele>532.0</ele><time>2026-05-03T15:13:35Z</time></trkpt><trkpt lat="41.49979693140262" lon="23.825041556647175"><ele>532.1666666666667</ele><time>2026-05-03T15:13:38Z</time></trkpt><trkpt lat="41.499737462755014" lon="23.8249742455875"><ele>532.3333333333334</ele><time>2026-05-03T15:13:40Z</time></trkpt><trkpt lat="41.49966210493645" lon="23.824917919004072"><ele>532.5</ele><time>2026-05-03T15:13:42Z</time></trkpt><trkpt lat="41.49960102728689" lon="23.824860926551104"><ele>532.6666666666666</ele><time>2026-05-03T15:13:44Z</time></trkpt><trkpt lat="41.499568318553074" lon="23.824773261573814"><ele>532.8333333333333</ele><time>2026-05-03T15:13:52Z</time></trkpt><trkpt lat="41.499643051197616" lon="23.824753447804856"><ele>533.0</ele><time>2026-05-03T15:13:55Z</time></trkpt><trkpt lat="41.49965718999275" lon="23.82484829890848"><ele>532.8333333333333</ele><time>2026-05-03T15:13:57Z</time></trkpt><trkpt lat="41.499684528817305" lon="23.824945331395906"><ele>532.6666666666666</ele><time>2026-05-03T15:13:59Z</time></trkpt><trkpt lat="41.49972038560851" lon="23.825017216249456"><ele>532.5</ele><time>2026-05-03T15:14:01Z</time></trkpt><trkpt lat="41.49978030594172" lon="23.82508465387679"><ele>532.3333333333334</ele><time>2026-05-03T15:14:04Z</time></trkpt><trkpt lat="41.49985017074893" lon="23.825130684128073"><ele>532.1666666666667</ele><time>2026-05-03T15:14:06Z</time></trkpt><trkpt lat="41.49991440558731" lon="23.8252338124096"><ele>532.0</ele><time>2026-05-03T15:14:08Z</time></trkpt><trkpt lat="41.499963059993746" lon="23.825303881736193"><ele>532.0</ele><time>2026-05-03T15:14:10Z</time></trkpt><trkpt lat="41.50003075988771" lon="23.825383632910995"><ele>532.0</ele><time>2026-05-03T15:14:12Z</time></trkpt><trkpt lat="41.50009025174855" lon="23.825439208459233"><ele>532.0</ele><time>2026-05-03T15:14:13Z</time></trkpt><trkpt lat="41.50018081674905" lon="23.825497819165463"><ele>532.0</ele><time>2026-05-03T15:14:15Z</time></trkpt><trkpt lat="41.50026337173523" lon="23.82554864730302"><ele>532.0</ele><time>2026-05-03T15:14:17Z</time></trkpt><trkpt lat="41.500339152895926" lon="23.82559243363678"><ele>532.0</ele><time>2026-05-03T15:14:19Z</time></trkpt><trkpt lat="41.50040875296265" lon="23.825560947982314"><ele>532.0</ele><time>2026-05-03T15:14:21Z</time></trkpt><trkpt lat="41.50044952054421" lon="23.82546069801195"><ele>532.0</ele><time>2026-05-03T15:14:23Z</time></trkpt><trkpt lat="41.500441772219645" lon="23.825370877116796"><ele>532.0</ele><time>2026-05-03T15:14:24Z</time></trkpt><trkpt lat="41.50040032386151" lon="23.82530057245304"><ele>532.0</ele><time>2026-05-03T15:14:25Z</time></trkpt><trkpt lat="41.500319137977975" lon="23.82525872156156"><ele>532.0</ele><time>2026-05-03T15:14:27Z</time></trkpt><trkpt lat="41.50027839356609" lon="23.82536127742146"><ele>532.0</ele><time>2026-05-03T15:14:29Z</time></trkpt><trkpt lat="41.50034284195954" lon="23.825450018638698"><ele>532.0</ele><time>2026-05-03T15:14:31Z</time></trkpt><trkpt lat="41.500419094640684" lon="23.825509816243457"><ele>532.0</ele><time>2026-05-03T15:14:33Z</time></trkpt><trkpt lat="41.5004525754409" lon="23.825620381766186"><ele>532.0</ele><time>2026-05-03T15:14:36Z</time></trkpt><trkpt lat="41.50043962156752" lon="23.82570717745977"><ele>532.0</ele><time>2026-05-03T15:14:38Z</time></trkpt><trkpt lat="41.50036946607025" lon="23.82572889056352"><ele>532.0</ele><time>2026-05-03T15:14:41Z</time></trkpt><trkpt lat="41.50029853321272" lon="23.825724141703468"><ele>532.0</ele><time>2026-05-03T15:14:46Z</time></trkpt><trkpt lat="41.50023560830679" lon="23.825676609354485"><ele>532.0</ele><time>2026-05-03T15:14:49Z</time></trkpt><trkpt lat="41.50017082445243" lon="23.825578954135672"><ele>532.0</ele><time>2026-05-03T15:14:51Z</time></trkpt><trkpt lat="41.500103032571666" lon="23.82549689310439"><ele>532.0</ele><time>2026-05-03T15:14:53Z</time></trkpt><trkpt lat="41.50017544563587" lon="23.825561102980917"><ele>532.0</ele><time>2026-05-03T15:15:43Z</time></trkpt><trkpt lat="41.50023993645195" lon="23.82567445582511"><ele>532.0</ele><time>2026-05-03T15:15:45Z</time></trkpt><trkpt lat="41.50030356302327" lon="23.82575979706383"><ele>532.0</ele><time>2026-05-03T15:15:47Z</time></trkpt><trkpt lat="41.50037156387387" lon="23.825844968752406"><ele>532.0</ele><time>2026-05-03T15:15:49Z</time></trkpt><trkpt lat="41.500472458140074" lon="23.82587003421409"><ele>532.0</ele><time>2026-05-03T15:15:51Z</time></trkpt><trkpt lat="41.50054172754575" lon="23.825902748396544"><ele>532.0</ele><time>2026-05-03T15:15:53Z</time></trkpt><trkpt lat="41.50060257355591" lon="23.82593844704232"><ele>532.0</ele><time>2026-05-03T15:15:55Z</time></trkpt><trkpt lat="41.50066838179875" lon="23.825939061434898"><ele>532.0</ele><time>2026-05-03T15:15:58Z</time></trkpt><trkpt lat="41.50078740671801" lon="23.825908057379948"><ele>531.6666666666667</ele><time>2026-05-03T15:16:02Z</time></trkpt><trkpt lat="41.50084465747451" lon="23.825855074940133"><ele>531.3333333333334</ele><time>2026-05-03T15:16:04Z</time></trkpt><trkpt lat="41.50087592959205" lon="23.825752090424686"><ele>531.0</ele><time>2026-05-03T15:16:06Z</time></trkpt><trkpt lat="41.500886978793936" lon="23.825661106495392"><ele>530.6666666666666</ele><time>2026-05-03T15:16:09Z</time></trkpt><trkpt lat="41.50088132254473" lon="23.825533094872554"><ele>530.3333333333333</ele><time>2026-05-03T15:16:42Z</time></trkpt><trkpt lat="41.50090357834017" lon="23.82544015043012"><ele>530.0</ele><time>2026-05-03T15:16:44Z</time></trkpt><trkpt lat="41.50092468175079" lon="23.82534973879896"><ele>530.0</ele><time>2026-05-03T15:16:47Z</time></trkpt><trkpt lat="41.50088272505466" lon="23.825279875795765"><ele>530.0</ele><time>2026-05-03T15:16:49Z</time></trkpt><trkpt lat="41.500800202254425" lon="23.82531102806326"><ele>530.0</ele><time>2026-05-03T15:16:51Z</time></trkpt><trkpt lat="41.5007211500457" lon="23.825407390746427"><ele>530.0</ele><time>2026-05-03T15:16:53Z</time></trkpt><trkpt lat="41.50068894359983" lon="23.825483446319566"><ele>530.0</ele><time>2026-05-03T15:16:55Z</time></trkpt><trkpt lat="41.50075370908964" lon="23.825520726642235"><ele>530.0</ele><time>2026-05-03T15:16:59Z</time></trkpt><trkpt lat="41.50081518940704" lon="23.82547412805725"><ele>529.9999999999999</ele><time>2026-05-03T15:17:13Z</time></trkpt><trkpt lat="41.500791245122116" lon="23.825391861345338"><ele>530.0</ele><time>2026-05-03T15:17:15Z</time></trkpt><trkpt lat="41.500713342142085" lon="23.825406841110357"><ele>530.0</ele><time>2026-05-03T15:17:17Z</time></trkpt><trkpt lat="41.50070887653697" lon="23.825518337705997"><ele>530.0</ele><time>2026-05-03T15:17:19Z</time></trkpt><trkpt lat="41.500761782731516" lon="23.825570230177437"><ele>530.0</ele><time>2026-05-03T15:17:22Z</time></trkpt><trkpt lat="41.500828664552756" lon="23.825603268845047"><ele>529.9999999999999</ele><time>2026-05-03T15:17:31Z</time></trkpt><trkpt lat="41.500885570511" lon="23.825655020498903"><ele>530.0</ele><time>2026-05-03T15:17:36Z</time></trkpt><trkpt lat="41.50089122686927" lon="23.825774811249218"><ele>530.0</ele><time>2026-05-03T15:17:40Z</time></trkpt><trkpt lat="41.500862838125975" lon="23.825875204831085"><ele>530.0</ele><time>2026-05-03T15:17:43Z</time></trkpt><trkpt lat="41.500883899620824" lon="23.825757057064013"><ele>530.0</ele><time>2026-05-03T15:17:55Z</time></trkpt><trkpt lat="41.50090591263079" lon="23.825638693236748"><ele>530.0</ele><time>2026-05-03T15:17:58Z</time></trkpt><trkpt lat="41.50084743989704" lon="23.825604200035272"><ele>530.0</ele><time>2026-05-03T15:18:10Z</time></trkpt><trkpt lat="41.500777136215426" lon="23.825568313040865"><ele>530.0</ele><time>2026-05-03T15:18:12Z</time></trkpt><trkpt lat="41.50070205262592" lon="23.825504542046623"><ele>530.0</ele><time>2026-05-03T15:18:14Z</time></trkpt><trkpt lat="41.500618889309905" lon="23.825370327347056"><ele>530.0</ele><time>2026-05-03T15:18:18Z</time></trkpt><trkpt lat="41.500536339652" lon="23.82527508176217"><ele>530.0</ele><time>2026-05-03T15:18:20Z</time></trkpt><trkpt lat="41.5004698420522" lon="23.825204813992375"><ele>530.0</ele><time>2026-05-03T15:18:21Z</time></trkpt><trkpt lat="41.50041088783837" lon="23.82513987772113"><ele>530.0</ele><time>2026-05-03T15:18:22Z</time></trkpt><trkpt lat="41.50036714850009" lon="23.825074461256644"><ele>531.5</ele><time>2026-05-03T15:18:23Z</time></trkpt><trkpt lat="41.50030343733671" lon="23.8249751836594"><ele>533.0</ele><time>2026-05-03T15:18:25Z</time></trkpt><trkpt lat="41.50023397638397" lon="23.824876649410868"><ele>534.5</ele><time>2026-05-03T15:18:27Z</time></trkpt><trkpt lat="41.5001741794659" lon="23.824780218437198"><ele>536.0</ele><time>2026-05-03T15:18:29Z</time></trkpt><trkpt lat="41.50013816892914" lon="23.824704225250485"><ele>537.5</ele><time>2026-05-03T15:18:31Z</time></trkpt><trkpt lat="41.50010015093483" lon="23.82462127185741"><ele>539.0</ele><time>2026-05-03T15:18:42Z</time></trkpt><trkpt lat="41.50016330222085" lon="23.824645978806284"><ele>539.0</ele><time>2026-05-03T15:18:47Z</time></trkpt><trkpt lat="41.50016985830177" lon="23.82474725769559"><ele>539.0</ele><time>2026-05-03T15:18:50Z</time></trkpt><trkpt lat="41.50022343662578" lon="23.824851902842692"><ele>539.0</ele><time>2026-05-03T15:18:52Z</time></trkpt><trkpt lat="41.500278063830905" lon="23.824932654692113"><ele>539.0</ele><time>2026-05-03T15:18:54Z</time></trkpt><trkpt lat="41.50033071727284" lon="23.82499775184259"><ele>539.0</ele><time>2026-05-03T15:18:56Z</time></trkpt><trkpt lat="41.50037876959546" lon="23.82507882579147"><ele>539.0</ele><time>2026-05-03T15:19:06Z</time></trkpt><trkpt lat="41.500428681650384" lon="23.825134214762254"><ele>539.0</ele><time>2026-05-03T15:19:08Z</time></trkpt><trkpt lat="41.50047962024751" lon="23.825222289916564"><ele>539.0</ele><time>2026-05-03T15:19:12Z</time></trkpt><trkpt lat="41.50052744415053" lon="23.82532064092581"><ele>539.0</ele><time>2026-05-03T15:19:15Z</time></trkpt><trkpt lat="41.500513862328575" lon="23.82523351856455"><ele>539.0</ele><time>2026-05-03T15:19:20Z</time></trkpt><trkpt lat="41.50044722804524" lon="23.825170497966273"><ele>539.0</ele><time>2026-05-03T15:19:22Z</time></trkpt><trkpt lat="41.500394094480704" lon="23.825089851726247"><ele>539.0</ele><time>2026-05-03T15:19:25Z</time></trkpt><trkpt lat="41.50033015511508" lon="23.82505887998977"><ele>539.0</ele><time>2026-05-03T15:19:27Z</time></trkpt><trkpt lat="41.50026096937126" lon="23.82510958092274"><ele>539.0</ele><time>2026-05-03T15:19:29Z</time></trkpt><trkpt lat="41.500190357387766" lon="23.825130557265517"><ele>539.0</ele><time>2026-05-03T15:19:32Z</time></trkpt><trkpt lat="41.500125587993594" lon="23.82516619363831"><ele>539.0</ele><time>2026-05-03T15:19:37Z</time></trkpt><trkpt lat="41.500071382947354" lon="23.82506222378699"><ele>539.0</ele><time>2026-05-03T15:19:40Z</time></trkpt><trkpt lat="41.49999580233229" lon="23.825011997633144"><ele>539.0</ele><time>2026-05-03T15:19:43Z</time></trkpt><trkpt lat="41.49992273384392" lon="23.824959694497558"><ele>539.0</ele><time>2026-05-03T15:19:46Z</time></trkpt><trkpt lat="41.49984728055092" lon="23.824880807173884"><ele>539.0</ele><time>2026-05-03T15:19:49Z</time></trkpt><trkpt lat="41.499803894482184" lon="23.82478375250826"><ele>539.0</ele><time>2026-05-03T15:19:51Z</time></trkpt><trkpt lat="41.49976009917432" lon="23.824700407016593"><ele>539.0</ele><time>2026-05-03T15:19:53Z</time></trkpt><trkpt lat="41.49971039643383" lon="23.82463485370702"><ele>539.0</ele><time>2026-05-03T15:19:55Z</time></trkpt><trkpt lat="41.499648813546976" lon="23.82456329942162"><ele>539.0</ele><time>2026-05-03T15:19:59Z</time></trkpt><trkpt lat="41.49960877907798" lon="23.82448204427645"><ele>539.1666666666666</ele><time>2026-05-03T15:20:02Z</time></trkpt><trkpt lat="41.49956679329951" lon="23.824414218248737"><ele>539.3333333333333</ele><time>2026-05-03T15:20:04Z</time></trkpt><trkpt lat="41.499489541197214" lon="23.824337790465613"><ele>539.5</ele><time>2026-05-03T15:20:07Z</time></trkpt><trkpt lat="41.49943793219039" lon="23.824288435892164"><ele>539.6666666666666</ele><time>2026-05-03T15:20:09Z</time></trkpt><trkpt lat="41.49935235206867" lon="23.82421805945824"><ele>539.8333333333334</ele><time>2026-05-03T15:20:12Z</time></trkpt><trkpt lat="41.49927721802718" lon="23.82417292478751"><ele>540.0</ele><time>2026-05-03T15:20:15Z</time></trkpt><trkpt lat="41.49922183610529" lon="23.824214721067257"><ele>540.0</ele><time>2026-05-03T15:20:17Z</time></trkpt><trkpt lat="41.49913345589963" lon="23.824235015571087"><ele>540.0</ele><time>2026-05-03T15:20:20Z</time></trkpt><trkpt lat="41.4990522354525" lon="23.824178518403947"><ele>540.0</ele><time>2026-05-03T15:20:23Z</time></trkpt><trkpt lat="41.498980258333454" lon="23.82415321345858"><ele>540.0</ele><time>2026-05-03T15:20:26Z</time></trkpt><trkpt lat="41.49891995692934" lon="23.82411682283126"><ele>540.0</ele><time>2026-05-03T15:20:29Z</time></trkpt><trkpt lat="41.49897992986888" lon="23.82414709933696"><ele>540.0</ele><time>2026-05-03T15:20:39Z</time></trkpt><trkpt lat="41.499061845500385" lon="23.824180211038712"><ele>540.0</ele><time>2026-05-03T15:20:41Z</time></trkpt><trkpt lat="41.49912529403892" lon="23.824220093983843"><ele>540.0</ele><time>2026-05-03T15:20:43Z</time></trkpt><trkpt lat="41.49920502261807" lon="23.824247070714765"><ele>540.0</ele><time>2026-05-03T15:20:45Z</time></trkpt><trkpt lat="41.499288857869686" lon="23.824233988153583"><ele>540.0</ele><time>2026-05-03T15:20:47Z</time></trkpt><trkpt lat="41.499397273697305" lon="23.824238727189407"><ele>540.0</ele><time>2026-05-03T15:20:49Z</time></trkpt><trkpt lat="41.499473701720056" lon="23.824308952075555"><ele>540.0</ele><time>2026-05-03T15:20:51Z</time></trkpt><trkpt lat="41.49961405949133" lon="23.824482709587155"><ele>539.8</ele><time>2026-05-03T15:20:54Z</time></trkpt><trkpt lat="41.499660617429505" lon="23.82458333164856"><ele>539.6</ele><time>2026-05-03T15:20:56Z</time></trkpt><trkpt lat="41.49969883913447" lon="23.824662832709997"><ele>539.4</ele><time>2026-05-03T15:20:58Z</time></trkpt><trkpt lat="41.499779106331026" lon="23.824755414631614"><ele>539.2</ele><time>2026-05-03T15:21:00Z</time></trkpt><trkpt lat="41.49983969882838" lon="23.82487150803889"><ele>539.0</ele><time>2026-05-03T15:21:02Z</time></trkpt><trkpt lat="41.499912058252804" lon="23.824984456791462"><ele>539.0</ele><time>2026-05-03T15:21:04Z</time></trkpt><trkpt lat="41.49997344813955" lon="23.825022391420266"><ele>539.0</ele><time>2026-05-03T15:21:05Z</time></trkpt><trkpt lat="41.500070458882696" lon="23.825068299250216"><ele>539.0</ele><time>2026-05-03T15:21:07Z</time></trkpt><trkpt lat="41.50010890539327" lon="23.825172216456394"><ele>539.0</ele><time>2026-05-03T15:21:09Z</time></trkpt><trkpt lat="41.50013099025454" lon="23.825082645129932"><ele>539.0</ele><time>2026-05-03T15:21:25Z</time></trkpt><trkpt lat="41.50017854013923" lon="23.825024723067962"><ele>539.0</ele><time>2026-05-03T15:21:37Z</time></trkpt><trkpt lat="41.50025061531495" lon="23.824996371554032"><ele>539.0</ele><time>2026-05-03T15:21:41Z</time></trkpt><trkpt lat="41.5003163037473" lon="23.82497525310491"><ele>539.0</ele><time>2026-05-03T15:21:45Z</time></trkpt><trkpt lat="41.500373939871736" lon="23.82505669055581"><ele>539.0</ele><time>2026-05-03T15:21:48Z</time></trkpt><trkpt lat="41.5004229092934" lon="23.825120137548303"><ele>539.0</ele><time>2026-05-03T15:21:52Z</time></trkpt><trkpt lat="41.50047084622062" lon="23.82521294870262"><ele>539.0</ele><time>2026-05-03T15:21:55Z</time></trkpt><trkpt lat="41.50052342695337" lon="23.825287425169385"><ele>539.0</ele><time>2026-05-03T15:21:58Z</time></trkpt><trkpt lat="41.50048211778753" lon="23.825209699346892"><ele>539.0</ele><time>2026-05-03T15:22:05Z</time></trkpt><trkpt lat="41.500428787333895" lon="23.825150859940386"><ele>539.0</ele><time>2026-05-03T15:22:07Z</time></trkpt><trkpt lat="41.50037957070255" lon="23.825070467645013"><ele>539.0</ele><time>2026-05-03T15:22:10Z</time></trkpt><trkpt lat="41.50031489483178" lon="23.825073938397303"><ele>539.0</ele><time>2026-05-03T15:22:12Z</time></trkpt><trkpt lat="41.50023471223769" lon="23.82512803668489"><ele>539.0</ele><time>2026-05-03T15:22:14Z</time></trkpt><trkpt lat="41.50015582245706" lon="23.825157053475888"><ele>539.0</ele><time>2026-05-03T15:22:17Z</time></trkpt><trkpt lat="41.50006770397108" lon="23.825091232648415"><ele>539.0</ele><time>2026-05-03T15:22:20Z</time></trkpt><trkpt lat="41.50000176089153" lon="23.825008092766193"><ele>539.0</ele><time>2026-05-03T15:22:22Z</time></trkpt><trkpt lat="41.499916398625835" lon="23.824960279190663"><ele>539.0</ele><time>2026-05-03T15:22:24Z</time></trkpt><trkpt lat="41.499860536341096" lon="23.824898736219307"><ele>539.0</ele><time>2026-05-03T15:22:26Z</time></trkpt><trkpt lat="41.499822367622265" lon="23.82482034426288"><ele>539.0</ele><time>2026-05-03T15:22:28Z</time></trkpt><trkpt lat="41.499779902611664" lon="23.824734734913008"><ele>539.0</ele><time>2026-05-03T15:22:30Z</time></trkpt><trkpt lat="41.49972629237543" lon="23.82466183801354"><ele>539.0</ele><time>2026-05-03T15:22:32Z</time></trkpt><trkpt lat="41.49966937443558" lon="23.8246003125998"><ele>539.0</ele><time>2026-05-03T15:22:34Z</time></trkpt><trkpt lat="41.49962149938625" lon="23.82449548840153"><ele>539.0</ele><time>2026-05-03T15:23:51Z</time></trkpt><trkpt lat="41.49954864379694" lon="23.824386899964438"><ele>539.0</ele><time>2026-05-03T15:23:53Z</time></trkpt><trkpt lat="41.499472691858685" lon="23.8243166830833"><ele>539.0</ele><time>2026-05-03T15:23:55Z</time></trkpt><trkpt lat="41.49938509084788" lon="23.824244674930448"><ele>539.1666666666666</ele><time>2026-05-03T15:23:57Z</time></trkpt><trkpt lat="41.499291754096525" lon="23.82416883792613"><ele>539.3333333333333</ele><time>2026-05-03T15:23:59Z</time></trkpt><trkpt lat="41.49920571048455" lon="23.824215262753018"><ele>539.5</ele><time>2026-05-03T15:24:02Z</time></trkpt><trkpt lat="41.49914026969192" lon="23.824239407264972"><ele>539.6666666666666</ele><time>2026-05-03T15:24:04Z</time></trkpt><trkpt lat="41.499071581791746" lon="23.824196218479024"><ele>539.8333333333334</ele><time>2026-05-03T15:24:06Z</time></trkpt><trkpt lat="41.499009866103805" lon="23.824160409256034"><ele>540.0</ele><time>2026-05-03T15:24:08Z</time></trkpt><trkpt lat="41.49892848879754" lon="23.824134085000626"><ele>540.0</ele><time>2026-05-03T15:24:11Z</time></trkpt><trkpt lat="41.49885447331571" lon="23.82413720183387"><ele>540.0</ele><time>2026-05-03T15:24:15Z</time></trkpt><trkpt lat="41.498931077851545" lon="23.824132895344754"><ele>540.0</ele><time>2026-05-03T15:24:23Z</time></trkpt><trkpt lat="41.498995333546674" lon="23.824228696325054"><ele>540.0</ele><time>2026-05-03T15:24:26Z</time></trkpt><trkpt lat="41.499125878496976" lon="23.824417013676843"><ele>540.0</ele><time>2026-05-03T15:24:29Z</time></trkpt><trkpt lat="41.49920499019753" lon="23.824534486849068"><ele>538.6</ele><time>2026-05-03T15:24:31Z</time></trkpt><trkpt lat="41.49929339273785" lon="23.824642604660042"><ele>537.2</ele><time>2026-05-03T15:24:33Z</time></trkpt><trkpt lat="41.49934054652904" lon="23.82474056130407"><ele>535.8</ele><time>2026-05-03T15:24:35Z</time></trkpt><trkpt lat="41.499406778488016" lon="23.824795150397833"><ele>534.4</ele><time>2026-05-03T15:24:37Z</time></trkpt><trkpt lat="41.499476343138376" lon="23.824807717651243"><ele>533.0</ele><time>2026-05-03T15:24:39Z</time></trkpt><trkpt lat="41.499566261185954" lon="23.82485981658533"><ele>532.8</ele><time>2026-05-03T15:24:41Z</time></trkpt><trkpt lat="41.499657524066066" lon="23.8249330450138"><ele>532.5999999999999</ele><time>2026-05-03T15:24:43Z</time></trkpt><trkpt lat="41.499752286626574" lon="23.824999139871792"><ele>532.4000000000001</ele><time>2026-05-03T15:24:45Z</time></trkpt><trkpt lat="41.499826195491686" lon="23.825082122161202"><ele>532.2</ele><time>2026-05-03T15:24:47Z</time></trkpt><trkpt lat="41.49988588930602" lon="23.82518867001811"><ele>532.0</ele><time>2026-05-03T15:24:49Z</time></trkpt><trkpt lat="41.49995590241787" lon="23.825278334482302"><ele>532.0</ele><time>2026-05-03T15:24:51Z</time></trkpt><trkpt lat="41.50002315759393" lon="23.82537406909262"><ele>532.0</ele><time>2026-05-03T15:24:53Z</time></trkpt><trkpt lat="41.500096456367366" lon="23.82546809494457"><ele>532.0</ele><time>2026-05-03T15:24:56Z</time></trkpt><trkpt lat="41.500152786888144" lon="23.82555139488346"><ele>532.0</ele><time>2026-05-03T15:24:58Z</time></trkpt><trkpt lat="41.50023020227789" lon="23.825652055208113"><ele>532.0</ele><time>2026-05-03T15:25:00Z</time></trkpt><trkpt lat="41.50029934772924" lon="23.825766179039224"><ele>532.0</ele><time>2026-05-03T15:25:02Z</time></trkpt><trkpt lat="41.500366119013435" lon="23.82585296232223"><ele>532.0</ele><time>2026-05-03T15:25:04Z</time></trkpt><trkpt lat="41.50046721682543" lon="23.825899407062895"><ele>532.0</ele><time>2026-05-03T15:25:06Z</time></trkpt><trkpt lat="41.500564117020666" lon="23.825931228188644"><ele>532.0</ele><time>2026-05-03T15:25:08Z</time></trkpt><trkpt lat="41.500641458193606" lon="23.825952760715925"><ele>532.0</ele><time>2026-05-03T15:25:10Z</time></trkpt><trkpt lat="41.500721018514746" lon="23.825940154561287"><ele>531.6666666666667</ele><time>2026-05-03T15:25:12Z</time></trkpt><trkpt lat="41.50080644677015" lon="23.82591106799126"><ele>531.3333333333334</ele><time>2026-05-03T15:25:14Z</time></trkpt><trkpt lat="41.500875190332195" lon="23.825865829280495"><ele>531.0</ele><time>2026-05-03T15:25:17Z</time></trkpt><trkpt lat="41.50091608780116" lon="23.825759832919484"><ele>530.6666666666666</ele><time>2026-05-03T15:25:19Z</time></trkpt><trkpt lat="41.50091130768629" lon="23.825640968803654"><ele>530.3333333333333</ele><time>2026-05-03T15:25:21Z</time></trkpt><trkpt lat="41.5008315475697" lon="23.825583822342757"><ele>530.0</ele><time>2026-05-03T15:25:23Z</time></trkpt><trkpt lat="41.500749442870124" lon="23.82553692515288"><ele>530.0</ele><time>2026-05-03T15:25:25Z</time></trkpt><trkpt lat="41.500685472778045" lon="23.825476504807977"><ele>530.0</ele><time>2026-05-03T15:25:27Z</time></trkpt><trkpt lat="41.5006214793064" lon="23.82540698746409"><ele>530.0</ele><time>2026-05-03T15:25:30Z</time></trkpt><trkpt lat="41.50055688980738" lon="23.82531681489213"><ele>530.0</ele><time>2026-05-03T15:25:32Z</time></trkpt><trkpt lat="41.500501076698725" lon="23.825238407996718"><ele>530.0</ele><time>2026-05-03T15:25:33Z</time></trkpt><trkpt lat="41.50044703568569" lon="23.825184545841598"><ele>530.0</ele><time>2026-05-03T15:25:34Z</time></trkpt><trkpt lat="41.50037390876298" lon="23.825073424857862"><ele>530.3333333333333</ele><time>2026-05-03T15:25:36Z</time></trkpt><trkpt lat="41.500296516931336" lon="23.825076911816918"><ele>530.6666666666666</ele><time>2026-05-03T15:25:38Z</time></trkpt><trkpt lat="41.50021173755615" lon="23.825117462384384"><ele>531.0</ele><time>2026-05-03T15:25:40Z</time></trkpt><trkpt lat="41.50013014259902" lon="23.825146967061144"><ele>531.3333333333334</ele><time>2026-05-03T15:25:42Z</time></trkpt><trkpt lat="41.50005800119343" lon="23.825102786288255"><ele>531.6666666666667</ele><time>2026-05-03T15:25:44Z</time></trkpt><trkpt lat="41.50003907427562" lon="23.825020917669207"><ele>532.0</ele><time>2026-05-03T15:25:45Z</time></trkpt><trkpt lat="41.49998030244979" lon="23.82496356630293"><ele>533.4</ele><time>2026-05-03T15:25:46Z</time></trkpt><trkpt lat="41.49991044163641" lon="23.824962031114428"><ele>534.8000000000001</ele><time>2026-05-03T15:25:47Z</time></trkpt><trkpt lat="41.49982541412422" lon="23.824857943304725"><ele>536.2</ele><time>2026-05-03T15:25:49Z</time></trkpt><trkpt lat="41.49975861675406" lon="23.8247147556279"><ele>537.6</ele><time>2026-05-03T15:25:51Z</time></trkpt><trkpt lat="41.49970119173388" lon="23.82462888846372"><ele>539.0</ele><time>2026-05-03T15:25:53Z</time></trkpt><trkpt lat="41.49963390412678" lon="23.824554768095755"><ele>539.1666666666666</ele><time>2026-05-03T15:25:55Z</time></trkpt><trkpt lat="41.49957622817111" lon="23.8244248288188"><ele>539.3333333333333</ele><time>2026-05-03T15:25:57Z</time></trkpt><trkpt lat="41.49952683243006" lon="23.82436728523085"><ele>539.5</ele><time>2026-05-03T15:25:58Z</time></trkpt><trkpt lat="41.49946331220109" lon="23.82431540381246"><ele>539.6666666666666</ele><time>2026-05-03T15:25:59Z</time></trkpt><trkpt lat="41.49939005141485" lon="23.824257562032365"><ele>539.8333333333334</ele><time>2026-05-03T15:26:01Z</time></trkpt><trkpt lat="41.4992825769909" lon="23.824220097263765"><ele>540.0</ele><time>2026-05-03T15:26:03Z</time></trkpt><trkpt lat="41.499214097981294" lon="23.824222539012986"><ele>540.0</ele><time>2026-05-03T15:26:05Z</time></trkpt><trkpt lat="41.499130131390835" lon="23.824235193136012"><ele>540.0</ele><time>2026-05-03T15:26:08Z</time></trkpt><trkpt lat="41.49910489010946" lon="23.8241368363914"><ele>540.0</ele><time>2026-05-03T15:26:12Z</time></trkpt><trkpt lat="41.49917240056501" lon="23.824173897035358"><ele>540.0</ele><time>2026-05-03T15:26:18Z</time></trkpt><trkpt lat="41.49922995721951" lon="23.824227939715616"><ele>540.0</ele><time>2026-05-03T15:26:20Z</time></trkpt><trkpt lat="41.4993268071552" lon="23.82422796350365"><ele>540.0</ele><time>2026-05-03T15:26:22Z</time></trkpt><trkpt lat="41.499433248415485" lon="23.824263809270644"><ele>539.75</ele><time>2026-05-03T15:26:24Z</time></trkpt><trkpt lat="41.49952705690636" lon="23.8243541085382"><ele>539.5</ele><time>2026-05-03T15:26:26Z</time></trkpt><trkpt lat="41.499612756399365" lon="23.824468150938497"><ele>539.25</ele><time>2026-05-03T15:26:28Z</time></trkpt><trkpt lat="41.499667373145186" lon="23.824582662694702"><ele>539.0</ele><time>2026-05-03T15:26:30Z</time></trkpt><trkpt lat="41.49975050656797" lon="23.824684567419098"><ele>539.0</ele><time>2026-05-03T15:26:32Z</time></trkpt><trkpt lat="41.499839131792626" lon="23.824822466608158"><ele>539.0</ele><time>2026-05-03T15:26:34Z</time></trkpt><trkpt lat="41.49989489119016" lon="23.824942980730864"><ele>539.0</ele><time>2026-05-03T15:26:36Z</time></trkpt><trkpt lat="41.49995120061705" lon="23.824989979819712"><ele>539.0</ele><time>2026-05-03T15:26:37Z</time></trkpt><trkpt lat="41.50005557280561" lon="23.825046597437268"><ele>539.0</ele><time>2026-05-03T15:26:39Z</time></trkpt><trkpt lat="41.50011788842989" lon="23.825150433217924"><ele>539.0</ele><time>2026-05-03T15:26:41Z</time></trkpt><trkpt lat="41.500182243986835" lon="23.825162541550185"><ele>539.0</ele><time>2026-05-03T15:26:43Z</time></trkpt><trkpt lat="41.500276296071775" lon="23.8251008457166"><ele>539.0</ele><time>2026-05-03T15:26:45Z</time></trkpt><trkpt lat="41.500407926684694" lon="23.825057725231538"><ele>539.0</ele><time>2026-05-03T15:26:48Z</time></trkpt><trkpt lat="41.50043325603841" lon="23.82514973669061"><ele>539.0</ele><time>2026-05-03T15:26:51Z</time></trkpt><trkpt lat="41.500490257984545" lon="23.82524359902991"><ele>537.5</ele><time>2026-05-03T15:26:53Z</time></trkpt><trkpt lat="41.50054644546806" lon="23.825304144725166"><ele>536.0</ele><time>2026-05-03T15:26:54Z</time></trkpt><trkpt lat="41.50059905654574" lon="23.825368681141782"><ele>534.5</ele><time>2026-05-03T15:26:55Z</time></trkpt><trkpt lat="41.50066210547943" lon="23.825461867015818"><ele>533.0</ele><time>2026-05-03T15:26:57Z</time></trkpt><trkpt lat="41.50072858682667" lon="23.825533962663222"><ele>531.5</ele><time>2026-05-03T15:26:59Z</time></trkpt><trkpt lat="41.50077920900818" lon="23.82559074811842"><ele>530.0</ele><time>2026-05-03T15:27:01Z</time></trkpt><trkpt lat="41.50084024278798" lon="23.825618278999375"><ele>530.0</ele><time>2026-05-03T15:27:05Z</time></trkpt><trkpt lat="41.5009012592604" lon="23.825685670257187"><ele>530.0</ele><time>2026-05-03T15:27:10Z</time></trkpt><trkpt lat="41.500868048231574" lon="23.825785863532648"><ele>530.0</ele><time>2026-05-03T15:27:12Z</time></trkpt><trkpt lat="41.50078897360117" lon="23.825951785040985"><ele>530.0</ele><time>2026-05-03T15:27:14Z</time></trkpt><trkpt lat="41.5006666314978" lon="23.82597988435375"><ele>530.0</ele><time>2026-05-03T15:27:16Z</time></trkpt><trkpt lat="41.50054886821946" lon="23.825940174405336"><ele>530.0</ele><time>2026-05-03T15:27:18Z</time></trkpt><trkpt lat="41.50048931686155" lon="23.82590141639552"><ele>530.0</ele><time>2026-05-03T15:27:19Z</time></trkpt><trkpt lat="41.500424849291726" lon="23.825864535561134"><ele>530.0</ele><time>2026-05-03T15:27:20Z</time></trkpt><trkpt lat="41.5003107246848" lon="23.825812237967543"><ele>530.0</ele><time>2026-05-03T15:27:22Z</time></trkpt><trkpt lat="41.50022958175935" lon="23.825690082290137"><ele>530.0</ele><time>2026-05-03T15:27:24Z</time></trkpt><trkpt lat="41.50015921069846" lon="23.82556709528245"><ele>530.4</ele><time>2026-05-03T15:27:26Z</time></trkpt><trkpt lat="41.50011687955299" lon="23.82550379543817"><ele>530.8</ele><time>2026-05-03T15:27:27Z</time></trkpt><trkpt lat="41.50005212221794" lon="23.825433095140507"><ele>531.2</ele><time>2026-05-03T15:27:29Z</time></trkpt><trkpt lat="41.499983201935905" lon="23.825335794437454"><ele>531.6</ele><time>2026-05-03T15:27:31Z</time></trkpt><trkpt lat="41.49991220525125" lon="23.82523121985865"><ele>532.0</ele><time>2026-05-03T15:27:33Z</time></trkpt><trkpt lat="41.49984503129614" lon="23.825126674038327"><ele>532.1666666666667</ele><time>2026-05-03T15:27:35Z</time></trkpt><trkpt lat="41.499802591016845" lon="23.82506261475432"><ele>532.3333333333334</ele><time>2026-05-03T15:27:36Z</time></trkpt><trkpt lat="41.49975274869179" lon="23.8249803577853"><ele>532.5</ele><time>2026-05-03T15:27:38Z</time></trkpt><trkpt lat="41.49966441789055" lon="23.824924460392904"><ele>532.6666666666666</ele><time>2026-05-03T15:27:40Z</time></trkpt><trkpt lat="41.49959503672583" lon="23.82486540630009"><ele>532.8333333333333</ele><time>2026-05-03T15:27:42Z</time></trkpt><trkpt lat="41.49952713307128" lon="23.82481212305839"><ele>533.0</ele><time>2026-05-03T15:27:44Z</time></trkpt><trkpt lat="41.49946119736387" lon="23.824797254319304"><ele>533.0</ele><time>2026-05-03T15:27:46Z</time></trkpt><trkpt lat="41.49937664818563" lon="23.82483337875105"><ele>533.0</ele><time>2026-05-03T15:27:48Z</time></trkpt><trkpt lat="41.49928236435342" lon="23.824884163875154"><ele>533.0</ele><time>2026-05-03T15:27:51Z</time></trkpt><trkpt lat="41.49923022037763" lon="23.824937021208434"><ele>533.0</ele><time>2026-05-03T15:27:54Z</time></trkpt><trkpt lat="41.49929747557568" lon="23.824876395304464"><ele>533.0</ele><time>2026-05-03T15:33:48Z</time></trkpt><trkpt lat="41.49937082247852" lon="23.82482766090147"><ele>533.0</ele><time>2026-05-03T15:33:50Z</time></trkpt><trkpt lat="41.499474691581256" lon="23.82481616741039"><ele>533.0</ele><time>2026-05-03T15:33:53Z</time></trkpt><trkpt lat="41.499554810645506" lon="23.824781700270222"><ele>533.0</ele><time>2026-05-03T15:33:55Z</time></trkpt><trkpt lat="41.49960759875544" lon="23.824704679050434"><ele>533.0</ele><time>2026-05-03T15:33:58Z</time></trkpt><trkpt lat="41.49954404131764" lon="23.82467065392082"><ele>533.0</ele><time>2026-05-03T15:34:06Z</time></trkpt><trkpt lat="41.49949788562782" lon="23.824601906417016"><ele>533.0</ele><time>2026-05-03T15:34:11Z</time></trkpt><trkpt lat="41.499479577713025" lon="23.824517842354098"><ele>533.0</ele><time>2026-05-03T15:34:23Z</time></trkpt><trkpt lat="41.499539482881474" lon="23.824422255385816"><ele>533.0</ele><time>2026-05-03T15:34:25Z</time></trkpt><trkpt lat="41.499566968198764" lon="23.824323860712962"><ele>533.0</ele><time>2026-05-03T15:34:27Z</time></trkpt><trkpt lat="41.499604503571874" lon="23.824225145844384"><ele>533.0</ele><time>2026-05-03T15:34:29Z</time></trkpt><trkpt lat="41.49968964172321" lon="23.82419270013177"><ele>533.0</ele><time>2026-05-03T15:34:42Z</time></trkpt><trkpt lat="41.49963283025284" lon="23.82423407167159"><ele>533.0</ele><time>2026-05-03T15:34:48Z</time></trkpt><trkpt lat="41.49957546709593" lon="23.82418043377225"><ele>533.0</ele><time>2026-05-03T15:34:51Z</time></trkpt><trkpt lat="41.49955012172375" lon="23.824103425756412"><ele>533.0</ele><time>2026-05-03T15:35:06Z</time></trkpt><trkpt lat="41.499579134614144" lon="23.8240284490737"><ele>533.0</ele><time>2026-05-03T15:35:10Z</time></trkpt><trkpt lat="41.49964995470164" lon="23.823966760669183"><ele>533.0</ele><time>2026-05-03T15:35:15Z</time></trkpt><trkpt lat="41.49958595328205" lon="23.8239839699732"><ele>533.0</ele><time>2026-05-03T15:35:22Z</time></trkpt><trkpt lat="41.49952586565601" lon="23.824043887991014"><ele>533.0</ele><time>2026-05-03T15:35:27Z</time></trkpt><trkpt lat="41.49953505772411" lon="23.824140255601538"><ele>533.0</ele><time>2026-05-03T15:35:33Z</time></trkpt><trkpt lat="41.499514660410654" lon="23.82423360064831"><ele>533.0</ele><time>2026-05-03T15:35:38Z</time></trkpt><trkpt lat="41.4995108711118" lon="23.824320280408827"><ele>533.0</ele><time>2026-05-03T15:35:42Z</time></trkpt><trkpt lat="41.49949578330413" lon="23.824406814552464"><ele>533.0</ele><time>2026-05-03T15:36:00Z</time></trkpt><trkpt lat="41.4994748584796" lon="23.824513937776"><ele>533.0</ele><time>2026-05-03T15:36:04Z</time></trkpt><trkpt lat="41.49944597091562" lon="23.824625144385998"><ele>533.0</ele><time>2026-05-03T15:36:07Z</time></trkpt><trkpt lat="41.49943807072067" lon="23.82471687871867"><ele>533.0</ele><time>2026-05-03T15:36:13Z</time></trkpt><trkpt lat="41.49940966657529" lon="23.824794619290856"><ele>533.0</ele><time>2026-05-03T15:36:18Z</time></trkpt><trkpt lat="41.49935249741929" lon="23.824831975400244"><ele>533.0</ele><time>2026-05-03T15:36:23Z</time></trkpt><trkpt lat="41.499280175401765" lon="23.82484110694737"><ele>533.0</ele><time>2026-05-03T15:36:26Z</time></trkpt><trkpt lat="41.49923293680116" lon="23.82490633356387"><ele>533.0</ele><time>2026-05-03T15:36:31Z</time></trkpt><trkpt lat="41.499319459037196" lon="23.824887842041207"><ele>533.0</ele><time>2026-05-03T15:36:34Z</time></trkpt><trkpt lat="41.499380916672415" lon="23.82481598608248"><ele>533.0</ele><time>2026-05-03T15:36:36Z</time></trkpt><trkpt lat="41.49943257351556" lon="23.824763882763992"><ele>533.0</ele><time>2026-05-03T15:36:38Z</time></trkpt><trkpt lat="41.499454490554164" lon="23.824647576446537"><ele>533.0</ele><time>2026-05-03T15:36:40Z</time></trkpt><trkpt lat="41.49946903331257" lon="23.824548664350356"><ele>533.0</ele><time>2026-05-03T15:36:42Z</time></trkpt><trkpt lat="41.49949949727442" lon="23.82441905055269"><ele>534.1666666666666</ele><time>2026-05-03T15:36:44Z</time></trkpt><trkpt lat="41.499520761691265" lon="23.824291276855448"><ele>535.3333333333333</ele><time>2026-05-03T15:36:46Z</time></trkpt><trkpt lat="41.49953257286248" lon="23.824172846444398"><ele>536.5</ele><time>2026-05-03T15:36:48Z</time></trkpt><trkpt lat="41.49956447903277" lon="23.824085884665323"><ele>537.6666666666666</ele><time>2026-05-03T15:36:50Z</time></trkpt><trkpt lat="41.4996005078399" lon="23.823980326535352"><ele>538.8333333333334</ele><time>2026-05-03T15:36:52Z</time></trkpt><trkpt lat="41.49968313737436" lon="23.823935989230886"><ele>540.0</ele><time>2026-05-03T15:36:55Z</time></trkpt><trkpt lat="41.49979471160084" lon="23.823876583891828"><ele>540.7142857142857</ele><time>2026-05-03T15:36:58Z</time></trkpt><trkpt lat="41.49985363251086" lon="23.823842055573202"><ele>541.4285714285713</ele><time>2026-05-03T15:36:59Z</time></trkpt><trkpt lat="41.499929712323315" lon="23.823839918973825"><ele>542.1428571428571</ele><time>2026-05-03T15:37:02Z</time></trkpt><trkpt lat="41.4999960886979" lon="23.82378711023594"><ele>542.8571428571429</ele><time>2026-05-03T15:37:05Z</time></trkpt><trkpt lat="41.50002437663535" lon="23.823876031573498"><ele>543.5714285714287</ele><time>2026-05-03T15:37:07Z</time></trkpt><trkpt lat="41.50000562798264" lon="23.823962573004152"><ele>544.2857142857143</ele><time>2026-05-03T15:37:09Z</time></trkpt><trkpt lat="41.4999660202031" lon="23.82405732948085"><ele>545.0</ele><time>2026-05-03T15:37:11Z</time></trkpt><trkpt lat="41.49993620708077" lon="23.824161593928064"><ele>545.0</ele><time>2026-05-03T15:37:13Z</time></trkpt><trkpt lat="41.499910325425795" lon="23.824284150661814"><ele>545.0</ele><time>2026-05-03T15:37:15Z</time></trkpt><trkpt lat="41.49990816849976" lon="23.824398591049516"><ele>545.0</ele><time>2026-05-03T15:37:17Z</time></trkpt><trkpt lat="41.49990391719413" lon="23.824498080064036"><ele>545.0</ele><time>2026-05-03T15:37:19Z</time></trkpt><trkpt lat="41.499977422389804" lon="23.82454481479774"><ele>545.0</ele><time>2026-05-03T15:37:21Z</time></trkpt><trkpt lat="41.50005828030555" lon="23.824481621289433"><ele>545.0</ele><time>2026-05-03T15:37:23Z</time></trkpt><trkpt lat="41.5001149652507" lon="23.824404397026488"><ele>543.8</ele><time>2026-05-03T15:37:24Z</time></trkpt><trkpt lat="41.500060165196395" lon="23.824593586386005"><ele>542.6</ele><time>2026-05-03T15:37:25Z</time></trkpt><trkpt lat="41.500100063533665" lon="23.8246758733637"><ele>541.4</ele><time>2026-05-03T15:37:27Z</time></trkpt><trkpt lat="41.50016207624247" lon="23.824770297637222"><ele>540.2</ele><time>2026-05-03T15:37:30Z</time></trkpt><trkpt lat="41.50022482455152" lon="23.824842827064057"><ele>539.0</ele><time>2026-05-03T15:37:33Z</time></trkpt><trkpt lat="41.50027346853282" lon="23.824911583678162"><ele>539.0</ele><time>2026-05-03T15:37:35Z</time></trkpt><trkpt lat="41.50033610965634" lon="23.82500814418662"><ele>539.0</ele><time>2026-05-03T15:37:37Z</time></trkpt><trkpt lat="41.5003601341467" lon="23.825089449806153"><ele>539.0</ele><time>2026-05-03T15:37:41Z</time></trkpt><trkpt lat="41.50027423746721" lon="23.825107612505978"><ele>539.0</ele><time>2026-05-03T15:37:55Z</time></trkpt><trkpt lat="41.50019222536741" lon="23.82514103275666"><ele>539.0</ele><time>2026-05-03T15:37:57Z</time></trkpt><trkpt lat="41.50012247767865" lon="23.825168723394537"><ele>539.0</ele><time>2026-05-03T15:37:59Z</time></trkpt><trkpt lat="41.500066931859436" lon="23.825087631522337"><ele>539.0</ele><time>2026-05-03T15:38:01Z</time></trkpt><trkpt lat="41.5000249771551" lon="23.824993711887643"><ele>539.0</ele><time>2026-05-03T15:38:03Z</time></trkpt><trkpt lat="41.49992005489307" lon="23.82496840843028"><ele>539.0</ele><time>2026-05-03T15:38:05Z</time></trkpt><trkpt lat="41.499862303105026" lon="23.824893007638803"><ele>539.0</ele><time>2026-05-03T15:38:07Z</time></trkpt><trkpt lat="41.499818213390846" lon="23.824800719736736"><ele>539.0</ele><time>2026-05-03T15:38:09Z</time></trkpt><trkpt lat="41.49976571771211" lon="23.824682068665314"><ele>539.0</ele><time>2026-05-03T15:38:11Z</time></trkpt><trkpt lat="41.49969786196959" lon="23.82462124610749"><ele>539.0</ele><time>2026-05-03T15:38:13Z</time></trkpt><trkpt lat="41.499642427482506" lon="23.82453863150227"><ele>539.0</ele><time>2026-05-03T15:38:15Z</time></trkpt><trkpt lat="41.499582355426014" lon="23.824424232715643"><ele>539.0</ele><time>2026-05-03T15:38:17Z</time></trkpt><trkpt lat="41.49952839553502" lon="23.824357944432332"><ele>539.0</ele><time>2026-05-03T15:38:18Z</time></trkpt><trkpt lat="41.499450818567894" lon="23.824273765108604"><ele>539.0</ele><time>2026-05-03T15:38:20Z</time></trkpt><trkpt lat="41.49935031070173" lon="23.824243423642937"><ele>539.1666666666666</ele><time>2026-05-03T15:38:22Z</time></trkpt><trkpt lat="41.49928682042295" lon="23.82422336771804"><ele>539.3333333333333</ele><time>2026-05-03T15:38:23Z</time></trkpt><trkpt lat="41.499199350956935" lon="23.824225993364397"><ele>539.5</ele><time>2026-05-03T15:38:25Z</time></trkpt><trkpt lat="41.49911822312386" lon="23.824235036755013"><ele>539.6666666666666</ele><time>2026-05-03T15:38:27Z</time></trkpt><trkpt lat="41.49905408051851" lon="23.82417853953168"><ele>539.8333333333334</ele><time>2026-05-03T15:38:29Z</time></trkpt><trkpt lat="41.49898319499843" lon="23.824157602678625"><ele>540.0</ele><time>2026-05-03T15:38:31Z</time></trkpt><trkpt lat="41.49891740362023" lon="23.82415151927978"><ele>540.0</ele><time>2026-05-03T15:38:34Z</time></trkpt><trkpt lat="41.49895892513818" lon="23.824043361548178"><ele>540.0</ele><time>2026-05-03T15:38:46Z</time></trkpt><trkpt lat="41.498997782712884" lon="23.82396800579657"><ele>540.0</ele><time>2026-05-03T15:38:48Z</time></trkpt><trkpt lat="41.49905513749986" lon="23.823861184731733"><ele>540.0</ele><time>2026-05-03T15:38:50Z</time></trkpt><trkpt lat="41.49909504878654" lon="23.823771230515078"><ele>540.0</ele><time>2026-05-03T15:38:52Z</time></trkpt><trkpt lat="41.49907503547316" lon="23.82367240648674"><ele>540.0</ele><time>2026-05-03T15:39:04Z</time></trkpt><trkpt lat="41.49909278648861" lon="23.823570214023494"><ele>540.0</ele><time>2026-05-03T15:39:06Z</time></trkpt><trkpt lat="41.499152940626765" lon="23.823508061313913"><ele>540.0</ele><time>2026-05-03T15:39:09Z</time></trkpt><trkpt lat="41.499177394987775" lon="23.82358690821951"><ele>540.0</ele><time>2026-05-03T15:39:11Z</time></trkpt><trkpt lat="41.49916115068489" lon="23.823669055321226"><ele>540.0</ele><time>2026-05-03T15:39:15Z</time></trkpt><trkpt lat="41.49912358988828" lon="23.82374072668661"><ele>540.0</ele><time>2026-05-03T15:39:59Z</time></trkpt><trkpt lat="41.499071328249244" lon="23.82381270580176"><ele>540.0</ele><time>2026-05-03T15:40:18Z</time></trkpt><trkpt lat="41.49903370597432" lon="23.8238907418124"><ele>540.0</ele><time>2026-05-03T15:40:21Z</time></trkpt><trkpt lat="41.498991919111695" lon="23.82397681137029"><ele>540.0</ele><time>2026-05-03T15:40:24Z</time></trkpt><trkpt lat="41.49895233165354" lon="23.824048498222357"><ele>540.0</ele><time>2026-05-03T15:40:27Z</time></trkpt><trkpt lat="41.49892153242573" lon="23.824126161754698"><ele>540.0</ele><time>2026-05-03T15:40:32Z</time></trkpt><trkpt lat="41.49898543291295" lon="23.824219610268845"><ele>540.0</ele><time>2026-05-03T15:40:44Z</time></trkpt><trkpt lat="41.49903603072268" lon="23.82427025276224"><ele>540.0</ele><time>2026-05-03T15:40:45Z</time></trkpt><trkpt lat="41.499088285621376" lon="23.824349997353288"><ele>540.0</ele><time>2026-05-03T15:40:47Z</time></trkpt><trkpt lat="41.49913529378807" lon="23.824419573352476"><ele>540.0</ele><time>2026-05-03T15:40:49Z</time></trkpt><trkpt lat="41.49919210070774" lon="23.82450902213266"><ele>538.8333333333334</ele><time>2026-05-03T15:40:51Z</time></trkpt><trkpt lat="41.49926296488223" lon="23.824584282204153"><ele>537.6666666666666</ele><time>2026-05-03T15:40:53Z</time></trkpt><trkpt lat="41.49930624030615" lon="23.824651667647046"><ele>536.5</ele><time>2026-05-03T15:40:55Z</time></trkpt><trkpt lat="41.499343734413785" lon="23.82473197766835"><ele>535.3333333333333</ele><time>2026-05-03T15:40:57Z</time></trkpt><trkpt lat="41.499368328331165" lon="23.82482578656488"><ele>534.1666666666666</ele><time>2026-05-03T15:41:00Z</time></trkpt><trkpt lat="41.49943507948068" lon="23.82477640818079"><ele>533.0</ele><time>2026-05-03T15:41:06Z</time></trkpt><trkpt lat="41.499449025283106" lon="23.82466638753517"><ele>533.0</ele><time>2026-05-03T15:41:08Z</time></trkpt><trkpt lat="41.49947327136165" lon="23.824548225874445"><ele>533.0</ele><time>2026-05-03T15:41:10Z</time></trkpt><trkpt lat="41.49950038758156" lon="23.824433061926545"><ele>533.0</ele><time>2026-05-03T15:41:12Z</time></trkpt><trkpt lat="41.49953718732711" lon="23.824344470941615"><ele>533.0</ele><time>2026-05-03T15:41:14Z</time></trkpt><trkpt lat="41.499518136093975" lon="23.824198022309687"><ele>533.0</ele><time>2026-05-03T15:41:16Z</time></trkpt><trkpt lat="41.49955367392519" lon="23.824095717992407"><ele>534.1666666666666</ele><time>2026-05-03T15:41:18Z</time></trkpt><trkpt lat="41.49958875959927" lon="23.82399667115949"><ele>535.3333333333333</ele><time>2026-05-03T15:41:20Z</time></trkpt><trkpt lat="41.49963812071361" lon="23.823925227822954"><ele>536.5</ele><time>2026-05-03T15:41:22Z</time></trkpt><trkpt lat="41.4996072191274" lon="23.823824308987607"><ele>537.6666666666666</ele><time>2026-05-03T15:41:24Z</time></trkpt><trkpt lat="41.499517862174656" lon="23.82380386037881"><ele>538.8333333333334</ele><time>2026-05-03T15:41:26Z</time></trkpt><trkpt lat="41.49944063066541" lon="23.82376774252393"><ele>540.0</ele><time>2026-05-03T15:41:29Z</time></trkpt><trkpt lat="41.49937031073122" lon="23.823741621782172"><ele>540.0</ele><time>2026-05-03T15:41:35Z</time></trkpt><trkpt lat="41.49932215556641" lon="23.82367374503944"><ele>540.0</ele><time>2026-05-03T15:41:39Z</time></trkpt><trkpt lat="41.49925795380726" lon="23.823601076430094"><ele>540.0</ele><time>2026-05-03T15:41:53Z</time></trkpt><trkpt lat="41.4991787608826" lon="23.823587074017222"><ele>540.0</ele><time>2026-05-03T15:41:56Z</time></trkpt><trkpt lat="41.499134015303866" lon="23.8235115367147"><ele>540.0</ele><time>2026-05-03T15:42:00Z</time></trkpt><trkpt lat="41.499125233215835" lon="23.823612158413635"><ele>540.0</ele><time>2026-05-03T15:42:06Z</time></trkpt><trkpt lat="41.49917230627355" lon="23.82368087620248"><ele>540.0</ele><time>2026-05-03T15:42:08Z</time></trkpt><trkpt lat="41.49911908604057" lon="23.823746144245753"><ele>540.0</ele><time>2026-05-03T15:42:24Z</time></trkpt><trkpt lat="41.499071764294655" lon="23.823816795005946"><ele>540.0</ele><time>2026-05-03T15:42:26Z</time></trkpt><trkpt lat="41.49903154390779" lon="23.82389680857946"><ele>540.0</ele><time>2026-05-03T15:42:28Z</time></trkpt><trkpt lat="41.49898913646138" lon="23.823970615535874"><ele>540.0</ele><time>2026-05-03T15:42:30Z</time></trkpt><trkpt lat="41.49894243166915" lon="23.82406679309902"><ele>540.0</ele><time>2026-05-03T15:42:33Z</time></trkpt><trkpt lat="41.49887958341977" lon="23.82414863939958"><ele>540.0</ele><time>2026-05-03T15:42:36Z</time></trkpt><trkpt lat="41.49894389830411" lon="23.824074144193272"><ele>540.0</ele><time>2026-05-03T15:42:44Z</time></trkpt><trkpt lat="41.49898822392563" lon="23.82397156587012"><ele>540.0</ele><time>2026-05-03T15:42:46Z</time></trkpt><trkpt lat="41.499056373169005" lon="23.82385214065243"><ele>540.0</ele><time>2026-05-03T15:42:48Z</time></trkpt><trkpt lat="41.499127281227864" lon="23.823727303479345"><ele>540.0</ele><time>2026-05-03T15:42:50Z</time></trkpt><trkpt lat="41.49918389219677" lon="23.82364701773612"><ele>540.0</ele><time>2026-05-03T15:42:52Z</time></trkpt><trkpt lat="41.49923747978061" lon="23.823576692086185"><ele>540.0</ele><time>2026-05-03T15:42:54Z</time></trkpt><trkpt lat="41.49931297124978" lon="23.82349906696078"><ele>540.0</ele><time>2026-05-03T15:42:57Z</time></trkpt><trkpt lat="41.49930030748899" lon="23.82341345371629"><ele>540.0</ele><time>2026-05-03T15:42:59Z</time></trkpt><trkpt lat="41.49922307714728" lon="23.82335038339463"><ele>540.0</ele><time>2026-05-03T15:43:03Z</time></trkpt><trkpt lat="41.499158001300806" lon="23.8232967611132"><ele>540.0</ele><time>2026-05-03T15:43:05Z</time></trkpt><trkpt lat="41.49911522862362" lon="23.823234885944718"><ele>540.0</ele><time>2026-05-03T15:43:07Z</time></trkpt><trkpt lat="41.49904451501987" lon="23.82323728915985"><ele>540.0</ele><time>2026-05-03T15:43:10Z</time></trkpt><trkpt lat="41.499021992013766" lon="23.823325480373565"><ele>540.0</ele><time>2026-05-03T15:43:13Z</time></trkpt><trkpt lat="41.49899051009551" lon="23.823417244433905"><ele>540.0</ele><time>2026-05-03T15:43:17Z</time></trkpt><trkpt lat="41.49891806261644" lon="23.82345173466934"><ele>540.0</ele><time>2026-05-03T15:43:22Z</time></trkpt><trkpt lat="41.49885951547543" lon="23.823543476875614"><ele>540.0</ele><time>2026-05-03T15:43:27Z</time></trkpt><trkpt lat="41.49880694298338" lon="23.823628673123277"><ele>540.0</ele><time>2026-05-03T15:43:31Z</time></trkpt><trkpt lat="41.498744904231486" lon="23.82368578007913"><ele>540.0</ele><time>2026-05-03T15:43:35Z</time></trkpt><trkpt lat="41.49878365675477" lon="23.823766793654123"><ele>540.0</ele><time>2026-05-03T15:43:41Z</time></trkpt><trkpt lat="41.4988660309488" lon="23.82386942225296"><ele>540.0</ele><time>2026-05-03T15:43:44Z</time></trkpt><trkpt lat="41.498956001936236" lon="23.823886856735097"><ele>540.0</ele><time>2026-05-03T15:43:46Z</time></trkpt><trkpt lat="41.499033818900465" lon="23.823901742378936"><ele>540.0</ele><time>2026-05-03T15:43:48Z</time></trkpt><trkpt lat="41.499101497032576" lon="23.82389490172116"><ele>540.0</ele><time>2026-05-03T15:43:51Z</time></trkpt><trkpt lat="41.49909815894088" lon="23.82379115130816"><ele>540.0</ele><time>2026-05-03T15:43:58Z</time></trkpt><trkpt lat="41.499159589702515" lon="23.82367942250592"><ele>540.0</ele><time>2026-05-03T15:44:01Z</time></trkpt><trkpt lat="41.49921662221332" lon="23.823620696540733"><ele>540.0</ele><time>2026-05-03T15:44:03Z</time></trkpt><trkpt lat="41.49928470988878" lon="23.823535593286305"><ele>540.0</ele><time>2026-05-03T15:44:05Z</time></trkpt><trkpt lat="41.49934913048722" lon="23.823500688220815"><ele>540.0</ele><time>2026-05-03T15:44:07Z</time></trkpt><trkpt lat="41.49936513828785" lon="23.823591973928117"><ele>540.0</ele><time>2026-05-03T15:44:10Z</time></trkpt><trkpt lat="41.499339073454536" lon="23.823675738954737"><ele>540.0</ele><time>2026-05-03T15:44:13Z</time></trkpt><trkpt lat="41.4992978227646" lon="23.823747662376675"><ele>540.0</ele><time>2026-05-03T15:44:16Z</time></trkpt><trkpt lat="41.499290169080126" lon="23.823835870380154"><ele>540.0</ele><time>2026-05-03T15:44:20Z</time></trkpt><trkpt lat="41.499357588819066" lon="23.823912424103163"><ele>540.0</ele><time>2026-05-03T15:44:24Z</time></trkpt><trkpt lat="41.49942173916557" lon="23.82396334226421"><ele>540.0</ele><time>2026-05-03T15:44:27Z</time></trkpt><trkpt lat="41.499451307885614" lon="23.824056434503433"><ele>540.0</ele><time>2026-05-03T15:44:30Z</time></trkpt><trkpt lat="41.499507231385806" lon="23.824101629338408"><ele>540.0</ele><time>2026-05-03T15:44:53Z</time></trkpt><trkpt lat="41.49954278329856" lon="23.82403075251614"><ele>540.0</ele><time>2026-05-03T15:44:55Z</time></trkpt><trkpt lat="41.49948364508692" lon="23.824069360906094"><ele>540.0</ele><time>2026-05-03T15:45:09Z</time></trkpt><trkpt lat="41.499428830947124" lon="23.824114928561844"><ele>540.0</ele><time>2026-05-03T15:45:52Z</time></trkpt><trkpt lat="41.49938114046423" lon="23.824176693694444"><ele>540.0</ele><time>2026-05-03T15:45:54Z</time></trkpt><trkpt lat="41.49931114807519" lon="23.82421756870642"><ele>540.0</ele><time>2026-05-03T15:46:03Z</time></trkpt><trkpt lat="41.49926228428342" lon="23.824162843108116"><ele>540.0</ele><time>2026-05-03T15:46:18Z</time></trkpt><trkpt lat="41.499323812675485" lon="23.82419981023363"><ele>540.0</ele><time>2026-05-03T15:46:29Z</time></trkpt><trkpt lat="41.499333711698036" lon="23.824306038766927"><ele>540.0</ele><time>2026-05-03T15:46:31Z</time></trkpt><trkpt lat="41.499381239043686" lon="23.824395388651446"><ele>540.0</ele><time>2026-05-03T15:46:34Z</time></trkpt><trkpt lat="41.499432359716444" lon="23.824490975732196"><ele>540.0</ele><time>2026-05-03T15:46:37Z</time></trkpt><trkpt lat="41.49947501042968" lon="23.824564852318147"><ele>540.0</ele><time>2026-05-03T15:46:39Z</time></trkpt><trkpt lat="41.49952564109721" lon="23.824623639261823"><ele>540.0</ele><time>2026-05-03T15:46:41Z</time></trkpt><trkpt lat="41.49957666805978" lon="23.82470411547778"><ele>539.8333333333334</ele><time>2026-05-03T15:46:43Z</time></trkpt><trkpt lat="41.4996336708326" lon="23.82480306681759"><ele>539.6666666666666</ele><time>2026-05-03T15:46:46Z</time></trkpt><trkpt lat="41.49968593196663" lon="23.824915059874545"><ele>539.5</ele><time>2026-05-03T15:46:49Z</time></trkpt><trkpt lat="41.499725102958124" lon="23.825002446425053"><ele>539.3333333333333</ele><time>2026-05-03T15:46:51Z</time></trkpt><trkpt lat="41.49975870618048" lon="23.825080043945565"><ele>539.1666666666666</ele><time>2026-05-03T15:46:53Z</time></trkpt><trkpt lat="41.49979194773624" lon="23.82515276498935"><ele>539.0</ele><time>2026-05-03T15:46:55Z</time></trkpt><trkpt lat="41.499800275523576" lon="23.825237163116388"><ele>537.8333333333333</ele><time>2026-05-03T15:46:57Z</time></trkpt><trkpt lat="41.49983174163691" lon="23.82533287815366"><ele>536.6666666666666</ele><time>2026-05-03T15:47:00Z</time></trkpt><trkpt lat="41.499891898557344" lon="23.825424684282552"><ele>535.5</ele><time>2026-05-03T15:47:03Z</time></trkpt><trkpt lat="41.499961452806495" lon="23.82550721512456"><ele>534.3333333333334</ele><time>2026-05-03T15:47:05Z</time></trkpt><trkpt lat="41.50002716344034" lon="23.82561267111097"><ele>533.1666666666667</ele><time>2026-05-03T15:47:07Z</time></trkpt><trkpt lat="41.500076026491456" lon="23.825701563984307"><ele>532.0</ele><time>2026-05-03T15:47:09Z</time></trkpt><trkpt lat="41.50015187118931" lon="23.825827487830182"><ele>532.0</ele><time>2026-05-03T15:47:11Z</time></trkpt><trkpt lat="41.5002322639525" lon="23.825915127081192"><ele>532.0</ele><time>2026-05-03T15:47:13Z</time></trkpt><trkpt lat="41.50029060808726" lon="23.825952817183627"><ele>532.0</ele><time>2026-05-03T15:47:14Z</time></trkpt><trkpt lat="41.500350536056224" lon="23.82598777924248"><ele>532.0</ele><time>2026-05-03T15:47:15Z</time></trkpt><trkpt lat="41.500447772322836" lon="23.826035710966362"><ele>532.0</ele><time>2026-05-03T15:47:17Z</time></trkpt><trkpt lat="41.5005468057013" lon="23.826029914390023"><ele>532.0</ele><time>2026-05-03T15:47:19Z</time></trkpt><trkpt lat="41.50059071515805" lon="23.825956458853316"><ele>531.6666666666667</ele><time>2026-05-03T15:47:22Z</time></trkpt><trkpt lat="41.500712550829256" lon="23.825937765978075"><ele>531.3333333333334</ele><time>2026-05-03T15:47:26Z</time></trkpt><trkpt lat="41.50077934284049" lon="23.825924903048236"><ele>531.0</ele><time>2026-05-03T15:47:27Z</time></trkpt><trkpt lat="41.50087158777012" lon="23.82586730479958"><ele>530.6666666666666</ele><time>2026-05-03T15:47:29Z</time></trkpt><trkpt lat="41.50090848986041" lon="23.82578884257106"><ele>530.3333333333333</ele><time>2026-05-03T15:47:31Z</time></trkpt><trkpt lat="41.50090187458176" lon="23.82569250752256"><ele>530.0</ele><time>2026-05-03T15:47:33Z</time></trkpt><trkpt lat="41.50085609194719" lon="23.82560904815118"><ele>530.0</ele><time>2026-05-03T15:47:35Z</time></trkpt><trkpt lat="41.50076237067356" lon="23.82555936920742"><ele>530.0</ele><time>2026-05-03T15:47:37Z</time></trkpt><trkpt lat="41.50069476893266" lon="23.825493096062306"><ele>530.0</ele><time>2026-05-03T15:47:39Z</time></trkpt><trkpt lat="41.500646465349845" lon="23.825427453429942"><ele>530.0</ele><time>2026-05-03T15:47:40Z</time></trkpt><trkpt lat="41.500586046244216" lon="23.8253523092845"><ele>530.0</ele><time>2026-05-03T15:47:41Z</time></trkpt><trkpt lat="41.500527420202744" lon="23.82526524236678"><ele>530.0</ele><time>2026-05-03T15:47:42Z</time></trkpt><trkpt lat="41.50046494710228" lon="23.825186921631758"><ele>530.3333333333333</ele><time>2026-05-03T15:47:43Z</time></trkpt><trkpt lat="41.50040862659684" lon="23.825122250471843"><ele>530.6666666666666</ele><time>2026-05-03T15:47:44Z</time></trkpt><trkpt lat="41.50035905270622" lon="23.825055163885057"><ele>531.0</ele><time>2026-05-03T15:47:45Z</time></trkpt><trkpt lat="41.50028286111328" lon="23.825104375976103"><ele>531.3333333333334</ele><time>2026-05-03T15:47:48Z</time></trkpt><trkpt lat="41.50018154416875" lon="23.825136586968682"><ele>531.6666666666667</ele><time>2026-05-03T15:47:50Z</time></trkpt><trkpt lat="41.500098061535276" lon="23.825154758824834"><ele>532.0</ele><time>2026-05-03T15:47:53Z</time></trkpt><trkpt lat="41.50002908585537" lon="23.82501479911142"><ele>533.1666666666667</ele><time>2026-05-03T15:47:55Z</time></trkpt><trkpt lat="41.49996766320759" lon="23.82497321761497"><ele>534.3333333333334</ele><time>2026-05-03T15:47:56Z</time></trkpt><trkpt lat="41.49987045255105" lon="23.824917543478662"><ele>535.5</ele><time>2026-05-03T15:47:58Z</time></trkpt><trkpt lat="41.49983089024236" lon="23.824829862300184"><ele>536.6666666666666</ele><time>2026-05-03T15:48:00Z</time></trkpt><trkpt lat="41.49978312114543" lon="23.824730334068075"><ele>537.8333333333333</ele><time>2026-05-03T15:48:01Z</time></trkpt><trkpt lat="41.499739312799164" lon="23.824661510570497"><ele>539.0</ele><time>2026-05-03T15:48:02Z</time></trkpt><trkpt lat="41.49965770641139" lon="23.824575073576657"><ele>539.0</ele><time>2026-05-03T15:48:04Z</time></trkpt><trkpt lat="41.49960970363383" lon="23.82448937211618"><ele>539.0</ele><time>2026-05-03T15:48:06Z</time></trkpt><trkpt lat="41.49954678674167" lon="23.824404045140504"><ele>539.0</ele><time>2026-05-03T15:48:08Z</time></trkpt><trkpt lat="41.499477393644725" lon="23.824313821284314"><ele>539.0</ele><time>2026-05-03T15:48:09Z</time></trkpt><trkpt lat="41.49940511206527" lon="23.824259145035185"><ele>539.0</ele><time>2026-05-03T15:48:11Z</time></trkpt><trkpt lat="41.49931754064254" lon="23.824216199737563"><ele>539.0</ele><time>2026-05-03T15:48:14Z</time></trkpt><trkpt lat="41.499374898451485" lon="23.824252603442563"><ele>539.1666666666666</ele><time>2026-05-03T15:49:09Z</time></trkpt><trkpt lat="41.499312986591534" lon="23.82418464362636"><ele>539.3333333333333</ele><time>2026-05-03T15:50:03Z</time></trkpt><trkpt lat="41.499224056344744" lon="23.824207388825016"><ele>539.5</ele><time>2026-05-03T15:50:45Z</time></trkpt><trkpt lat="41.499144525233525" lon="23.824237339610743"><ele>539.6666666666666</ele><time>2026-05-03T15:50:47Z</time></trkpt><trkpt lat="41.499083793904944" lon="23.824209086809898"><ele>539.8333333333334</ele><time>2026-05-03T15:50:49Z</time></trkpt><trkpt lat="41.499010637981286" lon="23.824190312659688"><ele>540.0</ele><time>2026-05-03T15:50:52Z</time></trkpt><trkpt lat="41.49893202333736" lon="23.82415463028059"><ele>540.0</ele><time>2026-05-03T15:50:55Z</time></trkpt><trkpt lat="41.49893827888236" lon="23.82406542027141"><ele>540.0</ele><time>2026-05-03T15:50:57Z</time></trkpt><trkpt lat="41.49898835787738" lon="23.823969042715603"><ele>540.0</ele><time>2026-05-03T15:50:59Z</time></trkpt><trkpt lat="41.499061274129154" lon="23.823841099487574"><ele>540.0</ele><time>2026-05-03T15:51:01Z</time></trkpt><trkpt lat="41.49912363481443" lon="23.823725685681673"><ele>540.0</ele><time>2026-05-03T15:51:03Z</time></trkpt><trkpt lat="41.499171444552324" lon="23.823641785744126"><ele>540.0</ele><time>2026-05-03T15:51:05Z</time></trkpt><trkpt lat="41.49924098416231" lon="23.823574574041338"><ele>540.0</ele><time>2026-05-03T15:51:07Z</time></trkpt><trkpt lat="41.499298001857596" lon="23.82353260424544"><ele>540.0</ele><time>2026-05-03T15:51:08Z</time></trkpt><trkpt lat="41.499314267343664" lon="23.823440444182015"><ele>540.0</ele><time>2026-05-03T15:51:10Z</time></trkpt><trkpt lat="41.4992501289569" lon="23.823385048774455"><ele>540.0</ele><time>2026-05-03T15:51:12Z</time></trkpt><trkpt lat="41.49915976947398" lon="23.823286914410215"><ele>540.0</ele><time>2026-05-03T15:51:14Z</time></trkpt><trkpt lat="41.499100748328374" lon="23.823218498311597"><ele>540.0</ele><time>2026-05-03T15:51:17Z</time></trkpt><trkpt lat="41.499038119422025" lon="23.823252263657945"><ele>540.0</ele><time>2026-05-03T15:51:19Z</time></trkpt><trkpt lat="41.49898883899876" lon="23.82332407279393"><ele>540.0</ele><time>2026-05-03T15:51:22Z</time></trkpt><trkpt lat="41.49892522386709" lon="23.82341818560044"><ele>540.0</ele><time>2026-05-03T15:51:25Z</time></trkpt><trkpt lat="41.49888205598816" lon="23.823506763437816"><ele>540.0</ele><time>2026-05-03T15:51:29Z</time></trkpt><trkpt lat="41.49884366223875" lon="23.823574303074867"><ele>540.0</ele><time>2026-05-03T15:51:32Z</time></trkpt><trkpt lat="41.49879212535394" lon="23.823647809104383"><ele>539.3333333333334</ele><time>2026-05-03T15:51:35Z</time></trkpt><trkpt lat="41.498678247234984" lon="23.823652401484786"><ele>538.6666666666666</ele><time>2026-05-03T15:51:39Z</time></trkpt><trkpt lat="41.49857496958871" lon="23.823643237338587"><ele>538.0</ele><time>2026-05-03T15:51:41Z</time></trkpt><trkpt lat="41.49851239386859" lon="23.823608390771223"><ele>537.3333333333333</ele><time>2026-05-03T15:51:42Z</time></trkpt><trkpt lat="41.4984460260811" lon="23.823571312632243"><ele>536.6666666666666</ele><time>2026-05-03T15:51:43Z</time></trkpt><trkpt lat="41.49838816907562" lon="23.82353362010499"><ele>536.0</ele><time>2026-05-03T15:51:44Z</time></trkpt><trkpt lat="41.49832539557284" lon="23.823459232683305"><ele>537.3333333333333</ele><time>2026-05-03T15:51:46Z</time></trkpt><trkpt lat="41.498257540611604" lon="23.82342709631608"><ele>538.6666666666666</ele><time>2026-05-03T15:51:48Z</time></trkpt><trkpt lat="41.498177792908656" lon="23.823414932403058"><ele>540.0</ele><time>2026-05-03T15:51:51Z</time></trkpt><trkpt lat="41.498195952687716" lon="23.82330834918144"><ele>541.3333333333334</ele><time>2026-05-03T15:51:53.001Z</time></trkpt><trkpt lat="41.49824848460059" lon="23.82322266395256"><ele>542.6666666666667</ele><time>2026-05-03T15:51:55.001Z</time></trkpt><trkpt lat="41.49833065528" lon="23.82314533217984"><ele>544.0</ele><time>2026-05-03T15:51:57.001Z</time></trkpt><trkpt lat="41.498413364031" lon="23.82307703235887"><ele>544.0</ele><time>2026-05-03T15:51:58.001Z</time></trkpt><trkpt lat="41.49856487326382" lon="23.823017278125867"><ele>544.0</ele><time>2026-05-03T15:51:59.001Z</time></trkpt><trkpt lat="41.498821427655166" lon="23.82292855251345"><ele>544.0</ele><time>2026-05-03T15:52:00.001Z</time></trkpt><trkpt lat="41.49891035415241" lon="23.822835427595972"><ele>544.6666666666667</ele><time>2026-05-03T15:52:02.001Z</time></trkpt><trkpt lat="41.49894638909058" lon="23.82276254951481"><ele>545.3333333333334</ele><time>2026-05-03T15:52:03.001Z</time></trkpt><trkpt lat="41.499037409827885" lon="23.82278589590793"><ele>546.0</ele><time>2026-05-03T15:52:05.001Z</time></trkpt><trkpt lat="41.49909200152706" lon="23.82288826030208"><ele>546.6666666666666</ele><time>2026-05-03T15:52:06.001Z</time></trkpt><trkpt lat="41.49913247599925" lon="23.822988166946892"><ele>547.3333333333333</ele><time>2026-05-03T15:52:07.001Z</time></trkpt><trkpt lat="41.499171134315105" lon="23.82306376774728"><ele>548.0</ele><time>2026-05-03T15:52:08.001Z</time></trkpt><trkpt lat="41.49920899422169" lon="23.823132581571947"><ele>548.0</ele><time>2026-05-03T15:52:09.001Z</time></trkpt><trkpt lat="41.499150657105474" lon="23.82323387882662"><ele>548.0</ele><time>2026-05-03T15:52:13.001Z</time></trkpt><trkpt lat="41.49908489931469" lon="23.823250198287703"><ele>548.0</ele><time>2026-05-03T15:52:14.001Z</time></trkpt><trkpt lat="41.499028320251234" lon="23.82329566860873"><ele>548.0</ele><time>2026-05-03T15:52:16.001Z</time></trkpt><trkpt lat="41.49895841735598" lon="23.823374845014907"><ele>548.0</ele><time>2026-05-03T15:52:18.001Z</time></trkpt><trkpt lat="41.498910868628116" lon="23.823459236684936"><ele>548.0</ele><time>2026-05-03T15:52:20.001Z</time></trkpt><trkpt lat="41.49886453317452" lon="23.82355280332556"><ele>546.6666666666666</ele><time>2026-05-03T15:52:23.001Z</time></trkpt><trkpt lat="41.49880991046639" lon="23.82363860695035"><ele>545.3333333333333</ele><time>2026-05-03T15:52:26.001Z</time></trkpt><trkpt lat="41.49875057831175" lon="23.823693643862885"><ele>544.0</ele><time>2026-05-03T15:52:28.001Z</time></trkpt><trkpt lat="41.49865072501628" lon="23.823657964026502"><ele>542.6666666666666</ele><time>2026-05-03T15:52:30.001Z</time></trkpt><trkpt lat="41.4985765710042" lon="23.823624033443892"><ele>541.3333333333334</ele><time>2026-05-03T15:52:31.001Z</time></trkpt><trkpt lat="41.498477421422734" lon="23.823579749713492"><ele>540.0</ele><time>2026-05-03T15:52:32.001Z</time></trkpt><trkpt lat="41.498396442244164" lon="23.823542480266433"><ele>539.3333333333334</ele><time>2026-05-03T15:52:33.001Z</time></trkpt><trkpt lat="41.49832976835946" lon="23.82349304176512"><ele>538.6666666666666</ele><time>2026-05-03T15:52:34.001Z</time></trkpt><trkpt lat="41.49826976645766" lon="23.823462649577362"><ele>538.0</ele><time>2026-05-03T15:52:35.001Z</time></trkpt><trkpt lat="41.49820880958523" lon="23.82336266047218"><ele>537.3333333333333</ele><time>2026-05-03T15:52:37.001Z</time></trkpt><trkpt lat="41.49825747000192" lon="23.82324405248791"><ele>536.6666666666666</ele><time>2026-05-03T15:52:39.001Z</time></trkpt><trkpt lat="41.49834426662713" lon="23.823210072675185"><ele>536.0</ele><time>2026-05-03T15:52:40.001Z</time></trkpt><trkpt lat="41.49844259596054" lon="23.823175986569673"><ele>537.6</ele><time>2026-05-03T15:52:41.001Z</time></trkpt><trkpt lat="41.49856282462193" lon="23.823115670270507"><ele>539.2</ele><time>2026-05-03T15:52:42Z</time></trkpt><trkpt lat="41.49863373442843" lon="23.82305630978319"><ele>540.8</ele><time>2026-05-03T15:52:43Z</time></trkpt><trkpt lat="41.4987338346345" lon="23.82297085263705"><ele>542.4</ele><time>2026-05-03T15:52:44Z</time></trkpt><trkpt lat="41.49882534386462" lon="23.82289688035081"><ele>544.0</ele><time>2026-05-03T15:52:45Z</time></trkpt><trkpt lat="41.498889341903535" lon="23.822830889737777"><ele>544.8</ele><time>2026-05-03T15:52:46Z</time></trkpt><trkpt lat="41.4989393307172" lon="23.822763062618098"><ele>545.5999999999999</ele><time>2026-05-03T15:52:47Z</time></trkpt><trkpt lat="41.499039360844876" lon="23.82281698913381"><ele>546.4</ele><time>2026-05-03T15:52:49Z</time></trkpt><trkpt lat="41.499106593126676" lon="23.822921350851367"><ele>547.1999999999999</ele><time>2026-05-03T15:52:50Z</time></trkpt><trkpt lat="41.49916930509354" lon="23.823027763581425"><ele>548.0</ele><time>2026-05-03T15:52:51Z</time></trkpt><trkpt lat="41.49919982305537" lon="23.823106528766573"><ele>548.0</ele><time>2026-05-03T15:52:52Z</time></trkpt><trkpt lat="41.499179135473305" lon="23.823211891614395"><ele>548.0</ele><time>2026-05-03T15:52:54Z</time></trkpt><trkpt lat="41.499076265816605" lon="23.82327197910369"><ele>548.0</ele><time>2026-05-03T15:52:56Z</time></trkpt><trkpt lat="41.499000525307316" lon="23.823316049271572"><ele>548.0</ele><time>2026-05-03T15:52:58Z</time></trkpt><trkpt lat="41.4989347814931" lon="23.823401527125082"><ele>548.0</ele><time>2026-05-03T15:53:00Z</time></trkpt><trkpt lat="41.498898977677555" lon="23.82348610397159"><ele>548.0</ele><time>2026-05-03T15:53:02Z</time></trkpt><trkpt lat="41.49885821279908" lon="23.823555114965224"><ele>546.4</ele><time>2026-05-03T15:53:04Z</time></trkpt><trkpt lat="41.49879462028155" lon="23.823645214500857"><ele>544.8</ele><time>2026-05-03T15:53:06Z</time></trkpt><trkpt lat="41.49872679595035" lon="23.823679962265494"><ele>543.2</ele><time>2026-05-03T15:53:08.001Z</time></trkpt><trkpt lat="41.49860112656023" lon="23.823626120079805"><ele>541.6</ele><time>2026-05-03T15:53:10.001Z</time></trkpt><trkpt lat="41.498511727702834" lon="23.823592639263826"><ele>540.0</ele><time>2026-05-03T15:53:11.001Z</time></trkpt><trkpt lat="41.498417990541135" lon="23.823550266762958"><ele>539.3333333333334</ele><time>2026-05-03T15:53:12.001Z</time></trkpt><trkpt lat="41.49832697892106" lon="23.823497867157066"><ele>538.6666666666666</ele><time>2026-05-03T15:53:13.001Z</time></trkpt><trkpt lat="41.498266510182575" lon="23.82345776076816"><ele>538.0</ele><time>2026-05-03T15:53:14.001Z</time></trkpt><trkpt lat="41.498208614473285" lon="23.823360366787337"><ele>537.3333333333333</ele><time>2026-05-03T15:53:16.001Z</time></trkpt><trkpt lat="41.49825512111585" lon="23.823229641221342"><ele>536.6666666666666</ele><time>2026-05-03T15:53:18.001Z</time></trkpt><trkpt lat="41.49832966209946" lon="23.82319641454061"><ele>536.0</ele><time>2026-05-03T15:53:19.001Z</time></trkpt><trkpt lat="41.498431880427525" lon="23.823182946485495"><ele>538.0</ele><time>2026-05-03T15:53:20.001Z</time></trkpt><trkpt lat="41.498527396549555" lon="23.8231373146795"><ele>540.0</ele><time>2026-05-03T15:53:21.001Z</time></trkpt><trkpt lat="41.49863828027688" lon="23.823038926179077"><ele>542.0</ele><time>2026-05-03T15:53:22.001Z</time></trkpt><trkpt lat="41.49874626985603" lon="23.822956348939048"><ele>544.0</ele><time>2026-05-03T15:53:23.001Z</time></trkpt><trkpt lat="41.49882326978611" lon="23.822887164498944"><ele>544.6666666666667</ele><time>2026-05-03T15:53:24.001Z</time></trkpt><trkpt lat="41.498872384271436" lon="23.82282973846657"><ele>545.3333333333334</ele><time>2026-05-03T15:53:25.001Z</time></trkpt><trkpt lat="41.498940713834" lon="23.82276507098757"><ele>546.0</ele><time>2026-05-03T15:53:27.001Z</time></trkpt><trkpt lat="41.499001897804796" lon="23.822806020235344"><ele>546.6666666666666</ele><time>2026-05-03T15:53:28.001Z</time></trkpt><trkpt lat="41.49906860185428" lon="23.822897493291762"><ele>547.3333333333333</ele><time>2026-05-03T15:53:29.001Z</time></trkpt><trkpt lat="41.49911747689456" lon="23.822995759220518"><ele>548.0</ele><time>2026-05-03T15:53:30.001Z</time></trkpt><trkpt lat="41.49918970315732" lon="23.82312128260521"><ele>548.0</ele><time>2026-05-03T15:53:32.001Z</time></trkpt><trkpt lat="41.499150154361466" lon="23.823206754452414"><ele>548.0</ele><time>2026-05-03T15:53:34.001Z</time></trkpt><trkpt lat="41.499037164641514" lon="23.823289111769448"><ele>548.0</ele><time>2026-05-03T15:53:36.001Z</time></trkpt><trkpt lat="41.498964013794804" lon="23.82337211012549"><ele>548.0</ele><time>2026-05-03T15:53:38.001Z</time></trkpt><trkpt lat="41.49891340500758" lon="23.82344488878495"><ele>548.0</ele><time>2026-05-03T15:53:40.001Z</time></trkpt><trkpt lat="41.498884844391114" lon="23.823521590707426"><ele>548.0</ele><time>2026-05-03T15:53:42.001Z</time></trkpt><trkpt lat="41.49883919369458" lon="23.823591181579527"><ele>546.6666666666666</ele><time>2026-05-03T15:53:44.001Z</time></trkpt><trkpt lat="41.49878495836576" lon="23.823671152355978"><ele>545.3333333333333</ele><time>2026-05-03T15:53:46.001Z</time></trkpt><trkpt lat="41.498719304766865" lon="23.823687448784472"><ele>544.0</ele><time>2026-05-03T15:53:48.001Z</time></trkpt><trkpt lat="41.498653478474374" lon="23.823663221625996"><ele>542.6666666666666</ele><time>2026-05-03T15:53:49.001Z</time></trkpt><trkpt lat="41.498562953924406" lon="23.823628946492327"><ele>541.3333333333334</ele><time>2026-05-03T15:53:50.001Z</time></trkpt><trkpt lat="41.4984655730118" lon="23.823587862002885"><ele>540.0</ele><time>2026-05-03T15:53:51.001Z</time></trkpt><trkpt lat="41.49836734576832" lon="23.82352456983779"><ele>540.8</ele><time>2026-05-03T15:53:52.001Z</time></trkpt><trkpt lat="41.49829865805837" lon="23.823478952782843"><ele>541.6</ele><time>2026-05-03T15:53:53.001Z</time></trkpt><trkpt lat="41.49823498467567" lon="23.82340796884137"><ele>542.4</ele><time>2026-05-03T15:53:55.001Z</time></trkpt><trkpt lat="41.4982431031174" lon="23.823259982029736"><ele>543.2</ele><time>2026-05-03T15:53:57.001Z</time></trkpt><trkpt lat="41.498382675775645" lon="23.823199415429606"><ele>544.0</ele><time>2026-05-03T15:53:59.001Z</time></trkpt><trkpt lat="41.49848414685664" lon="23.823157960296893"><ele>544.0</ele><time>2026-05-03T15:54:00.001Z</time></trkpt><trkpt lat="41.49857651117723" lon="23.823096799009935"><ele>544.0</ele><time>2026-05-03T15:54:01.001Z</time></trkpt><trkpt lat="41.49869465713693" lon="23.82299235759655"><ele>544.0</ele><time>2026-05-03T15:54:02.001Z</time></trkpt><trkpt lat="41.49879894478575" lon="23.82291027466274"><ele>544.0</ele><time>2026-05-03T15:54:03.001Z</time></trkpt><trkpt lat="41.4988647441779" lon="23.822845518007124"><ele>544.0</ele><time>2026-05-03T15:54:04.001Z</time></trkpt><trkpt lat="41.49891469777222" lon="23.822776758283705"><ele>544.6666666666667</ele><time>2026-05-03T15:54:05.001Z</time></trkpt><trkpt lat="41.498991366769516" lon="23.822778274484133"><ele>545.3333333333334</ele><time>2026-05-03T15:54:07.001Z</time></trkpt><trkpt lat="41.499046695307705" lon="23.822848985077563"><ele>546.0</ele><time>2026-05-03T15:54:08.001Z</time></trkpt><trkpt lat="41.49910189509448" lon="23.822951171227402"><ele>546.6666666666666</ele><time>2026-05-03T15:54:09.001Z</time></trkpt><trkpt lat="41.4991638516431" lon="23.823068009019593"><ele>547.3333333333333</ele><time>2026-05-03T15:54:11.001Z</time></trkpt><trkpt lat="41.49916123588873" lon="23.823172272642"><ele>548.0</ele><time>2026-05-03T15:54:13.001Z</time></trkpt><trkpt lat="41.49911347013314" lon="23.823227737576527"><ele>548.0</ele><time>2026-05-03T15:54:14.001Z</time></trkpt><trkpt lat="41.499027529922984" lon="23.82328783180765"><ele>548.0</ele><time>2026-05-03T15:54:16.001Z</time></trkpt><trkpt lat="41.498950340255625" lon="23.823374724209607"><ele>548.0</ele><time>2026-05-03T15:54:18.001Z</time></trkpt><trkpt lat="41.498906769280914" lon="23.823457555577356"><ele>548.0</ele><time>2026-05-03T15:54:20.001Z</time></trkpt><trkpt lat="41.49886361945806" lon="23.82355715186669"><ele>548.0</ele><time>2026-05-03T15:54:22.001Z</time></trkpt><trkpt lat="41.49881609096353" lon="23.82362191405798"><ele>548.0</ele><time>2026-05-03T15:54:24.001Z</time></trkpt><trkpt lat="41.49872835942923" lon="23.823680348658772"><ele>547.3333333333333</ele><time>2026-05-03T15:54:27.001Z</time></trkpt><trkpt lat="41.498665509072396" lon="23.823657552128797"><ele>546.6666666666666</ele><time>2026-05-03T15:54:28.001Z</time></trkpt><trkpt lat="41.498579065748494" lon="23.823626620549142"><ele>546.0</ele><time>2026-05-03T15:54:29.001Z</time></trkpt><trkpt lat="41.498504873468505" lon="23.823597773607542"><ele>545.3333333333334</ele><time>2026-05-03T15:54:30.001Z</time></trkpt><trkpt lat="41.498445291650214" lon="23.82356706230417"><ele>544.6666666666667</ele><time>2026-05-03T15:54:31.001Z</time></trkpt><trkpt lat="41.49835976118931" lon="23.823519117559254"><ele>544.0</ele><time>2026-05-03T15:54:32.001Z</time></trkpt><trkpt lat="41.49828779674006" lon="23.823466719052217"><ele>544.0</ele><time>2026-05-03T15:54:33.001Z</time></trkpt><trkpt lat="41.498221959440976" lon="23.823390780575767"><ele>544.0</ele><time>2026-05-03T15:54:35.001Z</time></trkpt><trkpt lat="41.498241703465844" lon="23.82325721547878"><ele>544.0</ele><time>2026-05-03T15:54:37.001Z</time></trkpt><trkpt lat="41.49838628469062" lon="23.823195828929155"><ele>544.0</ele><time>2026-05-03T15:54:39.001Z</time></trkpt><trkpt lat="41.498481575297426" lon="23.82316208410612"><ele>544.0</ele><time>2026-05-03T15:54:40.001Z</time></trkpt><trkpt lat="41.49856941307633" lon="23.823100969209694"><ele>544.0</ele><time>2026-05-03T15:54:41.001Z</time></trkpt><trkpt lat="41.49863382768468" lon="23.823045316260654"><ele>544.0</ele><time>2026-05-03T15:54:42.001Z</time></trkpt><trkpt lat="41.49872969814269" lon="23.822965464076784"><ele>544.0</ele><time>2026-05-03T15:54:43.001Z</time></trkpt><trkpt lat="41.49882706268246" lon="23.82288741706252"><ele>544.0</ele><time>2026-05-03T15:54:44.001Z</time></trkpt><trkpt lat="41.498896171957185" lon="23.822815564960415"><ele>544.0</ele><time>2026-05-03T15:54:45.001Z</time></trkpt><trkpt lat="41.49896883879338" lon="23.822762862491626"><ele>544.6666666666667</ele><time>2026-05-03T15:54:47.001Z</time></trkpt><trkpt lat="41.499028908039385" lon="23.822823419694796"><ele>545.3333333333334</ele><time>2026-05-03T15:54:48Z</time></trkpt><trkpt lat="41.499088864520814" lon="23.822933356883556"><ele>546.0</ele><time>2026-05-03T15:54:49Z</time></trkpt><trkpt lat="41.49912831051767" lon="23.82301062857458"><ele>546.6666666666666</ele><time>2026-05-03T15:54:50Z</time></trkpt><trkpt lat="41.4991762307361" lon="23.823112617388"><ele>547.3333333333333</ele><time>2026-05-03T15:54:52Z</time></trkpt><trkpt lat="41.499130079010335" lon="23.823213563902794"><ele>548.0</ele><time>2026-05-03T15:54:55Z</time></trkpt><trkpt lat="41.499070713261844" lon="23.823264303702167"><ele>548.0</ele><time>2026-05-03T15:54:57Z</time></trkpt><trkpt lat="41.498983280058454" lon="23.823339038154536"><ele>548.0</ele><time>2026-05-03T15:54:59Z</time></trkpt><trkpt lat="41.49891238470677" lon="23.823451919611582"><ele>548.0</ele><time>2026-05-03T15:55:02Z</time></trkpt><trkpt lat="41.49884148798843" lon="23.823578726247174"><ele>548.0</ele><time>2026-05-03T15:55:04Z</time></trkpt><trkpt lat="41.498781595857" lon="23.82366538369802"><ele>548.0</ele><time>2026-05-03T15:55:06Z</time></trkpt><trkpt lat="41.49868736762161" lon="23.82369427227006"><ele>547.1999999999999</ele><time>2026-05-03T15:55:09Z</time></trkpt><trkpt lat="41.49856024304734" lon="23.823640985632203"><ele>546.4</ele><time>2026-05-03T15:55:11Z</time></trkpt><trkpt lat="41.498458549956446" lon="23.823601670303823"><ele>545.5999999999999</ele><time>2026-05-03T15:55:12Z</time></trkpt><trkpt lat="41.498385093613265" lon="23.82355729262947"><ele>544.8</ele><time>2026-05-03T15:55:13Z</time></trkpt><trkpt lat="41.498319440179" lon="23.82351436309003"><ele>544.0</ele><time>2026-05-03T15:55:14Z</time></trkpt><trkpt lat="41.49822736849966" lon="23.823456945631065"><ele>544.0</ele><time>2026-05-03T15:55:16Z</time></trkpt><trkpt lat="41.498195810149724" lon="23.823330685632165"><ele>544.0</ele><time>2026-05-03T15:55:18Z</time></trkpt><trkpt lat="41.49827242809057" lon="23.823238781995595"><ele>544.0</ele><time>2026-05-03T15:55:20Z</time></trkpt><trkpt lat="41.498360409761766" lon="23.82320935277815"><ele>544.0</ele><time>2026-05-03T15:55:21Z</time></trkpt><trkpt lat="41.49844904269479" lon="23.82317744815189"><ele>544.0</ele><time>2026-05-03T15:55:22Z</time></trkpt><trkpt lat="41.49853046432175" lon="23.82312400002151"><ele>544.0</ele><time>2026-05-03T15:55:23Z</time></trkpt><trkpt lat="41.498612414949726" lon="23.82305895458491"><ele>544.0</ele><time>2026-05-03T15:55:24Z</time></trkpt><trkpt lat="41.49872925222093" lon="23.822974192827225"><ele>544.0</ele><time>2026-05-03T15:55:25Z</time></trkpt><trkpt lat="41.4988164526587" lon="23.822905262926078"><ele>544.0</ele><time>2026-05-03T15:55:26Z</time></trkpt><trkpt lat="41.498888583073445" lon="23.822836064047053"><ele>544.0</ele><time>2026-05-03T15:55:27Z</time></trkpt><trkpt lat="41.498932701573665" lon="23.822767860710947"><ele>544.6666666666667</ele><time>2026-05-03T15:55:28Z</time></trkpt><trkpt lat="41.49902549788647" lon="23.82276739586735"><ele>545.3333333333334</ele><time>2026-05-03T15:55:30Z</time></trkpt><trkpt lat="41.49907834521834" lon="23.82286591170587"><ele>546.0</ele><time>2026-05-03T15:55:31Z</time></trkpt><trkpt lat="41.499126589084405" lon="23.822965494904377"><ele>546.6666666666666</ele><time>2026-05-03T15:55:32Z</time></trkpt><trkpt lat="41.49916132443426" lon="23.823043299772685"><ele>547.3333333333333</ele><time>2026-05-03T15:55:34Z</time></trkpt><trkpt lat="41.49919199595605" lon="23.823149567449992"><ele>548.0</ele><time>2026-05-03T15:55:36Z</time></trkpt><trkpt lat="41.49913651981352" lon="23.82322833379528"><ele>548.0000000000001</ele><time>2026-05-03T15:55:37Z</time></trkpt><trkpt lat="41.499077500292785" lon="23.823266849413496"><ele>548.0</ele><time>2026-05-03T15:55:39Z</time></trkpt><trkpt lat="41.49901868644766" lon="23.823302437516805"><ele>548.0</ele><time>2026-05-03T15:55:40Z</time></trkpt><trkpt lat="41.49894749346291" lon="23.82337657878061"><ele>548.0</ele><time>2026-05-03T15:55:42Z</time></trkpt><trkpt lat="41.4988938724317" lon="23.823460356142764"><ele>548.0</ele><time>2026-05-03T15:55:44.001Z</time></trkpt><trkpt lat="41.49886049032961" lon="23.823551064712653"><ele>548.0000000000001</ele><time>2026-05-03T15:55:46.001Z</time></trkpt><trkpt lat="41.498811386507526" lon="23.82361662387166"><ele>548.0</ele><time>2026-05-03T15:55:49.001Z</time></trkpt><trkpt lat="41.49875927162455" lon="23.823685914541596"><ele>547.1999999999999</ele><time>2026-05-03T15:55:52.001Z</time></trkpt><trkpt lat="41.49868272994256" lon="23.823683528828628"><ele>546.4</ele><time>2026-05-03T15:55:55.001Z</time></trkpt><trkpt lat="41.49861834382563" lon="23.82363848074943"><ele>545.5999999999999</ele><time>2026-05-03T15:55:57.001Z</time></trkpt><trkpt lat="41.49847867826157" lon="23.823593640253133"><ele>544.8</ele><time>2026-05-03T15:55:59.001Z</time></trkpt><trkpt lat="41.49839804589526" lon="23.82352400402964"><ele>544.0</ele><time>2026-05-03T15:56:01.001Z</time></trkpt><trkpt lat="41.498350004080685" lon="23.82346284197079"><ele>544.0</ele><time>2026-05-03T15:56:03.001Z</time></trkpt><trkpt lat="41.498307288075544" lon="23.823392890561927"><ele>544.0</ele><time>2026-05-03T15:56:05.001Z</time></trkpt><trkpt lat="41.49828760112607" lon="23.823486224141018"><ele>544.0</ele><time>2026-05-03T15:56:07.001Z</time></trkpt><trkpt lat="41.49834123463134" lon="23.82355207508047"><ele>544.0</ele><time>2026-05-03T15:56:09.001Z</time></trkpt><trkpt lat="41.49844473942812" lon="23.82358711299158"><ele>544.0</ele><time>2026-05-03T15:56:11.001Z</time></trkpt><trkpt lat="41.498521894679406" lon="23.82362907088209"><ele>544.0</ele><time>2026-05-03T15:56:13.001Z</time></trkpt><trkpt lat="41.498595992185564" lon="23.823652411047078"><ele>543.3333333333334</ele><time>2026-05-03T15:56:15.001Z</time></trkpt><trkpt lat="41.49868467821" lon="23.823674158006916"><ele>542.6666666666667</ele><time>2026-05-03T15:56:17.001Z</time></trkpt><trkpt lat="41.49875472049361" lon="23.823682156314156"><ele>542.0</ele><time>2026-05-03T15:56:19.001Z</time></trkpt><trkpt lat="41.49882715641467" lon="23.823603811097012"><ele>541.3333333333334</ele><time>2026-05-03T15:56:22.001Z</time></trkpt><trkpt lat="41.49888753220527" lon="23.823510682413062"><ele>540.6666666666666</ele><time>2026-05-03T15:56:24.001Z</time></trkpt><trkpt lat="41.49893403449859" lon="23.823405689007046"><ele>540.0</ele><time>2026-05-03T15:56:26.001Z</time></trkpt><trkpt lat="41.49902420390341" lon="23.82328300509963"><ele>541.3333333333334</ele><time>2026-05-03T15:56:28.001Z</time></trkpt><trkpt lat="41.499117213755646" lon="23.823206248168287"><ele>542.6666666666666</ele><time>2026-05-03T15:56:30.001Z</time></trkpt><trkpt lat="41.499190837589694" lon="23.82312469499087"><ele>544.0</ele><time>2026-05-03T15:56:32.001Z</time></trkpt><trkpt lat="41.499193512779016" lon="23.823030288428722"><ele>545.3333333333333</ele><time>2026-05-03T15:56:33.001Z</time></trkpt><trkpt lat="41.49915125562812" lon="23.822957679604368"><ele>546.6666666666666</ele><time>2026-05-03T15:56:34.001Z</time></trkpt><trkpt lat="41.499071393801394" lon="23.822873717072166"><ele>548.0</ele><time>2026-05-03T15:56:35.001Z</time></trkpt><trkpt lat="41.49900209332051" lon="23.8227968281037"><ele>548.0</ele><time>2026-05-03T15:56:36.001Z</time></trkpt><trkpt lat="41.498924343762425" lon="23.822724862269183"><ele>548.0</ele><time>2026-05-03T15:56:38.001Z</time></trkpt><trkpt lat="41.49886773812212" lon="23.822815184267196"><ele>548.0</ele><time>2026-05-03T15:56:46.001Z</time></trkpt><trkpt lat="41.49882237544773" lon="23.822898225751317"><ele>548.0</ele><time>2026-05-03T15:56:48.001Z</time></trkpt><trkpt lat="41.4987354932651" lon="23.822969869987684"><ele>548.0</ele><time>2026-05-03T15:56:50.001Z</time></trkpt><trkpt lat="41.498638540157955" lon="23.82304162770281"><ele>547.1999999999999</ele><time>2026-05-03T15:56:52.001Z</time></trkpt><trkpt lat="41.49853444639881" lon="23.82311427192854"><ele>546.4</ele><time>2026-05-03T15:56:54Z</time></trkpt><trkpt lat="41.498451626235294" lon="23.823158623649213"><ele>545.5999999999999</ele><time>2026-05-03T15:56:55Z</time></trkpt><trkpt lat="41.49835237459112" lon="23.82321461606463"><ele>544.8</ele><time>2026-05-03T15:56:57Z</time></trkpt><trkpt lat="41.49825930747944" lon="23.82327860027254"><ele>544.0</ele><time>2026-05-03T15:56:59Z</time></trkpt><trkpt lat="41.49822131270997" lon="23.823355913424557"><ele>544.0</ele><time>2026-05-03T15:57:01Z</time></trkpt><trkpt lat="41.4982524028774" lon="23.823441678856835"><ele>544.0</ele><time>2026-05-03T15:57:06Z</time></trkpt><trkpt lat="41.49830375706928" lon="23.823493393945927"><ele>544.0</ele><time>2026-05-03T15:57:13Z</time></trkpt><trkpt lat="41.498398832672294" lon="23.823541491916146"><ele>544.0</ele><time>2026-05-03T15:57:15Z</time></trkpt><trkpt lat="41.498475766045445" lon="23.82358541526186"><ele>544.0</ele><time>2026-05-03T15:57:17Z</time></trkpt><trkpt lat="41.49857229104477" lon="23.82363777609093"><ele>544.0</ele><time>2026-05-03T15:57:19Z</time></trkpt><trkpt lat="41.498672752113514" lon="23.823669362738755"><ele>543.2</ele><time>2026-05-03T15:57:21Z</time></trkpt><trkpt lat="41.498763335305014" lon="23.823683468836123"><ele>542.4</ele><time>2026-05-03T15:57:23Z</time></trkpt><trkpt lat="41.49883210686184" lon="23.82361032285819"><ele>541.6</ele><time>2026-05-03T15:57:25Z</time></trkpt><trkpt lat="41.498897610710905" lon="23.823477050037546"><ele>540.8</ele><time>2026-05-03T15:57:27Z</time></trkpt><trkpt lat="41.49894861993309" lon="23.82337425109675"><ele>540.0</ele><time>2026-05-03T15:57:29Z</time></trkpt><trkpt lat="41.49904592059804" lon="23.823259309081056"><ele>541.3333333333334</ele><time>2026-05-03T15:57:31Z</time></trkpt><trkpt lat="41.49910955185486" lon="23.82321349698873"><ele>542.6666666666666</ele><time>2026-05-03T15:57:32Z</time></trkpt><trkpt lat="41.49918434136307" lon="23.823106128463973"><ele>544.0</ele><time>2026-05-03T15:57:34Z</time></trkpt><trkpt lat="41.499174982048814" lon="23.823019674204446"><ele>545.3333333333333</ele><time>2026-05-03T15:57:35Z</time></trkpt><trkpt lat="41.499112703319646" lon="23.822932053564575"><ele>546.6666666666666</ele><time>2026-05-03T15:57:36Z</time></trkpt><trkpt lat="41.49902627820319" lon="23.822845702344466"><ele>548.0</ele><time>2026-05-03T15:57:37Z</time></trkpt><trkpt lat="41.498963898416434" lon="23.822782661490923"><ele>548.0</ele><time>2026-05-03T15:57:39Z</time></trkpt><trkpt lat="41.49890513611604" lon="23.82273440209036"><ele>548.0</ele><time>2026-05-03T15:57:40Z</time></trkpt><trkpt lat="41.49894439669537" lon="23.822666693026036"><ele>548.0</ele><time>2026-05-03T16:00:15.001Z</time></trkpt><trkpt lat="41.49896644238927" lon="23.82254069623441"><ele>548.0</ele><time>2026-05-03T16:00:17.001Z</time></trkpt><trkpt lat="41.499034972773245" lon="23.82242065884978"><ele>548.0</ele><time>2026-05-03T16:00:19.001Z</time></trkpt><trkpt lat="41.4990719784909" lon="23.82232441981435"><ele>548.0</ele><time>2026-05-03T16:00:21.001Z</time></trkpt><trkpt lat="41.49907746134568" lon="23.82222680445862"><ele>548.0</ele><time>2026-05-03T16:00:47.001Z</time></trkpt><trkpt lat="41.49897473175263" lon="23.82229332854578"><ele>548.0</ele><time>2026-05-03T16:00:51.001Z</time></trkpt><trkpt lat="41.4990055604975" lon="23.822379953154513"><ele>548.0</ele><time>2026-05-03T16:00:53.001Z</time></trkpt><trkpt lat="41.499031622503054" lon="23.822474348510003"><ele>548.0</ele><time>2026-05-03T16:00:55.001Z</time></trkpt><trkpt lat="41.498988456781156" lon="23.822559031145982"><ele>548.0</ele><time>2026-05-03T16:00:57.001Z</time></trkpt><trkpt lat="41.49893534854914" lon="23.82266173188817"><ele>548.0</ele><time>2026-05-03T16:00:59.001Z</time></trkpt><trkpt lat="41.49891426412591" lon="23.822755037334144"><ele>548.0</ele><time>2026-05-03T16:01:01.001Z</time></trkpt><trkpt lat="41.49887928922432" lon="23.82283236568538"><ele>548.0</ele><time>2026-05-03T16:01:03.001Z</time></trkpt><trkpt lat="41.49882440757763" lon="23.82288048202078"><ele>548.0</ele><time>2026-05-03T16:01:05.001Z</time></trkpt><trkpt lat="41.4988911890544" lon="23.82291876160037"><ele>548.0</ele><time>2026-05-03T16:01:09Z</time></trkpt><trkpt lat="41.498901801697166" lon="23.82279269875821"><ele>548.0</ele><time>2026-05-03T16:01:11Z</time></trkpt><trkpt lat="41.49892226615703" lon="23.822710932206196"><ele>548.0</ele><time>2026-05-03T16:01:12Z</time></trkpt><trkpt lat="41.498974455412856" lon="23.822562795325947"><ele>549.3333333333333</ele><time>2026-05-03T16:01:14Z</time></trkpt><trkpt lat="41.49900479742758" lon="23.82247464939655"><ele>550.6666666666666</ele><time>2026-05-03T16:01:15Z</time></trkpt><trkpt lat="41.499060621272115" lon="23.822357857030408"><ele>552.0</ele><time>2026-05-03T16:01:17Z</time></trkpt><trkpt lat="41.49908416885269" lon="23.822265324417177"><ele>553.3333333333334</ele><time>2026-05-03T16:01:19Z</time></trkpt><trkpt lat="41.49902194790537" lon="23.822294118255535"><ele>554.6666666666667</ele><time>2026-05-03T16:01:23Z</time></trkpt><trkpt lat="41.49904128958797" lon="23.822386723004154"><ele>556.0</ele><time>2026-05-03T16:01:25Z</time></trkpt><trkpt lat="41.499001939977624" lon="23.82249991093689"><ele>556.0</ele><time>2026-05-03T16:01:28Z</time></trkpt><trkpt lat="41.498961379442825" lon="23.82258755764253"><ele>556.0</ele><time>2026-05-03T16:01:32Z</time></trkpt><trkpt lat="41.49892110314585" lon="23.82267667434124"><ele>556.0</ele><time>2026-05-03T16:01:34Z</time></trkpt><trkpt lat="41.498907107472924" lon="23.822763644252646"><ele>556.0</ele><time>2026-05-03T16:01:36Z</time></trkpt><trkpt lat="41.498985843715815" lon="23.82283856909339"><ele>556.0</ele><time>2026-05-03T16:01:40Z</time></trkpt><trkpt lat="41.49904527779052" lon="23.822896029076265"><ele>556.0</ele><time>2026-05-03T16:02:33.001Z</time></trkpt><trkpt lat="41.499100844813555" lon="23.822986333557427"><ele>554.6666666666667</ele><time>2026-05-03T16:02:35.001Z</time></trkpt><trkpt lat="41.499139605711704" lon="23.823058864067335"><ele>553.3333333333334</ele><time>2026-05-03T16:02:37.001Z</time></trkpt><trkpt lat="41.49914234895967" lon="23.823180957593586"><ele>552.0</ele><time>2026-05-03T16:02:40.001Z</time></trkpt><trkpt lat="41.499093419595226" lon="23.823235282379315"><ele>550.6666666666666</ele><time>2026-05-03T16:02:42.001Z</time></trkpt><trkpt lat="41.49903641455839" lon="23.823303970150626"><ele>549.3333333333333</ele><time>2026-05-03T16:02:46.001Z</time></trkpt><trkpt lat="41.49908986764653" lon="23.823389901676702"><ele>548.0</ele><time>2026-05-03T16:02:49.001Z</time></trkpt><trkpt lat="41.49912897979284" lon="23.823470408546747"><ele>546.8571428571429</ele><time>2026-05-03T16:02:52.001Z</time></trkpt><trkpt lat="41.49908602781376" lon="23.823554817354374"><ele>545.7142857142858</ele><time>2026-05-03T16:02:57.001Z</time></trkpt><trkpt lat="41.49907227636024" lon="23.82364135020387"><ele>544.5714285714286</ele><time>2026-05-03T16:03:03.001Z</time></trkpt><trkpt lat="41.49903739429954" lon="23.823726922538135"><ele>543.4285714285714</ele><time>2026-05-03T16:03:06.001Z</time></trkpt><trkpt lat="41.49899864983064" lon="23.823806218687725"><ele>542.2857142857142</ele><time>2026-05-03T16:03:08.001Z</time></trkpt><trkpt lat="41.498944699114624" lon="23.823874653974187"><ele>541.1428571428571</ele><time>2026-05-03T16:03:11Z</time></trkpt><trkpt lat="41.49890932787681" lon="23.82395853191483"><ele>540.0</ele><time>2026-05-03T16:03:14Z</time></trkpt><trkpt lat="41.49890338390687" lon="23.82404818071041"><ele>540.0</ele><time>2026-05-03T16:03:18Z</time></trkpt><trkpt lat="41.49893274105653" lon="23.82415453644552"><ele>540.0</ele><time>2026-05-03T16:03:21Z</time></trkpt><trkpt lat="41.49897868568211" lon="23.824229987019013"><ele>540.0</ele><time>2026-05-03T16:03:23Z</time></trkpt><trkpt lat="41.49904824764692" lon="23.82429957977212"><ele>540.0</ele><time>2026-05-03T16:03:25Z</time></trkpt><trkpt lat="41.49911600616981" lon="23.824404961420445"><ele>540.0</ele><time>2026-05-03T16:03:28Z</time></trkpt><trkpt lat="41.49918563303396" lon="23.824504070200494"><ele>539.8571428571429</ele><time>2026-05-03T16:03:30Z</time></trkpt><trkpt lat="41.49924831652082" lon="23.824576718715"><ele>539.7142857142857</ele><time>2026-05-03T16:03:32Z</time></trkpt><trkpt lat="41.49929149583592" lon="23.824640371496294"><ele>539.5714285714286</ele><time>2026-05-03T16:03:34Z</time></trkpt><trkpt lat="41.49932908657742" lon="23.82472706291465"><ele>539.4285714285714</ele><time>2026-05-03T16:03:36Z</time></trkpt><trkpt lat="41.49937556248937" lon="23.82478866164821"><ele>539.2857142857142</ele><time>2026-05-03T16:03:38Z</time></trkpt><trkpt lat="41.49942930270746" lon="23.824837206981947"><ele>539.1428571428571</ele><time>2026-05-03T16:03:40Z</time></trkpt><trkpt lat="41.499514636761965" lon="23.824833554842694"><ele>539.0</ele><time>2026-05-03T16:03:42Z</time></trkpt><trkpt lat="41.499631807429864" lon="23.82489469302003"><ele>539.0</ele><time>2026-05-03T16:03:44Z</time></trkpt><trkpt lat="41.49972974660967" lon="23.82498397107574"><ele>539.0</ele><time>2026-05-03T16:03:46Z</time></trkpt><trkpt lat="41.49982623408095" lon="23.825090726442316"><ele>539.0</ele><time>2026-05-03T16:03:48Z</time></trkpt><trkpt lat="41.49988554302985" lon="23.825213126194146"><ele>539.0</ele><time>2026-05-03T16:03:50Z</time></trkpt><trkpt lat="41.499967406874624" lon="23.82531869068377"><ele>537.6</ele><time>2026-05-03T16:03:52Z</time></trkpt><trkpt lat="41.50003517554081" lon="23.82541559738515"><ele>536.2</ele><time>2026-05-03T16:03:54Z</time></trkpt><trkpt lat="41.50009781746417" lon="23.82549939323658"><ele>534.8000000000001</ele><time>2026-05-03T16:03:56Z</time></trkpt><trkpt lat="41.500172042893084" lon="23.825588544055197"><ele>533.4</ele><time>2026-05-03T16:03:58Z</time></trkpt><trkpt lat="41.50024148365979" lon="23.82569818881346"><ele>532.0</ele><time>2026-05-03T16:04:00Z</time></trkpt><trkpt lat="41.50031162840479" lon="23.82581085072268"><ele>532.0</ele><time>2026-05-03T16:04:02Z</time></trkpt><trkpt lat="41.50040032744934" lon="23.82587277488377"><ele>532.0</ele><time>2026-05-03T16:04:04Z</time></trkpt><trkpt lat="41.50050108396401" lon="23.825900130394523"><ele>532.0</ele><time>2026-05-03T16:04:06Z</time></trkpt><trkpt lat="41.50057163993737" lon="23.82593462827453"><ele>532.0</ele><time>2026-05-03T16:04:08Z</time></trkpt><trkpt lat="41.500513088687484" lon="23.82602845529766"><ele>532.0</ele><time>2026-05-03T16:04:14Z</time></trkpt><trkpt lat="41.50041683510531" lon="23.82605366318783"><ele>532.0</ele><time>2026-05-03T16:04:16Z</time></trkpt><trkpt lat="41.50035730999034" lon="23.826024743089985"><ele>532.0</ele><time>2026-05-03T16:04:17Z</time></trkpt><trkpt lat="41.5002701495098" lon="23.82595760707915"><ele>532.0</ele><time>2026-05-03T16:04:19Z</time></trkpt><trkpt lat="41.500206068089106" lon="23.82590652261019"><ele>532.0</ele><time>2026-05-03T16:04:21Z</time></trkpt><trkpt lat="41.50013306112439" lon="23.825838671061884"><ele>532.0</ele><time>2026-05-03T16:04:23Z</time></trkpt><trkpt lat="41.5000735431004" lon="23.825730849509213"><ele>532.0</ele><time>2026-05-03T16:04:25.001Z</time></trkpt><trkpt lat="41.500013593096384" lon="23.825623651217313"><ele>532.0</ele><time>2026-05-03T16:04:27.001Z</time></trkpt><trkpt lat="41.49996810711861" lon="23.825543235192498"><ele>532.0</ele><time>2026-05-03T16:04:30.001Z</time></trkpt><trkpt lat="41.49988353864965" lon="23.825431604395153"><ele>532.0</ele><time>2026-05-03T16:04:38.001Z</time></trkpt><trkpt lat="41.49982262740582" lon="23.82536162559412"><ele>532.0</ele><time>2026-05-03T16:04:40.001Z</time></trkpt><trkpt lat="41.49978807908083" lon="23.825275833092046"><ele>532.0</ele><time>2026-05-03T16:04:42.001Z</time></trkpt><trkpt lat="41.49977141749004" lon="23.82518545084382"><ele>532.0</ele><time>2026-05-03T16:04:44.001Z</time></trkpt><trkpt lat="41.49975489770195" lon="23.82508642770603"><ele>532.1666666666667</ele><time>2026-05-03T16:04:46.001Z</time></trkpt><trkpt lat="41.49970434817436" lon="23.824992756231172"><ele>532.3333333333334</ele><time>2026-05-03T16:04:48.001Z</time></trkpt><trkpt lat="41.49966845174948" lon="23.824899907488845"><ele>532.5</ele><time>2026-05-03T16:04:50.001Z</time></trkpt><trkpt lat="41.49961914961811" lon="23.824798476654948"><ele>532.6666666666666</ele><time>2026-05-03T16:04:52.001Z</time></trkpt><trkpt lat="41.499577696558845" lon="23.82471232039962"><ele>532.8333333333333</ele><time>2026-05-03T16:04:54.001Z</time></trkpt><trkpt lat="41.499571659392466" lon="23.82458920404085"><ele>533.0</ele><time>2026-05-03T16:04:56.001Z</time></trkpt><trkpt lat="41.4995585194012" lon="23.82449269074734"><ele>533.0</ele><time>2026-05-03T16:04:58.001Z</time></trkpt><trkpt lat="41.49957412231184" lon="23.824374690924973"><ele>533.0</ele><time>2026-05-03T16:05:00.001Z</time></trkpt><trkpt lat="41.499658291063106" lon="23.824308979673887"><ele>533.0</ele><time>2026-05-03T16:05:02.001Z</time></trkpt><trkpt lat="41.49971633080655" lon="23.824344392937434"><ele>533.0</ele><time>2026-05-03T16:05:04.001Z</time></trkpt><trkpt lat="41.49974380836383" lon="23.824466427672647"><ele>533.0</ele><time>2026-05-03T16:05:15.001Z</time></trkpt><trkpt lat="41.4997605439154" lon="23.824549849507026"><ele>533.0</ele><time>2026-05-03T16:05:18Z</time></trkpt><trkpt lat="41.49978632969477" lon="23.82464691352593"><ele>534.0</ele><time>2026-05-03T16:05:21Z</time></trkpt><trkpt lat="41.499782668560705" lon="23.824732169320765"><ele>535.0</ele><time>2026-05-03T16:05:24Z</time></trkpt><trkpt lat="41.49980776143514" lon="23.824812850850318"><ele>536.0</ele><time>2026-05-03T16:05:26Z</time></trkpt><trkpt lat="41.49984143224447" lon="23.824913008227174"><ele>537.0</ele><time>2026-05-03T16:05:29Z</time></trkpt><trkpt lat="41.49988527809324" lon="23.824999359010473"><ele>538.0</ele><time>2026-05-03T16:05:38Z</time></trkpt><trkpt lat="41.500001720668" lon="23.82502060548193"><ele>539.0</ele><time>2026-05-03T16:05:56Z</time></trkpt><trkpt lat="41.500061632621026" lon="23.8250584685595"><ele>539.0</ele><time>2026-05-03T16:05:58Z</time></trkpt><trkpt lat="41.50001918129377" lon="23.82512309622656"><ele>539.0</ele><time>2026-05-03T16:06:03Z</time></trkpt><trkpt lat="41.49996862059766" lon="23.825208169861927"><ele>539.0</ele><time>2026-05-03T16:06:12Z</time></trkpt><trkpt lat="41.49992081626956" lon="23.825274435075045"><ele>539.0</ele><time>2026-05-03T16:06:16Z</time></trkpt><trkpt lat="41.499989666692855" lon="23.82521011943854"><ele>539.0</ele><time>2026-05-03T16:06:31Z</time></trkpt><trkpt lat="41.500028465382655" lon="23.8251064871688"><ele>539.0</ele><time>2026-05-03T16:06:33.001Z</time></trkpt><trkpt lat="41.500082955959016" lon="23.8250520850733"><ele>539.0</ele><time>2026-05-03T16:06:35.001Z</time></trkpt><trkpt lat="41.500117742346006" lon="23.825139686148802"><ele>539.0</ele><time>2026-05-03T16:06:38.001Z</time></trkpt><trkpt lat="41.50012933219831" lon="23.825228128532103"><ele>539.0</ele><time>2026-05-03T16:06:42.001Z</time></trkpt><trkpt lat="41.50009504522464" lon="23.825303482660974"><ele>539.0</ele><time>2026-05-03T16:06:49.001Z</time></trkpt><trkpt lat="41.500033633549634" lon="23.825326916021016"><ele>539.0</ele><time>2026-05-03T16:06:59.001Z</time></trkpt><trkpt lat="41.499976659577094" lon="23.8253798982397"><ele>539.0</ele><time>2026-05-03T16:07:04.001Z</time></trkpt><trkpt lat="41.499907477655206" lon="23.825418996557413"><ele>539.0</ele><time>2026-05-03T16:07:54Z</time></trkpt><trkpt lat="41.49985113348843" lon="23.82547071667886"><ele>537.8333333333333</ele><time>2026-05-03T16:08:04Z</time></trkpt><trkpt lat="41.4998656041738" lon="23.825570783416737"><ele>536.6666666666666</ele><time>2026-05-03T16:12:14Z</time></trkpt><trkpt lat="41.49991654019791" lon="23.825659679042225"><ele>535.5</ele><time>2026-05-03T16:12:16Z</time></trkpt><trkpt lat="41.49997039089496" lon="23.8257542641584"><ele>534.3333333333334</ele><time>2026-05-03T16:12:18Z</time></trkpt><trkpt lat="41.500056287266965" lon="23.825782712272577"><ele>533.1666666666667</ele><time>2026-05-03T16:12:20Z</time></trkpt><trkpt lat="41.50014621421478" lon="23.8257021664786"><ele>532.0</ele><time>2026-05-03T16:12:22Z</time></trkpt><trkpt lat="41.50023116615906" lon="23.82563077556718"><ele>532.0</ele><time>2026-05-03T16:12:24Z</time></trkpt><trkpt lat="41.500294293777486" lon="23.82557016604569"><ele>532.0</ele><time>2026-05-03T16:12:26Z</time></trkpt><trkpt lat="41.500383355030095" lon="23.825489099505145"><ele>532.0</ele><time>2026-05-03T16:12:28Z</time></trkpt><trkpt lat="41.50044651997253" lon="23.825436076669313"><ele>532.0</ele><time>2026-05-03T16:12:30Z</time></trkpt><trkpt lat="41.500378101646696" lon="23.8254676084849"><ele>532.0</ele><time>2026-05-03T16:12:36Z</time></trkpt><trkpt lat="41.500328886064395" lon="23.825542014570566"><ele>532.0</ele><time>2026-05-03T16:12:40.001Z</time></trkpt><trkpt lat="41.50027449902152" lon="23.825591444005582"><ele>532.0</ele><time>2026-05-03T16:12:44.001Z</time></trkpt><trkpt lat="41.50021481000785" lon="23.825638029164597"><ele>532.0</ele><time>2026-05-03T16:12:48.001Z</time></trkpt><trkpt lat="41.50015858388004" lon="23.825681883759337"><ele>532.0</ele><time>2026-05-03T16:12:51.001Z</time></trkpt><trkpt lat="41.500083053702745" lon="23.825740756043547"><ele>532.0</ele><time>2026-05-03T16:12:54.001Z</time></trkpt><trkpt lat="41.50000904128648" lon="23.825770945005722"><ele>532.0</ele><time>2026-05-03T16:12:58.001Z</time></trkpt><trkpt lat="41.499945722550436" lon="23.825730435717542"><ele>532.0</ele><time>2026-05-03T16:13:01.001Z</time></trkpt><trkpt lat="41.499903748098816" lon="23.825645048772387"><ele>532.0</ele><time>2026-05-03T16:13:04.001Z</time></trkpt><trkpt lat="41.49986055305691" lon="23.82556790730704"><ele>532.0</ele><time>2026-05-03T16:13:11.001Z</time></trkpt><trkpt lat="41.499893061487654" lon="23.82564227915483"><ele>532.0</ele><time>2026-05-03T16:13:22.001Z</time></trkpt><trkpt lat="41.49996034358099" lon="23.825754148839497"><ele>532.0</ele><time>2026-05-03T16:13:24.001Z</time></trkpt><trkpt lat="41.50004279709925" lon="23.825797320186904"><ele>532.0</ele><time>2026-05-03T16:13:26.001Z</time></trkpt><trkpt lat="41.50012581422749" lon="23.82573450360619"><ele>532.0</ele><time>2026-05-03T16:13:28.001Z</time></trkpt><trkpt lat="41.50017718228941" lon="23.825680833954824"><ele>532.0</ele><time>2026-05-03T16:13:29.001Z</time></trkpt><trkpt lat="41.500276612115286" lon="23.82559701177594"><ele>532.0</ele><time>2026-05-03T16:13:31.001Z</time></trkpt><trkpt lat="41.500351862402745" lon="23.825520671392336"><ele>532.0</ele><time>2026-05-03T16:13:33.001Z</time></trkpt><trkpt lat="41.5004392486747" lon="23.825438116229755"><ele>532.0</ele><time>2026-05-03T16:13:35.001Z</time></trkpt><trkpt lat="41.500502019973595" lon="23.825378424461775"><ele>532.0</ele><time>2026-05-03T16:13:40.001Z</time></trkpt><trkpt lat="41.500551365659774" lon="23.825301581635042"><ele>532.0</ele><time>2026-05-03T16:13:45Z</time></trkpt><trkpt lat="41.5004987946851" lon="23.825238606620825"><ele>532.0</ele><time>2026-05-03T16:13:48Z</time></trkpt><trkpt lat="41.50040878434037" lon="23.82513382988777"><ele>532.0</ele><time>2026-05-03T16:13:49Z</time></trkpt><trkpt lat="41.50034235301623" lon="23.825058039682705"><ele>532.0</ele><time>2026-05-03T16:13:51Z</time></trkpt><trkpt lat="41.50025294058002" lon="23.82511063703314"><ele>532.0</ele><time>2026-05-03T16:13:53Z</time></trkpt><trkpt lat="41.50014917999395" lon="23.825159879705602"><ele>532.0</ele><time>2026-05-03T16:13:55Z</time></trkpt><trkpt lat="41.50007003994346" lon="23.825150360547276"><ele>532.0</ele><time>2026-05-03T16:13:57Z</time></trkpt><trkpt lat="41.499988393991096" lon="23.824985530988734"><ele>533.4</ele><time>2026-05-03T16:13:59Z</time></trkpt><trkpt lat="41.499897415506766" lon="23.824968877398273"><ele>534.8000000000001</ele><time>2026-05-03T16:14:01Z</time></trkpt><trkpt lat="41.49980534970205" lon="23.824832331571894"><ele>536.2</ele><time>2026-05-03T16:14:03Z</time></trkpt><trkpt lat="41.49977455070384" lon="23.82475073917261"><ele>537.6</ele><time>2026-05-03T16:14:04Z</time></trkpt><trkpt lat="41.499695998166324" lon="23.824626708842572"><ele>539.0</ele><time>2026-05-03T16:14:06Z</time></trkpt><trkpt lat="41.499622672378145" lon="23.824525363331077"><ele>539.2</ele><time>2026-05-03T16:14:08Z</time></trkpt><trkpt lat="41.49955382927898" lon="23.82439210960715"><ele>539.4</ele><time>2026-05-03T16:14:10Z</time></trkpt><trkpt lat="41.49949118537949" lon="23.82432812000526"><ele>539.6</ele><time>2026-05-03T16:14:11Z</time></trkpt><trkpt lat="41.49940194885965" lon="23.824255412856967"><ele>539.8</ele><time>2026-05-03T16:14:13Z</time></trkpt><trkpt lat="41.49927104395133" lon="23.82421728382713"><ele>540.0</ele><time>2026-05-03T16:14:15Z</time></trkpt><trkpt lat="41.499169383762556" lon="23.82421801131848"><ele>540.0</ele><time>2026-05-03T16:14:17Z</time></trkpt><trkpt lat="41.49906214352988" lon="23.82419599972294"><ele>540.0</ele><time>2026-05-03T16:14:20Z</time></trkpt><trkpt lat="41.49898397672618" lon="23.824167104974272"><ele>540.0</ele><time>2026-05-03T16:14:24Z</time></trkpt><trkpt lat="41.498973536748935" lon="23.82406941704783"><ele>540.0</ele><time>2026-05-03T16:14:28Z</time></trkpt><trkpt lat="41.49899741528001" lon="23.82394839865094"><ele>540.0</ele><time>2026-05-03T16:14:30Z</time></trkpt><trkpt lat="41.49905471990631" lon="23.823841161424845"><ele>540.0</ele><time>2026-05-03T16:14:32Z</time></trkpt><trkpt lat="41.499125831431265" lon="23.823734666543054"><ele>540.0</ele><time>2026-05-03T16:14:34Z</time></trkpt><trkpt lat="41.49918319510672" lon="23.82365986207962"><ele>540.0</ele><time>2026-05-03T16:14:36Z</time></trkpt><trkpt lat="41.49925921466752" lon="23.823569864499206"><ele>540.0</ele><time>2026-05-03T16:14:38Z</time></trkpt><trkpt lat="41.499319248824754" lon="23.82349248273751"><ele>540.0</ele><time>2026-05-03T16:14:40Z</time></trkpt><trkpt lat="41.49938575040015" lon="23.823396530360682"><ele>541.3333333333334</ele><time>2026-05-03T16:14:50Z</time></trkpt><trkpt lat="41.499428299173125" lon="23.823309533407425"><ele>542.6666666666666</ele><time>2026-05-03T16:14:52Z</time></trkpt><trkpt lat="41.49936244110938" lon="23.823186944616886"><ele>544.0</ele><time>2026-05-03T16:14:54Z</time></trkpt><trkpt lat="41.499290360338755" lon="23.823147542618923"><ele>545.3333333333333</ele><time>2026-05-03T16:14:57Z</time></trkpt><trkpt lat="41.4992159302051" lon="23.823111138435156"><ele>546.6666666666666</ele><time>2026-05-03T16:15:00.001Z</time></trkpt><trkpt lat="41.4991564797643" lon="23.823163454153025"><ele>548.0</ele><time>2026-05-03T16:15:08.001Z</time></trkpt><trkpt lat="41.49906141654828" lon="23.823276197082528"><ele>548.0</ele><time>2026-05-03T16:15:11.001Z</time></trkpt><trkpt lat="41.49900075614332" lon="23.823328656871606"><ele>548.0</ele><time>2026-05-03T16:15:13.001Z</time></trkpt><trkpt lat="41.498933380563344" lon="23.82340567755311"><ele>548.0</ele><time>2026-05-03T16:15:15.001Z</time></trkpt><trkpt lat="41.498905398302746" lon="23.823484537691776"><ele>548.0</ele><time>2026-05-03T16:15:17.001Z</time></trkpt><trkpt lat="41.49886180382373" lon="23.82356631430062"><ele>548.0</ele><time>2026-05-03T16:15:19.001Z</time></trkpt><trkpt lat="41.4988133898795" lon="23.82363219376098"><ele>548.0</ele><time>2026-05-03T16:15:21.001Z</time></trkpt><trkpt lat="41.498733196642604" lon="23.823688952260742"><ele>545.6</ele><time>2026-05-03T16:15:24.001Z</time></trkpt><trkpt lat="41.49861837409883" lon="23.82364726723849"><ele>543.1999999999999</ele><time>2026-05-03T16:15:26.001Z</time></trkpt><trkpt lat="41.49852257068392" lon="23.82361375304981"><ele>540.8</ele><time>2026-05-03T16:15:27.001Z</time></trkpt><trkpt lat="41.498437492435244" lon="23.823573845752474"><ele>538.4</ele><time>2026-05-03T16:15:28.001Z</time></trkpt><trkpt lat="41.498359425362196" lon="23.823526711213088"><ele>536.0</ele><time>2026-05-03T16:15:29.001Z</time></trkpt><trkpt lat="41.49830007931159" lon="23.82348961403963"><ele>537.6</ele><time>2026-05-03T16:15:30.001Z</time></trkpt><trkpt lat="41.49823255590232" lon="23.82340158073546"><ele>539.2</ele><time>2026-05-03T16:15:32.001Z</time></trkpt><trkpt lat="41.49826569989902" lon="23.823258700680753"><ele>540.8</ele><time>2026-05-03T16:15:34.001Z</time></trkpt><trkpt lat="41.498327983332835" lon="23.823226413270834"><ele>542.4</ele><time>2026-05-03T16:15:35.001Z</time></trkpt><trkpt lat="41.49841910262741" lon="23.82320953881392"><ele>544.0</ele><time>2026-05-03T16:15:36.001Z</time></trkpt><trkpt lat="41.49851276960229" lon="23.823158912322164"><ele>544.0</ele><time>2026-05-03T16:15:37.001Z</time></trkpt><trkpt lat="41.498604048795734" lon="23.823085891456298"><ele>544.0</ele><time>2026-05-03T16:15:38.001Z</time></trkpt><trkpt lat="41.49869864552105" lon="23.823005122433116"><ele>544.0</ele><time>2026-05-03T16:15:39.001Z</time></trkpt><trkpt lat="41.498800350115125" lon="23.822927130340414"><ele>544.0</ele><time>2026-05-03T16:15:40.001Z</time></trkpt><trkpt lat="41.498887728761936" lon="23.822846297469948"><ele>544.0</ele><time>2026-05-03T16:15:41.001Z</time></trkpt><trkpt lat="41.49895296428176" lon="23.82276794670306"><ele>544.6666666666667</ele><time>2026-05-03T16:15:43.001Z</time></trkpt><trkpt lat="41.499060275891146" lon="23.822874434692096"><ele>545.3333333333334</ele><time>2026-05-03T16:15:45.001Z</time></trkpt><trkpt lat="41.4990994669306" lon="23.822951532655704"><ele>546.0</ele><time>2026-05-03T16:15:46Z</time></trkpt><trkpt lat="41.49914095563732" lon="23.823034434458933"><ele>546.6666666666666</ele><time>2026-05-03T16:15:49Z</time></trkpt><trkpt lat="41.499176284981935" lon="23.82311112189455"><ele>547.3333333333333</ele><time>2026-05-03T16:15:51Z</time></trkpt><trkpt lat="41.499134923355435" lon="23.823226850532635"><ele>548.0</ele><time>2026-05-03T16:15:53Z</time></trkpt><trkpt lat="41.49902976671707" lon="23.823299596711895"><ele>548.0</ele><time>2026-05-03T16:15:55Z</time></trkpt><trkpt lat="41.498968954289296" lon="23.823365375643654"><ele>548.0</ele><time>2026-05-03T16:15:57Z</time></trkpt><trkpt lat="41.49891220063005" lon="23.823449322658398"><ele>548.0</ele><time>2026-05-03T16:15:59Z</time></trkpt><trkpt lat="41.49886871958761" lon="23.82355184395906"><ele>548.0</ele><time>2026-05-03T16:16:02Z</time></trkpt><trkpt lat="41.498812422425274" lon="23.823630772689057"><ele>548.0</ele><time>2026-05-03T16:16:04Z</time></trkpt><trkpt lat="41.4987687511958" lon="23.823692609658124"><ele>548.0</ele><time>2026-05-03T16:16:06Z</time></trkpt><trkpt lat="41.49878301908931" lon="23.82377654910505"><ele>546.4</ele><time>2026-05-03T16:16:09Z</time></trkpt><trkpt lat="41.498825819999496" lon="23.823854131613096"><ele>544.8</ele><time>2026-05-03T16:16:11Z</time></trkpt><trkpt lat="41.49891475785281" lon="23.823894593251644"><ele>543.2</ele><time>2026-05-03T16:16:14Z</time></trkpt><trkpt lat="41.499018937050664" lon="23.82391557057942"><ele>541.6</ele><time>2026-05-03T16:16:22Z</time></trkpt><trkpt lat="41.499072733724006" lon="23.823828318974513"><ele>540.0</ele><time>2026-05-03T16:16:55Z</time></trkpt><trkpt lat="41.49913296260877" lon="23.823729426507054"><ele>540.0</ele><time>2026-05-03T16:16:57Z</time></trkpt><trkpt lat="41.49919187861686" lon="23.823643287192457"><ele>540.0</ele><time>2026-05-03T16:16:59Z</time></trkpt><trkpt lat="41.49926076713505" lon="23.823581020930337"><ele>540.0</ele><time>2026-05-03T16:17:01Z</time></trkpt><trkpt lat="41.49931022717451" lon="23.82351375704008"><ele>540.0</ele><time>2026-05-03T16:17:03Z</time></trkpt><trkpt lat="41.499379642665865" lon="23.823403899133048"><ele>540.0</ele><time>2026-05-03T16:17:12Z</time></trkpt><trkpt lat="41.499437374221486" lon="23.82333944271639"><ele>540.0</ele><time>2026-05-03T16:17:14Z</time></trkpt><trkpt lat="41.49951993866476" lon="23.823395092355366"><ele>540.0</ele><time>2026-05-03T16:17:16Z</time></trkpt><trkpt lat="41.49956400223792" lon="23.823509103331066"><ele>540.0</ele><time>2026-05-03T16:17:18Z</time></trkpt><trkpt lat="41.4995577046878" lon="23.82365829502636"><ele>540.0</ele><time>2026-05-03T16:17:21Z</time></trkpt><trkpt lat="41.49950046952287" lon="23.82373999413693"><ele>540.0</ele><time>2026-05-03T16:17:25Z</time></trkpt><trkpt lat="41.499472026741785" lon="23.823846140262923"><ele>540.0</ele><time>2026-05-03T16:17:28Z</time></trkpt><trkpt lat="41.49946575583702" lon="23.82393765721866"><ele>540.0</ele><time>2026-05-03T16:17:31Z</time></trkpt><trkpt lat="41.499470479274024" lon="23.824041075245393"><ele>540.0</ele><time>2026-05-03T16:17:34Z</time></trkpt><trkpt lat="41.49951542488495" lon="23.824134665343788"><ele>540.0</ele><time>2026-05-03T16:17:38Z</time></trkpt><trkpt lat="41.499533069290806" lon="23.824230338703124"><ele>540.0</ele><time>2026-05-03T16:17:50Z</time></trkpt><trkpt lat="41.49950775314771" lon="23.824329119409875"><ele>540.0</ele><time>2026-05-03T16:17:52Z</time></trkpt><trkpt lat="41.499491427651996" lon="23.82444173815544"><ele>540.0</ele><time>2026-05-03T16:17:55Z</time></trkpt><trkpt lat="41.499475575019126" lon="23.824525487189643"><ele>540.0</ele><time>2026-05-03T16:17:57Z</time></trkpt><trkpt lat="41.49944776134774" lon="23.824628061140878"><ele>539.8333333333334</ele><time>2026-05-03T16:18:00Z</time></trkpt><trkpt lat="41.49943295588561" lon="23.82472732787226"><ele>539.6666666666666</ele><time>2026-05-03T16:18:04Z</time></trkpt><trkpt lat="41.49944457504063" lon="23.82481941964784"><ele>539.5</ele><time>2026-05-03T16:18:07Z</time></trkpt><trkpt lat="41.49954042660564" lon="23.82485098974033"><ele>539.3333333333333</ele><time>2026-05-03T16:18:09Z</time></trkpt><trkpt lat="41.499608598285604" lon="23.82489743101967"><ele>539.1666666666666</ele><time>2026-05-03T16:18:11Z</time></trkpt><trkpt lat="41.499702371622845" lon="23.824975179773173"><ele>539.0</ele><time>2026-05-03T16:18:18Z</time></trkpt><trkpt lat="41.49977343569861" lon="23.825031585309077"><ele>539.0</ele><time>2026-05-03T16:18:20Z</time></trkpt><trkpt lat="41.499839647592516" lon="23.825125294854146"><ele>539.0</ele><time>2026-05-03T16:18:23Z</time></trkpt><trkpt lat="41.49988309421408" lon="23.825190803856803"><ele>539.0</ele><time>2026-05-03T16:18:25Z</time></trkpt><trkpt lat="41.49993472952713" lon="23.825263140840615"><ele>539.0</ele><time>2026-05-03T16:18:32Z</time></trkpt><trkpt lat="41.49999751010182" lon="23.825230766197848"><ele>539.0</ele><time>2026-05-03T16:18:34Z</time></trkpt><trkpt lat="41.500035886720866" lon="23.825131207470186"><ele>539.0</ele><time>2026-05-03T16:18:36Z</time></trkpt><trkpt lat="41.50009243760935" lon="23.82505566830191"><ele>539.0</ele><time>2026-05-03T16:18:38Z</time></trkpt><trkpt lat="41.50002938105188" lon="23.825020644276957"><ele>539.0</ele><time>2026-05-03T16:19:02Z</time></trkpt><trkpt lat="41.49995259661781" lon="23.82500840364935"><ele>539.0</ele><time>2026-05-03T16:19:05Z</time></trkpt><trkpt lat="41.499878474269984" lon="23.824931558342012"><ele>539.0</ele><time>2026-05-03T16:19:09Z</time></trkpt><trkpt lat="41.49981976557955" lon="23.824835753742548"><ele>539.0</ele><time>2026-05-03T16:19:11Z</time></trkpt><trkpt lat="41.499765744718594" lon="23.824712461740464"><ele>539.0</ele><time>2026-05-03T16:19:13Z</time></trkpt><trkpt lat="41.499701006872264" lon="23.824632549916647"><ele>539.0</ele><time>2026-05-03T16:19:15Z</time></trkpt><trkpt lat="41.49963429954731" lon="23.824541158692355"><ele>539.0</ele><time>2026-05-03T16:19:18Z</time></trkpt><trkpt lat="41.499573053704154" lon="23.824426053765354"><ele>539.0</ele><time>2026-05-03T16:19:20Z</time></trkpt><trkpt lat="41.49950688521911" lon="23.824356547142724"><ele>539.0</ele><time>2026-05-03T16:19:22Z</time></trkpt><trkpt lat="41.49943042799204" lon="23.82427764208047"><ele>539.0</ele><time>2026-05-03T16:19:24Z</time></trkpt><trkpt lat="41.499311743237904" lon="23.824241856767728"><ele>539.1666666666666</ele><time>2026-05-03T16:19:26Z</time></trkpt><trkpt lat="41.49920332259708" lon="23.824235314118827"><ele>539.3333333333333</ele><time>2026-05-03T16:19:28Z</time></trkpt><trkpt lat="41.49912005043883" lon="23.824247182018105"><ele>539.5</ele><time>2026-05-03T16:19:30Z</time></trkpt><trkpt lat="41.4990502415203" lon="23.82421698571797"><ele>539.6666666666666</ele><time>2026-05-03T16:19:32Z</time></trkpt><trkpt lat="41.498986827554376" lon="23.824204160397112"><ele>539.8333333333334</ele><time>2026-05-03T16:19:34Z</time></trkpt><trkpt lat="41.49893075556247" lon="23.824126445763632"><ele>540.0</ele><time>2026-05-03T16:19:38Z</time></trkpt><trkpt lat="41.499009323890995" lon="23.82393758106115"><ele>540.0</ele><time>2026-05-03T16:19:41Z</time></trkpt><trkpt lat="41.49906880357368" lon="23.82380992581466"><ele>540.0</ele><time>2026-05-03T16:19:43Z</time></trkpt><trkpt lat="41.49914434309408" lon="23.82368952972665"><ele>540.0</ele><time>2026-05-03T16:19:45Z</time></trkpt><trkpt lat="41.49919346431794" lon="23.823606068867136"><ele>540.0</ele><time>2026-05-03T16:19:47Z</time></trkpt><trkpt lat="41.499295955088996" lon="23.823517559469355"><ele>540.0</ele><time>2026-05-03T16:19:49Z</time></trkpt><trkpt lat="41.49934233602371" lon="23.82345084979604"><ele>540.0</ele><time>2026-05-03T16:19:50Z</time></trkpt><trkpt lat="41.49939404410252" lon="23.823385500447657"><ele>540.0</ele><time>2026-05-03T16:19:51Z</time></trkpt><trkpt lat="41.499487134281026" lon="23.823313278768488"><ele>540.0</ele><time>2026-05-03T16:19:53Z</time></trkpt><trkpt lat="41.499557972866576" lon="23.823446595144205"><ele>540.0</ele><time>2026-05-03T16:19:55Z</time></trkpt><trkpt lat="41.49958914010511" lon="23.823542835888148"><ele>540.0</ele><time>2026-05-03T16:19:56Z</time></trkpt><trkpt lat="41.49958609649988" lon="23.823633791714588"><ele>540.0</ele><time>2026-05-03T16:19:57Z</time></trkpt><trkpt lat="41.499522450321464" lon="23.823715457652316"><ele>540.0</ele><time>2026-05-03T16:19:59Z</time></trkpt><trkpt lat="41.49946288218738" lon="23.82385026226751"><ele>540.0</ele><time>2026-05-03T16:20:01Z</time></trkpt><trkpt lat="41.499454820398356" lon="23.823980780855823"><ele>540.0</ele><time>2026-05-03T16:20:03Z</time></trkpt><trkpt lat="41.4994756176641" lon="23.824080452435282"><ele>540.0</ele><time>2026-05-03T16:20:05Z</time></trkpt><trkpt lat="41.499524600964044" lon="23.82415259643267"><ele>540.0</ele><time>2026-05-03T16:20:07Z</time></trkpt><trkpt lat="41.49958237443231" lon="23.824241365901756"><ele>539.8333333333334</ele><time>2026-05-03T16:20:09Z</time></trkpt><trkpt lat="41.499630162906044" lon="23.82433018945627"><ele>539.6666666666666</ele><time>2026-05-03T16:20:11Z</time></trkpt><trkpt lat="41.49969633692316" lon="23.8243859514143"><ele>539.5</ele><time>2026-05-03T16:20:15Z</time></trkpt><trkpt lat="41.49973016402421" lon="23.824460064613564"><ele>539.3333333333333</ele><time>2026-05-03T16:20:21Z</time></trkpt><trkpt lat="41.4997851342692" lon="23.824581519135037"><ele>539.1666666666666</ele><time>2026-05-03T16:20:23Z</time></trkpt><trkpt lat="41.49980128009583" lon="23.824724390636263"><ele>539.0</ele><time>2026-05-03T16:20:25Z</time></trkpt><trkpt lat="41.499815978852375" lon="23.82483231488535"><ele>539.0</ele><time>2026-05-03T16:20:27Z</time></trkpt><trkpt lat="41.49989644386979" lon="23.824950247951893"><ele>539.0</ele><time>2026-05-03T16:20:29Z</time></trkpt><trkpt lat="41.499948923737534" lon="23.8250020057571"><ele>539.0</ele><time>2026-05-03T16:20:30Z</time></trkpt><trkpt lat="41.50000692435484" lon="23.825037251566528"><ele>539.0</ele><time>2026-05-03T16:20:31Z</time></trkpt><trkpt lat="41.50006670192806" lon="23.82506713446948"><ele>539.0</ele><time>2026-05-03T16:20:32Z</time></trkpt><trkpt lat="41.50011489928397" lon="23.825164789179457"><ele>539.0</ele><time>2026-05-03T16:20:34Z</time></trkpt><trkpt lat="41.5001938208142" lon="23.825181817320317"><ele>539.0</ele><time>2026-05-03T16:20:36Z</time></trkpt><trkpt lat="41.500299438192656" lon="23.825103548048368"><ele>539.0</ele><time>2026-05-03T16:20:38Z</time></trkpt><trkpt lat="41.50037731023289" lon="23.8250808528204"><ele>539.0</ele><time>2026-05-03T16:20:40Z</time></trkpt><trkpt lat="41.500423690857865" lon="23.82516190365934"><ele>539.0</ele><time>2026-05-03T16:20:43Z</time></trkpt><trkpt lat="41.50042773510005" lon="23.825070366346992"><ele>539.0</ele><time>2026-05-03T16:20:48Z</time></trkpt><trkpt lat="41.50034129474941" lon="23.825092839106073"><ele>539.0</ele><time>2026-05-03T16:20:50Z</time></trkpt><trkpt lat="41.500245528930485" lon="23.825099444670318"><ele>539.0</ele><time>2026-05-03T16:20:53Z</time></trkpt><trkpt lat="41.50014619913684" lon="23.82514517638789"><ele>539.0</ele><time>2026-05-03T16:20:55Z</time></trkpt><trkpt lat="41.500065794064454" lon="23.825120318877307"><ele>539.0</ele><time>2026-05-03T16:20:57Z</time></trkpt><trkpt lat="41.49996504371774" lon="23.824999239953677"><ele>539.0</ele><time>2026-05-03T16:20:59Z</time></trkpt><trkpt lat="41.49991211044142" lon="23.824946158465085"><ele>539.0</ele><time>2026-05-03T16:21:00Z</time></trkpt><trkpt lat="41.499861668091015" lon="23.824879249579812"><ele>539.0</ele><time>2026-05-03T16:21:01Z</time></trkpt><trkpt lat="41.49982706844897" lon="23.82480742968991"><ele>539.0</ele><time>2026-05-03T16:21:02Z</time></trkpt><trkpt lat="41.49974409705701" lon="23.824648913408257"><ele>539.0</ele><time>2026-05-03T16:21:04Z</time></trkpt><trkpt lat="41.4996574213673" lon="23.824561781929834"><ele>539.0</ele><time>2026-05-03T16:21:06Z</time></trkpt><trkpt lat="41.499613884481555" lon="23.824466488755927"><ele>539.0</ele><time>2026-05-03T16:21:10Z</time></trkpt><trkpt lat="41.49953637073718" lon="23.824371928687835"><ele>539.1666666666666</ele><time>2026-05-03T16:21:11Z</time></trkpt><trkpt lat="41.49948188103127" lon="23.8243222329148"><ele>539.3333333333333</ele><time>2026-05-03T16:21:12Z</time></trkpt><trkpt lat="41.49939803327552" lon="23.824258403199035"><ele>539.5</ele><time>2026-05-03T16:21:14Z</time></trkpt><trkpt lat="41.4993345903343" lon="23.82424407242872"><ele>539.6666666666666</ele><time>2026-05-03T16:21:15Z</time></trkpt><trkpt lat="41.49926359409922" lon="23.824219369905364"><ele>539.8333333333334</ele><time>2026-05-03T16:21:16Z</time></trkpt><trkpt lat="41.49915942701184" lon="23.824236141063647"><ele>540.0</ele><time>2026-05-03T16:21:18Z</time></trkpt><trkpt lat="41.49909381733753" lon="23.824220233834918"><ele>540.0</ele><time>2026-05-03T16:21:21Z</time></trkpt><trkpt lat="41.498987217037985" lon="23.82419552867369"><ele>540.0</ele><time>2026-05-03T16:21:24Z</time></trkpt><trkpt lat="41.49895591764768" lon="23.824102663602766"><ele>540.0</ele><time>2026-05-03T16:21:27Z</time></trkpt><trkpt lat="41.499003347486536" lon="23.823983809310175"><ele>540.0</ele><time>2026-05-03T16:21:30Z</time></trkpt><trkpt lat="41.49905393927363" lon="23.82385057519484"><ele>540.0</ele><time>2026-05-03T16:21:31Z</time></trkpt><trkpt lat="41.499127666873115" lon="23.8237303088092"><ele>540.0</ele><time>2026-05-03T16:21:33Z</time></trkpt><trkpt lat="41.49919271439281" lon="23.823638699226603"><ele>540.0</ele><time>2026-05-03T16:21:35Z</time></trkpt><trkpt lat="41.49923829040286" lon="23.823578174811168"><ele>540.0</ele><time>2026-05-03T16:21:36Z</time></trkpt><trkpt lat="41.49932022831454" lon="23.8235002220714"><ele>540.0</ele><time>2026-05-03T16:21:38Z</time></trkpt><trkpt lat="41.49938123891225" lon="23.82338305497995"><ele>540.0</ele><time>2026-05-03T16:21:40Z</time></trkpt><trkpt lat="41.49947814650863" lon="23.82332021455476"><ele>540.0</ele><time>2026-05-03T16:21:42Z</time></trkpt><trkpt lat="41.49955305715108" lon="23.823421096677166"><ele>540.0</ele><time>2026-05-03T16:21:44Z</time></trkpt><trkpt lat="41.499589442383595" lon="23.823503673608716"><ele>540.0</ele><time>2026-05-03T16:21:45Z</time></trkpt><trkpt lat="41.49958222692498" lon="23.823592615565317"><ele>540.0</ele><time>2026-05-03T16:21:47Z</time></trkpt><trkpt lat="41.499548411092206" lon="23.823685115329663"><ele>540.0</ele><time>2026-05-03T16:21:49Z</time></trkpt><trkpt lat="41.49946802131787" lon="23.82380143149648"><ele>540.0</ele><time>2026-05-03T16:21:51Z</time></trkpt><trkpt lat="41.49946343675839" lon="23.823894714257275"><ele>540.0</ele><time>2026-05-03T16:21:53Z</time></trkpt><trkpt lat="41.499472647851505" lon="23.823997203526567"><ele>540.0</ele><time>2026-05-03T16:21:55Z</time></trkpt><trkpt lat="41.49950527661584" lon="23.82411405140239"><ele>540.0</ele><time>2026-05-03T16:22:05Z</time></trkpt><trkpt lat="41.49952373779175" lon="23.824206459654526"><ele>540.0</ele><time>2026-05-03T16:22:09Z</time></trkpt><trkpt lat="41.49952004594019" lon="23.824299222190362"><ele>540.0</ele><time>2026-05-03T16:22:11Z</time></trkpt><trkpt lat="41.49950494682976" lon="23.82439088043531"><ele>540.0</ele><time>2026-05-03T16:22:12Z</time></trkpt><trkpt lat="41.499480201459775" lon="23.82450129712793"><ele>539.8571428571429</ele><time>2026-05-03T16:22:14Z</time></trkpt><trkpt lat="41.49945979482327" lon="23.824595066595784"><ele>539.7142857142857</ele><time>2026-05-03T16:22:16Z</time></trkpt><trkpt lat="41.49944415957033" lon="23.824685465866246"><ele>539.5714285714286</ele><time>2026-05-03T16:22:19Z</time></trkpt><trkpt lat="41.49944675873994" lon="23.824771516387717"><ele>539.4285714285714</ele><time>2026-05-03T16:22:22Z</time></trkpt><trkpt lat="41.49949784009181" lon="23.824826709206565"><ele>539.2857142857142</ele><time>2026-05-03T16:22:33Z</time></trkpt><trkpt lat="41.499558466187196" lon="23.824858776518845"><ele>539.1428571428571</ele><time>2026-05-03T16:22:34Z</time></trkpt><trkpt lat="41.49962001626649" lon="23.824902239400608"><ele>539.0</ele><time>2026-05-03T16:22:35Z</time></trkpt><trkpt lat="41.49972796711453" lon="23.82498170094153"><ele>539.0</ele><time>2026-05-03T16:22:37Z</time></trkpt><trkpt lat="41.499817211228915" lon="23.82507294683818"><ele>539.0</ele><time>2026-05-03T16:22:39Z</time></trkpt><trkpt lat="41.49985743757425" lon="23.82513784778897"><ele>539.0</ele><time>2026-05-03T16:22:40Z</time></trkpt><trkpt lat="41.499896129101955" lon="23.825214177526224"><ele>539.0</ele><time>2026-05-03T16:22:41Z</time></trkpt><trkpt lat="41.49994500643338" lon="23.825286706927983"><ele>539.0</ele><time>2026-05-03T16:22:42Z</time></trkpt><trkpt lat="41.49999465452222" lon="23.825353208833782"><ele>539.0</ele><time>2026-05-03T16:22:43Z</time></trkpt><trkpt lat="41.500041480215785" lon="23.82541275197691"><ele>537.6</ele><time>2026-05-03T16:22:44Z</time></trkpt><trkpt lat="41.50012720884955" lon="23.82553171806444"><ele>536.2</ele><time>2026-05-03T16:22:46Z</time></trkpt><trkpt lat="41.500184244044156" lon="23.825596093935975"><ele>534.8000000000001</ele><time>2026-05-03T16:22:47Z</time></trkpt><trkpt lat="41.500248977715806" lon="23.82567042731333"><ele>533.4</ele><time>2026-05-03T16:22:48Z</time></trkpt><trkpt lat="41.50030168367039" lon="23.825744048940603"><ele>532.0</ele><time>2026-05-03T16:22:49Z</time></trkpt><trkpt lat="41.500390639326596" lon="23.825866483625617"><ele>531.6666666666667</ele><time>2026-05-03T16:22:51Z</time></trkpt><trkpt lat="41.500456725159964" lon="23.825889577126567"><ele>531.3333333333334</ele><time>2026-05-03T16:22:52Z</time></trkpt><trkpt lat="41.50053336470735" lon="23.825907267695126"><ele>531.0</ele><time>2026-05-03T16:22:53Z</time></trkpt><trkpt lat="41.50059533970511" lon="23.825930867651948"><ele>530.6666666666666</ele><time>2026-05-03T16:22:54Z</time></trkpt><trkpt lat="41.50068961071435" lon="23.825960708386546"><ele>530.3333333333333</ele><time>2026-05-03T16:22:56Z</time></trkpt><trkpt lat="41.50076936466188" lon="23.825935380010502"><ele>530.0</ele><time>2026-05-03T16:22:58Z</time></trkpt><trkpt lat="41.50086579439549" lon="23.82588062714964"><ele>530.0</ele><time>2026-05-03T16:23:00Z</time></trkpt><trkpt lat="41.500917423038835" lon="23.82579203288124"><ele>530.0</ele><time>2026-05-03T16:23:02Z</time></trkpt><trkpt lat="41.500909109120336" lon="23.82565232516272"><ele>530.0</ele><time>2026-05-03T16:23:04Z</time></trkpt><trkpt lat="41.5008533682237" lon="23.82561038299882"><ele>530.0</ele><time>2026-05-03T16:23:06Z</time></trkpt><trkpt lat="41.50078973006809" lon="23.825587607574413"><ele>530.0</ele><time>2026-05-03T16:23:08Z</time></trkpt><trkpt lat="41.50062411678907" lon="23.825386248501633"><ele>530.0</ele><time>2026-05-03T16:23:11Z</time></trkpt><trkpt lat="41.50054644072789" lon="23.825295260939757"><ele>530.0</ele><time>2026-05-03T16:23:12Z</time></trkpt><trkpt lat="41.500475398068765" lon="23.82519887451509"><ele>530.0</ele><time>2026-05-03T16:23:13Z</time></trkpt><trkpt lat="41.50040684806927" lon="23.82510751444633"><ele>530.0</ele><time>2026-05-03T16:23:14Z</time></trkpt><trkpt lat="41.500357763636764" lon="23.82503270231718"><ele>530.0</ele><time>2026-05-03T16:23:15Z</time></trkpt><trkpt lat="41.50030399257005" lon="23.825079258958535"><ele>530.0</ele><time>2026-05-03T16:23:17Z</time></trkpt><trkpt lat="41.50023268997772" lon="23.825128210127787"><ele>530.4</ele><time>2026-05-03T16:23:19Z</time></trkpt><trkpt lat="41.500169422699976" lon="23.825163894238912"><ele>530.8</ele><time>2026-05-03T16:23:20Z</time></trkpt><trkpt lat="41.500075094032994" lon="23.825150712119"><ele>531.2</ele><time>2026-05-03T16:23:22Z</time></trkpt><trkpt lat="41.50003246809537" lon="23.825014762633685"><ele>531.6</ele><time>2026-05-03T16:23:24Z</time></trkpt><trkpt lat="41.49991084747517" lon="23.824954593267336"><ele>532.0</ele><time>2026-05-03T16:23:26Z</time></trkpt><trkpt lat="41.49985203171707" lon="23.824899554895833"><ele>532.1666666666667</ele><time>2026-05-03T16:23:27Z</time></trkpt><trkpt lat="41.4998073532425" lon="23.82481499162539"><ele>532.3333333333334</ele><time>2026-05-03T16:23:28Z</time></trkpt><trkpt lat="41.499768156810205" lon="23.82473674974625"><ele>532.5</ele><time>2026-05-03T16:23:29Z</time></trkpt><trkpt lat="41.499723859793875" lon="23.82465827589895"><ele>532.6666666666666</ele><time>2026-05-03T16:23:30Z</time></trkpt><trkpt lat="41.49967200889069" lon="23.824602179440973"><ele>532.8333333333333</ele><time>2026-05-03T16:23:31Z</time></trkpt><trkpt lat="41.49960752972227" lon="23.824503031037782"><ele>533.0</ele><time>2026-05-03T16:23:33Z</time></trkpt><trkpt lat="41.49956683557955" lon="23.824426910911473"><ele>533.0</ele><time>2026-05-03T16:23:34Z</time></trkpt><trkpt lat="41.49951100658021" lon="23.82435036672152"><ele>533.0</ele><time>2026-05-03T16:23:35Z</time></trkpt><trkpt lat="41.499417651181595" lon="23.82427103630057"><ele>533.0</ele><time>2026-05-03T16:23:37Z</time></trkpt><trkpt lat="41.49935628799779" lon="23.82424739408578"><ele>533.0</ele><time>2026-05-03T16:23:38Z</time></trkpt><trkpt lat="41.49928324175656" lon="23.82422412368432"><ele>533.0</ele><time>2026-05-03T16:23:39Z</time></trkpt><trkpt lat="41.49921383664701" lon="23.824211823573773"><ele>533.0</ele><time>2026-05-03T16:23:40Z</time></trkpt><trkpt lat="41.499126830531786" lon="23.824241519488638"><ele>534.4</ele><time>2026-05-03T16:23:42Z</time></trkpt><trkpt lat="41.499052896518656" lon="23.82421683197651"><ele>535.8</ele><time>2026-05-03T16:23:44Z</time></trkpt><trkpt lat="41.498982335098596" lon="23.82419193354885"><ele>537.2</ele><time>2026-05-03T16:23:46Z</time></trkpt><trkpt lat="41.49891947921507" lon="23.824130414139283"><ele>538.6</ele><time>2026-05-03T16:23:49Z</time></trkpt><trkpt lat="41.49897096148426" lon="23.824005898189565"><ele>540.0</ele><time>2026-05-03T16:23:51Z</time></trkpt><trkpt lat="41.49905374746143" lon="23.82387622905742"><ele>540.0</ele><time>2026-05-03T16:23:53Z</time></trkpt><trkpt lat="41.49909719977141" lon="23.82379941737084"><ele>540.0</ele><time>2026-05-03T16:23:54Z</time></trkpt><trkpt lat="41.49913567135404" lon="23.823729173648093"><ele>540.0</ele><time>2026-05-03T16:23:55Z</time></trkpt><trkpt lat="41.49920357227259" lon="23.82363300770699"><ele>540.0</ele><time>2026-05-03T16:23:57Z</time></trkpt><trkpt lat="41.49929007300111" lon="23.823542014425037"><ele>540.0</ele><time>2026-05-03T16:23:59Z</time></trkpt><trkpt lat="41.49936833798995" lon="23.823420916533685"><ele>540.0</ele><time>2026-05-03T16:24:01Z</time></trkpt><trkpt lat="41.499422491399336" lon="23.823357566015805"><ele>540.0</ele><time>2026-05-03T16:24:02Z</time></trkpt><trkpt lat="41.49951004728708" lon="23.82337734611474"><ele>540.0</ele><time>2026-05-03T16:24:04Z</time></trkpt><trkpt lat="41.49956013839712" lon="23.82347101472047"><ele>540.0</ele><time>2026-05-03T16:24:05Z</time></trkpt><trkpt lat="41.49959411556715" lon="23.823554601432182"><ele>540.0</ele><time>2026-05-03T16:24:06Z</time></trkpt><trkpt lat="41.49957167713521" lon="23.823670301077108"><ele>540.0</ele><time>2026-05-03T16:24:08Z</time></trkpt><trkpt lat="41.49952067536306" lon="23.823720219317043"><ele>540.0</ele><time>2026-05-03T16:24:10Z</time></trkpt><trkpt lat="41.4994669777968" lon="23.82384006726086"><ele>540.0</ele><time>2026-05-03T16:24:12Z</time></trkpt><trkpt lat="41.499462531253734" lon="23.823928031953624"><ele>540.0</ele><time>2026-05-03T16:24:14Z</time></trkpt><trkpt lat="41.49947593773286" lon="23.824014732732714"><ele>540.0</ele><time>2026-05-03T16:24:16Z</time></trkpt><trkpt lat="41.49951613683786" lon="23.82411313174311"><ele>540.0</ele><time>2026-05-03T16:24:18Z</time></trkpt><trkpt lat="41.49952529925855" lon="23.824224478057005"><ele>540.0</ele><time>2026-05-03T16:24:22Z</time></trkpt><trkpt lat="41.49951699020546" lon="23.82432097269786"><ele>538.8333333333334</ele><time>2026-05-03T16:24:24Z</time></trkpt><trkpt lat="41.499499209906524" lon="23.824425566869504"><ele>537.6666666666666</ele><time>2026-05-03T16:24:25Z</time></trkpt><trkpt lat="41.49947928849902" lon="23.82454364196701"><ele>536.5</ele><time>2026-05-03T16:24:28Z</time></trkpt><trkpt lat="41.49945480516325" lon="23.824632787482575"><ele>535.3333333333333</ele><time>2026-05-03T16:24:30Z</time></trkpt><trkpt lat="41.49944223760639" lon="23.82473482608106"><ele>534.1666666666666</ele><time>2026-05-03T16:24:33Z</time></trkpt><trkpt lat="41.49941972692857" lon="23.824839898609394"><ele>533.0</ele><time>2026-05-03T16:24:36Z</time></trkpt><trkpt lat="41.49950854447938" lon="23.82492759642724"><ele>533.0</ele><time>2026-05-03T16:24:39Z</time></trkpt><trkpt lat="41.49956178088806" lon="23.824997781993734"><ele>533.0</ele><time>2026-05-03T16:24:40Z</time></trkpt><trkpt lat="41.49960766939721" lon="23.825079792639993"><ele>533.0</ele><time>2026-05-03T16:24:41Z</time></trkpt><trkpt lat="41.499655400152406" lon="23.825164644583257"><ele>533.0</ele><time>2026-05-03T16:24:43Z</time></trkpt><trkpt lat="41.49969568806838" lon="23.825261006385944"><ele>533.0</ele><time>2026-05-03T16:24:45Z</time></trkpt><trkpt lat="41.49974324080193" lon="23.82532602685942"><ele>533.0</ele><time>2026-05-03T16:24:47Z</time></trkpt><trkpt lat="41.49983376944956" lon="23.825392986753297"><ele>532.8</ele><time>2026-05-03T16:24:49Z</time></trkpt><trkpt lat="41.49984832519646" lon="23.825476940544316"><ele>532.5999999999999</ele><time>2026-05-03T16:24:51Z</time></trkpt><trkpt lat="41.49988557459973" lon="23.825568764155015"><ele>532.4000000000001</ele><time>2026-05-03T16:24:53Z</time></trkpt><trkpt lat="41.49994968327818" lon="23.82570343588541"><ele>532.2</ele><time>2026-05-03T16:24:54Z</time></trkpt><trkpt lat="41.50003575785021" lon="23.825787405975724"><ele>532.0</ele><time>2026-05-03T16:24:56Z</time></trkpt><trkpt lat="41.5001211954883" lon="23.825750260425462"><ele>532.0</ele><time>2026-05-03T16:24:58Z</time></trkpt><trkpt lat="41.50022098045288" lon="23.825653069845576"><ele>532.0</ele><time>2026-05-03T16:25:00Z</time></trkpt><trkpt lat="41.500314751161675" lon="23.825577645196635"><ele>532.0</ele><time>2026-05-03T16:25:02Z</time></trkpt><trkpt lat="41.50036969110135" lon="23.825518911718504"><ele>532.0</ele><time>2026-05-03T16:25:03Z</time></trkpt><trkpt lat="41.50042461115669" lon="23.825458578106225"><ele>532.0</ele><time>2026-05-03T16:25:05Z</time></trkpt><trkpt lat="41.50039444573414" lon="23.82533271132292"><ele>532.0</ele><time>2026-05-03T16:25:09Z</time></trkpt><trkpt lat="41.500323306117075" lon="23.825274822602115"><ele>532.0</ele><time>2026-05-03T16:25:11Z</time></trkpt><trkpt lat="41.50027925612095" lon="23.825349477128285"><ele>532.0</ele><time>2026-05-03T16:25:19Z</time></trkpt><trkpt lat="41.500211169830074" lon="23.825390729147255"><ele>532.0</ele><time>2026-05-03T16:25:24Z</time></trkpt><trkpt lat="41.50015640659871" lon="23.825337820006357"><ele>532.0</ele><time>2026-05-03T16:25:26Z</time></trkpt><trkpt lat="41.500119179239675" lon="23.82521154042539"><ele>532.0</ele><time>2026-05-03T16:25:28Z</time></trkpt><trkpt lat="41.50006998399907" lon="23.82506907219502"><ele>533.4</ele><time>2026-05-03T16:25:35Z</time></trkpt><trkpt lat="41.499957578490786" lon="23.824999999892697"><ele>534.8000000000001</ele><time>2026-05-03T16:25:37Z</time></trkpt><trkpt lat="41.499883563140095" lon="23.824936458340378"><ele>536.2</ele><time>2026-05-03T16:25:39Z</time></trkpt><trkpt lat="41.49983879329548" lon="23.8248759702181"><ele>537.6</ele><time>2026-05-03T16:25:40Z</time></trkpt><trkpt lat="41.49977937706291" lon="23.82474900529561"><ele>539.0</ele><time>2026-05-03T16:25:42Z</time></trkpt><trkpt lat="41.4997004645854" lon="23.82462595184374"><ele>539.0</ele><time>2026-05-03T16:25:44Z</time></trkpt><trkpt lat="41.49963429063807" lon="23.824549729036047"><ele>539.0</ele><time>2026-05-03T16:25:46Z</time></trkpt><trkpt lat="41.49956794357453" lon="23.82441013258693"><ele>539.0</ele><time>2026-05-03T16:25:48Z</time></trkpt><trkpt lat="41.49951269279838" lon="23.824347436779004"><ele>539.0</ele><time>2026-05-03T16:25:49Z</time></trkpt><trkpt lat="41.49943556574222" lon="23.8242789994652"><ele>539.0</ele><time>2026-05-03T16:25:51Z</time></trkpt><trkpt lat="41.499338202916746" lon="23.82424497096027"><ele>539.1666666666666</ele><time>2026-05-03T16:25:53Z</time></trkpt><trkpt lat="41.499248542046004" lon="23.824221572802678"><ele>539.3333333333333</ele><time>2026-05-03T16:25:55Z</time></trkpt><trkpt lat="41.49915594145765" lon="23.824244454264885"><ele>539.5</ele><time>2026-05-03T16:25:57Z</time></trkpt><trkpt lat="41.49907231546094" lon="23.82422034715157"><ele>539.6666666666666</ele><time>2026-05-03T16:25:59Z</time></trkpt><trkpt lat="41.49900250670453" lon="23.82419838723121"><ele>539.8333333333334</ele><time>2026-05-03T16:26:01Z</time></trkpt><trkpt lat="41.49893344287189" lon="23.82417811632155"><ele>540.0</ele><time>2026-05-03T16:26:03Z</time></trkpt><trkpt lat="41.49895835243243" lon="23.82407174580882"><ele>540.0</ele><time>2026-05-03T16:26:06Z</time></trkpt><trkpt lat="41.49903513713372" lon="23.823922547223134"><ele>540.0</ele><time>2026-05-03T16:26:08Z</time></trkpt><trkpt lat="41.499080813860985" lon="23.82383732092402"><ele>540.0</ele><time>2026-05-03T16:26:09Z</time></trkpt><trkpt lat="41.49912124289686" lon="23.823767264296553"><ele>540.0</ele><time>2026-05-03T16:26:10Z</time></trkpt><trkpt lat="41.49918531869546" lon="23.82366607581525"><ele>540.0</ele><time>2026-05-03T16:26:12Z</time></trkpt><trkpt lat="41.49925423713684" lon="23.823593494649277"><ele>542.0</ele><time>2026-05-03T16:26:14Z</time></trkpt><trkpt lat="41.499372647073315" lon="23.82340713688396"><ele>544.0</ele><time>2026-05-03T16:26:17Z</time></trkpt><trkpt lat="41.499464120069725" lon="23.823328535372067"><ele>546.0</ele><time>2026-05-03T16:26:19Z</time></trkpt><trkpt lat="41.49953124864022" lon="23.823385448136637"><ele>548.0</ele><time>2026-05-03T16:26:21Z</time></trkpt><trkpt lat="41.49958277464062" lon="23.823475314824012"><ele>547.5</ele><time>2026-05-03T16:26:22Z</time></trkpt><trkpt lat="41.49960378775108" lon="23.823558363663132"><ele>547.0</ele><time>2026-05-03T16:26:23Z</time></trkpt><trkpt lat="41.499580143579635" lon="23.823643530380437"><ele>546.5</ele><time>2026-05-03T16:26:25Z</time></trkpt><trkpt lat="41.49952451242815" lon="23.823718530067197"><ele>546.0</ele><time>2026-05-03T16:26:27Z</time></trkpt><trkpt lat="41.49947198111839" lon="23.823837002888354"><ele>545.5</ele><time>2026-05-03T16:26:29Z</time></trkpt><trkpt lat="41.4994565302336" lon="23.82396077436718"><ele>545.0</ele><time>2026-05-03T16:26:31Z</time></trkpt><trkpt lat="41.4994760883974" lon="23.824043477646907"><ele>544.1666666666666</ele><time>2026-05-03T16:26:34Z</time></trkpt><trkpt lat="41.499523085879105" lon="23.824141491341038"><ele>543.3333333333333</ele><time>2026-05-03T16:26:36Z</time></trkpt><trkpt lat="41.499528689692454" lon="23.824231009061467"><ele>542.5</ele><time>2026-05-03T16:26:39Z</time></trkpt><trkpt lat="41.49951662044121" lon="23.824337388272493"><ele>541.6666666666666</ele><time>2026-05-03T16:26:41Z</time></trkpt><trkpt lat="41.49949230944377" lon="23.82445793715184"><ele>540.8333333333334</ele><time>2026-05-03T16:26:44Z</time></trkpt><trkpt lat="41.49946305283324" lon="23.824575082443193"><ele>540.0</ele><time>2026-05-03T16:26:47Z</time></trkpt><trkpt lat="41.49944299155191" lon="23.824686704813427"><ele>539.8571428571429</ele><time>2026-05-03T16:26:51Z</time></trkpt><trkpt lat="41.499420491345774" lon="23.8247759794202"><ele>539.7142857142857</ele><time>2026-05-03T16:26:53Z</time></trkpt><trkpt lat="41.49944618120332" lon="23.824883784414567"><ele>539.5714285714286</ele><time>2026-05-03T16:26:56Z</time></trkpt><trkpt lat="41.49949794962884" lon="23.824942792705055"><ele>539.4285714285714</ele><time>2026-05-03T16:26:57Z</time></trkpt><trkpt lat="41.499555929150816" lon="23.825015466742475"><ele>539.2857142857142</ele><time>2026-05-03T16:26:58Z</time></trkpt><trkpt lat="41.49959563485127" lon="23.82508989857769"><ele>539.1428571428571</ele><time>2026-05-03T16:26:59Z</time></trkpt><trkpt lat="41.49964752168993" lon="23.82516746690552"><ele>539.0</ele><time>2026-05-03T16:27:01Z</time></trkpt><trkpt lat="41.49969994228047" lon="23.82524738208615"><ele>537.25</ele><time>2026-05-03T16:27:03Z</time></trkpt><trkpt lat="41.49977768835899" lon="23.825345557846642"><ele>535.5</ele><time>2026-05-03T16:27:05Z</time></trkpt><trkpt lat="41.49987730501093" lon="23.825428235442203"><ele>533.75</ele><time>2026-05-03T16:27:07Z</time></trkpt><trkpt lat="41.4999640771436" lon="23.825521194402913"><ele>532.0</ele><time>2026-05-03T16:27:09Z</time></trkpt><trkpt lat="41.50005088883156" lon="23.82563315002552"><ele>532.0</ele><time>2026-05-03T16:27:11Z</time></trkpt><trkpt lat="41.50009366051128" lon="23.82571309362314"><ele>532.0</ele><time>2026-05-03T16:27:12Z</time></trkpt><trkpt lat="41.500134120305546" lon="23.825783757520014"><ele>532.0</ele><time>2026-05-03T16:27:13Z</time></trkpt><trkpt lat="41.50021916408574" lon="23.8259062949904"><ele>532.0</ele><time>2026-05-03T16:27:15Z</time></trkpt><trkpt lat="41.50027174474398" lon="23.825959263198662"><ele>532.0</ele><time>2026-05-03T16:27:16Z</time></trkpt><trkpt lat="41.5003296041127" lon="23.825996079856928"><ele>532.0</ele><time>2026-05-03T16:27:17Z</time></trkpt><trkpt lat="41.50040166270645" lon="23.826037370893886"><ele>531.6666666666667</ele><time>2026-05-03T16:27:18Z</time></trkpt><trkpt lat="41.50046330208683" lon="23.82606411431266"><ele>531.3333333333334</ele><time>2026-05-03T16:27:19Z</time></trkpt><trkpt lat="41.50056531606677" lon="23.826043748893905"><ele>531.0</ele><time>2026-05-03T16:27:21Z</time></trkpt><trkpt lat="41.500626422222744" lon="23.825965723788435"><ele>530.6666666666666</ele><time>2026-05-03T16:27:23Z</time></trkpt><trkpt lat="41.50071461935424" lon="23.82596611575421"><ele>530.3333333333333</ele><time>2026-05-03T16:27:30Z</time></trkpt><trkpt lat="41.500779312239075" lon="23.82592456221598"><ele>530.0</ele><time>2026-05-03T16:27:32Z</time></trkpt><trkpt lat="41.50087376352059" lon="23.825872663424413"><ele>530.0</ele><time>2026-05-03T16:27:36Z</time></trkpt><trkpt lat="41.5009186177515" lon="23.825726873763443"><ele>530.0</ele><time>2026-05-03T16:27:38Z</time></trkpt><trkpt lat="41.50089044835749" lon="23.825619148693995"><ele>530.0</ele><time>2026-05-03T16:27:40Z</time></trkpt><trkpt lat="41.50080081199531" lon="23.825565469333377"><ele>530.0</ele><time>2026-05-03T16:27:42Z</time></trkpt><trkpt lat="41.500722326153664" lon="23.8255230446105"><ele>530.0</ele><time>2026-05-03T16:27:44Z</time></trkpt><trkpt lat="41.500614163875646" lon="23.825400885784166"><ele>530.0</ele><time>2026-05-03T16:27:46Z</time></trkpt><trkpt lat="41.50053502310811" lon="23.82528587892604"><ele>530.0</ele><time>2026-05-03T16:27:48Z</time></trkpt><trkpt lat="41.5004745959673" lon="23.825216540313363"><ele>530.0</ele><time>2026-05-03T16:27:49Z</time></trkpt><trkpt lat="41.50040355760068" lon="23.8251319625725"><ele>530.0</ele><time>2026-05-03T16:27:50Z</time></trkpt><trkpt lat="41.500363284908246" lon="23.825060098715927"><ele>530.0</ele><time>2026-05-03T16:27:51Z</time></trkpt><trkpt lat="41.50028467434226" lon="23.82510448852354"><ele>530.0</ele><time>2026-05-03T16:27:55Z</time></trkpt><trkpt lat="41.500169042162995" lon="23.82514859864764"><ele>530.3333333333333</ele><time>2026-05-03T16:27:57Z</time></trkpt><trkpt lat="41.500089838090126" lon="23.825177455861827"><ele>530.6666666666666</ele><time>2026-05-03T16:27:59Z</time></trkpt><trkpt lat="41.50005073889007" lon="23.825036706181795"><ele>531.0</ele><time>2026-05-03T16:28:01Z</time></trkpt><trkpt lat="41.49999052963435" lon="23.824989657777298"><ele>531.3333333333334</ele><time>2026-05-03T16:28:02Z</time></trkpt><trkpt lat="41.49992224030391" lon="23.82495162451844"><ele>531.6666666666667</ele><time>2026-05-03T16:28:03Z</time></trkpt><trkpt lat="41.49986226278515" lon="23.824894062972888"><ele>532.0</ele><time>2026-05-03T16:28:04Z</time></trkpt><trkpt lat="41.499821682184155" lon="23.824824168505767"><ele>532.2</ele><time>2026-05-03T16:28:05Z</time></trkpt><trkpt lat="41.499760356702694" lon="23.824697972683495"><ele>532.4000000000001</ele><time>2026-05-03T16:28:07Z</time></trkpt><trkpt lat="41.49967835820283" lon="23.82460993463938"><ele>532.5999999999999</ele><time>2026-05-03T16:28:09Z</time></trkpt><trkpt lat="41.49963399443574" lon="23.824516566550475"><ele>532.8</ele><time>2026-05-03T16:28:11Z</time></trkpt><trkpt lat="41.49956555637612" lon="23.824402759501588"><ele>533.0</ele><time>2026-05-03T16:28:13Z</time></trkpt><trkpt lat="41.49951378096177" lon="23.82434291329122"><ele>534.1666666666666</ele><time>2026-05-03T16:28:14Z</time></trkpt><trkpt lat="41.49946169760007" lon="23.824288743748923"><ele>535.3333333333333</ele><time>2026-05-03T16:28:15Z</time></trkpt><trkpt lat="41.49936266143952" lon="23.82423508749669"><ele>536.5</ele><time>2026-05-03T16:28:17Z</time></trkpt><trkpt lat="41.49928818597193" lon="23.824214423912096"><ele>537.6666666666666</ele><time>2026-05-03T16:28:18Z</time></trkpt><trkpt lat="41.49922343141938" lon="23.82420555789881"><ele>538.8333333333334</ele><time>2026-05-03T16:28:19Z</time></trkpt><trkpt lat="41.49911322261125" lon="23.82424706180398"><ele>540.0</ele><time>2026-05-03T16:28:21Z</time></trkpt><trkpt lat="41.49904011161736" lon="23.824221991771292"><ele>540.0</ele><time>2026-05-03T16:28:23Z</time></trkpt><trkpt lat="41.49895002928089" lon="23.824206534215534"><ele>540.0</ele><time>2026-05-03T16:28:25Z</time></trkpt><trkpt lat="41.49893388093402" lon="23.824111134082074"><ele>540.0</ele><time>2026-05-03T16:28:28Z</time></trkpt><trkpt lat="41.49888724963734" lon="23.82395956927699"><ele>540.0</ele><time>2026-05-03T16:28:31Z</time></trkpt><trkpt lat="41.498846905496876" lon="23.823870144306486"><ele>540.0</ele><time>2026-05-03T16:28:33Z</time></trkpt><trkpt lat="41.49879446910723" lon="23.823790295953764"><ele>540.0</ele><time>2026-05-03T16:28:35Z</time></trkpt><trkpt lat="41.49876147800282" lon="23.823696495770474"><ele>539.3333333333334</ele><time>2026-05-03T16:28:46Z</time></trkpt><trkpt lat="41.49865449504907" lon="23.823650987155645"><ele>538.6666666666666</ele><time>2026-05-03T16:28:48Z</time></trkpt><trkpt lat="41.49857910512794" lon="23.82364118224818"><ele>538.0</ele><time>2026-05-03T16:28:49Z</time></trkpt><trkpt lat="41.49849921086635" lon="23.823610103520704"><ele>537.3333333333333</ele><time>2026-05-03T16:28:50Z</time></trkpt><trkpt lat="41.49842179674015" lon="23.823572251704604"><ele>536.6666666666666</ele><time>2026-05-03T16:28:51Z</time></trkpt><trkpt lat="41.49835177729673" lon="23.82352713194731"><ele>536.0</ele><time>2026-05-03T16:28:52Z</time></trkpt><trkpt lat="41.49825660706309" lon="23.823455703312337"><ele>537.6</ele><time>2026-05-03T16:28:54Z</time></trkpt><trkpt lat="41.49823282514395" lon="23.82332855446032"><ele>539.2</ele><time>2026-05-03T16:28:56Z</time></trkpt><trkpt lat="41.498316825802455" lon="23.82322014731266"><ele>540.8</ele><time>2026-05-03T16:28:58Z</time></trkpt><trkpt lat="41.49840351563362" lon="23.82319786832675"><ele>542.4</ele><time>2026-05-03T16:28:59Z</time></trkpt><trkpt lat="41.498510708090485" lon="23.823161568543398"><ele>544.0</ele><time>2026-05-03T16:29:00Z</time></trkpt><trkpt lat="41.49859781049863" lon="23.823108876522564"><ele>544.0</ele><time>2026-05-03T16:29:01Z</time></trkpt><trkpt lat="41.49868749064165" lon="23.823036582434234"><ele>544.0</ele><time>2026-05-03T16:29:02Z</time></trkpt><trkpt lat="41.498788039292066" lon="23.822959560960307"><ele>544.0</ele><time>2026-05-03T16:29:03Z</time></trkpt><trkpt lat="41.49886125683601" lon="23.82290042187965"><ele>544.0</ele><time>2026-05-03T16:29:04Z</time></trkpt><trkpt lat="41.49891140670071" lon="23.822842191083637"><ele>544.0</ele><time>2026-05-03T16:29:05Z</time></trkpt><trkpt lat="41.49897895032649" lon="23.82276305492285"><ele>544.6666666666667</ele><time>2026-05-03T16:29:07Z</time></trkpt><trkpt lat="41.49903867953059" lon="23.822833891087726"><ele>545.3333333333334</ele><time>2026-05-03T16:29:08Z</time></trkpt><trkpt lat="41.49909777830832" lon="23.82293702051316"><ele>546.0</ele><time>2026-05-03T16:29:09Z</time></trkpt><trkpt lat="41.49915772985119" lon="23.823057980796893"><ele>546.6666666666666</ele><time>2026-05-03T16:29:10Z</time></trkpt><trkpt lat="41.499192349784536" lon="23.823146002737488"><ele>547.3333333333333</ele><time>2026-05-03T16:29:11Z</time></trkpt><trkpt lat="41.49915954586869" lon="23.82322339293267"><ele>548.0</ele><time>2026-05-03T16:29:13Z</time></trkpt><trkpt lat="41.49909550338625" lon="23.823261587225957"><ele>548.0</ele><time>2026-05-03T16:29:16Z</time></trkpt><trkpt lat="41.49903993628368" lon="23.82330114494409"><ele>548.0</ele><time>2026-05-03T16:29:17Z</time></trkpt><trkpt lat="41.49893043351861" lon="23.82339865904682"><ele>548.0</ele><time>2026-05-03T16:29:20Z</time></trkpt><trkpt lat="41.49890401459422" lon="23.82348690188949"><ele>548.0</ele><time>2026-05-03T16:29:22Z</time></trkpt><trkpt lat="41.49884868735081" lon="23.82358750989332"><ele>548.0</ele><time>2026-05-03T16:29:25Z</time></trkpt><trkpt lat="41.498786795709094" lon="23.823672393708403"><ele>548.0</ele><time>2026-05-03T16:29:27Z</time></trkpt><trkpt lat="41.49866788669209" lon="23.823677933173144"><ele>547.3333333333333</ele><time>2026-05-03T16:29:31Z</time></trkpt><trkpt lat="41.498583741479486" lon="23.823638733828325"><ele>546.6666666666666</ele><time>2026-05-03T16:29:32Z</time></trkpt><trkpt lat="41.49850879207526" lon="23.823610569183337"><ele>546.0</ele><time>2026-05-03T16:29:33Z</time></trkpt><trkpt lat="41.49842290050656" lon="23.823572113631915"><ele>545.3333333333334</ele><time>2026-05-03T16:29:34Z</time></trkpt><trkpt lat="41.498343298956435" lon="23.823524464984345"><ele>544.6666666666667</ele><time>2026-05-03T16:29:35Z</time></trkpt><trkpt lat="41.49827561262892" lon="23.823477680393765"><ele>544.0</ele><time>2026-05-03T16:29:36Z</time></trkpt><trkpt lat="41.498202505440965" lon="23.823391274975215"><ele>544.0</ele><time>2026-05-03T16:29:38Z</time></trkpt><trkpt lat="41.49823565586856" lon="23.823241840507812"><ele>544.0</ele><time>2026-05-03T16:29:40Z</time></trkpt><trkpt lat="41.49841441161394" lon="23.823206376290756"><ele>544.0</ele><time>2026-05-03T16:29:42Z</time></trkpt><trkpt lat="41.49850687717944" lon="23.823174099642376"><ele>544.0</ele><time>2026-05-03T16:29:43Z</time></trkpt><trkpt lat="41.49860291784756" lon="23.823106654711374"><ele>544.0</ele><time>2026-05-03T16:29:44Z</time></trkpt><trkpt lat="41.498691989260436" lon="23.823043210253676"><ele>544.0</ele><time>2026-05-03T16:29:45Z</time></trkpt><trkpt lat="41.49877546769199" lon="23.822980449919207"><ele>544.0</ele><time>2026-05-03T16:29:46Z</time></trkpt><trkpt lat="41.49885115205159" lon="23.822912964207227"><ele>544.0</ele><time>2026-05-03T16:29:47Z</time></trkpt><trkpt lat="41.49890091185251" lon="23.82284651003239"><ele>544.0</ele><time>2026-05-03T16:29:48Z</time></trkpt><trkpt lat="41.49896285663571" lon="23.8227938063529"><ele>544.0</ele><time>2026-05-03T16:29:50Z</time></trkpt><trkpt lat="41.49901780145612" lon="23.82284385397914"><ele>544.6666666666667</ele><time>2026-05-03T16:29:51Z</time></trkpt><trkpt lat="41.49908132350566" lon="23.82293333669031"><ele>545.3333333333334</ele><time>2026-05-03T16:29:52Z</time></trkpt><trkpt lat="41.49913726033758" lon="23.823036945260213"><ele>546.0</ele><time>2026-05-03T16:29:53Z</time></trkpt><trkpt lat="41.49916965585223" lon="23.823110965008023"><ele>546.6666666666666</ele><time>2026-05-03T16:29:54Z</time></trkpt><trkpt lat="41.49914539106076" lon="23.823233604745088"><ele>547.3333333333333</ele><time>2026-05-03T16:29:57Z</time></trkpt><trkpt lat="41.49906739775425" lon="23.823284399218867"><ele>548.0</ele><time>2026-05-03T16:29:59Z</time></trkpt><trkpt lat="41.49899912653883" lon="23.82333505865027"><ele>548.0</ele><time>2026-05-03T16:30:01Z</time></trkpt><trkpt lat="41.498937928194714" lon="23.82341079335965"><ele>548.0</ele><time>2026-05-03T16:30:04Z</time></trkpt><trkpt lat="41.49889696806153" lon="23.823506563599377"><ele>548.0</ele><time>2026-05-03T16:30:07Z</time></trkpt><trkpt lat="41.498833575556546" lon="23.823616634216496"><ele>548.0</ele><time>2026-05-03T16:30:09Z</time></trkpt><trkpt lat="41.498781516263364" lon="23.823685267576792"><ele>548.0</ele><time>2026-05-03T16:30:12Z</time></trkpt><trkpt lat="41.49877630901261" lon="23.82377702071228"><ele>548.0</ele><time>2026-05-03T16:30:15Z</time></trkpt><trkpt lat="41.498854837937614" lon="23.82389215237293"><ele>546.4</ele><time>2026-05-03T16:30:17Z</time></trkpt><trkpt lat="41.49889116742145" lon="23.82399796103255"><ele>544.8</ele><time>2026-05-03T16:30:19Z</time></trkpt><trkpt lat="41.4989272112543" lon="23.824143052168573"><ele>543.2</ele><time>2026-05-03T16:30:21Z</time></trkpt><trkpt lat="41.498989545848126" lon="23.824240328873977"><ele>541.6</ele><time>2026-05-03T16:30:23Z</time></trkpt><trkpt lat="41.4990802444222" lon="23.8242323777491"><ele>540.0</ele><time>2026-05-03T16:30:27Z</time></trkpt><trkpt lat="41.49921478489731" lon="23.82424715518595"><ele>540.0</ele><time>2026-05-03T16:30:29Z</time></trkpt><trkpt lat="41.49931606135595" lon="23.824239575212104"><ele>540.0</ele><time>2026-05-03T16:30:31Z</time></trkpt><trkpt lat="41.49938390660522" lon="23.82425711502299"><ele>540.0</ele><time>2026-05-03T16:30:32Z</time></trkpt><trkpt lat="41.499449419266746" lon="23.824289071233064"><ele>540.0</ele><time>2026-05-03T16:30:33Z</time></trkpt><trkpt lat="41.49950974367658" lon="23.82432079497802"><ele>540.0</ele><time>2026-05-03T16:30:34Z</time></trkpt><trkpt lat="41.49956230080003" lon="23.82437722418228"><ele>540.0</ele><time>2026-05-03T16:30:35Z</time></trkpt><trkpt lat="41.49960267092226" lon="23.824444036146435"><ele>540.0</ele><time>2026-05-03T16:30:36Z</time></trkpt><trkpt lat="41.49964235986135" lon="23.82451266690468"><ele>539.8333333333334</ele><time>2026-05-03T16:30:37Z</time></trkpt><trkpt lat="41.49970523984565" lon="23.824648536387475"><ele>539.6666666666666</ele><time>2026-05-03T16:30:39Z</time></trkpt><trkpt lat="41.499759045522666" lon="23.824702527208657"><ele>539.5</ele><time>2026-05-03T16:30:40Z</time></trkpt><trkpt lat="41.49980585168981" lon="23.824759315103627"><ele>539.3333333333333</ele><time>2026-05-03T16:30:41Z</time></trkpt><trkpt lat="41.49986052368839" lon="23.8248947082178"><ele>539.1666666666666</ele><time>2026-05-03T16:30:43Z</time></trkpt><trkpt lat="41.49990491811722" lon="23.824961026972368"><ele>539.0</ele><time>2026-05-03T16:30:44Z</time></trkpt><trkpt lat="41.49996108970392" lon="23.825017284065414"><ele>539.0</ele><time>2026-05-03T16:30:45Z</time></trkpt><trkpt lat="41.50002777685598" lon="23.825059434721226"><ele>539.0</ele><time>2026-05-03T16:30:46Z</time></trkpt><trkpt lat="41.50012458272548" lon="23.82516111926139"><ele>539.0</ele><time>2026-05-03T16:30:48Z</time></trkpt><trkpt lat="41.50019703274614" lon="23.825201479240587"><ele>539.0</ele><time>2026-05-03T16:30:50Z</time></trkpt><trkpt lat="41.50025279943471" lon="23.825126822738962"><ele>539.0</ele><time>2026-05-03T16:30:51Z</time></trkpt><trkpt lat="41.50036362652966" lon="23.825076119341276"><ele>537.5</ele><time>2026-05-03T16:30:53Z</time></trkpt><trkpt lat="41.50044448528585" lon="23.825157563385353"><ele>536.0</ele><time>2026-05-03T16:30:56Z</time></trkpt><trkpt lat="41.50048860177944" lon="23.8252372143191"><ele>534.5</ele><time>2026-05-03T16:30:57Z</time></trkpt><trkpt lat="41.50058328939061" lon="23.82531746743835"><ele>533.0</ele><time>2026-05-03T16:30:58Z</time></trkpt><trkpt lat="41.50063151539562" lon="23.825388136149098"><ele>531.5</ele><time>2026-05-03T16:30:59Z</time></trkpt><trkpt lat="41.50068013785903" lon="23.82545409002022"><ele>530.0</ele><time>2026-05-03T16:31:00Z</time></trkpt><trkpt lat="41.50072799817701" lon="23.82550895791688"><ele>529.9999999999999</ele><time>2026-05-03T16:31:01Z</time></trkpt><trkpt lat="41.50078530966067" lon="23.825570956306827"><ele>530.0</ele><time>2026-05-03T16:31:03Z</time></trkpt><trkpt lat="41.500851808746184" lon="23.82560854153431"><ele>530.0</ele><time>2026-05-03T16:31:07Z</time></trkpt><trkpt lat="41.500906222563586" lon="23.8256815682937"><ele>530.0</ele><time>2026-05-03T16:31:10Z</time></trkpt><trkpt lat="41.50091378885252" lon="23.825786318972355"><ele>530.0</ele><time>2026-05-03T16:31:12Z</time></trkpt><trkpt lat="41.50088207239953" lon="23.825859235544197"><ele>529.9999999999999</ele><time>2026-05-03T16:31:13Z</time></trkpt><trkpt lat="41.5008312617327" lon="23.825909986851716"><ele>530.0</ele><time>2026-05-03T16:31:14Z</time></trkpt><trkpt lat="41.500769980734695" lon="23.825946255759533"><ele>530.0</ele><time>2026-05-03T16:31:15Z</time></trkpt><trkpt lat="41.500694897331485" lon="23.825964997545974"><ele>530.0</ele><time>2026-05-03T16:31:16Z</time></trkpt><trkpt lat="41.50061782656563" lon="23.825981126170788"><ele>530.0</ele><time>2026-05-03T16:31:17Z</time></trkpt><trkpt lat="41.50054309862093" lon="23.82599211210165"><ele>530.0</ele><time>2026-05-03T16:31:19Z</time></trkpt><trkpt lat="41.50049940053578" lon="23.826053667906415"><ele>530.0</ele><time>2026-05-03T16:31:21Z</time></trkpt><trkpt lat="41.50042222317015" lon="23.826078715207256"><ele>530.0</ele><time>2026-05-03T16:31:22Z</time></trkpt><trkpt lat="41.500347079362065" lon="23.826032163753986"><ele>530.4</ele><time>2026-05-03T16:31:23Z</time></trkpt><trkpt lat="41.50029491380467" lon="23.825981076390036"><ele>530.8</ele><time>2026-05-03T16:31:24Z</time></trkpt><trkpt lat="41.50023068468183" lon="23.825927435989986"><ele>531.2</ele><time>2026-05-03T16:31:26Z</time></trkpt><trkpt lat="41.50017134713923" lon="23.8258715659894"><ele>531.6</ele><time>2026-05-03T16:31:28Z</time></trkpt><trkpt lat="41.50005807974579" lon="23.825696336117105"><ele>532.0</ele><time>2026-05-03T16:31:30Z</time></trkpt><trkpt lat="41.500009608013016" lon="23.825601196111773"><ele>532.0</ele><time>2026-05-03T16:31:32Z</time></trkpt><trkpt lat="41.49995868270825" lon="23.825525248164492"><ele>532.0</ele><time>2026-05-03T16:31:34Z</time></trkpt><trkpt lat="41.49989301645886" lon="23.825428344363416"><ele>532.0</ele><time>2026-05-03T16:31:37Z</time></trkpt><trkpt lat="41.49982282021334" lon="23.825411542904973"><ele>532.0</ele><time>2026-05-03T16:31:41Z</time></trkpt><trkpt lat="41.499825998869596" lon="23.8255043340562"><ele>532.0</ele><time>2026-05-03T16:31:44Z</time></trkpt><trkpt lat="41.499887921200354" lon="23.825620013586107"><ele>532.0</ele><time>2026-05-03T16:31:46Z</time></trkpt><trkpt lat="41.49992668512423" lon="23.825693792275374"><ele>532.0</ele><time>2026-05-03T16:31:47Z</time></trkpt><trkpt lat="41.49999285110357" lon="23.825795944519587"><ele>532.0</ele><time>2026-05-03T16:31:49Z</time></trkpt><trkpt lat="41.50008839467134" lon="23.825800021730718"><ele>532.0</ele><time>2026-05-03T16:31:51Z</time></trkpt><trkpt lat="41.50014324895656" lon="23.825717822697786"><ele>532.0</ele><time>2026-05-03T16:31:52Z</time></trkpt><trkpt lat="41.50023109911232" lon="23.825625219442106"><ele>532.0</ele><time>2026-05-03T16:31:54Z</time></trkpt><trkpt lat="41.50033365208024" lon="23.825535077312537"><ele>532.0</ele><time>2026-05-03T16:31:56Z</time></trkpt><trkpt lat="41.5004200032906" lon="23.825449901426474"><ele>532.0</ele><time>2026-05-03T16:31:58Z</time></trkpt><trkpt lat="41.500418085443805" lon="23.825339582302824"><ele>532.0</ele><time>2026-05-03T16:32:01Z</time></trkpt><trkpt lat="41.50033791467763" lon="23.82527565177129"><ele>532.0</ele><time>2026-05-03T16:32:03Z</time></trkpt><trkpt lat="41.50028618128526" lon="23.825337280289894"><ele>532.0</ele><time>2026-05-03T16:32:05Z</time></trkpt><trkpt lat="41.50021111273656" lon="23.825377478563563"><ele>532.0</ele><time>2026-05-03T16:32:08Z</time></trkpt><trkpt lat="41.50015704091603" lon="23.8253016937846"><ele>532.0</ele><time>2026-05-03T16:32:10Z</time></trkpt><trkpt lat="41.50012780173777" lon="23.825199382294354"><ele>532.0</ele><time>2026-05-03T16:32:12Z</time></trkpt><trkpt lat="41.5000747935529" lon="23.825100071302064"><ele>532.0</ele><time>2026-05-03T16:32:13Z</time></trkpt><trkpt lat="41.500023189646484" lon="23.825001387214513"><ele>532.0</ele><time>2026-05-03T16:32:15Z</time></trkpt><trkpt lat="41.499969512897906" lon="23.82494774755843"><ele>532.0</ele><time>2026-05-03T16:32:16Z</time></trkpt><trkpt lat="41.49990163856625" lon="23.824906067589815"><ele>532.0</ele><time>2026-05-03T16:32:17Z</time></trkpt><trkpt lat="41.49984618396526" lon="23.82484742329082"><ele>532.2</ele><time>2026-05-03T16:32:18Z</time></trkpt><trkpt lat="41.499799280027034" lon="23.824767601181772"><ele>532.4000000000001</ele><time>2026-05-03T16:35:56Z</time></trkpt><trkpt lat="41.499738933536" lon="23.82467775036343"><ele>532.5999999999999</ele><time>2026-05-03T16:35:58Z</time></trkpt><trkpt lat="41.49966851520277" lon="23.82459755329236"><ele>532.8</ele><time>2026-05-03T16:36:00Z</time></trkpt><trkpt lat="41.49961332741451" lon="23.824479252331866"><ele>533.0</ele><time>2026-05-03T16:36:02Z</time></trkpt><trkpt lat="41.49953930647056" lon="23.824379591987306"><ele>533.0</ele><time>2026-05-03T16:36:04Z</time></trkpt><trkpt lat="41.49946694556567" lon="23.824314936672522"><ele>533.0</ele><time>2026-05-03T16:36:06Z</time></trkpt><trkpt lat="41.49936934199553" lon="23.82425753636544"><ele>533.0</ele><time>2026-05-03T16:36:08Z</time></trkpt><trkpt lat="41.49925759209475" lon="23.824224549711634"><ele>533.0</ele><time>2026-05-03T16:36:10Z</time></trkpt><trkpt lat="41.499168501638664" lon="23.82424697307144"><ele>533.0</ele><time>2026-05-03T16:36:12Z</time></trkpt><trkpt lat="41.499087786096844" lon="23.82423245104431"><ele>534.4</ele><time>2026-05-03T16:36:14Z</time></trkpt><trkpt lat="41.49900673846353" lon="23.82420108594705"><ele>535.8</ele><time>2026-05-03T16:36:17Z</time></trkpt><trkpt lat="41.498939114953195" lon="23.824170893873585"><ele>537.2</ele><time>2026-05-03T16:36:19Z</time></trkpt><trkpt lat="41.49886362877609" lon="23.82413789867037"><ele>538.6</ele><time>2026-05-03T16:36:22Z</time></trkpt><trkpt lat="41.49892586831642" lon="23.824168357083817"><ele>540.0</ele><time>2026-05-03T16:36:29Z</time></trkpt><trkpt lat="41.49907531900053" lon="23.824220997802914"><ele>540.0</ele><time>2026-05-03T16:36:32Z</time></trkpt><trkpt lat="41.49917887096101" lon="23.824252491131865"><ele>540.0</ele><time>2026-05-03T16:36:34Z</time></trkpt><trkpt lat="41.499243727834106" lon="23.824250038565605"><ele>540.0</ele><time>2026-05-03T16:36:35Z</time></trkpt><trkpt lat="41.499308036511614" lon="23.824244199261486"><ele>540.0</ele><time>2026-05-03T16:36:36Z</time></trkpt><trkpt lat="41.499376213186835" lon="23.82427141583237"><ele>540.0</ele><time>2026-05-03T16:36:37Z</time></trkpt><trkpt lat="41.4994530751922" lon="23.824303983225402"><ele>540.0</ele><time>2026-05-03T16:36:38Z</time></trkpt><trkpt lat="41.499512037393245" lon="23.824338561458003"><ele>540.0</ele><time>2026-05-03T16:36:39Z</time></trkpt><trkpt lat="41.499571167633924" lon="23.824376066787114"><ele>540.0</ele><time>2026-05-03T16:36:40Z</time></trkpt><trkpt lat="41.499626240737136" lon="23.824475992809372"><ele>540.0</ele><time>2026-05-03T16:36:42Z</time></trkpt><trkpt lat="41.499599705566695" lon="23.824373459774307"><ele>540.0</ele><time>2026-05-03T16:36:57Z</time></trkpt><trkpt lat="41.49952458788078" lon="23.824368803412476"><ele>540.0</ele><time>2026-05-03T16:36:59Z</time></trkpt><trkpt lat="41.49947655095283" lon="23.824313225490112"><ele>540.0</ele><time>2026-05-03T16:37:09Z</time></trkpt><trkpt lat="41.49941296733983" lon="23.824278588041437"><ele>540.0</ele><time>2026-05-03T16:37:11Z</time></trkpt><trkpt lat="41.49932499634634" lon="23.82424159031441"><ele>540.0</ele><time>2026-05-03T16:37:13Z</time></trkpt><trkpt lat="41.499234160874686" lon="23.82423407418782"><ele>540.0</ele><time>2026-05-03T16:37:15Z</time></trkpt><trkpt lat="41.49915344406811" lon="23.82425199680484"><ele>540.0</ele><time>2026-05-03T16:37:17Z</time></trkpt><trkpt lat="41.49906120510519" lon="23.824219457349887"><ele>540.0</ele><time>2026-05-03T16:37:19Z</time></trkpt><trkpt lat="41.49897973098542" lon="23.824199410287257"><ele>540.0</ele><time>2026-05-03T16:37:21Z</time></trkpt><trkpt lat="41.49890764067946" lon="23.824162651005743"><ele>540.0</ele><time>2026-05-03T16:37:23Z</time></trkpt><trkpt lat="41.49880601078138" lon="23.82414136997219"><ele>539.3333333333334</ele><time>2026-05-03T16:37:25Z</time></trkpt><trkpt lat="41.49874187959784" lon="23.82407656709408"><ele>538.6666666666666</ele><time>2026-05-03T16:37:27Z</time></trkpt><trkpt lat="41.49869035554613" lon="23.82400988871957"><ele>538.0</ele><time>2026-05-03T16:37:29Z</time></trkpt><trkpt lat="41.49863477084943" lon="23.823969693560585"><ele>537.3333333333333</ele><time>2026-05-03T16:37:31Z</time></trkpt><trkpt lat="41.49858563452966" lon="23.82389077911901"><ele>536.6666666666666</ele><time>2026-05-03T16:37:33Z</time></trkpt><trkpt lat="41.49851006757794" lon="23.823812335100804"><ele>536.0</ele><time>2026-05-03T16:37:35Z</time></trkpt><trkpt lat="41.498465220289496" lon="23.823733176860557"><ele>536.0</ele><time>2026-05-03T16:37:37Z</time></trkpt><trkpt lat="41.49847939421686" lon="23.82364916052656"><ele>536.0</ele><time>2026-05-03T16:37:39Z</time></trkpt><trkpt lat="41.498462396771174" lon="23.823739955911417"><ele>536.0</ele><time>2026-05-03T16:38:17Z</time></trkpt><trkpt lat="41.49850602073532" lon="23.823827597713674"><ele>536.0</ele><time>2026-05-03T16:38:20Z</time></trkpt><trkpt lat="41.4985102970474" lon="23.823913119304244"><ele>536.0</ele><time>2026-05-03T16:38:22Z</time></trkpt><trkpt lat="41.498433927729174" lon="23.8239430706316"><ele>536.0</ele><time>2026-05-03T16:38:24Z</time></trkpt><trkpt lat="41.498371245042776" lon="23.823931419403202"><ele>536.0</ele><time>2026-05-03T16:38:25Z</time></trkpt><trkpt lat="41.498309901401086" lon="23.823906120846363"><ele>536.0</ele><time>2026-05-03T16:38:26Z</time></trkpt><trkpt lat="41.49823936568115" lon="23.823869723964165"><ele>536.0</ele><time>2026-05-03T16:38:28Z</time></trkpt><trkpt lat="41.49818472061278" lon="23.823812690279127"><ele>536.0</ele><time>2026-05-03T16:38:36Z</time></trkpt><trkpt lat="41.498183716983725" lon="23.823724511722187"><ele>536.0</ele><time>2026-05-03T16:38:38Z</time></trkpt><trkpt lat="41.49820495567778" lon="23.82362116064149"><ele>536.0</ele><time>2026-05-03T16:38:54Z</time></trkpt><trkpt lat="41.498234283055574" lon="23.823497743596306"><ele>536.0</ele><time>2026-05-03T16:38:56Z</time></trkpt><trkpt lat="41.498248649065175" lon="23.823338852614718"><ele>537.6</ele><time>2026-05-03T16:38:58Z</time></trkpt><trkpt lat="41.49829286448676" lon="23.82323559073552"><ele>539.2</ele><time>2026-05-03T16:39:00Z</time></trkpt><trkpt lat="41.49838865849586" lon="23.82323348822656"><ele>540.8</ele><time>2026-05-03T16:39:02Z</time></trkpt><trkpt lat="41.49845259998144" lon="23.82317566946045"><ele>542.4</ele><time>2026-05-03T16:39:04Z</time></trkpt><trkpt lat="41.49853688239929" lon="23.823123598976697"><ele>544.0</ele><time>2026-05-03T16:39:06Z</time></trkpt><trkpt lat="41.49865720392522" lon="23.823052299385147"><ele>544.0</ele><time>2026-05-03T16:39:08Z</time></trkpt><trkpt lat="41.498725028877935" lon="23.823001989117063"><ele>544.0</ele><time>2026-05-03T16:39:09Z</time></trkpt><trkpt lat="41.49878560473408" lon="23.822954144873624"><ele>544.0</ele><time>2026-05-03T16:39:10Z</time></trkpt><trkpt lat="41.49886641181933" lon="23.822881695216306"><ele>544.0</ele><time>2026-05-03T16:39:12Z</time></trkpt><trkpt lat="41.4989379025722" lon="23.822739217425333"><ele>544.0</ele><time>2026-05-03T16:39:14Z</time></trkpt><trkpt lat="41.498962050319165" lon="23.82264892974319"><ele>544.0</ele><time>2026-05-03T16:39:15Z</time></trkpt><trkpt lat="41.49898746046417" lon="23.82255030075342"><ele>546.0</ele><time>2026-05-03T16:39:16Z</time></trkpt><trkpt lat="41.499020512101815" lon="23.822470103441177"><ele>548.0</ele><time>2026-05-03T16:39:17Z</time></trkpt><trkpt lat="41.49906652667578" lon="23.82233673799968"><ele>550.0</ele><time>2026-05-03T16:39:19Z</time></trkpt><trkpt lat="41.49910332326167" lon="23.822250819292595"><ele>552.0</ele><time>2026-05-03T16:39:21Z</time></trkpt><trkpt lat="41.49901273962073" lon="23.82229085134882"><ele>554.0</ele><time>2026-05-03T16:39:25Z</time></trkpt><trkpt lat="41.499008053529415" lon="23.82239156614375"><ele>556.0</ele><time>2026-05-03T16:39:28Z</time></trkpt><trkpt lat="41.49901115561558" lon="23.82250017902847"><ele>556.0</ele><time>2026-05-03T16:39:30Z</time></trkpt><trkpt lat="41.498985550802736" lon="23.82257696913605"><ele>556.0</ele><time>2026-05-03T16:39:32Z</time></trkpt><trkpt lat="41.498940673983824" lon="23.822639170253993"><ele>556.0</ele><time>2026-05-03T16:39:38Z</time></trkpt><trkpt lat="41.498916405389274" lon="23.822543389859135"><ele>556.0</ele><time>2026-05-03T16:39:41Z</time></trkpt><trkpt lat="41.49888863607943" lon="23.82244752290026"><ele>556.0</ele><time>2026-05-03T16:39:57Z</time></trkpt><trkpt lat="41.498830696296885" lon="23.82234757222537"><ele>556.0</ele><time>2026-05-03T16:39:59Z</time></trkpt><trkpt lat="41.498768559084084" lon="23.822322454196556"><ele>556.0</ele><time>2026-05-03T16:40:00Z</time></trkpt><trkpt lat="41.498699552636985" lon="23.82232150551258"><ele>556.0</ele><time>2026-05-03T16:40:02Z</time></trkpt><trkpt lat="41.49869810388862" lon="23.82242356001545"><ele>556.0</ele><time>2026-05-03T16:40:05Z</time></trkpt><trkpt lat="41.49878218050829" lon="23.822478699713397"><ele>556.0</ele><time>2026-05-03T16:40:07Z</time></trkpt><trkpt lat="41.49885521087172" lon="23.82255960341183"><ele>556.0</ele><time>2026-05-03T16:40:09Z</time></trkpt><trkpt lat="41.49891687073755" lon="23.822623478395396"><ele>556.0</ele><time>2026-05-03T16:40:11Z</time></trkpt><trkpt lat="41.49889838914171" lon="23.822524090738714"><ele>556.0</ele><time>2026-05-03T16:40:18Z</time></trkpt><trkpt lat="41.49887156458571" lon="23.822409162334736"><ele>556.0</ele><time>2026-05-03T16:40:20Z</time></trkpt><trkpt lat="41.4987709560842" lon="23.822307985584043"><ele>556.0</ele><time>2026-05-03T16:40:22Z</time></trkpt><trkpt lat="41.49870537032766" lon="23.822288148348317"><ele>556.0</ele><time>2026-05-03T16:40:23Z</time></trkpt><trkpt lat="41.49862550728745" lon="23.822225573418677"><ele>556.0</ele><time>2026-05-03T16:40:25Z</time></trkpt><trkpt lat="41.498543704765694" lon="23.822161137378707"><ele>556.0</ele><time>2026-05-03T16:40:27Z</time></trkpt><trkpt lat="41.4984724946731" lon="23.822139492648226"><ele>555.5</ele><time>2026-05-03T16:40:30Z</time></trkpt><trkpt lat="41.498386425458236" lon="23.82224082176452"><ele>555.0</ele><time>2026-05-03T16:40:33Z</time></trkpt><trkpt lat="41.498343871130366" lon="23.822331058200483"><ele>554.5</ele><time>2026-05-03T16:40:35Z</time></trkpt><trkpt lat="41.49832184958405" lon="23.822419446241028"><ele>554.0</ele><time>2026-05-03T16:40:37Z</time></trkpt><trkpt lat="41.498296293549316" lon="23.822516668687552"><ele>553.5</ele><time>2026-05-03T16:40:40Z</time></trkpt><trkpt lat="41.498284144270556" lon="23.822625869904748"><ele>553.0</ele><time>2026-05-03T16:40:44Z</time></trkpt><trkpt lat="41.49828752200133" lon="23.82271539126435"><ele>551.5</ele><time>2026-05-03T16:40:55Z</time></trkpt><trkpt lat="41.49827457995562" lon="23.822802922347776"><ele>550.0</ele><time>2026-05-03T16:41:00Z</time></trkpt><trkpt lat="41.498287138134216" lon="23.822906931679338"><ele>548.5</ele><time>2026-05-03T16:41:05Z</time></trkpt><trkpt lat="41.498289308141466" lon="23.82299274264565"><ele>547.0</ele><time>2026-05-03T16:41:08Z</time></trkpt><trkpt lat="41.49829080360726" lon="23.82307734588792"><ele>545.5</ele><time>2026-05-03T16:41:11Z</time></trkpt><trkpt lat="41.49826715766926" lon="23.823181861539975"><ele>544.0</ele><time>2026-05-03T16:41:14Z</time></trkpt><trkpt lat="41.49816916789051" lon="23.82322209880429"><ele>544.0</ele><time>2026-05-03T16:41:19Z</time></trkpt><trkpt lat="41.4980878020345" lon="23.823266602032902"><ele>544.0</ele><time>2026-05-03T16:41:22Z</time></trkpt><trkpt lat="41.498010621910595" lon="23.823295202234892"><ele>544.0</ele><time>2026-05-03T16:41:24Z</time></trkpt><trkpt lat="41.49794706113278" lon="23.82329228555369"><ele>544.0</ele><time>2026-05-03T16:41:27Z</time></trkpt><trkpt lat="41.49803678724128" lon="23.8233016303259"><ele>544.0</ele><time>2026-05-03T16:41:36Z</time></trkpt><trkpt lat="41.49809733986581" lon="23.823255830309602"><ele>544.0</ele><time>2026-05-03T16:41:37Z</time></trkpt><trkpt lat="41.49820889835853" lon="23.823203738494154"><ele>544.0</ele><time>2026-05-03T16:41:39Z</time></trkpt><trkpt lat="41.49829861914902" lon="23.82315337923274"><ele>544.0</ele><time>2026-05-03T16:41:41Z</time></trkpt><trkpt lat="41.498303778159695" lon="23.82304202367261"><ele>544.0</ele><time>2026-05-03T16:41:43Z</time></trkpt><trkpt lat="41.49829132190439" lon="23.822904102742566"><ele>544.0</ele><time>2026-05-03T16:41:45Z</time></trkpt><trkpt lat="41.49828002990457" lon="23.822807218848556"><ele>544.0</ele><time>2026-05-03T16:41:47Z</time></trkpt><trkpt lat="41.49829866498093" lon="23.82269234315805"><ele>544.0</ele><time>2026-05-03T16:41:49Z</time></trkpt><trkpt lat="41.498296950178684" lon="23.822595818840362"><ele>545.8</ele><time>2026-05-03T16:41:51Z</time></trkpt><trkpt lat="41.49829910299514" lon="23.822455487903017"><ele>547.5999999999999</ele><time>2026-05-03T16:41:53Z</time></trkpt><trkpt lat="41.4983512875756" lon="23.822332601044465"><ele>549.4</ele><time>2026-05-03T16:41:55Z</time></trkpt><trkpt lat="41.498400513798636" lon="23.82222145224394"><ele>551.1999999999999</ele><time>2026-05-03T16:41:57Z</time></trkpt><trkpt lat="41.498493397189485" lon="23.822114833954927"><ele>553.0</ele><time>2026-05-03T16:41:59Z</time></trkpt><trkpt lat="41.498550206472494" lon="23.822173893964013"><ele>553.0</ele><time>2026-05-03T16:42:02Z</time></trkpt><trkpt lat="41.49868919160105" lon="23.822286471016206"><ele>553.0</ele><time>2026-05-03T16:42:04Z</time></trkpt><trkpt lat="41.49880146976149" lon="23.822348605147607"><ele>553.0</ele><time>2026-05-03T16:42:06Z</time></trkpt><trkpt lat="41.49885280629368" lon="23.822401002093592"><ele>553.0</ele><time>2026-05-03T16:42:07Z</time></trkpt><trkpt lat="41.49890499972953" lon="23.822458354693815"><ele>553.0</ele><time>2026-05-03T16:42:08Z</time></trkpt><trkpt lat="41.498931156158925" lon="23.82259996588179"><ele>553.0</ele><time>2026-05-03T16:42:10Z</time></trkpt><trkpt lat="41.49886515397376" lon="23.82247075991433"><ele>553.0</ele><time>2026-05-03T16:42:20Z</time></trkpt><trkpt lat="41.49881384046956" lon="23.822343268085596"><ele>553.0</ele><time>2026-05-03T16:42:22Z</time></trkpt><trkpt lat="41.4987048662991" lon="23.822264160127883"><ele>553.0</ele><time>2026-05-03T16:42:24Z</time></trkpt><trkpt lat="41.49863819177118" lon="23.822236922531626"><ele>553.0</ele><time>2026-05-03T16:42:25Z</time></trkpt><trkpt lat="41.498543197111886" lon="23.8221614108641"><ele>553.0</ele><time>2026-05-03T16:42:27Z</time></trkpt><trkpt lat="41.49847245288321" lon="23.822143574261176"><ele>553.0</ele><time>2026-05-03T16:42:29Z</time></trkpt><trkpt lat="41.49840595792959" lon="23.82221681818921"><ele>553.0</ele><time>2026-05-03T16:42:49Z</time></trkpt><trkpt lat="41.498346752338385" lon="23.822334738587266"><ele>553.0</ele><time>2026-05-03T16:42:53Z</time></trkpt><trkpt lat="41.49831657090434" lon="23.8224399908567"><ele>553.0</ele><time>2026-05-03T16:42:56Z</time></trkpt><trkpt lat="41.49825595590701" lon="23.822478735284733"><ele>553.0</ele><time>2026-05-03T16:43:00Z</time></trkpt><trkpt lat="41.49818219970905" lon="23.822452261670758"><ele>553.0</ele><time>2026-05-03T16:43:04Z</time></trkpt><trkpt lat="41.49811024502883" lon="23.82249881928106"><ele>553.0</ele><time>2026-05-03T16:43:07Z</time></trkpt><trkpt lat="41.49803469271513" lon="23.822571276875177"><ele>553.0</ele><time>2026-05-03T16:43:10Z</time></trkpt><trkpt lat="41.498020825644176" lon="23.822666620979128"><ele>553.0</ele><time>2026-05-03T16:43:13Z</time></trkpt><trkpt lat="41.497991735200785" lon="23.822741219381395"><ele>553.0</ele><time>2026-05-03T16:43:19Z</time></trkpt><trkpt lat="41.49803723354137" lon="23.822806025517426"><ele>553.0</ele><time>2026-05-03T16:43:30Z</time></trkpt><trkpt lat="41.498100116909036" lon="23.82278926365423"><ele>553.0</ele><time>2026-05-03T16:43:32Z</time></trkpt><trkpt lat="41.498172146532085" lon="23.822770754616343"><ele>551.7142857142857</ele><time>2026-05-03T16:43:36Z</time></trkpt><trkpt lat="41.498133599403026" lon="23.822837915947282"><ele>550.4285714285714</ele><time>2026-05-03T16:44:46Z</time></trkpt><trkpt lat="41.49812129999623" lon="23.822921417422307"><ele>549.1428571428571</ele><time>2026-05-03T16:44:51Z</time></trkpt><trkpt lat="41.498087951914876" lon="23.823006812168913"><ele>547.8571428571429</ele><time>2026-05-03T16:44:56Z</time></trkpt><trkpt lat="41.49808620749934" lon="23.823122503870213"><ele>546.5714285714286</ele><time>2026-05-03T16:45:10Z</time></trkpt><trkpt lat="41.49808450570289" lon="23.823214233068207"><ele>545.2857142857142</ele><time>2026-05-03T16:45:12Z</time></trkpt><trkpt lat="41.49807186172556" lon="23.82329757825564"><ele>544.0</ele><time>2026-05-03T16:45:15Z</time></trkpt><trkpt lat="41.49802807726612" lon="23.823372481545565"><ele>544.0</ele><time>2026-05-03T16:45:22Z</time></trkpt><trkpt lat="41.49798824138455" lon="23.82330343212412"><ele>544.0</ele><time>2026-05-03T16:45:32Z</time></trkpt><trkpt lat="41.49807518958946" lon="23.823263064956162"><ele>544.0</ele><time>2026-05-03T16:45:35Z</time></trkpt><trkpt lat="41.4980926897625" lon="23.82313293237055"><ele>544.0</ele><time>2026-05-03T16:45:40Z</time></trkpt><trkpt lat="41.498098887955145" lon="23.822991510265993"><ele>544.0</ele><time>2026-05-03T16:45:42Z</time></trkpt><trkpt lat="41.49812792031989" lon="23.82290738994456"><ele>544.0</ele><time>2026-05-03T16:45:44Z</time></trkpt><trkpt lat="41.49814620534114" lon="23.822770528132065"><ele>544.0</ele><time>2026-05-03T16:45:47Z</time></trkpt><trkpt lat="41.4981515091336" lon="23.822663804142955"><ele>544.0</ele><time>2026-05-03T16:45:49Z</time></trkpt><trkpt lat="41.49815697278377" lon="23.822566011504165"><ele>544.0</ele><time>2026-05-03T16:46:05Z</time></trkpt><trkpt lat="41.49816492709902" lon="23.822446052429093"><ele>544.0</ele><time>2026-05-03T16:46:08Z</time></trkpt><trkpt lat="41.49822786007849" lon="23.822394785205944"><ele>544.0</ele><time>2026-05-03T16:46:11Z</time></trkpt><trkpt lat="41.49833782259411" lon="23.82238743190875"><ele>544.0</ele><time>2026-05-03T16:46:13Z</time></trkpt><trkpt lat="41.498421683840874" lon="23.822389724588433"><ele>545.5</ele><time>2026-05-03T16:46:15Z</time></trkpt><trkpt lat="41.49850741000516" lon="23.822413751245012"><ele>547.0</ele><time>2026-05-03T16:46:17Z</time></trkpt><trkpt lat="41.498595244927756" lon="23.822452297385162"><ele>548.5</ele><time>2026-05-03T16:46:20Z</time></trkpt><trkpt lat="41.49866860705979" lon="23.822472772112338"><ele>550.0</ele><time>2026-05-03T16:46:26Z</time></trkpt><trkpt lat="41.498728126876415" lon="23.822441473848915"><ele>551.5</ele><time>2026-05-03T16:46:28Z</time></trkpt><trkpt lat="41.49880424533328" lon="23.822360055126744"><ele>553.0</ele><time>2026-05-03T16:46:30Z</time></trkpt><trkpt lat="41.49887910340359" lon="23.822395924678244"><ele>553.5</ele><time>2026-05-03T16:46:32Z</time></trkpt><trkpt lat="41.4989086290309" lon="23.822471308477574"><ele>554.0</ele><time>2026-05-03T16:46:33Z</time></trkpt><trkpt lat="41.498933342832714" lon="23.822558217569263"><ele>554.5</ele><time>2026-05-03T16:46:34Z</time></trkpt><trkpt lat="41.4989450479377" lon="23.822676009164766"><ele>555.0</ele><time>2026-05-03T16:46:36Z</time></trkpt><trkpt lat="41.49891706031964" lon="23.822541532746076"><ele>555.5</ele><time>2026-05-03T16:46:44Z</time></trkpt><trkpt lat="41.498885705861056" lon="23.822461109202944"><ele>556.0</ele><time>2026-05-03T16:46:45Z</time></trkpt><trkpt lat="41.49886181135906" lon="23.822378884581997"><ele>556.0</ele><time>2026-05-03T16:46:46Z</time></trkpt><trkpt lat="41.498810732674016" lon="23.82232357255199"><ele>556.0</ele><time>2026-05-03T16:46:47Z</time></trkpt><trkpt lat="41.49873740720821" lon="23.82228559088776"><ele>556.0</ele><time>2026-05-03T16:46:48Z</time></trkpt><trkpt lat="41.49866029320021" lon="23.822262564360866"><ele>556.0</ele><time>2026-05-03T16:46:49Z</time></trkpt><trkpt lat="41.49859852677359" lon="23.822220712899984"><ele>556.0</ele><time>2026-05-03T16:46:50Z</time></trkpt><trkpt lat="41.49854507434173" lon="23.82216347423292"><ele>556.0</ele><time>2026-05-03T16:46:51Z</time></trkpt><trkpt lat="41.498458559077186" lon="23.82214068001251"><ele>556.0</ele><time>2026-05-03T16:46:53Z</time></trkpt><trkpt lat="41.49841555311648" lon="23.822202204086345"><ele>555.5</ele><time>2026-05-03T16:47:00Z</time></trkpt><trkpt lat="41.498366315297936" lon="23.822281093379576"><ele>555.0</ele><time>2026-05-03T16:47:05Z</time></trkpt><trkpt lat="41.498338009994534" lon="23.82235621697013"><ele>554.5</ele><time>2026-05-03T16:47:09Z</time></trkpt><trkpt lat="41.49825443903306" lon="23.822407899728063"><ele>554.0</ele><time>2026-05-03T16:47:19Z</time></trkpt><trkpt lat="41.49818525745289" lon="23.8224204482322"><ele>553.5</ele><time>2026-05-03T16:47:22Z</time></trkpt><trkpt lat="41.49812087652014" lon="23.822499292295607"><ele>553.0</ele><time>2026-05-03T16:47:31Z</time></trkpt><trkpt lat="41.498052475150836" lon="23.82255579869708"><ele>553.0</ele><time>2026-05-03T16:47:34Z</time></trkpt><trkpt lat="41.49801657043074" lon="23.822631346720026"><ele>553.0</ele><time>2026-05-03T16:47:38Z</time></trkpt><trkpt lat="41.497997482250796" lon="23.822712335588264"><ele>553.0</ele><time>2026-05-03T16:47:42Z</time></trkpt><trkpt lat="41.497976617872716" lon="23.82280112681673"><ele>553.0</ele><time>2026-05-03T16:47:45Z</time></trkpt><trkpt lat="41.49792294291355" lon="23.82286091278477"><ele>553.0</ele><time>2026-05-03T16:47:49Z</time></trkpt><trkpt lat="41.49784905486374" lon="23.822898796983768"><ele>553.0</ele><time>2026-05-03T16:47:52Z</time></trkpt><trkpt lat="41.49780200586198" lon="23.822825450344457"><ele>553.0</ele><time>2026-05-03T16:47:57Z</time></trkpt><trkpt lat="41.497854619294124" lon="23.822774963961614"><ele>551.7142857142857</ele><time>2026-05-03T16:48:00Z</time></trkpt><trkpt lat="41.49792345827277" lon="23.822760967819583"><ele>550.4285714285714</ele><time>2026-05-03T16:48:03Z</time></trkpt><trkpt lat="41.49798728014146" lon="23.822759326023416"><ele>549.1428571428571</ele><time>2026-05-03T16:48:09Z</time></trkpt><trkpt lat="41.49805995228042" lon="23.822763661383394"><ele>547.8571428571429</ele><time>2026-05-03T16:48:15Z</time></trkpt><trkpt lat="41.49813463545409" lon="23.82276388653253"><ele>546.5714285714286</ele><time>2026-05-03T16:48:19Z</time></trkpt><trkpt lat="41.49813825462904" lon="23.822883561193947"><ele>545.2857142857142</ele><time>2026-05-03T16:48:24Z</time></trkpt><trkpt lat="41.498102255062534" lon="23.822975525137483"><ele>544.0</ele><time>2026-05-03T16:48:27Z</time></trkpt><trkpt lat="41.4980894564682" lon="23.823071483078337"><ele>544.0</ele><time>2026-05-03T16:48:30Z</time></trkpt><trkpt lat="41.49808878672725" lon="23.82320533067814"><ele>544.0</ele><time>2026-05-03T16:48:32Z</time></trkpt><trkpt lat="41.49807611697662" lon="23.82331351253104"><ele>544.0</ele><time>2026-05-03T16:48:34Z</time></trkpt><trkpt lat="41.49803156272462" lon="23.823380484325803"><ele>544.0</ele><time>2026-05-03T16:48:39Z</time></trkpt><trkpt lat="41.49792617573143" lon="23.82334171061461"><ele>544.0</ele><time>2026-05-03T16:48:41Z</time></trkpt><trkpt lat="41.49783986544235" lon="23.823320488251003"><ele>544.0</ele><time>2026-05-03T16:48:43Z</time></trkpt><trkpt lat="41.497775787476186" lon="23.823302378044566"><ele>544.0</ele><time>2026-05-03T16:48:45Z</time></trkpt><trkpt lat="41.497716017465585" lon="23.823263117453365"><ele>544.0</ele><time>2026-05-03T16:48:47Z</time></trkpt><trkpt lat="41.49765048256581" lon="23.823180430832693"><ele>544.0</ele><time>2026-05-03T16:48:50Z</time></trkpt><trkpt lat="41.49758809357758" lon="23.82313567840864"><ele>544.0</ele><time>2026-05-03T16:48:52Z</time></trkpt><trkpt lat="41.497517133975556" lon="23.823103270864532"><ele>544.0</ele><time>2026-05-03T16:48:55Z</time></trkpt><trkpt lat="41.49745049518339" lon="23.823079040482323"><ele>544.0</ele><time>2026-05-03T16:48:58Z</time></trkpt><trkpt lat="41.49747458584822" lon="23.822975282919728"><ele>544.0</ele><time>2026-05-03T16:49:02Z</time></trkpt><trkpt lat="41.497535622444516" lon="23.82303771182144"><ele>544.0</ele><time>2026-05-03T16:49:04Z</time></trkpt><trkpt lat="41.4975764647795" lon="23.823111002531334"><ele>544.0</ele><time>2026-05-03T16:49:06Z</time></trkpt><trkpt lat="41.49764313751654" lon="23.823147469705724"><ele>544.0</ele><time>2026-05-03T16:49:08Z</time></trkpt><trkpt lat="41.49772681347467" lon="23.823188716582703"><ele>544.0</ele><time>2026-05-03T16:49:10Z</time></trkpt><trkpt lat="41.497812432381636" lon="23.82320844348455"><ele>544.0</ele><time>2026-05-03T16:49:12Z</time></trkpt><trkpt lat="41.49789443664054" lon="23.82320598583847"><ele>544.0</ele><time>2026-05-03T16:49:15Z</time></trkpt><trkpt lat="41.497962237861834" lon="23.823220062515883"><ele>544.0</ele><time>2026-05-03T16:49:27Z</time></trkpt><trkpt lat="41.498026958862894" lon="23.823152920147592"><ele>544.0</ele><time>2026-05-03T16:49:31Z</time></trkpt><trkpt lat="41.49808870778025" lon="23.823135538522777"><ele>544.0</ele><time>2026-05-03T16:49:34Z</time></trkpt><trkpt lat="41.498089370540754" lon="23.823044361606097"><ele>544.0</ele><time>2026-05-03T16:49:40Z</time></trkpt><trkpt lat="41.49812749981941" lon="23.82293208443056"><ele>544.0</ele><time>2026-05-03T16:49:43Z</time></trkpt><trkpt lat="41.498143888588295" lon="23.822798749083955"><ele>544.0</ele><time>2026-05-03T16:49:44Z</time></trkpt><trkpt lat="41.49815160080745" lon="23.822688438190966"><ele>544.0</ele><time>2026-05-03T16:49:46Z</time></trkpt><trkpt lat="41.498145595758125" lon="23.82259115296644"><ele>544.0</ele><time>2026-05-03T16:49:48Z</time></trkpt><trkpt lat="41.49814822982353" lon="23.822477093607343"><ele>544.0</ele><time>2026-05-03T16:49:50Z</time></trkpt><trkpt lat="41.498151194223695" lon="23.82235618824613"><ele>544.0</ele><time>2026-05-03T16:49:52Z</time></trkpt><trkpt lat="41.49815276693038" lon="23.822256686801893"><ele>544.0</ele><time>2026-05-03T16:49:54Z</time></trkpt><trkpt lat="41.49815208816083" lon="23.822166347254143"><ele>545.8</ele><time>2026-05-03T16:49:56Z</time></trkpt><trkpt lat="41.498223206843754" lon="23.822135409267926"><ele>547.5999999999999</ele><time>2026-05-03T16:49:59Z</time></trkpt><trkpt lat="41.49832436937438" lon="23.82215080276523"><ele>549.4</ele><time>2026-05-03T16:50:01Z</time></trkpt><trkpt lat="41.49843073232375" lon="23.822162685244372"><ele>551.1999999999999</ele><time>2026-05-03T16:50:03Z</time></trkpt><trkpt lat="41.49849736559457" lon="23.822147569466757"><ele>553.0</ele><time>2026-05-03T16:50:06Z</time></trkpt><trkpt lat="41.49860570585873" lon="23.822224299217797"><ele>553.0</ele><time>2026-05-03T16:50:08Z</time></trkpt><trkpt lat="41.498687078689954" lon="23.822273000133233"><ele>553.0</ele><time>2026-05-03T16:50:10Z</time></trkpt><trkpt lat="41.49879477401751" lon="23.822346411038108"><ele>553.0</ele><time>2026-05-03T16:50:12Z</time></trkpt><trkpt lat="41.498854464491245" lon="23.822386030023466"><ele>553.0</ele><time>2026-05-03T16:50:13Z</time></trkpt><trkpt lat="41.498920635984696" lon="23.822478379862613"><ele>553.0</ele><time>2026-05-03T16:50:15Z</time></trkpt><trkpt lat="41.4989161345585" lon="23.822568037912102"><ele>553.0</ele><time>2026-05-03T16:50:17Z</time></trkpt><trkpt lat="41.49893793847369" lon="23.82268199964959"><ele>553.0</ele><time>2026-05-03T16:50:19Z</time></trkpt><trkpt lat="41.49899028504662" lon="23.822569195146876"><ele>553.0</ele><time>2026-05-03T16:50:56Z</time></trkpt><trkpt lat="41.49892684358211" lon="23.822482064730576"><ele>553.0</ele><time>2026-05-03T16:51:03Z</time></trkpt><trkpt lat="41.498836474977665" lon="23.822383027272398"><ele>553.0</ele><time>2026-05-03T16:51:05Z</time></trkpt><trkpt lat="41.49877700913502" lon="23.82231964257622"><ele>553.0</ele><time>2026-05-03T16:51:06Z</time></trkpt><trkpt lat="41.49870155487765" lon="23.82227478349732"><ele>553.0</ele><time>2026-05-03T16:51:07Z</time></trkpt><trkpt lat="41.49862345477388" lon="23.82224009310488"><ele>553.0</ele><time>2026-05-03T16:51:08Z</time></trkpt><trkpt lat="41.498532010762844" lon="23.8221573131003"><ele>553.0</ele><time>2026-05-03T16:51:10Z</time></trkpt><trkpt lat="41.49844441968914" lon="23.822101607768825"><ele>553.0</ele><time>2026-05-03T16:51:12Z</time></trkpt><trkpt lat="41.49834797144817" lon="23.82207856170575"><ele>553.0</ele><time>2026-05-03T16:51:14Z</time></trkpt><trkpt lat="41.49827974252901" lon="23.822077724977525"><ele>553.0</ele><time>2026-05-03T16:51:15Z</time></trkpt><trkpt lat="41.498211690833" lon="23.822069376427187"><ele>553.0</ele><time>2026-05-03T16:51:16Z</time></trkpt><trkpt lat="41.498169019026236" lon="23.822134469189244"><ele>553.0</ele><time>2026-05-03T16:51:25Z</time></trkpt><trkpt lat="41.49811369130807" lon="23.822181772365038"><ele>553.0</ele><time>2026-05-03T16:51:29Z</time></trkpt><trkpt lat="41.498177675750156" lon="23.82217079041977"><ele>553.0</ele><time>2026-05-03T16:51:36Z</time></trkpt><trkpt lat="41.49824030953456" lon="23.822142488504497"><ele>553.0</ele><time>2026-05-03T16:51:38Z</time></trkpt><trkpt lat="41.49834968769709" lon="23.822157671902097"><ele>553.0</ele><time>2026-05-03T16:51:40Z</time></trkpt><trkpt lat="41.49843111338324" lon="23.822176499788025"><ele>553.0</ele><time>2026-05-03T16:51:42Z</time></trkpt><trkpt lat="41.4983705364507" lon="23.822136453652867"><ele>553.0</ele><time>2026-05-03T16:51:54Z</time></trkpt><trkpt lat="41.49830700532189" lon="23.822157890262652"><ele>553.0</ele><time>2026-05-03T16:51:55Z</time></trkpt><trkpt lat="41.498240924749155" lon="23.822161059640525"><ele>553.0</ele><time>2026-05-03T16:51:56Z</time></trkpt><trkpt lat="41.49816980540584" lon="23.82215907964224"><ele>553.0</ele><time>2026-05-03T16:51:57Z</time></trkpt><trkpt lat="41.49813170256551" lon="23.82227994909664"><ele>553.0</ele><time>2026-05-03T16:52:03Z</time></trkpt><trkpt lat="41.498151953785396" lon="23.82239108730574"><ele>553.0</ele><time>2026-05-03T16:52:09Z</time></trkpt><trkpt lat="41.498143198136056" lon="23.82250317638681"><ele>553.0</ele><time>2026-05-03T16:52:11Z</time></trkpt><trkpt lat="41.49814311157612" lon="23.822613841073892"><ele>553.0</ele><time>2026-05-03T16:52:14Z</time></trkpt><trkpt lat="41.49814274095669" lon="23.82270163583032"><ele>553.0</ele><time>2026-05-03T16:52:18Z</time></trkpt><trkpt lat="41.4981402244654" lon="23.822812049088558"><ele>553.0</ele><time>2026-05-03T16:52:21Z</time></trkpt><trkpt lat="41.498123362384774" lon="23.822925755169052"><ele>553.0</ele><time>2026-05-03T16:52:24Z</time></trkpt><trkpt lat="41.498085665413974" lon="23.823004041123227"><ele>551.5</ele><time>2026-05-03T16:52:26Z</time></trkpt><trkpt lat="41.49807815426707" lon="23.823101874602735"><ele>550.0</ele><time>2026-05-03T16:52:28Z</time></trkpt><trkpt lat="41.49807772689258" lon="23.823250317358244"><ele>548.5</ele><time>2026-05-03T16:52:30Z</time></trkpt><trkpt lat="41.49806253490109" lon="23.823363201519314"><ele>547.0</ele><time>2026-05-03T16:52:32Z</time></trkpt><trkpt lat="41.49797298225334" lon="23.823371813193365"><ele>545.5</ele><time>2026-05-03T16:52:47Z</time></trkpt><trkpt lat="41.497888808110005" lon="23.823336764726868"><ele>544.0</ele><time>2026-05-03T16:52:49Z</time></trkpt><trkpt lat="41.49779633049292" lon="23.82331542817239"><ele>543.9999999999999</ele><time>2026-05-03T16:52:51Z</time></trkpt><trkpt lat="41.49773211895001" lon="23.823286616239013"><ele>544.0</ele><time>2026-05-03T16:52:53Z</time></trkpt><trkpt lat="41.49767866859408" lon="23.82322009168555"><ele>544.0</ele><time>2026-05-03T16:52:55Z</time></trkpt><trkpt lat="41.49765717352405" lon="23.823114800357903"><ele>544.0</ele><time>2026-05-03T16:52:57Z</time></trkpt><trkpt lat="41.49760341246595" lon="23.823067790073875"><ele>544.0</ele><time>2026-05-03T16:52:59Z</time></trkpt><trkpt lat="41.49759601850205" lon="23.823157159561504"><ele>543.9999999999999</ele><time>2026-05-03T16:53:02Z</time></trkpt><trkpt lat="41.497669934297036" lon="23.82319932564258"><ele>544.0</ele><time>2026-05-03T16:53:04Z</time></trkpt><trkpt lat="41.497733429916494" lon="23.823281371602476"><ele>544.0</ele><time>2026-05-03T16:53:06Z</time></trkpt><trkpt lat="41.497838836522334" lon="23.823330617018932"><ele>544.0</ele><time>2026-05-03T16:53:08Z</time></trkpt><trkpt lat="41.497934734226014" lon="23.823345564940034"><ele>544.0</ele><time>2026-05-03T16:53:10Z</time></trkpt><trkpt lat="41.49800519553892" lon="23.823314443991766"><ele>544.0</ele><time>2026-05-03T16:53:12Z</time></trkpt><trkpt lat="41.498079602566534" lon="23.82326679127904"><ele>544.0</ele><time>2026-05-03T16:53:14Z</time></trkpt><trkpt lat="41.49809251660284" lon="23.82314006582794"><ele>544.0</ele><time>2026-05-03T16:53:16Z</time></trkpt><trkpt lat="41.49809469750086" lon="23.822979573335505"><ele>544.0</ele><time>2026-05-03T16:53:18Z</time></trkpt><trkpt lat="41.49814472408819" lon="23.822866884448437"><ele>544.0</ele><time>2026-05-03T16:53:20Z</time></trkpt><trkpt lat="41.498153816943145" lon="23.82273812418451"><ele>544.0</ele><time>2026-05-03T16:53:22Z</time></trkpt><trkpt lat="41.49814787374669" lon="23.822571333664907"><ele>544.0</ele><time>2026-05-03T16:53:25Z</time></trkpt><trkpt lat="41.498157581213064" lon="23.82226470561728"><ele>545.5</ele><time>2026-05-03T16:53:28Z</time></trkpt><trkpt lat="41.49816094009461" lon="23.822158954257784"><ele>547.0</ele><time>2026-05-03T16:53:29Z</time></trkpt><trkpt lat="41.49816702575115" lon="23.822072545474573"><ele>548.5</ele><time>2026-05-03T16:53:30Z</time></trkpt><trkpt lat="41.4982289033428" lon="23.822137581142837"><ele>550.0</ele><time>2026-05-03T16:53:34Z</time></trkpt><trkpt lat="41.49832519262912" lon="23.822149958816237"><ele>551.5</ele><time>2026-05-03T16:53:37Z</time></trkpt><trkpt lat="41.49839656679209" lon="23.822153119178136"><ele>553.0</ele><time>2026-05-03T16:53:39Z</time></trkpt><trkpt lat="41.498405328515815" lon="23.822260396778205"><ele>553.0</ele><time>2026-05-03T16:53:43Z</time></trkpt><trkpt lat="41.49834775180973" lon="23.822359478553548"><ele>553.0</ele><time>2026-05-03T16:53:45Z</time></trkpt><trkpt lat="41.49830126015092" lon="23.82245774617943"><ele>553.0</ele><time>2026-05-03T16:53:47Z</time></trkpt><trkpt lat="41.49827577769782" lon="23.822547358510175"><ele>553.0</ele><time>2026-05-03T16:53:49Z</time></trkpt><trkpt lat="41.49826968004342" lon="23.822658317654927"><ele>553.0</ele><time>2026-05-03T16:53:51Z</time></trkpt><trkpt lat="41.49827698576846" lon="23.82274672695747"><ele>553.0</ele><time>2026-05-03T16:53:53Z</time></trkpt><trkpt lat="41.49826686604932" lon="23.822869754393402"><ele>551.7142857142857</ele><time>2026-05-03T16:53:56Z</time></trkpt><trkpt lat="41.498280920682525" lon="23.82296905382126"><ele>550.4285714285714</ele><time>2026-05-03T16:53:58Z</time></trkpt><trkpt lat="41.49827802585274" lon="23.823065460897194"><ele>549.1428571428571</ele><time>2026-05-03T16:54:00Z</time></trkpt><trkpt lat="41.49826621367425" lon="23.823161007626886"><ele>547.8571428571429</ele><time>2026-05-03T16:54:02Z</time></trkpt><trkpt lat="41.49824896845446" lon="23.8232708306236"><ele>546.5714285714286</ele><time>2026-05-03T16:54:05Z</time></trkpt><trkpt lat="41.49821599486293" lon="23.823366804502236"><ele>545.2857142857142</ele><time>2026-05-03T16:54:07Z</time></trkpt><trkpt lat="41.49818818925576" lon="23.823444406975526"><ele>544.0</ele><time>2026-05-03T16:54:09Z</time></trkpt><trkpt lat="41.49823975686933" lon="23.823380244376423"><ele>544.0</ele><time>2026-05-03T16:54:14Z</time></trkpt><trkpt lat="41.49827883625964" lon="23.823181647552445"><ele>544.0</ele><time>2026-05-03T16:54:17Z</time></trkpt><trkpt lat="41.498290971706524" lon="23.823079919406695"><ele>544.0</ele><time>2026-05-03T16:54:18Z</time></trkpt><trkpt lat="41.49829221440211" lon="23.82290852376949"><ele>544.0</ele><time>2026-05-03T16:54:20Z</time></trkpt><trkpt lat="41.49828792859786" lon="23.822823089488114"><ele>544.0</ele><time>2026-05-03T16:54:21Z</time></trkpt><trkpt lat="41.49829243642469" lon="23.822688819297642"><ele>545.8</ele><time>2026-05-03T16:54:23Z</time></trkpt><trkpt lat="41.49829581230464" lon="23.82257301424017"><ele>547.5999999999999</ele><time>2026-05-03T16:54:25Z</time></trkpt><trkpt lat="41.49831100647438" lon="23.822438407576982"><ele>549.4</ele><time>2026-05-03T16:54:27Z</time></trkpt><trkpt lat="41.49836698905555" lon="23.822279779301528"><ele>551.1999999999999</ele><time>2026-05-03T16:54:29Z</time></trkpt><trkpt lat="41.49842544054382" lon="23.822194487567913"><ele>553.0</ele><time>2026-05-03T16:54:30Z</time></trkpt><trkpt lat="41.49849121185526" lon="23.822154690174767"><ele>553.0</ele><time>2026-05-03T16:54:31Z</time></trkpt><trkpt lat="41.49857359749745" lon="23.822205290119204"><ele>553.0</ele><time>2026-05-03T16:54:38Z</time></trkpt><trkpt lat="41.49863375163512" lon="23.82225898082968"><ele>553.0</ele><time>2026-05-03T16:54:39Z</time></trkpt><trkpt lat="41.498691550478675" lon="23.822311341131968"><ele>553.0</ele><time>2026-05-03T16:54:40Z</time></trkpt><trkpt lat="41.49878260484777" lon="23.822350818090165"><ele>553.0</ele><time>2026-05-03T16:54:42Z</time></trkpt><trkpt lat="41.49883659335" lon="23.822407202636633"><ele>553.0</ele><time>2026-05-03T16:54:44Z</time></trkpt><trkpt lat="41.49888003716239" lon="23.82247736802708"><ele>553.5</ele><time>2026-05-03T16:54:46Z</time></trkpt><trkpt lat="41.4989164698787" lon="23.822583805955375"><ele>554.0</ele><time>2026-05-03T16:54:48Z</time></trkpt><trkpt lat="41.498939756892774" lon="23.82269868335949"><ele>554.5</ele><time>2026-05-03T16:54:50Z</time></trkpt><trkpt lat="41.49893927506598" lon="23.822813602748294"><ele>555.0</ele><time>2026-05-03T16:54:52Z</time></trkpt><trkpt lat="41.49899864027691" lon="23.822856467046126"><ele>555.5</ele><time>2026-05-03T16:54:56Z</time></trkpt><trkpt lat="41.49902581250476" lon="23.822738802982176"><ele>556.0</ele><time>2026-05-03T16:54:59Z</time></trkpt><trkpt lat="41.49901973722105" lon="23.822635251051725"><ele>556.0</ele><time>2026-05-03T16:55:01Z</time></trkpt><trkpt lat="41.49900056447179" lon="23.822505420205086"><ele>556.0</ele><time>2026-05-03T16:55:03Z</time></trkpt><trkpt lat="41.49897101478151" lon="23.82236143734324"><ele>556.0</ele><time>2026-05-03T16:55:05Z</time></trkpt><trkpt lat="41.49897631437825" lon="23.822276892150672"><ele>556.0</ele><time>2026-05-03T16:55:07Z</time></trkpt><trkpt lat="41.498934069052495" lon="23.82218111731697"><ele>556.0</ele><time>2026-05-03T16:55:10Z</time></trkpt><trkpt lat="41.498869273827964" lon="23.82217512160779"><ele>556.0</ele><time>2026-05-03T16:55:11Z</time></trkpt><trkpt lat="41.49881906463186" lon="23.822095328881936"><ele>556.0</ele><time>2026-05-03T16:55:14Z</time></trkpt><trkpt lat="41.49876374708059" lon="23.821935863099544"><ele>556.0</ele><time>2026-05-03T16:55:16Z</time></trkpt><trkpt lat="41.4987305450706" lon="23.821839053144327"><ele>556.0</ele><time>2026-05-03T16:55:18Z</time></trkpt><trkpt lat="41.49869893324393" lon="23.82175404524035"><ele>556.0</ele><time>2026-05-03T16:55:20Z</time></trkpt><trkpt lat="41.49866287621197" lon="23.821659238435846"><ele>556.0</ele><time>2026-05-03T16:55:22Z</time></trkpt><trkpt lat="41.49863140301447" lon="23.821563718884686"><ele>556.0</ele><time>2026-05-03T16:55:24Z</time></trkpt><trkpt lat="41.49857383943062" lon="23.821480787465607"><ele>555.8571428571429</ele><time>2026-05-03T16:55:27Z</time></trkpt><trkpt lat="41.49851010389748" lon="23.821489289207534"><ele>555.7142857142858</ele><time>2026-05-03T16:55:51Z</time></trkpt><trkpt lat="41.49851687156665" lon="23.82140187128285"><ele>555.5714285714287</ele><time>2026-05-03T16:58:45Z</time></trkpt><trkpt lat="41.49848433559336" lon="23.821315982590672"><ele>555.4285714285714</ele><time>2026-05-03T16:58:51Z</time></trkpt><trkpt lat="41.498472296106094" lon="23.821225115049277"><ele>555.2857142857143</ele><time>2026-05-03T16:59:04Z</time></trkpt><trkpt lat="41.49848188707262" lon="23.82113919938485"><ele>555.1428571428572</ele><time>2026-05-03T16:59:12Z</time></trkpt><trkpt lat="41.49846931781644" lon="23.82126172014992"><ele>555.0</ele><time>2026-05-03T16:59:27Z</time></trkpt><trkpt lat="41.498498476639945" lon="23.82134336842949"><ele>555.0000000000001</ele><time>2026-05-03T16:59:47Z</time></trkpt><trkpt lat="41.49846660624043" lon="23.82141988676281"><ele>555.0</ele><time>2026-05-03T17:00:06Z</time></trkpt><trkpt lat="41.49852278884939" lon="23.82147022841014"><ele>555.0</ele><time>2026-05-03T17:00:26Z</time></trkpt><trkpt lat="41.49856183340659" lon="23.821540720767448"><ele>555.0</ele><time>2026-05-03T17:00:32Z</time></trkpt><trkpt lat="41.498594947058955" lon="23.821623059340904"><ele>555.0</ele><time>2026-05-03T17:01:16Z</time></trkpt><trkpt lat="41.498623143269654" lon="23.821704912231684"><ele>555.0000000000001</ele><time>2026-05-03T17:01:23Z</time></trkpt><trkpt lat="41.49865628638683" lon="23.821780660904082"><ele>555.0</ele><time>2026-05-03T17:01:31Z</time></trkpt><trkpt lat="41.498641882351585" lon="23.82169146957599"><ele>555.0000000000001</ele><time>2026-05-03T17:02:15Z</time></trkpt><trkpt lat="41.49860692419946" lon="23.821617474487645"><ele>555.0</ele><time>2026-05-03T17:02:30Z</time></trkpt><trkpt lat="41.498594478415406" lon="23.821528589901334"><ele>555.0</ele><time>2026-05-03T17:02:37Z</time></trkpt><trkpt lat="41.49853923707128" lon="23.821484507262994"><ele>555.0</ele><time>2026-05-03T17:03:47Z</time></trkpt><trkpt lat="41.49852297688408" lon="23.821376389900802"><ele>555.0</ele><time>2026-05-03T17:03:58Z</time></trkpt><trkpt lat="41.498504615189354" lon="23.82127014607825"><ele>555.0000000000001</ele><time>2026-05-03T17:04:01Z</time></trkpt><trkpt lat="41.49848577252326" lon="23.821160988910655"><ele>555.0</ele><time>2026-05-03T17:04:04Z</time></trkpt><trkpt lat="41.49846905471407" lon="23.82106701602953"><ele>554.3333333333334</ele><time>2026-05-03T17:04:06Z</time></trkpt><trkpt lat="41.49844577124883" lon="23.82097997007994"><ele>553.6666666666666</ele><time>2026-05-03T17:04:08Z</time></trkpt><trkpt lat="41.49843751457082" lon="23.82086219732225"><ele>553.0</ele><time>2026-05-03T17:04:11Z</time></trkpt><trkpt lat="41.498434152583805" lon="23.82077262852615"><ele>552.3333333333333</ele><time>2026-05-03T17:04:13Z</time></trkpt><trkpt lat="41.49843549435973" lon="23.82064928993051"><ele>551.6666666666666</ele><time>2026-05-03T17:04:16Z</time></trkpt><trkpt lat="41.49844408937667" lon="23.82055723677573"><ele>551.0</ele><time>2026-05-03T17:04:19Z</time></trkpt><trkpt lat="41.49843988877883" lon="23.820442368554087"><ele>551.0</ele><time>2026-05-03T17:04:22Z</time></trkpt><trkpt lat="41.49843564103181" lon="23.820330421531672"><ele>551.0</ele><time>2026-05-03T17:04:25Z</time></trkpt><trkpt lat="41.49839789364974" lon="23.820402251394263"><ele>551.0</ele><time>2026-05-03T17:04:30Z</time></trkpt><trkpt lat="41.498418920335176" lon="23.820540063987483"><ele>551.0</ele><time>2026-05-03T17:04:33Z</time></trkpt><trkpt lat="41.49841658203352" lon="23.820632537288077"><ele>551.0</ele><time>2026-05-03T17:04:34Z</time></trkpt><trkpt lat="41.498417526344454" lon="23.82073427451161"><ele>551.0</ele><time>2026-05-03T17:04:35Z</time></trkpt><trkpt lat="41.498418418249365" lon="23.820852584125994"><ele>551.0</ele><time>2026-05-03T17:04:36Z</time></trkpt><trkpt lat="41.49841983390627" lon="23.820971040510425"><ele>551.0</ele><time>2026-05-03T17:04:37Z</time></trkpt><trkpt lat="41.49843347984707" lon="23.821074967422287"><ele>551.0</ele><time>2026-05-03T17:04:38Z</time></trkpt><trkpt lat="41.49845623328117" lon="23.821180998167865"><ele>551.0</ele><time>2026-05-03T17:04:39Z</time></trkpt><trkpt lat="41.498487806450896" lon="23.821283868346036"><ele>551.0</ele><time>2026-05-03T17:04:40Z</time></trkpt><trkpt lat="41.49851310407416" lon="23.821380185096615"><ele>551.0</ele><time>2026-05-03T17:04:41Z</time></trkpt><trkpt lat="41.49854097221622" lon="23.821464495623868"><ele>551.3333333333333</ele><time>2026-05-03T17:04:42Z</time></trkpt><trkpt lat="41.49858336352942" lon="23.82155388126322"><ele>551.6666666666666</ele><time>2026-05-03T17:04:43Z</time></trkpt><trkpt lat="41.49862528839008" lon="23.821652344545836"><ele>552.0</ele><time>2026-05-03T17:04:44Z</time></trkpt><trkpt lat="41.49866207247957" lon="23.821741497507677"><ele>552.3333333333334</ele><time>2026-05-03T17:04:45Z</time></trkpt><trkpt lat="41.49868929068309" lon="23.82183386485386"><ele>552.6666666666667</ele><time>2026-05-03T17:04:46Z</time></trkpt><trkpt lat="41.49872246995175" lon="23.82191994278535"><ele>553.0</ele><time>2026-05-03T17:04:47Z</time></trkpt><trkpt lat="41.49876226392116" lon="23.822018703844304"><ele>553.5</ele><time>2026-05-03T17:04:48Z</time></trkpt><trkpt lat="41.49879926151959" lon="23.822097085020744"><ele>554.0</ele><time>2026-05-03T17:04:49Z</time></trkpt><trkpt lat="41.49883600664301" lon="23.822203094285722"><ele>554.5</ele><time>2026-05-03T17:04:51Z</time></trkpt><trkpt lat="41.49889807263121" lon="23.822239644875484"><ele>555.0</ele><time>2026-05-03T17:04:53Z</time></trkpt><trkpt lat="41.49891031440075" lon="23.822154206706497"><ele>555.5</ele><time>2026-05-03T17:04:55Z</time></trkpt><trkpt lat="41.498819241928366" lon="23.822056656196196"><ele>556.0</ele><time>2026-05-03T17:04:57Z</time></trkpt><trkpt lat="41.49875666338131" lon="23.821961271046835"><ele>555.8</ele><time>2026-05-03T17:04:59Z</time></trkpt><trkpt lat="41.49871636190829" lon="23.821883371712143"><ele>555.6</ele><time>2026-05-03T17:05:02Z</time></trkpt><trkpt lat="41.498664888258844" lon="23.821739494916788"><ele>555.4</ele><time>2026-05-03T17:05:04Z</time></trkpt><trkpt lat="41.49863859639628" lon="23.82163921016089"><ele>555.2</ele><time>2026-05-03T17:05:06Z</time></trkpt><trkpt lat="41.4986072359504" lon="23.82153829244754"><ele>555.0</ele><time>2026-05-03T17:05:08Z</time></trkpt><trkpt lat="41.498565184957265" lon="23.821418017515853"><ele>555.0</ele><time>2026-05-03T17:05:10Z</time></trkpt><trkpt lat="41.49852866456069" lon="23.821327015937488"><ele>555.0</ele><time>2026-05-03T17:05:12Z</time></trkpt><trkpt lat="41.49850989389498" lon="23.821228740198357"><ele>555.0</ele><time>2026-05-03T17:05:14Z</time></trkpt><trkpt lat="41.49848959947836" lon="23.821124682233748"><ele>555.0</ele><time>2026-05-03T17:05:16Z</time></trkpt><trkpt lat="41.49846509508832" lon="23.82096501059492"><ele>555.0</ele><time>2026-05-03T17:05:18Z</time></trkpt><trkpt lat="41.498448359484726" lon="23.820859593966784"><ele>555.0</ele><time>2026-05-03T17:05:19Z</time></trkpt><trkpt lat="41.4984409032486" lon="23.820733450712247"><ele>554.3333333333334</ele><time>2026-05-03T17:05:21Z</time></trkpt><trkpt lat="41.49843766997814" lon="23.820616201012054"><ele>553.6666666666666</ele><time>2026-05-03T17:05:23Z</time></trkpt><trkpt lat="41.498454302921964" lon="23.820530068877446"><ele>553.0</ele><time>2026-05-03T17:05:25Z</time></trkpt><trkpt lat="41.4983786756072" lon="23.820511088461316"><ele>552.3333333333333</ele><time>2026-05-03T17:05:29Z</time></trkpt><trkpt lat="41.498404755930274" lon="23.820631851049498"><ele>551.6666666666666</ele><time>2026-05-03T17:05:31Z</time></trkpt><trkpt lat="41.49843006727501" lon="23.820722152337147"><ele>551.0</ele><time>2026-05-03T17:05:32Z</time></trkpt><trkpt lat="41.49843717337497" lon="23.820818999728864"><ele>551.0</ele><time>2026-05-03T17:05:33Z</time></trkpt><trkpt lat="41.49843637859835" lon="23.82094161185202"><ele>551.0</ele><time>2026-05-03T17:05:34Z</time></trkpt><trkpt lat="41.49844667941749" lon="23.821054973917146"><ele>551.0</ele><time>2026-05-03T17:05:35Z</time></trkpt><trkpt lat="41.49846310359091" lon="23.821164853481463"><ele>551.0</ele><time>2026-05-03T17:05:36Z</time></trkpt><trkpt lat="41.49849573740419" lon="23.821280075384973"><ele>551.0</ele><time>2026-05-03T17:05:37Z</time></trkpt><trkpt lat="41.49852281969432" lon="23.82138262610443"><ele>551.0</ele><time>2026-05-03T17:05:38Z</time></trkpt><trkpt lat="41.49855327951018" lon="23.821468728327844"><ele>551.3333333333333</ele><time>2026-05-03T17:05:39Z</time></trkpt><trkpt lat="41.49858826169747" lon="23.8215639512849"><ele>551.6666666666666</ele><time>2026-05-03T17:05:40Z</time></trkpt><trkpt lat="41.49863684827686" lon="23.82166725730829"><ele>552.0</ele><time>2026-05-03T17:05:41Z</time></trkpt><trkpt lat="41.49867196229375" lon="23.821758515736196"><ele>552.3333333333334</ele><time>2026-05-03T17:05:42Z</time></trkpt><trkpt lat="41.49870151510537" lon="23.82185926253798"><ele>552.6666666666667</ele><time>2026-05-03T17:05:43Z</time></trkpt><trkpt lat="41.49874619756889" lon="23.821965342597835"><ele>553.0</ele><time>2026-05-03T17:05:44Z</time></trkpt><trkpt lat="41.49879097784611" lon="23.8220755455062"><ele>553.0</ele><time>2026-05-03T17:05:45Z</time></trkpt><trkpt lat="41.49882330511099" lon="23.822162190161244"><ele>553.0</ele><time>2026-05-03T17:05:46Z</time></trkpt><trkpt lat="41.49886553021284" lon="23.82226362918599"><ele>553.0</ele><time>2026-05-03T17:05:48Z</time></trkpt><trkpt lat="41.49891889448969" lon="23.822189508496063"><ele>553.0</ele><time>2026-05-03T17:05:51Z</time></trkpt><trkpt lat="41.498889217187894" lon="23.822113153266088"><ele>553.0</ele><time>2026-05-03T17:05:52Z</time></trkpt><trkpt lat="41.49880384009923" lon="23.822037444261884"><ele>553.0</ele><time>2026-05-03T17:05:54Z</time></trkpt><trkpt lat="41.49871479431703" lon="23.821874283424332"><ele>553.4</ele><time>2026-05-03T17:05:57Z</time></trkpt><trkpt lat="41.49867793752746" lon="23.82177534086707"><ele>553.8</ele><time>2026-05-03T17:05:59Z</time></trkpt><trkpt lat="41.49864589704948" lon="23.82166785856737"><ele>554.2</ele><time>2026-05-03T17:06:01Z</time></trkpt><trkpt lat="41.49861320704807" lon="23.82155526669458"><ele>554.6</ele><time>2026-05-03T17:06:03Z</time></trkpt><trkpt lat="41.498563795057315" lon="23.821404032026454"><ele>555.0</ele><time>2026-05-03T17:06:05Z</time></trkpt><trkpt lat="41.49852493375218" lon="23.821280716153588"><ele>555.0</ele><time>2026-05-03T17:06:07Z</time></trkpt><trkpt lat="41.49850624151574" lon="23.82120039767342"><ele>555.0</ele><time>2026-05-03T17:06:09Z</time></trkpt><trkpt lat="41.498478636065144" lon="23.82105381012995"><ele>555.0</ele><time>2026-05-03T17:06:11Z</time></trkpt><trkpt lat="41.49844597179316" lon="23.820912363863744"><ele>555.0</ele><time>2026-05-03T17:06:13Z</time></trkpt><trkpt lat="41.498440110444676" lon="23.820767756868733"><ele>555.0</ele><time>2026-05-03T17:06:15Z</time></trkpt><trkpt lat="41.49842652312757" lon="23.820676213856245"><ele>555.0</ele><time>2026-05-03T17:06:17Z</time></trkpt><trkpt lat="41.49844301294458" lon="23.820594953806083"><ele>555.0</ele><time>2026-05-03T17:06:18Z</time></trkpt><trkpt lat="41.498382054109776" lon="23.82052726987018"><ele>555.0</ele><time>2026-05-03T17:06:23Z</time></trkpt><trkpt lat="41.498388990195885" lon="23.82066005392062"><ele>555.0</ele><time>2026-05-03T17:06:25Z</time></trkpt><trkpt lat="41.498421782259605" lon="23.82075087151234"><ele>555.0</ele><time>2026-05-03T17:06:26Z</time></trkpt><trkpt lat="41.49843694706756" lon="23.820854921451403"><ele>555.0</ele><time>2026-05-03T17:06:27Z</time></trkpt><trkpt lat="41.49844884302623" lon="23.820989775193734"><ele>555.0</ele><time>2026-05-03T17:06:28Z</time></trkpt><trkpt lat="41.498459154722404" lon="23.821110177970713"><ele>555.0</ele><time>2026-05-03T17:06:29Z</time></trkpt><trkpt lat="41.49847528126416" lon="23.821221280352525"><ele>555.0</ele><time>2026-05-03T17:06:30Z</time></trkpt><trkpt lat="41.49849786585189" lon="23.821320448674577"><ele>555.0</ele><time>2026-05-03T17:06:31Z</time></trkpt><trkpt lat="41.49852469869123" lon="23.82142425928911"><ele>555.0</ele><time>2026-05-03T17:06:32Z</time></trkpt><trkpt lat="41.49856423628898" lon="23.821511018854856"><ele>555.0</ele><time>2026-05-03T17:06:33Z</time></trkpt><trkpt lat="41.498605195977" lon="23.821604665151966"><ele>555.0</ele><time>2026-05-03T17:06:34Z</time></trkpt><trkpt lat="41.498652085380996" lon="23.82171756244552"><ele>555.0</ele><time>2026-05-03T17:06:35Z</time></trkpt><trkpt lat="41.498685355167616" lon="23.82181296642994"><ele>555.0</ele><time>2026-05-03T17:06:36Z</time></trkpt><trkpt lat="41.49873508587652" lon="23.821955566157346"><ele>555.0</ele><time>2026-05-03T17:06:38Z</time></trkpt><trkpt lat="41.498802893522736" lon="23.822125792845547"><ele>555.0</ele><time>2026-05-03T17:06:40Z</time></trkpt><trkpt lat="41.49883124079611" lon="23.822204953587253"><ele>555.1666666666666</ele><time>2026-05-03T17:06:41Z</time></trkpt><trkpt lat="41.49886536596934" lon="23.82230749709838"><ele>555.3333333333334</ele><time>2026-05-03T17:06:43Z</time></trkpt><trkpt lat="41.49891832171205" lon="23.822250532103798"><ele>555.5</ele><time>2026-05-03T17:06:47Z</time></trkpt><trkpt lat="41.49883622509733" lon="23.822159455881675"><ele>555.6666666666667</ele><time>2026-05-03T17:06:49Z</time></trkpt><trkpt lat="41.49877798801244" lon="23.822060527221236"><ele>555.8333333333334</ele><time>2026-05-03T17:06:51Z</time></trkpt><trkpt lat="41.49874485663605" lon="23.82194302611956"><ele>556.0</ele><time>2026-05-03T17:06:53Z</time></trkpt><trkpt lat="41.4987090532022" lon="23.82184667211732"><ele>555.8</ele><time>2026-05-03T17:06:55Z</time></trkpt><trkpt lat="41.49866764552731" lon="23.82175561406167"><ele>555.6</ele><time>2026-05-03T17:06:57Z</time></trkpt><trkpt lat="41.498627684052884" lon="23.82163118856788"><ele>555.4</ele><time>2026-05-03T17:06:59Z</time></trkpt><trkpt lat="41.49860283592912" lon="23.82153891623528"><ele>555.2</ele><time>2026-05-03T17:07:00Z</time></trkpt><trkpt lat="41.49854927871561" lon="23.821411823836264"><ele>555.0</ele><time>2026-05-03T17:07:02Z</time></trkpt><trkpt lat="41.498514816023395" lon="23.821301330714235"><ele>555.0</ele><time>2026-05-03T17:07:05Z</time></trkpt><trkpt lat="41.49849830881757" lon="23.821194588183225"><ele>555.0</ele><time>2026-05-03T17:07:09Z</time></trkpt><trkpt lat="41.498482421737855" lon="23.821041308740686"><ele>555.0</ele><time>2026-05-03T17:07:10Z</time></trkpt><trkpt lat="41.49846347508256" lon="23.820954643510476"><ele>555.0</ele><time>2026-05-03T17:07:11Z</time></trkpt><trkpt lat="41.49845480042217" lon="23.820865803406015"><ele>555.0</ele><time>2026-05-03T17:07:12Z</time></trkpt><trkpt lat="41.49845291623559" lon="23.82071440594316"><ele>555.0</ele><time>2026-05-03T17:07:14Z</time></trkpt><trkpt lat="41.49843815851125" lon="23.820629417125083"><ele>554.3333333333334</ele><time>2026-05-03T17:07:16Z</time></trkpt><trkpt lat="41.49848196309545" lon="23.820527024308934"><ele>553.6666666666666</ele><time>2026-05-03T17:07:26Z</time></trkpt><trkpt lat="41.49846285413995" lon="23.82042821976019"><ele>553.0</ele><time>2026-05-03T17:07:28Z</time></trkpt><trkpt lat="41.498402043129985" lon="23.820394949639333"><ele>552.3333333333333</ele><time>2026-05-03T17:07:30Z</time></trkpt><trkpt lat="41.498356449619195" lon="23.820497438256893"><ele>551.6666666666666</ele><time>2026-05-03T17:07:32Z</time></trkpt><trkpt lat="41.49840323036423" lon="23.820631168832513"><ele>551.0</ele><time>2026-05-03T17:07:34Z</time></trkpt><trkpt lat="41.498422650027535" lon="23.820712704604954"><ele>551.0</ele><time>2026-05-03T17:07:35Z</time></trkpt><trkpt lat="41.49843206830606" lon="23.820807240814155"><ele>551.0</ele><time>2026-05-03T17:07:36Z</time></trkpt><trkpt lat="41.498435643238984" lon="23.820932583836527"><ele>551.0</ele><time>2026-05-03T17:07:37Z</time></trkpt><trkpt lat="41.49844363441969" lon="23.82104296069644"><ele>551.0</ele><time>2026-05-03T17:07:38Z</time></trkpt><trkpt lat="41.498450339292994" lon="23.821160071614464"><ele>551.0</ele><time>2026-05-03T17:07:39Z</time></trkpt><trkpt lat="41.49848509168754" lon="23.821283247478977"><ele>551.0</ele><time>2026-05-03T17:07:40Z</time></trkpt><trkpt lat="41.498519113883304" lon="23.82139293461716"><ele>551.3333333333333</ele><time>2026-05-03T17:07:41Z</time></trkpt><trkpt lat="41.498551052337845" lon="23.821491810008563"><ele>551.6666666666666</ele><time>2026-05-03T17:07:42Z</time></trkpt><trkpt lat="41.4985885883587" lon="23.821574981886187"><ele>552.0</ele><time>2026-05-03T17:07:43Z</time></trkpt><trkpt lat="41.49863523619708" lon="23.821682255869458"><ele>552.3333333333334</ele><time>2026-05-03T17:07:44Z</time></trkpt><trkpt lat="41.4986787498002" lon="23.821786958441336"><ele>552.6666666666667</ele><time>2026-05-03T17:07:45Z</time></trkpt><trkpt lat="41.49871602927183" lon="23.821897614436985"><ele>553.0</ele><time>2026-05-03T17:07:46Z</time></trkpt><trkpt lat="41.49876038650142" lon="23.822021225736723"><ele>553.5</ele><time>2026-05-03T17:07:47Z</time></trkpt><trkpt lat="41.49880342919664" lon="23.822133782450592"><ele>554.0</ele><time>2026-05-03T17:07:48Z</time></trkpt><trkpt lat="41.49883069527256" lon="23.822221159985737"><ele>554.5</ele><time>2026-05-03T17:07:49Z</time></trkpt><trkpt lat="41.498871035319105" lon="23.82231128675912"><ele>555.0</ele><time>2026-05-03T17:07:51Z</time></trkpt><trkpt lat="41.49892937788647" lon="23.822247642194004"><ele>555.5</ele><time>2026-05-03T17:07:55Z</time></trkpt><trkpt lat="41.498894374569474" lon="23.82216848928619"><ele>556.0</ele><time>2026-05-03T17:07:57Z</time></trkpt><trkpt lat="41.498769186414506" lon="23.82202654220375"><ele>555.8333333333334</ele><time>2026-05-03T17:08:00Z</time></trkpt><trkpt lat="41.49873604441154" lon="23.82188438168837"><ele>555.6666666666667</ele><time>2026-05-03T17:08:02Z</time></trkpt><trkpt lat="41.49870845911363" lon="23.821806238719795"><ele>555.5</ele><time>2026-05-03T17:08:03Z</time></trkpt><trkpt lat="41.498662302124885" lon="23.82171421039104"><ele>555.3333333333334</ele><time>2026-05-03T17:08:04Z</time></trkpt><trkpt lat="41.49863352977384" lon="23.82162606551667"><ele>555.1666666666666</ele><time>2026-05-03T17:08:05Z</time></trkpt><trkpt lat="41.498610206662796" lon="23.821532881946514"><ele>555.0</ele><time>2026-05-03T17:08:06Z</time></trkpt><trkpt lat="41.49857739699168" lon="23.8214368857881"><ele>555.0</ele><time>2026-05-03T17:08:07Z</time></trkpt><trkpt lat="41.498543283720096" lon="23.821347621200218"><ele>555.0</ele><time>2026-05-03T17:08:08Z</time></trkpt><trkpt lat="41.49851354620798" lon="23.821271213513242"><ele>555.0</ele><time>2026-05-03T17:08:09Z</time></trkpt><trkpt lat="41.4984921016495" lon="23.821116338085393"><ele>555.0</ele><time>2026-05-03T17:08:11Z</time></trkpt><trkpt lat="41.49847741269065" lon="23.821002165134786"><ele>555.0</ele><time>2026-05-03T17:08:12Z</time></trkpt><trkpt lat="41.49845814444944" lon="23.820880488563763"><ele>555.0</ele><time>2026-05-03T17:08:13Z</time></trkpt><trkpt lat="41.49845288927994" lon="23.820772282793026"><ele>554.2</ele><time>2026-05-03T17:08:14Z</time></trkpt><trkpt lat="41.49845712373335" lon="23.820675480042986"><ele>553.4</ele><time>2026-05-03T17:08:15Z</time></trkpt><trkpt lat="41.498458554634546" lon="23.820553168049166"><ele>552.6</ele><time>2026-05-03T17:08:17Z</time></trkpt><trkpt lat="41.498436054221756" lon="23.820326858215864"><ele>551.8</ele><time>2026-05-03T17:08:24Z</time></trkpt><trkpt lat="41.49837399075908" lon="23.820386248170706"><ele>551.0</ele><time>2026-05-03T17:08:26Z</time></trkpt><trkpt lat="41.49841758493874" lon="23.820531678608983"><ele>551.0</ele><time>2026-05-03T17:08:28Z</time></trkpt><trkpt lat="41.49843850470953" lon="23.82069755101643"><ele>551.0</ele><time>2026-05-03T17:08:30Z</time></trkpt><trkpt lat="41.49843289916545" lon="23.820807151438004"><ele>551.0</ele><time>2026-05-03T17:08:31Z</time></trkpt><trkpt lat="41.4984365649962" lon="23.820944578056828"><ele>551.0</ele><time>2026-05-03T17:08:32Z</time></trkpt><trkpt lat="41.49844944741793" lon="23.82107803012825"><ele>551.0</ele><time>2026-05-03T17:08:33Z</time></trkpt><trkpt lat="41.49847159129144" lon="23.82119668334273"><ele>551.6666666666666</ele><time>2026-05-03T17:08:34Z</time></trkpt><trkpt lat="41.49850239925513" lon="23.821313174890584"><ele>552.3333333333333</ele><time>2026-05-03T17:08:35Z</time></trkpt><trkpt lat="41.49853125858411" lon="23.8214254398461"><ele>553.0</ele><time>2026-05-03T17:08:36Z</time></trkpt><trkpt lat="41.498565278061086" lon="23.821517290337066"><ele>553.6666666666666</ele><time>2026-05-03T17:08:37Z</time></trkpt><trkpt lat="41.498604907816215" lon="23.821621152486003"><ele>554.3333333333334</ele><time>2026-05-03T17:08:38Z</time></trkpt><trkpt lat="41.4986473586654" lon="23.821719530849613"><ele>555.0</ele><time>2026-05-03T17:08:39Z</time></trkpt><trkpt lat="41.49868109193225" lon="23.8218077547243"><ele>555.1666666666666</ele><time>2026-05-03T17:08:40Z</time></trkpt><trkpt lat="41.498714204774814" lon="23.82192205437962"><ele>555.3333333333334</ele><time>2026-05-03T17:08:41Z</time></trkpt><trkpt lat="41.49876057610042" lon="23.822036400388903"><ele>555.5</ele><time>2026-05-03T17:08:42Z</time></trkpt><trkpt lat="41.498803604711114" lon="23.82213475362755"><ele>555.6666666666667</ele><time>2026-05-03T17:08:43Z</time></trkpt><trkpt lat="41.498836898070664" lon="23.82222069736574"><ele>555.8333333333334</ele><time>2026-05-03T17:08:44Z</time></trkpt><trkpt lat="41.498877938566494" lon="23.822323611226782"><ele>556.0</ele><time>2026-05-03T17:08:46Z</time></trkpt><trkpt lat="41.49894116564029" lon="23.822276984453325"><ele>556.0</ele><time>2026-05-03T17:08:51Z</time></trkpt><trkpt lat="41.49889374733059" lon="23.822195496658324"><ele>556.0</ele><time>2026-05-03T17:08:54Z</time></trkpt><trkpt lat="41.49882567999565" lon="23.82214094602768"><ele>556.0</ele><time>2026-05-03T17:08:57Z</time></trkpt><trkpt lat="41.49874084889102" lon="23.821937461985836"><ele>556.0</ele><time>2026-05-03T17:08:59Z</time></trkpt><trkpt lat="41.4986955218097" lon="23.821792032738905"><ele>556.0</ele><time>2026-05-03T17:09:01Z</time></trkpt><trkpt lat="41.49863966653862" lon="23.82165134262418"><ele>555.8333333333334</ele><time>2026-05-03T17:09:03Z</time></trkpt><trkpt lat="41.49860554945985" lon="23.8215342540239"><ele>555.6666666666667</ele><time>2026-05-03T17:09:05Z</time></trkpt><trkpt lat="41.49857418661738" lon="23.82145640640762"><ele>555.5</ele><time>2026-05-03T17:09:06Z</time></trkpt><trkpt lat="41.49853832781423" lon="23.821371751342554"><ele>555.3333333333334</ele><time>2026-05-03T17:09:07Z</time></trkpt><trkpt lat="41.49851178847341" lon="23.82129468624455"><ele>555.1666666666666</ele><time>2026-05-03T17:09:08Z</time></trkpt><trkpt lat="41.49849603757491" lon="23.821179062775602"><ele>555.0</ele><time>2026-05-03T17:09:10Z</time></trkpt><trkpt lat="41.49848788507435" lon="23.821092407775662"><ele>555.0</ele><time>2026-05-03T17:09:11Z</time></trkpt><trkpt lat="41.49846797283086" lon="23.820997221420445"><ele>555.0</ele><time>2026-05-03T17:09:12Z</time></trkpt><trkpt lat="41.49845281028139" lon="23.820914828531006"><ele>555.0</ele><time>2026-05-03T17:09:13Z</time></trkpt><trkpt lat="41.49844312264913" lon="23.82079004509341"><ele>555.0</ele><time>2026-05-03T17:09:15Z</time></trkpt><trkpt lat="41.498444466149635" lon="23.820673481092"><ele>555.0</ele><time>2026-05-03T17:09:17Z</time></trkpt><trkpt lat="41.498438196409865" lon="23.82054443318942"><ele>555.0</ele><time>2026-05-03T17:09:20Z</time></trkpt><trkpt lat="41.49842685601204" lon="23.82044962892502"><ele>554.3333333333334</ele><time>2026-05-03T17:09:22Z</time></trkpt><trkpt lat="41.498412846386984" lon="23.82034296522584"><ele>553.6666666666666</ele><time>2026-05-03T17:09:24Z</time></trkpt><trkpt lat="41.49836387115509" lon="23.82022953686304"><ele>553.0</ele><time>2026-05-03T17:09:27Z</time></trkpt><trkpt lat="41.49830447366515" lon="23.820153872660168"><ele>552.3333333333333</ele><time>2026-05-03T17:09:30Z</time></trkpt><trkpt lat="41.49824661208057" lon="23.82008610646266"><ele>551.6666666666666</ele><time>2026-05-03T17:09:33Z</time></trkpt><trkpt lat="41.49820006032073" lon="23.819994720331962"><ele>551.0</ele><time>2026-05-03T17:09:38Z</time></trkpt><trkpt lat="41.498129129236176" lon="23.819913434240064"><ele>550.6666666666666</ele><time>2026-05-03T17:09:41Z</time></trkpt><trkpt lat="41.49805998900316" lon="23.819856978398406"><ele>550.3333333333333</ele><time>2026-05-03T17:09:43Z</time></trkpt><trkpt lat="41.49797924349009" lon="23.819840370860458"><ele>550.0</ele><time>2026-05-03T17:09:45Z</time></trkpt><trkpt lat="41.497915071268686" lon="23.819792355531803"><ele>549.6666666666666</ele><time>2026-05-03T17:09:47Z</time></trkpt><trkpt lat="41.4978372388924" lon="23.819745872816558"><ele>549.3333333333334</ele><time>2026-05-03T17:09:49Z</time></trkpt><trkpt lat="41.497777079985816" lon="23.819719743255657"><ele>549.0</ele><time>2026-05-03T17:09:51Z</time></trkpt><trkpt lat="41.49771663502319" lon="23.819678792639024"><ele>549.0</ele><time>2026-05-03T17:09:53Z</time></trkpt><trkpt lat="41.497657801404664" lon="23.819646000171584"><ele>549.0</ele><time>2026-05-03T17:09:55Z</time></trkpt><trkpt lat="41.497606353317806" lon="23.819555777286016"><ele>549.0</ele><time>2026-05-03T17:09:58Z</time></trkpt><trkpt lat="41.49757473941561" lon="23.81945545996958"><ele>549.0</ele><time>2026-05-03T17:10:01Z</time></trkpt><trkpt lat="41.497570827443354" lon="23.819370343888295"><ele>549.0</ele><time>2026-05-03T17:10:05Z</time></trkpt><trkpt lat="41.49756776324185" lon="23.819475539935787"><ele>549.0</ele><time>2026-05-03T17:10:46Z</time></trkpt><trkpt lat="41.497590380509806" lon="23.819560829543246"><ele>549.0</ele><time>2026-05-03T17:10:48Z</time></trkpt><trkpt lat="41.497647727304525" lon="23.81964717026312"><ele>549.0</ele><time>2026-05-03T17:10:50Z</time></trkpt><trkpt lat="41.497719752363935" lon="23.81971176210419"><ele>549.0</ele><time>2026-05-03T17:10:53Z</time></trkpt><trkpt lat="41.497775043906664" lon="23.819782178816574"><ele>549.0</ele><time>2026-05-03T17:10:55Z</time></trkpt><trkpt lat="41.49785328554911" lon="23.819883810464507"><ele>549.0</ele><time>2026-05-03T17:10:57Z</time></trkpt><trkpt lat="41.49791107758841" lon="23.819929498649874"><ele>549.0</ele><time>2026-05-03T17:10:59Z</time></trkpt><trkpt lat="41.4979471592826" lon="23.82000918710304"><ele>549.0</ele><time>2026-05-03T17:11:06Z</time></trkpt><trkpt lat="41.4979149361892" lon="23.82012276340879"><ele>550.5</ele><time>2026-05-03T17:11:09Z</time></trkpt><trkpt lat="41.49785433028843" lon="23.82024272519124"><ele>552.0</ele><time>2026-05-03T17:11:11Z</time></trkpt><trkpt lat="41.497785943021285" lon="23.820232750179834"><ele>553.5</ele><time>2026-05-03T17:11:13Z</time></trkpt><trkpt lat="41.497715441782" lon="23.82029898056425"><ele>555.0</ele><time>2026-05-03T17:11:15Z</time></trkpt><trkpt lat="41.49768521415858" lon="23.82043017085061"><ele>556.5</ele><time>2026-05-03T17:11:18Z</time></trkpt><trkpt lat="41.497649218207776" lon="23.820520159563813"><ele>558.0</ele><time>2026-05-03T17:11:20Z</time></trkpt><trkpt lat="41.49772753899871" lon="23.82054908667062"><ele>557.9999999999999</ele><time>2026-05-03T17:11:23Z</time></trkpt><trkpt lat="41.49772856493156" lon="23.82043448880572"><ele>558.0</ele><time>2026-05-03T17:11:26Z</time></trkpt><trkpt lat="41.49771370963113" lon="23.82034317788674"><ele>558.0</ele><time>2026-05-03T17:11:29Z</time></trkpt><trkpt lat="41.497740901632774" lon="23.82026490149389"><ele>558.0</ele><time>2026-05-03T17:11:33Z</time></trkpt><trkpt lat="41.49776686959186" lon="23.820170578871874"><ele>558.0</ele><time>2026-05-03T17:11:37Z</time></trkpt><trkpt lat="41.4977846617406" lon="23.820079052596228"><ele>557.9999999999999</ele><time>2026-05-03T17:11:40Z</time></trkpt><trkpt lat="41.497808297486024" lon="23.819994023312923"><ele>558.0</ele><time>2026-05-03T17:11:44Z</time></trkpt><trkpt lat="41.49783508200866" lon="23.819904650355856"><ele>558.0</ele><time>2026-05-03T17:11:47Z</time></trkpt><trkpt lat="41.497923245186016" lon="23.819897937681617"><ele>558.0</ele><time>2026-05-03T17:11:52Z</time></trkpt><trkpt lat="41.49791427518017" lon="23.819989714037373"><ele>558.0</ele><time>2026-05-03T17:11:55Z</time></trkpt><trkpt lat="41.49789246995595" lon="23.819905987408177"><ele>558.0</ele><time>2026-05-03T17:12:02Z</time></trkpt><trkpt lat="41.49782714254896" lon="23.81987717804327"><ele>558.0</ele><time>2026-05-03T17:12:06Z</time></trkpt><trkpt lat="41.497798375807065" lon="23.820023029101666"><ele>558.0</ele><time>2026-05-03T17:12:08Z</time></trkpt><trkpt lat="41.49777515993578" lon="23.820164485898474"><ele>558.0</ele><time>2026-05-03T17:12:10Z</time></trkpt><trkpt lat="41.497739982998326" lon="23.820285123545077"><ele>558.0</ele><time>2026-05-03T17:12:12Z</time></trkpt><trkpt lat="41.497702267632185" lon="23.820430333863634"><ele>558.0</ele><time>2026-05-03T17:12:14Z</time></trkpt><trkpt lat="41.49766973357453" lon="23.820519185185308"><ele>558.0</ele><time>2026-05-03T17:12:15Z</time></trkpt><trkpt lat="41.49766320597795" lon="23.82060810744648"><ele>558.0</ele><time>2026-05-03T17:12:18Z</time></trkpt><trkpt lat="41.49773020284106" lon="23.820579085244212"><ele>558.0</ele><time>2026-05-03T17:12:20Z</time></trkpt><trkpt lat="41.497740139543204" lon="23.820468138604415"><ele>558.0</ele><time>2026-05-03T17:12:21.999Z</time></trkpt><trkpt lat="41.497712806410334" lon="23.820354854551216"><ele>558.0</ele><time>2026-05-03T17:12:23.999Z</time></trkpt><trkpt lat="41.49774108696217" lon="23.82026968665307"><ele>558.0</ele><time>2026-05-03T17:12:25.999Z</time></trkpt><trkpt lat="41.497773875848594" lon="23.820175007330715"><ele>558.0</ele><time>2026-05-03T17:12:27.999Z</time></trkpt><trkpt lat="41.49779361575391" lon="23.820085663286168"><ele>558.0</ele><time>2026-05-03T17:12:29.999Z</time></trkpt><trkpt lat="41.49781618498222" lon="23.819982339590123"><ele>558.0</ele><time>2026-05-03T17:12:31.999Z</time></trkpt><trkpt lat="41.49784698337766" lon="23.819890538111128"><ele>556.5</ele><time>2026-05-03T17:12:33.999Z</time></trkpt><trkpt lat="41.49793753783904" lon="23.819923111203654"><ele>555.0</ele><time>2026-05-03T17:12:42.999Z</time></trkpt><trkpt lat="41.49797941377545" lon="23.82001088959078"><ele>553.5</ele><time>2026-05-03T17:12:44.999Z</time></trkpt><trkpt lat="41.49804969511728" lon="23.82003402087832"><ele>552.0</ele><time>2026-05-03T17:12:47.999Z</time></trkpt><trkpt lat="41.49800631677763" lon="23.820095096444216"><ele>550.5</ele><time>2026-05-03T17:12:50.999Z</time></trkpt><trkpt lat="41.497983348774476" lon="23.81997816631162"><ele>549.0</ele><time>2026-05-03T17:13:56Z</time></trkpt><trkpt lat="41.49790574821071" lon="23.819890034115122"><ele>549.0</ele><time>2026-05-03T17:13:58Z</time></trkpt><trkpt lat="41.49782516038615" lon="23.81987964937098"><ele>549.0</ele><time>2026-05-03T17:14:00Z</time></trkpt><trkpt lat="41.49776958904486" lon="23.819957798393688"><ele>549.0</ele><time>2026-05-03T17:14:02Z</time></trkpt><trkpt lat="41.49777139089763" lon="23.820051095419817"><ele>549.0</ele><time>2026-05-03T17:14:03Z</time></trkpt><trkpt lat="41.497775578688824" lon="23.820153474309002"><ele>549.0</ele><time>2026-05-03T17:14:04Z</time></trkpt><trkpt lat="41.49774672443619" lon="23.82028232814689"><ele>549.0</ele><time>2026-05-03T17:14:06Z</time></trkpt><trkpt lat="41.4976933839245" lon="23.820413096394308"><ele>550.8</ele><time>2026-05-03T17:14:08Z</time></trkpt><trkpt lat="41.497645180353295" lon="23.820549161039906"><ele>552.5999999999999</ele><time>2026-05-03T17:14:10Z</time></trkpt><trkpt lat="41.49769849672909" lon="23.820613795543895"><ele>554.4</ele><time>2026-05-03T17:14:14Z</time></trkpt><trkpt lat="41.497772947551056" lon="23.82069694430743"><ele>556.1999999999999</ele><time>2026-05-03T17:14:25Z</time></trkpt><trkpt lat="41.49784073358792" lon="23.820810204416134"><ele>558.0</ele><time>2026-05-03T17:14:27Z</time></trkpt><trkpt lat="41.49789725081985" lon="23.820909934764146"><ele>557.5</ele><time>2026-05-03T17:14:28.999Z</time></trkpt><trkpt lat="41.49794697480485" lon="23.821016161158706"><ele>557.0</ele><time>2026-05-03T17:14:30.999Z</time></trkpt><trkpt lat="41.49799473131592" lon="23.82110801135437"><ele>556.5</ele><time>2026-05-03T17:14:32.999Z</time></trkpt><trkpt lat="41.4980570092634" lon="23.82118450032445"><ele>556.0</ele><time>2026-05-03T17:14:34.999Z</time></trkpt><trkpt lat="41.49812913754602" lon="23.821269341728687"><ele>555.5</ele><time>2026-05-03T17:14:36.999Z</time></trkpt><trkpt lat="41.49818898126923" lon="23.821337775222137"><ele>555.0</ele><time>2026-05-03T17:14:38.999Z</time></trkpt><trkpt lat="41.49827871994169" lon="23.821362212757755"><ele>555.0</ele><time>2026-05-03T17:14:40.999Z</time></trkpt><trkpt lat="41.49836002596542" lon="23.821312475968597"><ele>555.0</ele><time>2026-05-03T17:14:43Z</time></trkpt><trkpt lat="41.49841409070661" lon="23.821239759265303"><ele>555.0</ele><time>2026-05-03T17:14:45Z</time></trkpt><trkpt lat="41.498463751412004" lon="23.821164490066646"><ele>555.0</ele><time>2026-05-03T17:14:48Z</time></trkpt><trkpt lat="41.498517545223145" lon="23.821117704133414"><ele>555.0</ele><time>2026-05-03T17:14:51Z</time></trkpt><trkpt lat="41.49845039650529" lon="23.821065732408186"><ele>555.0</ele><time>2026-05-03T17:14:54Z</time></trkpt><trkpt lat="41.49837429727552" lon="23.821182391651753"><ele>555.0</ele><time>2026-05-03T17:14:56Z</time></trkpt><trkpt lat="41.498300319329324" lon="23.8212881176594"><ele>555.0</ele><time>2026-05-03T17:14:58Z</time></trkpt><trkpt lat="41.49820296871315" lon="23.821340879497576"><ele>555.0</ele><time>2026-05-03T17:15:00Z</time></trkpt><trkpt lat="41.49813716184712" lon="23.821272385635197"><ele>555.0</ele><time>2026-05-03T17:15:04Z</time></trkpt><trkpt lat="41.49807422901513" lon="23.821190770495683"><ele>555.0</ele><time>2026-05-03T17:15:05.001Z</time></trkpt><trkpt lat="41.49800558593425" lon="23.82110959004289"><ele>555.0</ele><time>2026-05-03T17:15:08.001Z</time></trkpt><trkpt lat="41.49794952012349" lon="23.821024257847817"><ele>555.0</ele><time>2026-05-03T17:15:09.001Z</time></trkpt><trkpt lat="41.497910194271206" lon="23.82095142491568"><ele>555.0</ele><time>2026-05-03T17:15:10.001Z</time></trkpt><trkpt lat="41.497840730991406" lon="23.820800773631014"><ele>555.0</ele><time>2026-05-03T17:15:13.001Z</time></trkpt><trkpt lat="41.497798561923894" lon="23.82073056295785"><ele>555.0</ele><time>2026-05-03T17:15:15.001Z</time></trkpt><trkpt lat="41.49769390717054" lon="23.820600501276186"><ele>555.4285714285714</ele><time>2026-05-03T17:15:17.001Z</time></trkpt><trkpt lat="41.497662751452104" lon="23.82052279467404"><ele>555.8571428571429</ele><time>2026-05-03T17:15:23.001Z</time></trkpt><trkpt lat="41.497680349076305" lon="23.8204332935535"><ele>556.2857142857142</ele><time>2026-05-03T17:15:26.001Z</time></trkpt><trkpt lat="41.49771950792175" lon="23.820347332611306"><ele>556.7142857142858</ele><time>2026-05-03T17:15:28.001Z</time></trkpt><trkpt lat="41.49774556825647" lon="23.820241833239123"><ele>557.1428571428571</ele><time>2026-05-03T17:15:31.001Z</time></trkpt><trkpt lat="41.49777076212225" lon="23.820140131828424"><ele>557.5714285714286</ele><time>2026-05-03T17:15:34.001Z</time></trkpt><trkpt lat="41.49778293847917" lon="23.820056092308782"><ele>558.0</ele><time>2026-05-03T17:15:36.001Z</time></trkpt><trkpt lat="41.497785060162364" lon="23.819969793088774"><ele>556.8333333333334</ele><time>2026-05-03T17:15:38.001Z</time></trkpt><trkpt lat="41.49782583145709" lon="23.81988273587033"><ele>555.6666666666666</ele><time>2026-05-03T17:15:41.001Z</time></trkpt><trkpt lat="41.49790088183711" lon="23.819909043041864"><ele>554.5</ele><time>2026-05-03T17:15:45.001Z</time></trkpt><trkpt lat="41.49796644876466" lon="23.819994793231977"><ele>553.3333333333333</ele><time>2026-05-03T17:15:47.001Z</time></trkpt><trkpt lat="41.498017052314026" lon="23.820065933089804"><ele>552.1666666666666</ele><time>2026-05-03T17:15:49.001Z</time></trkpt><trkpt lat="41.498069922286284" lon="23.82014637371199"><ele>551.0</ele><time>2026-05-03T17:15:51.001Z</time></trkpt><trkpt lat="41.498125560387656" lon="23.82019567260146"><ele>551.0</ele><time>2026-05-03T17:15:53.001Z</time></trkpt><trkpt lat="41.49820519514116" lon="23.820247835466287"><ele>551.0</ele><time>2026-05-03T17:15:55.001Z</time></trkpt><trkpt lat="41.49828266990436" lon="23.82032541186655"><ele>551.0</ele><time>2026-05-03T17:15:57.001Z</time></trkpt><trkpt lat="41.49834552700199" lon="23.820390058517475"><ele>551.0</ele><time>2026-05-03T17:16:00.001Z</time></trkpt><trkpt lat="41.498406249919945" lon="23.820417347755036"><ele>551.0</ele><time>2026-05-03T17:16:02.001Z</time></trkpt><trkpt lat="41.49848393732955" lon="23.82048221773626"><ele>551.0</ele><time>2026-05-03T17:16:05.001Z</time></trkpt><trkpt lat="41.498546259186874" lon="23.820527273365446"><ele>551.0</ele><time>2026-05-03T17:16:07.001Z</time></trkpt><trkpt lat="41.49861431084099" lon="23.82058726317263"><ele>551.0</ele><time>2026-05-03T17:16:09.001Z</time></trkpt><trkpt lat="41.498668855222405" lon="23.820666513838155"><ele>551.0</ele><time>2026-05-03T17:16:11.001Z</time></trkpt><trkpt lat="41.49872578128759" lon="23.82072598822404"><ele>551.0</ele><time>2026-05-03T17:16:13.001Z</time></trkpt><trkpt lat="41.49881220861932" lon="23.820776360421604"><ele>551.0</ele><time>2026-05-03T17:16:15.001Z</time></trkpt><trkpt lat="41.498903430423695" lon="23.820821564141195"><ele>551.0</ele><time>2026-05-03T17:16:17.001Z</time></trkpt><trkpt lat="41.498962946750346" lon="23.820855346325967"><ele>551.8333333333333</ele><time>2026-05-03T17:16:19.001Z</time></trkpt><trkpt lat="41.49903765461339" lon="23.820910822997725"><ele>552.6666666666666</ele><time>2026-05-03T17:16:21.001Z</time></trkpt><trkpt lat="41.49910092078478" lon="23.820972215173004"><ele>553.5</ele><time>2026-05-03T17:16:23.001Z</time></trkpt><trkpt lat="41.49916148061321" lon="23.82103166412698"><ele>554.3333333333334</ele><time>2026-05-03T17:16:25.001Z</time></trkpt><trkpt lat="41.499152581643514" lon="23.821126380555256"><ele>555.1666666666667</ele><time>2026-05-03T17:16:27.001Z</time></trkpt><trkpt lat="41.49908057612158" lon="23.821191388884564"><ele>556.0</ele><time>2026-05-03T17:16:29.001Z</time></trkpt><trkpt lat="41.499011876703065" lon="23.8211523290991"><ele>556.0</ele><time>2026-05-03T17:16:31.001Z</time></trkpt><trkpt lat="41.498936085015416" lon="23.821095316110107"><ele>556.0</ele><time>2026-05-03T17:16:33Z</time></trkpt><trkpt lat="41.498861965158035" lon="23.821070928273944"><ele>556.0</ele><time>2026-05-03T17:16:35Z</time></trkpt><trkpt lat="41.498780156193895" lon="23.821047671562752"><ele>556.0</ele><time>2026-05-03T17:16:38Z</time></trkpt><trkpt lat="41.49876365025943" lon="23.82096456043627"><ele>556.0</ele><time>2026-05-03T17:16:42Z</time></trkpt><trkpt lat="41.49879840780609" lon="23.820872618125446"><ele>556.0</ele><time>2026-05-03T17:16:46Z</time></trkpt><trkpt lat="41.498866871400054" lon="23.820792517299857"><ele>555.8333333333334</ele><time>2026-05-03T17:16:49Z</time></trkpt><trkpt lat="41.49884637324927" lon="23.82071218821881"><ele>555.6666666666667</ele><time>2026-05-03T17:16:53Z</time></trkpt><trkpt lat="41.49880298060185" lon="23.820799843580193"><ele>555.5</ele><time>2026-05-03T17:16:55Z</time></trkpt><trkpt lat="41.49878449526614" lon="23.82089654080469"><ele>555.3333333333334</ele><time>2026-05-03T17:16:56Z</time></trkpt><trkpt lat="41.498741087017564" lon="23.821020810885383"><ele>555.1666666666666</ele><time>2026-05-03T17:16:58Z</time></trkpt><trkpt lat="41.49877384479593" lon="23.820948237400835"><ele>555.0</ele><time>2026-05-03T17:18:14.001Z</time></trkpt><trkpt lat="41.4988136992152" lon="23.82086297919763"><ele>555.1666666666666</ele><time>2026-05-03T17:18:18.001Z</time></trkpt><trkpt lat="41.498896805470046" lon="23.820838056783053"><ele>555.3333333333334</ele><time>2026-05-03T17:18:24.001Z</time></trkpt><trkpt lat="41.49897608824957" lon="23.820873094723133"><ele>555.5</ele><time>2026-05-03T17:18:26.001Z</time></trkpt><trkpt lat="41.4990539228296" lon="23.82092182614052"><ele>555.6666666666667</ele><time>2026-05-03T17:18:28.001Z</time></trkpt><trkpt lat="41.49914415289486" lon="23.821000318718976"><ele>555.8333333333334</ele><time>2026-05-03T17:18:30.001Z</time></trkpt><trkpt lat="41.49922149044942" lon="23.821050715346942"><ele>556.0</ele><time>2026-05-03T17:18:32.001Z</time></trkpt><trkpt lat="41.49933129655136" lon="23.82109780212001"><ele>556.0</ele><time>2026-05-03T17:18:34.001Z</time></trkpt><trkpt lat="41.49941358660529" lon="23.82114169749084"><ele>556.0</ele><time>2026-05-03T17:18:35.001Z</time></trkpt><trkpt lat="41.499489939427754" lon="23.821154345378964"><ele>556.0</ele><time>2026-05-03T17:18:37.001Z</time></trkpt><trkpt lat="41.49951009959444" lon="23.821272517658876"><ele>556.0</ele><time>2026-05-03T17:18:46Z</time></trkpt><trkpt lat="41.499533698601994" lon="23.8213587846893"><ele>556.0</ele><time>2026-05-03T17:18:48Z</time></trkpt><trkpt lat="41.499605785295046" lon="23.82138583557591"><ele>556.0</ele><time>2026-05-03T17:18:50Z</time></trkpt><trkpt lat="41.49966091164042" lon="23.82142857692629"><ele>556.0</ele><time>2026-05-03T17:19:00Z</time></trkpt><trkpt lat="41.49963260844979" lon="23.82134950793018"><ele>556.0</ele><time>2026-05-03T17:19:09Z</time></trkpt><trkpt lat="41.49956333334318" lon="23.821329606274947"><ele>556.0</ele><time>2026-05-03T17:19:11Z</time></trkpt><trkpt lat="41.499492692292684" lon="23.82126507942795"><ele>556.0</ele><time>2026-05-03T17:19:14Z</time></trkpt><trkpt lat="41.49945882299341" lon="23.821186414841026"><ele>556.0</ele><time>2026-05-03T17:19:17Z</time></trkpt><trkpt lat="41.49939388415465" lon="23.82112957534773"><ele>556.0</ele><time>2026-05-03T17:19:19Z</time></trkpt><trkpt lat="41.499292873322425" lon="23.821100192649173"><ele>556.0</ele><time>2026-05-03T17:19:21Z</time></trkpt><trkpt lat="41.49921120116105" lon="23.821076330850016"><ele>556.0</ele><time>2026-05-03T17:19:23Z</time></trkpt><trkpt lat="41.49913397736621" lon="23.821039392930825"><ele>556.0</ele><time>2026-05-03T17:19:25Z</time></trkpt><trkpt lat="41.49906367517963" lon="23.820962215487302"><ele>556.0</ele><time>2026-05-03T17:19:27Z</time></trkpt><trkpt lat="41.4990093479019" lon="23.820886918679058"><ele>556.0</ele><time>2026-05-03T17:19:29Z</time></trkpt><trkpt lat="41.498926532496135" lon="23.820840081928296"><ele>556.0</ele><time>2026-05-03T17:19:31.001Z</time></trkpt><trkpt lat="41.49881059410612" lon="23.820796588329184"><ele>555.0</ele><time>2026-05-03T17:19:33.001Z</time></trkpt><trkpt lat="41.49871085192969" lon="23.8207468626969"><ele>554.0</ele><time>2026-05-03T17:19:35.001Z</time></trkpt><trkpt lat="41.49862407803675" lon="23.820674294772093"><ele>553.0</ele><time>2026-05-03T17:19:37.001Z</time></trkpt><trkpt lat="41.498542561397365" lon="23.820603200373856"><ele>552.0</ele><time>2026-05-03T17:19:39.001Z</time></trkpt><trkpt lat="41.498505485313565" lon="23.820494705912065"><ele>551.0</ele><time>2026-05-03T17:19:41.001Z</time></trkpt><trkpt lat="41.498483650783385" lon="23.82039570588028"><ele>551.0</ele><time>2026-05-03T17:19:43.001Z</time></trkpt><trkpt lat="41.49841563547466" lon="23.820363393743254"><ele>551.0</ele><time>2026-05-03T17:19:45.001Z</time></trkpt><trkpt lat="41.498363736751536" lon="23.8204819422659"><ele>551.0</ele><time>2026-05-03T17:19:47.001Z</time></trkpt><trkpt lat="41.498408611750186" lon="23.820632859261398"><ele>551.0</ele><time>2026-05-03T17:19:49.001Z</time></trkpt><trkpt lat="41.4984227815739" lon="23.820752283561674"><ele>551.0</ele><time>2026-05-03T17:19:50.001Z</time></trkpt><trkpt lat="41.49842725428157" lon="23.82086548651707"><ele>551.0</ele><time>2026-05-03T17:19:51.001Z</time></trkpt><trkpt lat="41.49843299759487" lon="23.82097509974437"><ele>551.0</ele><time>2026-05-03T17:19:52.001Z</time></trkpt><trkpt lat="41.49844257642141" lon="23.821088256581138"><ele>551.0</ele><time>2026-05-03T17:19:53.001Z</time></trkpt><trkpt lat="41.49846475106523" lon="23.821199933913555"><ele>551.0</ele><time>2026-05-03T17:19:54.001Z</time></trkpt><trkpt lat="41.498492607964046" lon="23.82130894844578"><ele>551.0</ele><time>2026-05-03T17:19:55.001Z</time></trkpt><trkpt lat="41.498516223033214" lon="23.821421083799592"><ele>551.0</ele><time>2026-05-03T17:19:56.001Z</time></trkpt><trkpt lat="41.49854829865379" lon="23.821498369667065"><ele>551.3333333333333</ele><time>2026-05-03T17:19:57.001Z</time></trkpt><trkpt lat="41.498590439502856" lon="23.821578952925137"><ele>551.6666666666666</ele><time>2026-05-03T17:19:58.001Z</time></trkpt><trkpt lat="41.49863073266107" lon="23.821669950582425"><ele>552.0</ele><time>2026-05-03T17:19:59.001Z</time></trkpt><trkpt lat="41.49866957693794" lon="23.821770964211467"><ele>552.3333333333334</ele><time>2026-05-03T17:20:00.001Z</time></trkpt><trkpt lat="41.498697362550104" lon="23.82186898187659"><ele>552.6666666666667</ele><time>2026-05-03T17:20:01.001Z</time></trkpt><trkpt lat="41.49874127438844" lon="23.821971137856767"><ele>553.0</ele><time>2026-05-03T17:20:02.001Z</time></trkpt><trkpt lat="41.49878664814094" lon="23.82208873576649"><ele>553.5</ele><time>2026-05-03T17:20:03.001Z</time></trkpt><trkpt lat="41.49882617086592" lon="23.82219542949191"><ele>554.0</ele><time>2026-05-03T17:20:04.001Z</time></trkpt><trkpt lat="41.49885605615507" lon="23.82227815179489"><ele>554.5</ele><time>2026-05-03T17:20:05.001Z</time></trkpt><trkpt lat="41.498895392639454" lon="23.822371838800404"><ele>555.0</ele><time>2026-05-03T17:20:07.001Z</time></trkpt><trkpt lat="41.498979232315065" lon="23.822424029986973"><ele>555.5</ele><time>2026-05-03T17:20:10.001Z</time></trkpt><trkpt lat="41.49904441695796" lon="23.822479555033357"><ele>556.0</ele><time>2026-05-03T17:20:13.001Z</time></trkpt><trkpt lat="41.49899878807641" lon="23.8225719718876"><ele>554.6666666666667</ele><time>2026-05-03T17:20:17.001Z</time></trkpt><trkpt lat="41.49895601020389" lon="23.822654674197253"><ele>553.3333333333334</ele><time>2026-05-03T17:20:20.001Z</time></trkpt><trkpt lat="41.498936941380386" lon="23.822748501897216"><ele>552.0</ele><time>2026-05-03T17:20:23.001Z</time></trkpt><trkpt lat="41.498983225319904" lon="23.82282359094943"><ele>550.6666666666666</ele><time>2026-05-03T17:20:27.001Z</time></trkpt><trkpt lat="41.49908193580182" lon="23.822919878384933"><ele>549.3333333333333</ele><time>2026-05-03T17:20:29.001Z</time></trkpt><trkpt lat="41.499138712254016" lon="23.82301574625569"><ele>548.0</ele><time>2026-05-03T17:20:30.001Z</time></trkpt><trkpt lat="41.49918988900621" lon="23.823149881522042"><ele>548.0</ele><time>2026-05-03T17:20:32.001Z</time></trkpt><trkpt lat="41.49912848607816" lon="23.823248971069674"><ele>548.0</ele><time>2026-05-03T17:20:35.001Z</time></trkpt><trkpt lat="41.49906514504343" lon="23.823289578325003"><ele>548.0</ele><time>2026-05-03T17:20:39.001Z</time></trkpt><trkpt lat="41.499004842212365" lon="23.823337076238122"><ele>548.0</ele><time>2026-05-03T17:20:42.001Z</time></trkpt><trkpt lat="41.498937043190594" lon="23.823416266664054"><ele>548.0</ele><time>2026-05-03T17:20:44.001Z</time></trkpt><trkpt lat="41.49889692713855" lon="23.823515697446446"><ele>548.0</ele><time>2026-05-03T17:20:46Z</time></trkpt><trkpt lat="41.49885060322386" lon="23.8235934769093"><ele>546.4</ele><time>2026-05-03T17:20:48Z</time></trkpt><trkpt lat="41.49878808262353" lon="23.82368510224665"><ele>544.8</ele><time>2026-05-03T17:20:51Z</time></trkpt><trkpt lat="41.49881162955065" lon="23.823796219065123"><ele>543.2</ele><time>2026-05-03T17:20:58Z</time></trkpt><trkpt lat="41.49887350341577" lon="23.823880761193177"><ele>541.6</ele><time>2026-05-03T17:21:00Z</time></trkpt><trkpt lat="41.49897486102689" lon="23.82391971058837"><ele>540.0</ele><time>2026-05-03T17:21:02Z</time></trkpt><trkpt lat="41.49906372001026" lon="23.823923843058925"><ele>540.0</ele><time>2026-05-03T17:21:04Z</time></trkpt><trkpt lat="41.499101019795525" lon="23.823815020788583"><ele>540.0</ele><time>2026-05-03T17:21:24Z</time></trkpt><trkpt lat="41.49917444500582" lon="23.823701225811728"><ele>540.0</ele><time>2026-05-03T17:21:26Z</time></trkpt><trkpt lat="41.49924755364998" lon="23.823606954723996"><ele>540.0</ele><time>2026-05-03T17:21:28Z</time></trkpt><trkpt lat="41.49933420905149" lon="23.82351689747508"><ele>540.0</ele><time>2026-05-03T17:21:30Z</time></trkpt><trkpt lat="41.499395549677004" lon="23.82340398142277"><ele>540.0</ele><time>2026-05-03T17:21:32Z</time></trkpt><trkpt lat="41.499467909222204" lon="23.823352607994213"><ele>540.0</ele><time>2026-05-03T17:21:34Z</time></trkpt><trkpt lat="41.49953389247373" lon="23.823430647969086"><ele>540.0</ele><time>2026-05-03T17:21:38Z</time></trkpt><trkpt lat="41.49956985905864" lon="23.823519774574255"><ele>540.0</ele><time>2026-05-03T17:21:39.001Z</time></trkpt><trkpt lat="41.49958641462359" lon="23.823604040964234"><ele>540.0</ele><time>2026-05-03T17:21:40.001Z</time></trkpt><trkpt lat="41.49955175330247" lon="23.823700789026848"><ele>540.0</ele><time>2026-05-03T17:21:42.001Z</time></trkpt><trkpt lat="41.49948077477059" lon="23.823797986387785"><ele>540.0</ele><time>2026-05-03T17:21:44.001Z</time></trkpt><trkpt lat="41.49946198690005" lon="23.823916412598585"><ele>540.0</ele><time>2026-05-03T17:21:46.001Z</time></trkpt><trkpt lat="41.49947961150983" lon="23.824042681850916"><ele>540.0</ele><time>2026-05-03T17:21:49.001Z</time></trkpt><trkpt lat="41.4995221797133" lon="23.824139371723156"><ele>540.0</ele><time>2026-05-03T17:21:52.001Z</time></trkpt><trkpt lat="41.499522883882314" lon="23.824254986273445"><ele>540.0</ele><time>2026-05-03T17:21:56.001Z</time></trkpt><trkpt lat="41.4995119587425" lon="23.824368934727318"><ele>540.0</ele><time>2026-05-03T17:22:00.001Z</time></trkpt><trkpt lat="41.49949385649235" lon="23.824479857061004"><ele>538.6</ele><time>2026-05-03T17:22:02.001Z</time></trkpt><trkpt lat="41.499478055636004" lon="23.824572437043855"><ele>537.2</ele><time>2026-05-03T17:22:05.001Z</time></trkpt><trkpt lat="41.49944988721354" lon="23.824680126959617"><ele>535.8</ele><time>2026-05-03T17:22:08.001Z</time></trkpt><trkpt lat="41.499432547101165" lon="23.824785263340036"><ele>534.4</ele><time>2026-05-03T17:22:11.001Z</time></trkpt><trkpt lat="41.49945788604352" lon="23.824893338576892"><ele>533.0</ele><time>2026-05-03T17:22:15.001Z</time></trkpt><trkpt lat="41.4995562643524" lon="23.825002051702963"><ele>532.8</ele><time>2026-05-03T17:22:17.001Z</time></trkpt><trkpt lat="41.49961381252146" lon="23.825089926433186"><ele>532.5999999999999</ele><time>2026-05-03T17:22:18.001Z</time></trkpt><trkpt lat="41.49967347878907" lon="23.825192711911342"><ele>532.4000000000001</ele><time>2026-05-03T17:22:20.001Z</time></trkpt><trkpt lat="41.499741427053976" lon="23.82530210469523"><ele>532.2</ele><time>2026-05-03T17:22:22.001Z</time></trkpt><trkpt lat="41.49982485834341" lon="23.82539440313124"><ele>532.0</ele><time>2026-05-03T17:22:24.001Z</time></trkpt><trkpt lat="41.49986819713733" lon="23.825536687459298"><ele>532.0</ele><time>2026-05-03T17:22:26.001Z</time></trkpt><trkpt lat="41.49989735557421" lon="23.825629335489655"><ele>532.0</ele><time>2026-05-03T17:22:27.001Z</time></trkpt><trkpt lat="41.4999744606354" lon="23.825749942789024"><ele>532.0</ele><time>2026-05-03T17:22:29.001Z</time></trkpt><trkpt lat="41.5000519738329" lon="23.825804613484678"><ele>532.0</ele><time>2026-05-03T17:22:31.001Z</time></trkpt><trkpt lat="41.500148714410166" lon="23.825792591182587"><ele>532.0</ele><time>2026-05-03T17:22:33.001Z</time></trkpt><trkpt lat="41.500187402316485" lon="23.82572586967848"><ele>532.0</ele><time>2026-05-03T17:22:34.001Z</time></trkpt><trkpt lat="41.500236919704044" lon="23.825672809167497"><ele>532.0</ele><time>2026-05-03T17:22:35.001Z</time></trkpt><trkpt lat="41.500290556618886" lon="23.82561538405104"><ele>532.0</ele><time>2026-05-03T17:22:36.001Z</time></trkpt><trkpt lat="41.50033851756175" lon="23.825547360891317"><ele>532.0</ele><time>2026-05-03T17:22:37.001Z</time></trkpt><trkpt lat="41.500388536936235" lon="23.825493121511077"><ele>532.0</ele><time>2026-05-03T17:22:38.001Z</time></trkpt><trkpt lat="41.500458531571574" lon="23.825409795487364"><ele>532.0</ele><time>2026-05-03T17:22:40.001Z</time></trkpt><trkpt lat="41.500381767073" lon="23.825297650450228"><ele>532.0</ele><time>2026-05-03T17:22:47.001Z</time></trkpt><trkpt lat="41.5002880273453" lon="23.82530506042839"><ele>532.0</ele><time>2026-05-03T17:22:51Z</time></trkpt><trkpt lat="41.500230463267364" lon="23.825366797263282"><ele>532.0</ele><time>2026-05-03T17:22:54Z</time></trkpt><trkpt lat="41.50015457956225" lon="23.825292131919596"><ele>532.0</ele><time>2026-05-03T17:23:00Z</time></trkpt><trkpt lat="41.50012078879813" lon="23.82517044618406"><ele>532.0</ele><time>2026-05-03T17:23:04Z</time></trkpt><trkpt lat="41.50009334696709" lon="23.8250621998293"><ele>532.0</ele><time>2026-05-03T17:23:05Z</time></trkpt><trkpt lat="41.49999040586706" lon="23.82499512633552"><ele>533.1666666666667</ele><time>2026-05-03T17:23:07Z</time></trkpt><trkpt lat="41.499928566145826" lon="23.82495836897254"><ele>534.3333333333334</ele><time>2026-05-03T17:23:09Z</time></trkpt><trkpt lat="41.49988180667907" lon="23.82490051333435"><ele>535.5</ele><time>2026-05-03T17:23:10Z</time></trkpt><trkpt lat="41.49982623882993" lon="23.824792716275518"><ele>536.6666666666666</ele><time>2026-05-03T17:23:12Z</time></trkpt><trkpt lat="41.49975228009632" lon="23.824674299106395"><ele>537.8333333333333</ele><time>2026-05-03T17:23:14Z</time></trkpt><trkpt lat="41.49969879719735" lon="23.82462571697588"><ele>539.0</ele><time>2026-05-03T17:23:16Z</time></trkpt><trkpt lat="41.499645088669126" lon="23.82452730969727"><ele>539.0</ele><time>2026-05-03T17:23:18Z</time></trkpt><trkpt lat="41.49960454083955" lon="23.82445013463319"><ele>539.0</ele><time>2026-05-03T17:23:19Z</time></trkpt><trkpt lat="41.49954700717565" lon="23.824371828589037"><ele>539.0</ele><time>2026-05-03T17:23:20Z</time></trkpt><trkpt lat="41.49945885039975" lon="23.824284478113753"><ele>539.0</ele><time>2026-05-03T17:23:22Z</time></trkpt><trkpt lat="41.499337472796924" lon="23.82423474575467"><ele>539.0</ele><time>2026-05-03T17:23:24Z</time></trkpt><trkpt lat="41.499258918500665" lon="23.824213114788655"><ele>539.1666666666666</ele><time>2026-05-03T17:23:25Z</time></trkpt><trkpt lat="41.49917446998319" lon="23.82422476374007"><ele>539.3333333333333</ele><time>2026-05-03T17:23:27Z</time></trkpt><trkpt lat="41.49910558195747" lon="23.824235011400635"><ele>539.5</ele><time>2026-05-03T17:23:29Z</time></trkpt><trkpt lat="41.49903482049798" lon="23.824205315303754"><ele>539.6666666666666</ele><time>2026-05-03T17:23:31Z</time></trkpt><trkpt lat="41.498941172114115" lon="23.824180308736228"><ele>539.8333333333334</ele><time>2026-05-03T17:23:33Z</time></trkpt><trkpt lat="41.49886552498982" lon="23.824138611024317"><ele>540.0</ele><time>2026-05-03T17:23:35Z</time></trkpt><trkpt lat="41.49892683467562" lon="23.8241792759619"><ele>540.0</ele><time>2026-05-03T17:23:41Z</time></trkpt><trkpt lat="41.499043704851275" lon="23.824229211457535"><ele>540.0</ele><time>2026-05-03T17:23:44Z</time></trkpt><trkpt lat="41.49912962546841" lon="23.82425236056276"><ele>540.0</ele><time>2026-05-03T17:23:46.001Z</time></trkpt><trkpt lat="41.49923932584501" lon="23.82425876187765"><ele>540.0</ele><time>2026-05-03T17:23:48.001Z</time></trkpt><trkpt lat="41.49931352492692" lon="23.824245124794828"><ele>540.0</ele><time>2026-05-03T17:23:49.001Z</time></trkpt><trkpt lat="41.49938825560355" lon="23.824262526207686"><ele>540.0</ele><time>2026-05-03T17:23:50.001Z</time></trkpt><trkpt lat="41.499462255951606" lon="23.824310045519276"><ele>540.0</ele><time>2026-05-03T17:23:51.001Z</time></trkpt><trkpt lat="41.49952470773389" lon="23.824350453152842"><ele>540.0</ele><time>2026-05-03T17:23:52.001Z</time></trkpt><trkpt lat="41.49961319712696" lon="23.82445980210257"><ele>540.0</ele><time>2026-05-03T17:23:54.001Z</time></trkpt><trkpt lat="41.49969180328959" lon="23.824619167680055"><ele>540.0</ele><time>2026-05-03T17:23:56.001Z</time></trkpt><trkpt lat="41.49973646578199" lon="23.824678977484826"><ele>539.8</ele><time>2026-05-03T17:23:57.001Z</time></trkpt><trkpt lat="41.499829110649884" lon="23.824809416880534"><ele>539.6</ele><time>2026-05-03T17:23:59.001Z</time></trkpt><trkpt lat="41.499871782567546" lon="23.824898552667303"><ele>539.4</ele><time>2026-05-03T17:24:00.001Z</time></trkpt><trkpt lat="41.499945697997795" lon="23.82499421323219"><ele>539.2</ele><time>2026-05-03T17:24:02.001Z</time></trkpt><trkpt lat="41.50001520251123" lon="23.82504332406885"><ele>539.0</ele><time>2026-05-03T17:24:03.001Z</time></trkpt><trkpt lat="41.500080570756595" lon="23.8250766680021"><ele>539.0</ele><time>2026-05-03T17:24:04.001Z</time></trkpt><trkpt lat="41.50014036453964" lon="23.825187188458703"><ele>539.0</ele><time>2026-05-03T17:24:06.001Z</time></trkpt><trkpt lat="41.500218896301675" lon="23.825164011816774"><ele>539.0</ele><time>2026-05-03T17:24:09.001Z</time></trkpt><trkpt lat="41.50028125085199" lon="23.82511898002725"><ele>539.0</ele><time>2026-05-03T17:24:10.001Z</time></trkpt><trkpt lat="41.50034545064222" lon="23.825102185291147"><ele>539.0</ele><time>2026-05-03T17:24:18.001Z</time></trkpt><trkpt lat="41.50041249856222" lon="23.82511121458163"><ele>539.0</ele><time>2026-05-03T17:24:26.001Z</time></trkpt><trkpt lat="41.500468837869626" lon="23.82521546687991"><ele>537.5</ele><time>2026-05-03T17:24:28.001Z</time></trkpt><trkpt lat="41.50053780286116" lon="23.825283516946534"><ele>536.0</ele><time>2026-05-03T17:24:30.001Z</time></trkpt><trkpt lat="41.50060811158525" lon="23.825377458383805"><ele>534.5</ele><time>2026-05-03T17:24:32.001Z</time></trkpt><trkpt lat="41.50065206443567" lon="23.825443115310904"><ele>533.0</ele><time>2026-05-03T17:24:34.001Z</time></trkpt><trkpt lat="41.50071565473103" lon="23.825515321249412"><ele>531.5</ele><time>2026-05-03T17:24:36.001Z</time></trkpt><trkpt lat="41.50076470689811" lon="23.825576095218096"><ele>530.0</ele><time>2026-05-03T17:24:38.001Z</time></trkpt><trkpt lat="41.500842117002705" lon="23.82561729304426"><ele>530.0</ele><time>2026-05-03T17:24:42.001Z</time></trkpt><trkpt lat="41.500909288835345" lon="23.82562371167959"><ele>530.0</ele><time>2026-05-03T17:24:46.001Z</time></trkpt><trkpt lat="41.50092682341228" lon="23.825523035171614"><ele>530.0</ele><time>2026-05-03T17:24:48.001Z</time></trkpt><trkpt lat="41.5009355187834" lon="23.82542135088081"><ele>530.0</ele><time>2026-05-03T17:24:50.001Z</time></trkpt><trkpt lat="41.50092919815399" lon="23.825318119106527"><ele>530.0</ele><time>2026-05-03T17:24:53.001Z</time></trkpt><trkpt lat="41.500963445275794" lon="23.825234290642307"><ele>530.0</ele><time>2026-05-03T17:24:56.001Z</time></trkpt><trkpt lat="41.50094425164453" lon="23.825106490588627"><ele>530.5</ele><time>2026-05-03T17:24:59Z</time></trkpt><trkpt lat="41.50087356755944" lon="23.825004404487174"><ele>531.0</ele><time>2026-05-03T17:25:01Z</time></trkpt><trkpt lat="41.50081653543584" lon="23.82490009245037"><ele>531.5</ele><time>2026-05-03T17:25:03Z</time></trkpt><trkpt lat="41.50078376883329" lon="23.824808426662244"><ele>532.0</ele><time>2026-05-03T17:25:06Z</time></trkpt><trkpt lat="41.50085548063777" lon="23.824792060601077"><ele>532.5</ele><time>2026-05-03T17:25:10Z</time></trkpt><trkpt lat="41.50081812585861" lon="23.82488007087675"><ele>533.0</ele><time>2026-05-03T17:25:13Z</time></trkpt><trkpt lat="41.5007496389742" lon="23.824924671097534"><ele>533.0</ele><time>2026-05-03T17:25:15Z</time></trkpt><trkpt lat="41.50069236039157" lon="23.82497367103424"><ele>533.0</ele><time>2026-05-03T17:25:17Z</time></trkpt><trkpt lat="41.50063293156295" lon="23.82504292462389"><ele>533.0</ele><time>2026-05-03T17:25:19Z</time></trkpt><trkpt lat="41.50055700548239" lon="23.825141884069232"><ele>533.0</ele><time>2026-05-03T17:25:21Z</time></trkpt><trkpt lat="41.50050086385337" lon="23.825224704200856"><ele>533.0</ele><time>2026-05-03T17:25:23Z</time></trkpt><trkpt lat="41.500453107411005" lon="23.825280488873393"><ele>533.0</ele><time>2026-05-03T17:25:25Z</time></trkpt><trkpt lat="41.50039501384146" lon="23.825325326767867"><ele>532.8333333333333</ele><time>2026-05-03T17:25:28Z</time></trkpt><trkpt lat="41.50032226858739" lon="23.825293589375526"><ele>532.6666666666666</ele><time>2026-05-03T17:25:33Z</time></trkpt><trkpt lat="41.50030881969409" lon="23.825379793916404"><ele>532.5</ele><time>2026-05-03T17:25:37Z</time></trkpt><trkpt lat="41.50037893533361" lon="23.825400445647823"><ele>532.3333333333334</ele><time>2026-05-03T17:25:39Z</time></trkpt><trkpt lat="41.5004182213969" lon="23.825307007000063"><ele>532.1666666666667</ele><time>2026-05-03T17:25:41Z</time></trkpt><trkpt lat="41.50049008062529" lon="23.825226327813052"><ele>532.0</ele><time>2026-05-03T17:25:44Z</time></trkpt><trkpt lat="41.50054439208184" lon="23.82516124434544"><ele>532.1666666666667</ele><time>2026-05-03T17:25:46Z</time></trkpt><trkpt lat="41.50060483825574" lon="23.825078047065134"><ele>532.3333333333334</ele><time>2026-05-03T17:25:49Z</time></trkpt><trkpt lat="41.50065945122802" lon="23.825014547507436"><ele>532.5</ele><time>2026-05-03T17:25:51Z</time></trkpt><trkpt lat="41.50072766731043" lon="23.82495239585117"><ele>532.6666666666666</ele><time>2026-05-03T17:25:55Z</time></trkpt><trkpt lat="41.500786013519814" lon="23.82490584029097"><ele>532.8333333333333</ele><time>2026-05-03T17:25:58Z</time></trkpt><trkpt lat="41.500867296203204" lon="23.824826852192263"><ele>533.0</ele><time>2026-05-03T17:26:00Z</time></trkpt><trkpt lat="41.50091546138385" lon="23.824756111576427"><ele>533.0</ele><time>2026-05-03T17:26:03.001Z</time></trkpt><trkpt lat="41.5008283297903" lon="23.824804977339276"><ele>533.0</ele><time>2026-05-03T17:26:08.001Z</time></trkpt><trkpt lat="41.50077246993662" lon="23.824919852501825"><ele>533.0</ele><time>2026-05-03T17:26:10.001Z</time></trkpt><trkpt lat="41.500670142005696" lon="23.82500791167131"><ele>533.0</ele><time>2026-05-03T17:26:12.001Z</time></trkpt><trkpt lat="41.50061975954476" lon="23.825058428659556"><ele>533.0</ele><time>2026-05-03T17:26:13.001Z</time></trkpt><trkpt lat="41.50051856445677" lon="23.82518458203308"><ele>533.0</ele><time>2026-05-03T17:26:15.001Z</time></trkpt><trkpt lat="41.50046759859389" lon="23.825249543372315"><ele>533.0</ele><time>2026-05-03T17:26:16.001Z</time></trkpt><trkpt lat="41.50038058684823" lon="23.82535160791417"><ele>533.0</ele><time>2026-05-03T17:26:18.001Z</time></trkpt><trkpt lat="41.500456857015344" lon="23.825282971147214"><ele>533.0</ele><time>2026-05-03T17:26:39.001Z</time></trkpt><trkpt lat="41.50050840560805" lon="23.82520792696626"><ele>533.0</ele><time>2026-05-03T17:26:41.001Z</time></trkpt><trkpt lat="41.5005565713248" lon="23.825143701791422"><ele>533.0</ele><time>2026-05-03T17:26:43.001Z</time></trkpt><trkpt lat="41.50060626796634" lon="23.825077995733892"><ele>533.0</ele><time>2026-05-03T17:26:45.001Z</time></trkpt><trkpt lat="41.50067455036373" lon="23.82500510049341"><ele>533.0</ele><time>2026-05-03T17:26:47.001Z</time></trkpt><trkpt lat="41.500731405077616" lon="23.82495449955996"><ele>533.0</ele><time>2026-05-03T17:26:49.001Z</time></trkpt><trkpt lat="41.50079303786501" lon="23.824897973715405"><ele>533.0</ele><time>2026-05-03T17:26:52.001Z</time></trkpt><trkpt lat="41.50074718781209" lon="23.824780563057963"><ele>533.0</ele><time>2026-05-03T17:27:05Z</time></trkpt><trkpt lat="41.50066272026282" lon="23.824675346863454"><ele>533.0</ele><time>2026-05-03T17:27:07Z</time></trkpt><trkpt lat="41.500609095667144" lon="23.824585322295434"><ele>533.0</ele><time>2026-05-03T17:27:09Z</time></trkpt><trkpt lat="41.50058518010955" lon="23.82450733267706"><ele>533.0</ele><time>2026-05-03T17:27:11Z</time></trkpt><trkpt lat="41.500511601708716" lon="23.824550163646204"><ele>533.0</ele><time>2026-05-03T17:27:19Z</time></trkpt><trkpt lat="41.50044454397419" lon="23.82463067635843"><ele>533.0</ele><time>2026-05-03T17:27:21Z</time></trkpt><trkpt lat="41.5003672582871" lon="23.824709601614515"><ele>533.0</ele><time>2026-05-03T17:27:23Z</time></trkpt><trkpt lat="41.50029197645202" lon="23.824777296758977"><ele>533.0</ele><time>2026-05-03T17:27:25Z</time></trkpt><trkpt lat="41.500234362803965" lon="23.824831444573856"><ele>534.0</ele><time>2026-05-03T17:27:28Z</time></trkpt><trkpt lat="41.50015901337872" lon="23.82491223641935"><ele>535.0</ele><time>2026-05-03T17:27:31Z</time></trkpt><trkpt lat="41.50009489988888" lon="23.824971714778158"><ele>536.0</ele><time>2026-05-03T17:27:34Z</time></trkpt><trkpt lat="41.50004106219487" lon="23.825015713460296"><ele>537.0</ele><time>2026-05-03T17:27:37Z</time></trkpt><trkpt lat="41.50010884827934" lon="23.82497440880962"><ele>538.0</ele><time>2026-05-03T17:27:42Z</time></trkpt><trkpt lat="41.50021603783655" lon="23.824873014940614"><ele>539.0</ele><time>2026-05-03T17:27:44Z</time></trkpt><trkpt lat="41.50028427480069" lon="23.824802602665866"><ele>539.0</ele><time>2026-05-03T17:27:46Z</time></trkpt><trkpt lat="41.50034806727521" lon="23.82474456924194"><ele>539.0</ele><time>2026-05-03T17:27:48Z</time></trkpt><trkpt lat="41.500415356886386" lon="23.82468883854207"><ele>539.0</ele><time>2026-05-03T17:27:50Z</time></trkpt><trkpt lat="41.500475591580035" lon="23.824625538898307"><ele>539.0</ele><time>2026-05-03T17:27:52Z</time></trkpt><trkpt lat="41.50053868458674" lon="23.824547994404988"><ele>539.0</ele><time>2026-05-03T17:27:55Z</time></trkpt><trkpt lat="41.500588048501896" lon="23.82449505627837"><ele>539.0</ele><time>2026-05-03T17:27:59Z</time></trkpt><trkpt lat="41.5006721647925" lon="23.824486633030514"><ele>538.0</ele><time>2026-05-03T17:28:03Z</time></trkpt><trkpt lat="41.500770886261876" lon="23.824503580885196"><ele>537.0</ele><time>2026-05-03T17:28:06Z</time></trkpt><trkpt lat="41.500844391039095" lon="23.824498597709088"><ele>536.0</ele><time>2026-05-03T17:28:08Z</time></trkpt><trkpt lat="41.50092302396145" lon="23.82450664449455"><ele>535.0</ele><time>2026-05-03T17:28:10Z</time></trkpt><trkpt lat="41.50099990473388" lon="23.824509599043612"><ele>534.0</ele><time>2026-05-03T17:28:12.001Z</time></trkpt><trkpt lat="41.50107425259511" lon="23.824526496623026"><ele>533.0</ele><time>2026-05-03T17:28:14.001Z</time></trkpt><trkpt lat="41.50114215550901" lon="23.82453954657425"><ele>533.0</ele><time>2026-05-03T17:28:16.001Z</time></trkpt><trkpt lat="41.50122060967952" lon="23.82452299024102"><ele>533.0</ele><time>2026-05-03T17:28:18.001Z</time></trkpt><trkpt lat="41.501290335377085" lon="23.82450491299092"><ele>533.0</ele><time>2026-05-03T17:28:20.001Z</time></trkpt><trkpt lat="41.50136394171328" lon="23.824528712131876"><ele>533.0</ele><time>2026-05-03T17:28:24.001Z</time></trkpt><trkpt lat="41.50131252899872" lon="23.824473374169695"><ele>533.0</ele><time>2026-05-03T17:28:29.001Z</time></trkpt><trkpt lat="41.501221636714355" lon="23.82452807360764"><ele>533.0</ele><time>2026-05-03T17:28:31.001Z</time></trkpt><trkpt lat="41.50108702881148" lon="23.824538488422984"><ele>533.0</ele><time>2026-05-03T17:28:33.001Z</time></trkpt><trkpt lat="41.500981757057595" lon="23.824529671289838"><ele>533.0</ele><time>2026-05-03T17:28:35.001Z</time></trkpt><trkpt lat="41.500920923249" lon="23.82449374213394"><ele>533.0</ele><time>2026-05-03T17:28:38.001Z</time></trkpt><trkpt lat="41.50086889856978" lon="23.824572255692765"><ele>533.0</ele><time>2026-05-03T17:28:41.001Z</time></trkpt><trkpt lat="41.50093340494163" lon="23.824609709823502"><ele>533.0</ele><time>2026-05-03T17:28:43.001Z</time></trkpt><trkpt lat="41.50096324159181" lon="23.82451073228742"><ele>533.0</ele><time>2026-05-03T17:28:46.001Z</time></trkpt><trkpt lat="41.5009533439235" lon="23.8243912008758"><ele>533.0</ele><time>2026-05-03T17:28:49.001Z</time></trkpt><trkpt lat="41.500975635991004" lon="23.824268774439716"><ele>533.0</ele><time>2026-05-03T17:28:52.001Z</time></trkpt><trkpt lat="41.500911754561656" lon="23.82426861832336"><ele>533.0</ele><time>2026-05-03T17:30:26.001Z</time></trkpt><trkpt lat="41.50085405230126" lon="23.82423033025759"><ele>533.0</ele><time>2026-05-03T17:30:29.001Z</time></trkpt><trkpt lat="41.50095939787205" lon="23.824177523049332"><ele>533.0</ele><time>2026-05-03T17:30:45.001Z</time></trkpt><trkpt lat="41.50098001097659" lon="23.824268590872258"><ele>533.0</ele><time>2026-05-03T17:31:06.001Z</time></trkpt><trkpt lat="41.500945790311846" lon="23.824369195018406"><ele>533.0</ele><time>2026-05-03T17:31:11.001Z</time></trkpt><trkpt lat="41.50092826923495" lon="23.824454190407113"><ele>533.0</ele><time>2026-05-03T17:31:15Z</time></trkpt><trkpt lat="41.500935876110546" lon="23.824559468047486"><ele>533.0</ele><time>2026-05-03T17:31:22Z</time></trkpt><trkpt lat="41.50104670774654" lon="23.824542262750473"><ele>533.0</ele><time>2026-05-03T17:31:24Z</time></trkpt><trkpt lat="41.501149373696435" lon="23.824518405161438"><ele>533.0</ele><time>2026-05-03T17:31:26Z</time></trkpt><trkpt lat="41.50122909120126" lon="23.824504044179722"><ele>533.0</ele><time>2026-05-03T17:31:28Z</time></trkpt><trkpt lat="41.501313650253664" lon="23.824500389678192"><ele>532.5</ele><time>2026-05-03T17:31:30Z</time></trkpt><trkpt lat="41.50140187206182" lon="23.82447330474045"><ele>532.0</ele><time>2026-05-03T17:31:32Z</time></trkpt><trkpt lat="41.50147421012713" lon="23.824421290487777"><ele>531.5</ele><time>2026-05-03T17:31:34Z</time></trkpt><trkpt lat="41.501542778025204" lon="23.824368022329168"><ele>531.0</ele><time>2026-05-03T17:31:36Z</time></trkpt><trkpt lat="41.50161838016473" lon="23.824306539834563"><ele>530.5</ele><time>2026-05-03T17:31:38Z</time></trkpt><trkpt lat="41.50171472747978" lon="23.8242649097904"><ele>530.0</ele><time>2026-05-03T17:31:40Z</time></trkpt><trkpt lat="41.50179748329356" lon="23.82424683503727"><ele>530.0</ele><time>2026-05-03T17:31:42Z</time></trkpt><trkpt lat="41.50186385306633" lon="23.824174378533193"><ele>530.0</ele><time>2026-05-03T17:31:44Z</time></trkpt><trkpt lat="41.501935895347366" lon="23.824033988127898"><ele>530.0</ele><time>2026-05-03T17:31:46Z</time></trkpt><trkpt lat="41.50199587582695" lon="23.823875435712704"><ele>530.0</ele><time>2026-05-03T17:31:48Z</time></trkpt><trkpt lat="41.502045271387814" lon="23.82374590938236"><ele>527.8</ele><time>2026-05-03T17:31:50Z</time></trkpt><trkpt lat="41.502108496031966" lon="23.823645752440697"><ele>525.6</ele><time>2026-05-03T17:31:52Z</time></trkpt><trkpt lat="41.50214281904385" lon="23.8235702139536"><ele>523.4</ele><time>2026-05-03T17:31:53Z</time></trkpt><trkpt lat="41.50219297050713" lon="23.82345924273581"><ele>521.2</ele><time>2026-05-03T17:31:55Z</time></trkpt><trkpt lat="41.50214923084334" lon="23.82326335683663"><ele>519.0</ele><time>2026-05-03T17:31:57Z</time></trkpt><trkpt lat="41.50213432369216" lon="23.8231527980717"><ele>518.5</ele><time>2026-05-03T17:31:58Z</time></trkpt><trkpt lat="41.50210758389694" lon="23.823045765180318"><ele>518.0</ele><time>2026-05-03T17:31:59Z</time></trkpt><trkpt lat="41.50209528734528" lon="23.82295148443296"><ele>517.5</ele><time>2026-05-03T17:32:00Z</time></trkpt><trkpt lat="41.50206322014089" lon="23.822792369595387"><ele>517.0</ele><time>2026-05-03T17:32:02Z</time></trkpt><trkpt lat="41.50205966216162" lon="23.82269829515346"><ele>516.5</ele><time>2026-05-03T17:32:03Z</time></trkpt><trkpt lat="41.502029136544216" lon="23.822609320911635"><ele>516.0</ele><time>2026-05-03T17:32:04Z</time></trkpt><trkpt lat="41.50198117378824" lon="23.82250289969325"><ele>518.8</ele><time>2026-05-03T17:32:05Z</time></trkpt><trkpt lat="41.501943802176456" lon="23.822419745049576"><ele>521.6</ele><time>2026-05-03T17:32:06Z</time></trkpt><trkpt lat="41.501906111497995" lon="23.82233455646718"><ele>524.4</ele><time>2026-05-03T17:32:07Z</time></trkpt><trkpt lat="41.501860148826495" lon="23.822267077363176"><ele>527.2</ele><time>2026-05-03T17:32:08Z</time></trkpt><trkpt lat="41.50176834404435" lon="23.822127898480602"><ele>530.0</ele><time>2026-05-03T17:32:10Z</time></trkpt><trkpt lat="41.501688609283356" lon="23.82200600781152"><ele>530.0</ele><time>2026-05-03T17:32:12Z</time></trkpt><trkpt lat="41.501640854023805" lon="23.821945765119974"><ele>530.0</ele><time>2026-05-03T17:32:13Z</time></trkpt><trkpt lat="41.50159399683039" lon="23.82188665537984"><ele>530.0</ele><time>2026-05-03T17:32:14Z</time></trkpt><trkpt lat="41.50151763426161" lon="23.8217903252723"><ele>530.0</ele><time>2026-05-03T17:32:16Z</time></trkpt><trkpt lat="41.501553185169314" lon="23.821679182743573"><ele>530.0</ele><time>2026-05-03T17:32:18Z</time></trkpt><trkpt lat="41.501573231014184" lon="23.82156372640601"><ele>530.0</ele><time>2026-05-03T17:32:19Z</time></trkpt><trkpt lat="41.50159731938427" lon="23.821424382886544"><ele>528.2</ele><time>2026-05-03T17:32:20Z</time></trkpt><trkpt lat="41.50161439992489" lon="23.821325514172276"><ele>526.4</ele><time>2026-05-03T17:32:21Z</time></trkpt><trkpt lat="41.50163271280243" lon="23.821188547063972"><ele>524.6</ele><time>2026-05-03T17:32:23Z</time></trkpt><trkpt lat="41.50167312217072" lon="23.821084530405866"><ele>522.8</ele><time>2026-05-03T17:32:25Z</time></trkpt><trkpt lat="41.50179798393161" lon="23.821133592920955"><ele>521.0</ele><time>2026-05-03T17:32:26Z</time></trkpt><trkpt lat="41.501870710875274" lon="23.82110430468777"><ele>521.0</ele><time>2026-05-03T17:32:27Z</time></trkpt><trkpt lat="41.501950208549644" lon="23.821072289790948"><ele>521.0</ele><time>2026-05-03T17:32:28Z</time></trkpt><trkpt lat="41.50201566514047" lon="23.82104592944061"><ele>521.0</ele><time>2026-05-03T17:32:29Z</time></trkpt><trkpt lat="41.50207994365738" lon="23.821020043596217"><ele>521.0</ele><time>2026-05-03T17:32:30Z</time></trkpt><trkpt lat="41.50213589092443" lon="23.82094609339284"><ele>521.0</ele><time>2026-05-03T17:32:31Z</time></trkpt><trkpt lat="41.50219342798416" lon="23.820896193824197"><ele>521.0</ele><time>2026-05-03T17:32:32Z</time></trkpt><trkpt lat="41.50228384437931" lon="23.820817779328667"><ele>521.0</ele><time>2026-05-03T17:32:34Z</time></trkpt><trkpt lat="41.50239374820325" lon="23.82072246442093"><ele>521.0</ele><time>2026-05-03T17:32:36Z</time></trkpt><trkpt lat="41.502432440202135" lon="23.820648096741806"><ele>521.0</ele><time>2026-05-03T17:32:37Z</time></trkpt><trkpt lat="41.502494903716595" lon="23.82059479189485"><ele>521.0</ele><time>2026-05-03T17:32:38Z</time></trkpt><trkpt lat="41.50257253257698" lon="23.820539821286786"><ele>521.0</ele><time>2026-05-03T17:32:39Z</time></trkpt><trkpt lat="41.50265551784871" lon="23.820550396243426"><ele>521.0</ele><time>2026-05-03T17:32:40Z</time></trkpt><trkpt lat="41.502736023778574" lon="23.82052867027438"><ele>521.0</ele><time>2026-05-03T17:32:41Z</time></trkpt><trkpt lat="41.502836899707056" lon="23.82048698722762"><ele>521.0</ele><time>2026-05-03T17:32:42.001Z</time></trkpt><trkpt lat="41.50293753124918" lon="23.820481338789246"><ele>521.0</ele><time>2026-05-03T17:32:43Z</time></trkpt><trkpt lat="41.50303251300614" lon="23.820458182546812"><ele>521.0</ele><time>2026-05-03T17:32:44Z</time></trkpt><trkpt lat="41.50311057494807" lon="23.82044209026514"><ele>521.0</ele><time>2026-05-03T17:32:45Z</time></trkpt><trkpt lat="41.50318064474334" lon="23.820427180158603"><ele>521.3333333333333</ele><time>2026-05-03T17:32:46.001Z</time></trkpt><trkpt lat="41.50325641499413" lon="23.820411095562218"><ele>521.6666666666666</ele><time>2026-05-03T17:32:47.001Z</time></trkpt><trkpt lat="41.503326052001036" lon="23.820396312938062"><ele>522.0</ele><time>2026-05-03T17:32:48.001Z</time></trkpt><trkpt lat="41.50338582420159" lon="23.820361577721624"><ele>522.3333333333334</ele><time>2026-05-03T17:32:49.001Z</time></trkpt><trkpt lat="41.503490354359975" lon="23.820341303795733"><ele>522.6666666666667</ele><time>2026-05-03T17:32:51.001Z</time></trkpt><trkpt lat="41.5035624715944" lon="23.820346164385338"><ele>523.0</ele><time>2026-05-03T17:32:53.001Z</time></trkpt><trkpt lat="41.503626691525064" lon="23.820315698076147"><ele>523.0</ele><time>2026-05-03T17:32:56.001Z</time></trkpt><trkpt lat="41.50363356340331" lon="23.820214990797428"><ele>523.0</ele><time>2026-05-03T17:32:58.001Z</time></trkpt><trkpt lat="41.50373101059247" lon="23.820201772004836"><ele>523.0</ele><time>2026-05-03T17:33:01.001Z</time></trkpt><trkpt lat="41.50381535735401" lon="23.820256010718154"><ele>523.0</ele><time>2026-05-03T17:33:04.001Z</time></trkpt><trkpt lat="41.50389508170297" lon="23.820201354103798"><ele>523.0</ele><time>2026-05-03T18:01:04Z</time></trkpt><trkpt lat="41.5039371889871" lon="23.82008383011652"><ele>523.0</ele><time>2026-05-03T18:01:06Z</time></trkpt><trkpt lat="41.50378416412476" lon="23.82009310081258"><ele>523.0</ele><time>2026-05-03T18:01:10Z</time></trkpt><trkpt lat="41.503733240219255" lon="23.820155975157245"><ele>523.0</ele><time>2026-05-03T18:01:11Z</time></trkpt><trkpt lat="41.503681810284974" lon="23.82022329735441"><ele>523.0</ele><time>2026-05-03T18:01:12Z</time></trkpt><trkpt lat="41.503620059376146" lon="23.820301006200605"><ele>523.0</ele><time>2026-05-03T18:01:13Z</time></trkpt><trkpt lat="41.503559448481205" lon="23.820325872216134"><ele>523.0</ele><time>2026-05-03T18:01:14Z</time></trkpt><trkpt lat="41.50344755872404" lon="23.820325647017217"><ele>523.0</ele><time>2026-05-03T18:01:15Z</time></trkpt><trkpt lat="41.50328590065787" lon="23.820359963973495"><ele>523.0</ele><time>2026-05-03T18:01:16Z</time></trkpt><trkpt lat="41.50309117649048" lon="23.82040135371973"><ele>523.0</ele><time>2026-05-03T18:01:17Z</time></trkpt><trkpt lat="41.502914499442554" lon="23.820441904148744"><ele>522.6</ele><time>2026-05-03T18:01:18Z</time></trkpt><trkpt lat="41.50277827829159" lon="23.82048883110493"><ele>522.1999999999999</ele><time>2026-05-03T18:01:19Z</time></trkpt><trkpt lat="41.50267806920246" lon="23.820509249820887"><ele>521.8</ele><time>2026-05-03T18:01:20Z</time></trkpt><trkpt lat="41.50259425191837" lon="23.82052773313747"><ele>521.4</ele><time>2026-05-03T18:01:21Z</time></trkpt><trkpt lat="41.50249997388835" lon="23.820547158331504"><ele>521.0</ele><time>2026-05-03T18:01:22Z</time></trkpt><trkpt lat="41.502404603278244" lon="23.820658052437633"><ele>521.0</ele><time>2026-05-03T18:01:23Z</time></trkpt><trkpt lat="41.50231746965574" lon="23.820742012881205"><ele>521.0</ele><time>2026-05-03T18:01:24Z</time></trkpt><trkpt lat="41.502211148414425" lon="23.82084620330662"><ele>521.0</ele><time>2026-05-03T18:01:25Z</time></trkpt><trkpt lat="41.50208550925445" lon="23.82096017854013"><ele>521.0</ele><time>2026-05-03T18:01:26Z</time></trkpt><trkpt lat="41.50199445739862" lon="23.821025326673315"><ele>521.0</ele><time>2026-05-03T18:01:27Z</time></trkpt><trkpt lat="41.501920349204774" lon="23.821054465964124"><ele>521.0</ele><time>2026-05-03T18:01:28Z</time></trkpt><trkpt lat="41.50184182140878" lon="23.821079568258913"><ele>521.0</ele><time>2026-05-03T18:01:29Z</time></trkpt><trkpt lat="41.50177079086088" lon="23.821107243055856"><ele>521.0</ele><time>2026-05-03T18:01:30Z</time></trkpt><trkpt lat="41.50166591346849" lon="23.821099607378972"><ele>521.0</ele><time>2026-05-03T18:01:32Z</time></trkpt><trkpt lat="41.50162003601973" lon="23.821158957214656"><ele>521.0</ele><time>2026-05-03T18:01:33Z</time></trkpt><trkpt lat="41.501594648651704" lon="23.821265441422227"><ele>521.0</ele><time>2026-05-03T18:01:34Z</time></trkpt><trkpt lat="41.50157675828022" lon="23.82135594145044"><ele>521.0</ele><time>2026-05-03T18:01:35Z</time></trkpt><trkpt lat="41.501565492639095" lon="23.821458536815364"><ele>521.0</ele><time>2026-05-03T18:01:36Z</time></trkpt><trkpt lat="41.501547897139105" lon="23.821551147574105"><ele>521.0</ele><time>2026-05-03T18:01:37Z</time></trkpt><trkpt lat="41.5015257011605" lon="23.821703326809946"><ele>521.0</ele><time>2026-05-03T18:01:39Z</time></trkpt><trkpt lat="41.50149192974813" lon="23.82183739900418"><ele>521.0</ele><time>2026-05-03T18:01:41Z</time></trkpt><trkpt lat="41.50156198925001" lon="23.821919796801392"><ele>522.8</ele><time>2026-05-03T18:01:42Z</time></trkpt><trkpt lat="41.501613686171645" lon="23.821992669222606"><ele>524.6</ele><time>2026-05-03T18:01:43Z</time></trkpt><trkpt lat="41.50168385937611" lon="23.82208483761856"><ele>526.4</ele><time>2026-05-03T18:01:44Z</time></trkpt><trkpt lat="41.501772682978455" lon="23.822182930232422"><ele>528.2</ele><time>2026-05-03T18:01:45Z</time></trkpt><trkpt lat="41.501825075514624" lon="23.822280947069757"><ele>530.0</ele><time>2026-05-03T18:01:46Z</time></trkpt><trkpt lat="41.50188290902129" lon="23.822362264425333"><ele>530.0</ele><time>2026-05-03T18:01:47Z</time></trkpt><trkpt lat="41.501929989501306" lon="23.82247538999324"><ele>530.0</ele><time>2026-05-03T18:01:48Z</time></trkpt><trkpt lat="41.501983874911346" lon="23.822575243005375"><ele>530.0</ele><time>2026-05-03T18:01:49Z</time></trkpt><trkpt lat="41.5020205070139" lon="23.822656354750645"><ele>530.0</ele><time>2026-05-03T18:01:50Z</time></trkpt><trkpt lat="41.50204800282688" lon="23.822745635054037"><ele>530.0</ele><time>2026-05-03T18:01:51Z</time></trkpt><trkpt lat="41.50205066676454" lon="23.822842130703012"><ele>530.0</ele><time>2026-05-03T18:01:52Z</time></trkpt><trkpt lat="41.502067936783725" lon="23.822940873514597"><ele>527.6666666666666</ele><time>2026-05-03T18:01:53Z</time></trkpt><trkpt lat="41.502083469405655" lon="23.82302968258556"><ele>525.3333333333333</ele><time>2026-05-03T18:01:54Z</time></trkpt><trkpt lat="41.50209804323847" lon="23.823134751036577"><ele>523.0</ele><time>2026-05-03T18:01:55Z</time></trkpt><trkpt lat="41.50212656169906" lon="23.823224248206255"><ele>520.6666666666666</ele><time>2026-05-03T18:01:56Z</time></trkpt><trkpt lat="41.502129804029835" lon="23.82335991318053"><ele>518.3333333333334</ele><time>2026-05-03T18:01:58Z</time></trkpt><trkpt lat="41.50215551661852" lon="23.823441218531933"><ele>516.0</ele><time>2026-05-03T18:02:00Z</time></trkpt><trkpt lat="41.5022725351433" lon="23.82344782027852"><ele>516.0</ele><time>2026-05-03T18:02:04Z</time></trkpt><trkpt lat="41.50236687696705" lon="23.82335507222433"><ele>516.0</ele><time>2026-05-03T18:02:05Z</time></trkpt><trkpt lat="41.50245232167322" lon="23.82327372496608"><ele>516.0</ele><time>2026-05-03T18:02:07Z</time></trkpt><trkpt lat="41.502543778514756" lon="23.823194640845426"><ele>516.0</ele><time>2026-05-03T18:02:09Z</time></trkpt><trkpt lat="41.502616673305134" lon="23.823136341073187"><ele>516.0</ele><time>2026-05-03T18:02:11Z</time></trkpt><trkpt lat="41.50267741767249" lon="23.823082649318838"><ele>516.0</ele><time>2026-05-03T18:02:13Z</time></trkpt><trkpt lat="41.50274149324525" lon="23.823030452450272"><ele>516.0</ele><time>2026-05-03T18:02:15Z</time></trkpt><trkpt lat="41.50279691212868" lon="23.822989188628924"><ele>516.0</ele><time>2026-05-03T18:02:17Z</time></trkpt><trkpt lat="41.50285686351701" lon="23.82303898005489"><ele>516.0</ele><time>2026-05-03T18:02:41Z</time></trkpt><trkpt lat="41.50289248480585" lon="23.823118119867107"><ele>516.0</ele><time>2026-05-03T18:02:47Z</time></trkpt></trkseg></trk></gpx>